<?xml version="1.0" encoding="UTF-8" standalone="no" ?>
<gpx xmlns="http://www.topografix.com/GPX/1/1" xmlns:xsi="http://www.w3.org/2001/XMLSchema-instance" xsi:schemaLocation="http://www.topografix.com/GPX/1/1 http://www.topografix.com/GPX/1/1/gpx.xsd" version="1.1" creator="VisuGPX - https://www.visugpx.com">
  <metadata>
    <name>Sirod-Côte Poire-Crans-Treffay...</name>
  </metadata>
  <trk>
    <name><![CDATA[Sirod-Côte Poire-Crans-Treffay..._1]]></name>
    <extensions>
      <line xmlns="http://www.topografix.com/GPX/gpx_style/0/2">
        <color>0000FF</color>
        <width>4</width>
      </line>
    </extensions>
    <trkseg>
      <trkpt lat="46.73228" lon="5.98638">
        <ele>558.4</ele>
        <time>2022-03-03T07:51:05Z</time>
      </trkpt>
      <trkpt lat="46.73226" lon="5.98632">
        <ele>581.2</ele>
        <time>2022-03-03T07:51:08Z</time>
      </trkpt>
      <trkpt lat="46.73222" lon="5.98634">
        <ele>599.6</ele>
        <time>2022-03-03T07:51:13Z</time>
      </trkpt>
      <trkpt lat="46.73222" lon="5.98628">
        <ele>613.8</ele>
        <time>2022-03-03T07:51:20Z</time>
      </trkpt>
      <trkpt lat="46.73217" lon="5.98628">
        <ele>618.2</ele>
        <time>2022-03-03T07:51:29Z</time>
      </trkpt>
      <trkpt lat="46.73213" lon="5.98632">
        <ele>618.5</ele>
        <time>2022-03-03T07:52:20Z</time>
      </trkpt>
      <trkpt lat="46.73208" lon="5.98632">
        <ele>617.9</ele>
        <time>2022-03-03T07:52:25Z</time>
      </trkpt>
      <trkpt lat="46.73203" lon="5.98633">
        <ele>616.1</ele>
        <time>2022-03-03T07:52:40Z</time>
      </trkpt>
      <trkpt lat="46.73198" lon="5.98634">
        <ele>616.3</ele>
        <time>2022-03-03T07:52:54Z</time>
      </trkpt>
      <trkpt lat="46.73193" lon="5.98634">
        <ele>616.9</ele>
        <time>2022-03-03T07:53:00Z</time>
      </trkpt>
      <trkpt lat="46.73196" lon="5.98628">
        <ele>618.3</ele>
        <time>2022-03-03T07:53:08Z</time>
      </trkpt>
      <trkpt lat="46.73198" lon="5.98621">
        <ele>619.1</ele>
        <time>2022-03-03T07:53:14Z</time>
      </trkpt>
      <trkpt lat="46.73199" lon="5.98615">
        <ele>620.2</ele>
        <time>2022-03-03T07:53:19Z</time>
      </trkpt>
      <trkpt lat="46.732" lon="5.98608">
        <ele>621.4</ele>
        <time>2022-03-03T07:53:24Z</time>
      </trkpt>
      <trkpt lat="46.73201" lon="5.986">
        <ele>623.6</ele>
        <time>2022-03-03T07:53:32Z</time>
      </trkpt>
      <trkpt lat="46.73204" lon="5.98594">
        <ele>624.2</ele>
        <time>2022-03-03T07:53:36Z</time>
      </trkpt>
      <trkpt lat="46.73207" lon="5.98587">
        <ele>624.5</ele>
        <time>2022-03-03T07:53:40Z</time>
      </trkpt>
      <trkpt lat="46.73209" lon="5.9858">
        <ele>625</ele>
        <time>2022-03-03T07:53:46Z</time>
      </trkpt>
      <trkpt lat="46.73214" lon="5.98577">
        <ele>625.1</ele>
        <time>2022-03-03T07:53:51Z</time>
      </trkpt>
      <trkpt lat="46.73218" lon="5.98576">
        <ele>624.6</ele>
        <time>2022-03-03T07:53:56Z</time>
      </trkpt>
      <trkpt lat="46.73222" lon="5.98574">
        <ele>624.4</ele>
        <time>2022-03-03T07:54:03Z</time>
      </trkpt>
      <trkpt lat="46.73225" lon="5.98568">
        <ele>624.4</ele>
        <time>2022-03-03T07:54:07Z</time>
      </trkpt>
      <trkpt lat="46.73228" lon="5.98562">
        <ele>624.3</ele>
        <time>2022-03-03T07:54:12Z</time>
      </trkpt>
      <trkpt lat="46.73233" lon="5.9856">
        <ele>623.4</ele>
        <time>2022-03-03T07:54:16Z</time>
      </trkpt>
      <trkpt lat="46.73237" lon="5.98556">
        <ele>622.4</ele>
        <time>2022-03-03T07:54:20Z</time>
      </trkpt>
      <trkpt lat="46.7324" lon="5.98551">
        <ele>621</ele>
        <time>2022-03-03T07:54:24Z</time>
      </trkpt>
      <trkpt lat="46.73243" lon="5.98545">
        <ele>620.2</ele>
        <time>2022-03-03T07:54:27Z</time>
      </trkpt>
      <trkpt lat="46.73244" lon="5.98537">
        <ele>619.3</ele>
        <time>2022-03-03T07:54:31Z</time>
      </trkpt>
      <trkpt lat="46.73245" lon="5.9853">
        <ele>618.9</ele>
        <time>2022-03-03T07:54:34Z</time>
      </trkpt>
      <trkpt lat="46.73246" lon="5.98523">
        <ele>618.5</ele>
        <time>2022-03-03T07:54:37Z</time>
      </trkpt>
      <trkpt lat="46.73247" lon="5.98515">
        <ele>617.8</ele>
        <time>2022-03-03T07:54:41Z</time>
      </trkpt>
      <trkpt lat="46.73248" lon="5.98508">
        <ele>616</ele>
        <time>2022-03-03T07:54:47Z</time>
      </trkpt>
      <trkpt lat="46.73249" lon="5.98502">
        <ele>614.6</ele>
        <time>2022-03-03T07:54:53Z</time>
      </trkpt>
      <trkpt lat="46.73252" lon="5.98495">
        <ele>613.6</ele>
        <time>2022-03-03T07:54:58Z</time>
      </trkpt>
      <trkpt lat="46.73256" lon="5.98491">
        <ele>613.2</ele>
        <time>2022-03-03T07:55:01Z</time>
      </trkpt>
      <trkpt lat="46.73261" lon="5.98486">
        <ele>612.8</ele>
        <time>2022-03-03T07:55:05Z</time>
      </trkpt>
      <trkpt lat="46.73265" lon="5.98481">
        <ele>612.6</ele>
        <time>2022-03-03T07:55:09Z</time>
      </trkpt>
      <trkpt lat="46.73267" lon="5.98474">
        <ele>612.4</ele>
        <time>2022-03-03T07:55:13Z</time>
      </trkpt>
      <trkpt lat="46.73268" lon="5.98467">
        <ele>612.6</ele>
        <time>2022-03-03T07:55:16Z</time>
      </trkpt>
      <trkpt lat="46.7327" lon="5.98461">
        <ele>612.7</ele>
        <time>2022-03-03T07:55:20Z</time>
      </trkpt>
      <trkpt lat="46.73271" lon="5.98454">
        <ele>613</ele>
        <time>2022-03-03T07:55:25Z</time>
      </trkpt>
      <trkpt lat="46.73272" lon="5.98447">
        <ele>613.4</ele>
        <time>2022-03-03T07:55:30Z</time>
      </trkpt>
      <trkpt lat="46.73276" lon="5.98441">
        <ele>614.3</ele>
        <time>2022-03-03T07:55:35Z</time>
      </trkpt>
      <trkpt lat="46.7328" lon="5.98435">
        <ele>615.2</ele>
        <time>2022-03-03T07:55:40Z</time>
      </trkpt>
      <trkpt lat="46.73284" lon="5.98432">
        <ele>615.4</ele>
        <time>2022-03-03T07:55:44Z</time>
      </trkpt>
      <trkpt lat="46.73288" lon="5.98429">
        <ele>615.8</ele>
        <time>2022-03-03T07:55:48Z</time>
      </trkpt>
      <trkpt lat="46.73292" lon="5.98424">
        <ele>616.5</ele>
        <time>2022-03-03T07:55:54Z</time>
      </trkpt>
      <trkpt lat="46.73295" lon="5.98419">
        <ele>615.3</ele>
        <time>2022-03-03T07:56:00Z</time>
      </trkpt>
      <trkpt lat="46.73297" lon="5.98412">
        <ele>613.6</ele>
        <time>2022-03-03T07:56:05Z</time>
      </trkpt>
      <trkpt lat="46.73299" lon="5.98406">
        <ele>612.9</ele>
        <time>2022-03-03T07:56:08Z</time>
      </trkpt>
      <trkpt lat="46.733" lon="5.98399">
        <ele>612.3</ele>
        <time>2022-03-03T07:56:12Z</time>
      </trkpt>
      <trkpt lat="46.73302" lon="5.98392">
        <ele>612.4</ele>
        <time>2022-03-03T07:56:16Z</time>
      </trkpt>
      <trkpt lat="46.73303" lon="5.98385">
        <ele>612.2</ele>
        <time>2022-03-03T07:56:23Z</time>
      </trkpt>
      <trkpt lat="46.733" lon="5.98379">
        <ele>611.1</ele>
        <time>2022-03-03T07:56:29Z</time>
      </trkpt>
      <trkpt lat="46.73296" lon="5.98376">
        <ele>610.3</ele>
        <time>2022-03-03T07:56:34Z</time>
      </trkpt>
      <trkpt lat="46.73292" lon="5.98372">
        <ele>610.4</ele>
        <time>2022-03-03T07:56:39Z</time>
      </trkpt>
      <trkpt lat="46.73288" lon="5.98368">
        <ele>610.3</ele>
        <time>2022-03-03T07:56:44Z</time>
      </trkpt>
      <trkpt lat="46.73283" lon="5.98366">
        <ele>610.1</ele>
        <time>2022-03-03T07:56:48Z</time>
      </trkpt>
      <trkpt lat="46.73279" lon="5.98363">
        <ele>610.2</ele>
        <time>2022-03-03T07:56:53Z</time>
      </trkpt>
      <trkpt lat="46.73274" lon="5.98362">
        <ele>610.2</ele>
        <time>2022-03-03T07:56:59Z</time>
      </trkpt>
      <trkpt lat="46.7327" lon="5.9836">
        <ele>610.3</ele>
        <time>2022-03-03T07:57:03Z</time>
      </trkpt>
      <trkpt lat="46.73265" lon="5.98359">
        <ele>608.6</ele>
        <time>2022-03-03T07:57:08Z</time>
      </trkpt>
      <trkpt lat="46.7326" lon="5.9836">
        <ele>606.1</ele>
        <time>2022-03-03T07:57:12Z</time>
      </trkpt>
      <trkpt lat="46.73255" lon="5.98359">
        <ele>602.9</ele>
        <time>2022-03-03T07:57:18Z</time>
      </trkpt>
      <trkpt lat="46.73251" lon="5.98356">
        <ele>601</ele>
        <time>2022-03-03T07:57:23Z</time>
      </trkpt>
      <trkpt lat="46.73247" lon="5.9835">
        <ele>601.2</ele>
        <time>2022-03-03T07:57:27Z</time>
      </trkpt>
      <trkpt lat="46.73245" lon="5.98344">
        <ele>602</ele>
        <time>2022-03-03T07:57:30Z</time>
      </trkpt>
      <trkpt lat="46.73243" lon="5.98337">
        <ele>602.9</ele>
        <time>2022-03-03T07:57:33Z</time>
      </trkpt>
      <trkpt lat="46.73241" lon="5.9833">
        <ele>604.2</ele>
        <time>2022-03-03T07:57:37Z</time>
      </trkpt>
      <trkpt lat="46.7324" lon="5.98322">
        <ele>605.8</ele>
        <time>2022-03-03T07:57:41Z</time>
      </trkpt>
      <trkpt lat="46.7324" lon="5.98314">
        <ele>607.6</ele>
        <time>2022-03-03T07:57:45Z</time>
      </trkpt>
      <trkpt lat="46.73239" lon="5.98307">
        <ele>609.3</ele>
        <time>2022-03-03T07:57:49Z</time>
      </trkpt>
      <trkpt lat="46.73239" lon="5.983">
        <ele>610.4</ele>
        <time>2022-03-03T07:57:54Z</time>
      </trkpt>
      <trkpt lat="46.73242" lon="5.98293">
        <ele>611</ele>
        <time>2022-03-03T07:58:00Z</time>
      </trkpt>
      <trkpt lat="46.73244" lon="5.98287">
        <ele>611.1</ele>
        <time>2022-03-03T07:58:05Z</time>
      </trkpt>
      <trkpt lat="46.73246" lon="5.98281">
        <ele>611.3</ele>
        <time>2022-03-03T07:58:10Z</time>
      </trkpt>
      <trkpt lat="46.73249" lon="5.98275">
        <ele>612.4</ele>
        <time>2022-03-03T07:58:17Z</time>
      </trkpt>
      <trkpt lat="46.73252" lon="5.98269">
        <ele>612.6</ele>
        <time>2022-03-03T07:58:22Z</time>
      </trkpt>
      <trkpt lat="46.73255" lon="5.98262">
        <ele>612.5</ele>
        <time>2022-03-03T07:58:26Z</time>
      </trkpt>
      <trkpt lat="46.73259" lon="5.98257">
        <ele>612.1</ele>
        <time>2022-03-03T07:58:31Z</time>
      </trkpt>
      <trkpt lat="46.73262" lon="5.98251">
        <ele>611.8</ele>
        <time>2022-03-03T07:58:35Z</time>
      </trkpt>
      <trkpt lat="46.73264" lon="5.98244">
        <ele>611.6</ele>
        <time>2022-03-03T07:58:39Z</time>
      </trkpt>
      <trkpt lat="46.73267" lon="5.98237">
        <ele>611.7</ele>
        <time>2022-03-03T07:58:43Z</time>
      </trkpt>
      <trkpt lat="46.7327" lon="5.98231">
        <ele>611.6</ele>
        <time>2022-03-03T07:58:47Z</time>
      </trkpt>
      <trkpt lat="46.73271" lon="5.98224">
        <ele>611.7</ele>
        <time>2022-03-03T07:58:54Z</time>
      </trkpt>
      <trkpt lat="46.73274" lon="5.98219">
        <ele>611.5</ele>
        <time>2022-03-03T07:58:59Z</time>
      </trkpt>
      <trkpt lat="46.73278" lon="5.98215">
        <ele>611.2</ele>
        <time>2022-03-03T07:59:02Z</time>
      </trkpt>
      <trkpt lat="46.73283" lon="5.98211">
        <ele>611.2</ele>
        <time>2022-03-03T07:59:05Z</time>
      </trkpt>
      <trkpt lat="46.73287" lon="5.98206">
        <ele>611.6</ele>
        <time>2022-03-03T07:59:08Z</time>
      </trkpt>
      <trkpt lat="46.73289" lon="5.98201">
        <ele>612</ele>
        <time>2022-03-03T07:59:12Z</time>
      </trkpt>
      <trkpt lat="46.73293" lon="5.98195">
        <ele>611.7</ele>
        <time>2022-03-03T07:59:17Z</time>
      </trkpt>
      <trkpt lat="46.73296" lon="5.98189">
        <ele>610.8</ele>
        <time>2022-03-03T07:59:24Z</time>
      </trkpt>
      <trkpt lat="46.73299" lon="5.98183">
        <ele>610.4</ele>
        <time>2022-03-03T07:59:29Z</time>
      </trkpt>
      <trkpt lat="46.73302" lon="5.98177">
        <ele>609.8</ele>
        <time>2022-03-03T07:59:34Z</time>
      </trkpt>
      <trkpt lat="46.73307" lon="5.98174">
        <ele>609.3</ele>
        <time>2022-03-03T07:59:39Z</time>
      </trkpt>
      <trkpt lat="46.73311" lon="5.98169">
        <ele>608.5</ele>
        <time>2022-03-03T07:59:45Z</time>
      </trkpt>
      <trkpt lat="46.73314" lon="5.98164">
        <ele>607.7</ele>
        <time>2022-03-03T07:59:50Z</time>
      </trkpt>
      <trkpt lat="46.73317" lon="5.98157">
        <ele>607.2</ele>
        <time>2022-03-03T07:59:55Z</time>
      </trkpt>
      <trkpt lat="46.73318" lon="5.9815">
        <ele>607.1</ele>
        <time>2022-03-03T07:59:58Z</time>
      </trkpt>
      <trkpt lat="46.73321" lon="5.98143">
        <ele>607.2</ele>
        <time>2022-03-03T08:00:03Z</time>
      </trkpt>
      <trkpt lat="46.73324" lon="5.98137">
        <ele>607.4</ele>
        <time>2022-03-03T08:00:08Z</time>
      </trkpt>
      <trkpt lat="46.73327" lon="5.98132">
        <ele>607.6</ele>
        <time>2022-03-03T08:00:13Z</time>
      </trkpt>
      <trkpt lat="46.73329" lon="5.98126">
        <ele>607.5</ele>
        <time>2022-03-03T08:00:19Z</time>
      </trkpt>
      <trkpt lat="46.73331" lon="5.9812">
        <ele>607.2</ele>
        <time>2022-03-03T08:00:24Z</time>
      </trkpt>
      <trkpt lat="46.73332" lon="5.98113">
        <ele>607</ele>
        <time>2022-03-03T08:00:29Z</time>
      </trkpt>
      <trkpt lat="46.73336" lon="5.98106">
        <ele>607.4</ele>
        <time>2022-03-03T08:00:33Z</time>
      </trkpt>
      <trkpt lat="46.73339" lon="5.98101">
        <ele>608</ele>
        <time>2022-03-03T08:00:37Z</time>
      </trkpt>
      <trkpt lat="46.73341" lon="5.98094">
        <ele>609.2</ele>
        <time>2022-03-03T08:00:42Z</time>
      </trkpt>
      <trkpt lat="46.73343" lon="5.98087">
        <ele>609.8</ele>
        <time>2022-03-03T08:00:47Z</time>
      </trkpt>
      <trkpt lat="46.73345" lon="5.9808">
        <ele>608.9</ele>
        <time>2022-03-03T08:00:52Z</time>
      </trkpt>
      <trkpt lat="46.73348" lon="5.98074">
        <ele>607.5</ele>
        <time>2022-03-03T08:00:57Z</time>
      </trkpt>
      <trkpt lat="46.7335" lon="5.98067">
        <ele>606.7</ele>
        <time>2022-03-03T08:01:01Z</time>
      </trkpt>
      <trkpt lat="46.73351" lon="5.98059">
        <ele>606.5</ele>
        <time>2022-03-03T08:01:05Z</time>
      </trkpt>
      <trkpt lat="46.73352" lon="5.98052">
        <ele>606.6</ele>
        <time>2022-03-03T08:01:09Z</time>
      </trkpt>
      <trkpt lat="46.73354" lon="5.98045">
        <ele>606.8</ele>
        <time>2022-03-03T08:01:13Z</time>
      </trkpt>
      <trkpt lat="46.73356" lon="5.98037">
        <ele>607</ele>
        <time>2022-03-03T08:01:17Z</time>
      </trkpt>
      <trkpt lat="46.73357" lon="5.98031">
        <ele>606.7</ele>
        <time>2022-03-03T08:01:21Z</time>
      </trkpt>
      <trkpt lat="46.73361" lon="5.98026">
        <ele>606.2</ele>
        <time>2022-03-03T08:01:27Z</time>
      </trkpt>
      <trkpt lat="46.73363" lon="5.9802">
        <ele>606.3</ele>
        <time>2022-03-03T08:01:32Z</time>
      </trkpt>
      <trkpt lat="46.73365" lon="5.98013">
        <ele>606.2</ele>
        <time>2022-03-03T08:01:36Z</time>
      </trkpt>
      <trkpt lat="46.73366" lon="5.98006">
        <ele>606.1</ele>
        <time>2022-03-03T08:01:41Z</time>
      </trkpt>
      <trkpt lat="46.73368" lon="5.97998">
        <ele>606.3</ele>
        <time>2022-03-03T08:01:46Z</time>
      </trkpt>
      <trkpt lat="46.7337" lon="5.97992">
        <ele>607.1</ele>
        <time>2022-03-03T08:01:51Z</time>
      </trkpt>
      <trkpt lat="46.73373" lon="5.97987">
        <ele>607.7</ele>
        <time>2022-03-03T08:01:56Z</time>
      </trkpt>
      <trkpt lat="46.73375" lon="5.97979">
        <ele>608.2</ele>
        <time>2022-03-03T08:02:00Z</time>
      </trkpt>
      <trkpt lat="46.73376" lon="5.97971">
        <ele>608.4</ele>
        <time>2022-03-03T08:02:04Z</time>
      </trkpt>
      <trkpt lat="46.73377" lon="5.97964">
        <ele>608.2</ele>
        <time>2022-03-03T08:02:09Z</time>
      </trkpt>
      <trkpt lat="46.73379" lon="5.97957">
        <ele>607.4</ele>
        <time>2022-03-03T08:02:13Z</time>
      </trkpt>
      <trkpt lat="46.73381" lon="5.97951">
        <ele>606.5</ele>
        <time>2022-03-03T08:02:17Z</time>
      </trkpt>
      <trkpt lat="46.73382" lon="5.97944">
        <ele>605.6</ele>
        <time>2022-03-03T08:02:21Z</time>
      </trkpt>
      <trkpt lat="46.73384" lon="5.97938">
        <ele>605</ele>
        <time>2022-03-03T08:02:25Z</time>
      </trkpt>
      <trkpt lat="46.73387" lon="5.97931">
        <ele>605.1</ele>
        <time>2022-03-03T08:02:29Z</time>
      </trkpt>
      <trkpt lat="46.7339" lon="5.97926">
        <ele>606</ele>
        <time>2022-03-03T08:02:34Z</time>
      </trkpt>
      <trkpt lat="46.73392" lon="5.9792">
        <ele>607.1</ele>
        <time>2022-03-03T08:02:40Z</time>
      </trkpt>
      <trkpt lat="46.73394" lon="5.97912">
        <ele>607.9</ele>
        <time>2022-03-03T08:02:45Z</time>
      </trkpt>
      <trkpt lat="46.73397" lon="5.97907">
        <ele>608.4</ele>
        <time>2022-03-03T08:02:49Z</time>
      </trkpt>
      <trkpt lat="46.734" lon="5.979">
        <ele>609</ele>
        <time>2022-03-03T08:02:54Z</time>
      </trkpt>
      <trkpt lat="46.73403" lon="5.97895">
        <ele>609</ele>
        <time>2022-03-03T08:02:59Z</time>
      </trkpt>
      <trkpt lat="46.73404" lon="5.97888">
        <ele>608.7</ele>
        <time>2022-03-03T08:03:03Z</time>
      </trkpt>
      <trkpt lat="46.73405" lon="5.97881">
        <ele>607.7</ele>
        <time>2022-03-03T08:03:08Z</time>
      </trkpt>
      <trkpt lat="46.73408" lon="5.97875">
        <ele>606.5</ele>
        <time>2022-03-03T08:03:16Z</time>
      </trkpt>
      <trkpt lat="46.7341" lon="5.97867">
        <ele>606</ele>
        <time>2022-03-03T08:03:23Z</time>
      </trkpt>
      <trkpt lat="46.73411" lon="5.9786">
        <ele>605.4</ele>
        <time>2022-03-03T08:03:29Z</time>
      </trkpt>
      <trkpt lat="46.7341" lon="5.97853">
        <ele>605</ele>
        <time>2022-03-03T08:03:33Z</time>
      </trkpt>
      <trkpt lat="46.73409" lon="5.97844">
        <ele>604.6</ele>
        <time>2022-03-03T08:03:37Z</time>
      </trkpt>
      <trkpt lat="46.73408" lon="5.97836">
        <ele>604.4</ele>
        <time>2022-03-03T08:03:41Z</time>
      </trkpt>
      <trkpt lat="46.73407" lon="5.97827">
        <ele>604.4</ele>
        <time>2022-03-03T08:03:45Z</time>
      </trkpt>
      <trkpt lat="46.73406" lon="5.97819">
        <ele>604.8</ele>
        <time>2022-03-03T08:03:48Z</time>
      </trkpt>
      <trkpt lat="46.73404" lon="5.97813">
        <ele>605.2</ele>
        <time>2022-03-03T08:03:51Z</time>
      </trkpt>
      <trkpt lat="46.73403" lon="5.97805">
        <ele>606</ele>
        <time>2022-03-03T08:03:54Z</time>
      </trkpt>
      <trkpt lat="46.73401" lon="5.97798">
        <ele>607.2</ele>
        <time>2022-03-03T08:03:57Z</time>
      </trkpt>
      <trkpt lat="46.734" lon="5.97791">
        <ele>608.3</ele>
        <time>2022-03-03T08:04:00Z</time>
      </trkpt>
      <trkpt lat="46.73398" lon="5.97783">
        <ele>609.7</ele>
        <time>2022-03-03T08:04:04Z</time>
      </trkpt>
      <trkpt lat="46.73395" lon="5.97777">
        <ele>612.9</ele>
        <time>2022-03-03T08:04:11Z</time>
      </trkpt>
      <trkpt lat="46.73393" lon="5.97772">
        <ele>614.9</ele>
        <time>2022-03-03T08:04:16Z</time>
      </trkpt>
      <trkpt lat="46.73391" lon="5.97765">
        <ele>615.6</ele>
        <time>2022-03-03T08:04:20Z</time>
      </trkpt>
      <trkpt lat="46.73388" lon="5.97759">
        <ele>615.9</ele>
        <time>2022-03-03T08:04:23Z</time>
      </trkpt>
      <trkpt lat="46.73385" lon="5.97752">
        <ele>616</ele>
        <time>2022-03-03T08:04:27Z</time>
      </trkpt>
      <trkpt lat="46.73384" lon="5.97746">
        <ele>615.4</ele>
        <time>2022-03-03T08:04:31Z</time>
      </trkpt>
      <trkpt lat="46.73381" lon="5.9774">
        <ele>614.6</ele>
        <time>2022-03-03T08:04:37Z</time>
      </trkpt>
      <trkpt lat="46.73377" lon="5.97735">
        <ele>614.1</ele>
        <time>2022-03-03T08:04:41Z</time>
      </trkpt>
      <trkpt lat="46.73374" lon="5.97729">
        <ele>613.1</ele>
        <time>2022-03-03T08:04:48Z</time>
      </trkpt>
      <trkpt lat="46.73371" lon="5.97724">
        <ele>613.7</ele>
        <time>2022-03-03T08:04:52Z</time>
      </trkpt>
      <trkpt lat="46.73368" lon="5.97719">
        <ele>614.7</ele>
        <time>2022-03-03T08:04:55Z</time>
      </trkpt>
      <trkpt lat="46.73364" lon="5.97713">
        <ele>615.7</ele>
        <time>2022-03-03T08:04:59Z</time>
      </trkpt>
      <trkpt lat="46.7336" lon="5.97709">
        <ele>616.3</ele>
        <time>2022-03-03T08:05:03Z</time>
      </trkpt>
      <trkpt lat="46.73356" lon="5.97704">
        <ele>617.4</ele>
        <time>2022-03-03T08:05:08Z</time>
      </trkpt>
      <trkpt lat="46.73352" lon="5.97699">
        <ele>618.3</ele>
        <time>2022-03-03T08:05:13Z</time>
      </trkpt>
      <trkpt lat="46.7335" lon="5.97693">
        <ele>619.6</ele>
        <time>2022-03-03T08:05:18Z</time>
      </trkpt>
      <trkpt lat="46.73346" lon="5.97687">
        <ele>620.1</ele>
        <time>2022-03-03T08:05:23Z</time>
      </trkpt>
      <trkpt lat="46.73343" lon="5.97682">
        <ele>620.2</ele>
        <time>2022-03-03T08:05:27Z</time>
      </trkpt>
      <trkpt lat="46.7334" lon="5.97676">
        <ele>619.9</ele>
        <time>2022-03-03T08:05:31Z</time>
      </trkpt>
      <trkpt lat="46.73338" lon="5.9767">
        <ele>619.5</ele>
        <time>2022-03-03T08:05:35Z</time>
      </trkpt>
      <trkpt lat="46.73335" lon="5.97664">
        <ele>619.2</ele>
        <time>2022-03-03T08:05:39Z</time>
      </trkpt>
      <trkpt lat="46.73333" lon="5.97657">
        <ele>618.8</ele>
        <time>2022-03-03T08:05:43Z</time>
      </trkpt>
      <trkpt lat="46.73331" lon="5.9765">
        <ele>618.2</ele>
        <time>2022-03-03T08:05:47Z</time>
      </trkpt>
      <trkpt lat="46.73329" lon="5.97643">
        <ele>617.6</ele>
        <time>2022-03-03T08:05:53Z</time>
      </trkpt>
      <trkpt lat="46.73328" lon="5.97636">
        <ele>617.4</ele>
        <time>2022-03-03T08:05:57Z</time>
      </trkpt>
      <trkpt lat="46.73324" lon="5.9763">
        <ele>616.8</ele>
        <time>2022-03-03T08:06:02Z</time>
      </trkpt>
      <trkpt lat="46.73323" lon="5.97623">
        <ele>615.5</ele>
        <time>2022-03-03T08:06:07Z</time>
      </trkpt>
      <trkpt lat="46.73321" lon="5.97617">
        <ele>614.6</ele>
        <time>2022-03-03T08:06:12Z</time>
      </trkpt>
      <trkpt lat="46.7332" lon="5.9761">
        <ele>614.2</ele>
        <time>2022-03-03T08:06:16Z</time>
      </trkpt>
      <trkpt lat="46.73319" lon="5.97603">
        <ele>614.3</ele>
        <time>2022-03-03T08:06:20Z</time>
      </trkpt>
      <trkpt lat="46.73317" lon="5.97596">
        <ele>614.3</ele>
        <time>2022-03-03T08:06:25Z</time>
      </trkpt>
      <trkpt lat="46.73316" lon="5.97589">
        <ele>613.9</ele>
        <time>2022-03-03T08:06:29Z</time>
      </trkpt>
      <trkpt lat="46.73316" lon="5.97582">
        <ele>613.4</ele>
        <time>2022-03-03T08:06:34Z</time>
      </trkpt>
      <trkpt lat="46.73316" lon="5.97575">
        <ele>613.3</ele>
        <time>2022-03-03T08:06:38Z</time>
      </trkpt>
      <trkpt lat="46.73316" lon="5.97566">
        <ele>613.3</ele>
        <time>2022-03-03T08:06:42Z</time>
      </trkpt>
      <trkpt lat="46.73317" lon="5.97559">
        <ele>612.9</ele>
        <time>2022-03-03T08:06:46Z</time>
      </trkpt>
      <trkpt lat="46.73316" lon="5.97552">
        <ele>613.2</ele>
        <time>2022-03-03T08:06:50Z</time>
      </trkpt>
      <trkpt lat="46.73316" lon="5.97545">
        <ele>613.8</ele>
        <time>2022-03-03T08:06:54Z</time>
      </trkpt>
      <trkpt lat="46.73315" lon="5.97538">
        <ele>614.3</ele>
        <time>2022-03-03T08:06:59Z</time>
      </trkpt>
      <trkpt lat="46.73313" lon="5.9753">
        <ele>614.5</ele>
        <time>2022-03-03T08:07:03Z</time>
      </trkpt>
      <trkpt lat="46.73313" lon="5.97523">
        <ele>614.3</ele>
        <time>2022-03-03T08:07:08Z</time>
      </trkpt>
      <trkpt lat="46.73311" lon="5.97515">
        <ele>613.8</ele>
        <time>2022-03-03T08:07:13Z</time>
      </trkpt>
      <trkpt lat="46.7331" lon="5.97507">
        <ele>613.1</ele>
        <time>2022-03-03T08:07:18Z</time>
      </trkpt>
      <trkpt lat="46.7331" lon="5.975">
        <ele>612.2</ele>
        <time>2022-03-03T08:07:23Z</time>
      </trkpt>
      <trkpt lat="46.73309" lon="5.97492">
        <ele>610.9</ele>
        <time>2022-03-03T08:07:28Z</time>
      </trkpt>
      <trkpt lat="46.73307" lon="5.97485">
        <ele>609.7</ele>
        <time>2022-03-03T08:07:32Z</time>
      </trkpt>
      <trkpt lat="46.73306" lon="5.97478">
        <ele>608.3</ele>
        <time>2022-03-03T08:07:36Z</time>
      </trkpt>
      <trkpt lat="46.73304" lon="5.97471">
        <ele>607.6</ele>
        <time>2022-03-03T08:07:41Z</time>
      </trkpt>
      <trkpt lat="46.73304" lon="5.97464">
        <ele>606.9</ele>
        <time>2022-03-03T08:07:45Z</time>
      </trkpt>
      <trkpt lat="46.73303" lon="5.97457">
        <ele>606.4</ele>
        <time>2022-03-03T08:07:49Z</time>
      </trkpt>
      <trkpt lat="46.73303" lon="5.9745">
        <ele>606.5</ele>
        <time>2022-03-03T08:07:54Z</time>
      </trkpt>
      <trkpt lat="46.73304" lon="5.97443">
        <ele>606.4</ele>
        <time>2022-03-03T08:08:00Z</time>
      </trkpt>
      <trkpt lat="46.73303" lon="5.97436">
        <ele>605.3</ele>
        <time>2022-03-03T08:08:05Z</time>
      </trkpt>
      <trkpt lat="46.73302" lon="5.97428">
        <ele>603.5</ele>
        <time>2022-03-03T08:08:10Z</time>
      </trkpt>
      <trkpt lat="46.73302" lon="5.9742">
        <ele>601.9</ele>
        <time>2022-03-03T08:08:14Z</time>
      </trkpt>
      <trkpt lat="46.73302" lon="5.97413">
        <ele>600.5</ele>
        <time>2022-03-03T08:08:18Z</time>
      </trkpt>
      <trkpt lat="46.73303" lon="5.97406">
        <ele>599.6</ele>
        <time>2022-03-03T08:08:22Z</time>
      </trkpt>
      <trkpt lat="46.73302" lon="5.97399">
        <ele>599.7</ele>
        <time>2022-03-03T08:08:26Z</time>
      </trkpt>
      <trkpt lat="46.73303" lon="5.97391">
        <ele>600</ele>
        <time>2022-03-03T08:08:31Z</time>
      </trkpt>
      <trkpt lat="46.73303" lon="5.97383">
        <ele>599.9</ele>
        <time>2022-03-03T08:08:36Z</time>
      </trkpt>
      <trkpt lat="46.73304" lon="5.97375">
        <ele>599.6</ele>
        <time>2022-03-03T08:08:41Z</time>
      </trkpt>
      <trkpt lat="46.73304" lon="5.97367">
        <ele>598.9</ele>
        <time>2022-03-03T08:08:46Z</time>
      </trkpt>
      <trkpt lat="46.73307" lon="5.9736">
        <ele>597.7</ele>
        <time>2022-03-03T08:08:52Z</time>
      </trkpt>
      <trkpt lat="46.73308" lon="5.97354">
        <ele>596.7</ele>
        <time>2022-03-03T08:08:56Z</time>
      </trkpt>
      <trkpt lat="46.73309" lon="5.97348">
        <ele>595.8</ele>
        <time>2022-03-03T08:09:00Z</time>
      </trkpt>
      <trkpt lat="46.73309" lon="5.97339">
        <ele>595.1</ele>
        <time>2022-03-03T08:09:04Z</time>
      </trkpt>
      <trkpt lat="46.73309" lon="5.97332">
        <ele>594.3</ele>
        <time>2022-03-03T08:09:07Z</time>
      </trkpt>
      <trkpt lat="46.73309" lon="5.97325">
        <ele>593.5</ele>
        <time>2022-03-03T08:09:11Z</time>
      </trkpt>
      <trkpt lat="46.73309" lon="5.97317">
        <ele>592.9</ele>
        <time>2022-03-03T08:09:15Z</time>
      </trkpt>
      <trkpt lat="46.7331" lon="5.9731">
        <ele>592.7</ele>
        <time>2022-03-03T08:09:20Z</time>
      </trkpt>
      <trkpt lat="46.73312" lon="5.97303">
        <ele>593.5</ele>
        <time>2022-03-03T08:09:26Z</time>
      </trkpt>
      <trkpt lat="46.73314" lon="5.97296">
        <ele>593.9</ele>
        <time>2022-03-03T08:09:30Z</time>
      </trkpt>
      <trkpt lat="46.73316" lon="5.97289">
        <ele>594.2</ele>
        <time>2022-03-03T08:09:34Z</time>
      </trkpt>
      <trkpt lat="46.73318" lon="5.97281">
        <ele>594.5</ele>
        <time>2022-03-03T08:09:38Z</time>
      </trkpt>
      <trkpt lat="46.73319" lon="5.97274">
        <ele>595</ele>
        <time>2022-03-03T08:09:42Z</time>
      </trkpt>
      <trkpt lat="46.73321" lon="5.97267">
        <ele>595.8</ele>
        <time>2022-03-03T08:09:48Z</time>
      </trkpt>
      <trkpt lat="46.73322" lon="5.9726">
        <ele>597.4</ele>
        <time>2022-03-03T08:09:56Z</time>
      </trkpt>
      <trkpt lat="46.73323" lon="5.97252">
        <ele>598.3</ele>
        <time>2022-03-03T08:10:01Z</time>
      </trkpt>
      <trkpt lat="46.73324" lon="5.97245">
        <ele>599.2</ele>
        <time>2022-03-03T08:10:06Z</time>
      </trkpt>
      <trkpt lat="46.73325" lon="5.97237">
        <ele>599.9</ele>
        <time>2022-03-03T08:10:12Z</time>
      </trkpt>
      <trkpt lat="46.73326" lon="5.97229">
        <ele>600.1</ele>
        <time>2022-03-03T08:10:17Z</time>
      </trkpt>
      <trkpt lat="46.73327" lon="5.97222">
        <ele>600.7</ele>
        <time>2022-03-03T08:10:20Z</time>
      </trkpt>
      <trkpt lat="46.73329" lon="5.97214">
        <ele>601.4</ele>
        <time>2022-03-03T08:10:24Z</time>
      </trkpt>
      <trkpt lat="46.73329" lon="5.97207">
        <ele>601.9</ele>
        <time>2022-03-03T08:10:27Z</time>
      </trkpt>
      <trkpt lat="46.73329" lon="5.972">
        <ele>602.4</ele>
        <time>2022-03-03T08:10:30Z</time>
      </trkpt>
      <trkpt lat="46.73331" lon="5.97194">
        <ele>602.6</ele>
        <time>2022-03-03T08:10:34Z</time>
      </trkpt>
      <trkpt lat="46.73331" lon="5.97186">
        <ele>602.6</ele>
        <time>2022-03-03T08:10:39Z</time>
      </trkpt>
      <trkpt lat="46.73331" lon="5.97178">
        <ele>602.8</ele>
        <time>2022-03-03T08:10:43Z</time>
      </trkpt>
      <trkpt lat="46.73331" lon="5.9717">
        <ele>602.8</ele>
        <time>2022-03-03T08:10:47Z</time>
      </trkpt>
      <trkpt lat="46.73331" lon="5.97162">
        <ele>602.4</ele>
        <time>2022-03-03T08:10:52Z</time>
      </trkpt>
      <trkpt lat="46.73332" lon="5.97156">
        <ele>601.6</ele>
        <time>2022-03-03T08:10:58Z</time>
      </trkpt>
      <trkpt lat="46.73334" lon="5.9715">
        <ele>600.8</ele>
        <time>2022-03-03T08:11:03Z</time>
      </trkpt>
      <trkpt lat="46.73336" lon="5.97143">
        <ele>599.8</ele>
        <time>2022-03-03T08:11:08Z</time>
      </trkpt>
      <trkpt lat="46.73338" lon="5.97136">
        <ele>598.9</ele>
        <time>2022-03-03T08:11:12Z</time>
      </trkpt>
      <trkpt lat="46.73341" lon="5.97131">
        <ele>598.1</ele>
        <time>2022-03-03T08:11:17Z</time>
      </trkpt>
      <trkpt lat="46.73345" lon="5.97125">
        <ele>597.8</ele>
        <time>2022-03-03T08:11:22Z</time>
      </trkpt>
      <trkpt lat="46.73349" lon="5.97121">
        <ele>597.7</ele>
        <time>2022-03-03T08:11:26Z</time>
      </trkpt>
      <trkpt lat="46.73353" lon="5.97117">
        <ele>597.8</ele>
        <time>2022-03-03T08:11:31Z</time>
      </trkpt>
      <trkpt lat="46.73357" lon="5.97112">
        <ele>597.8</ele>
        <time>2022-03-03T08:11:36Z</time>
      </trkpt>
      <trkpt lat="46.7336" lon="5.97108">
        <ele>597.9</ele>
        <time>2022-03-03T08:11:41Z</time>
      </trkpt>
      <trkpt lat="46.73365" lon="5.97103">
        <ele>597.9</ele>
        <time>2022-03-03T08:11:47Z</time>
      </trkpt>
      <trkpt lat="46.73366" lon="5.97096">
        <ele>597.9</ele>
        <time>2022-03-03T08:11:51Z</time>
      </trkpt>
      <trkpt lat="46.73366" lon="5.97088">
        <ele>598.3</ele>
        <time>2022-03-03T08:11:55Z</time>
      </trkpt>
      <trkpt lat="46.73364" lon="5.97081">
        <ele>599.7</ele>
        <time>2022-03-03T08:12:00Z</time>
      </trkpt>
      <trkpt lat="46.73362" lon="5.97074">
        <ele>600.9</ele>
        <time>2022-03-03T08:12:04Z</time>
      </trkpt>
      <trkpt lat="46.73361" lon="5.97067">
        <ele>602.1</ele>
        <time>2022-03-03T08:12:10Z</time>
      </trkpt>
      <trkpt lat="46.73358" lon="5.97061">
        <ele>603</ele>
        <time>2022-03-03T08:12:14Z</time>
      </trkpt>
      <trkpt lat="46.73356" lon="5.97054">
        <ele>604</ele>
        <time>2022-03-03T08:12:18Z</time>
      </trkpt>
      <trkpt lat="46.73354" lon="5.97048">
        <ele>605</ele>
        <time>2022-03-03T08:12:22Z</time>
      </trkpt>
      <trkpt lat="46.73352" lon="5.97041">
        <ele>605.7</ele>
        <time>2022-03-03T08:12:26Z</time>
      </trkpt>
      <trkpt lat="46.73349" lon="5.97034">
        <ele>606.1</ele>
        <time>2022-03-03T08:12:30Z</time>
      </trkpt>
      <trkpt lat="46.73347" lon="5.97027">
        <ele>606.4</ele>
        <time>2022-03-03T08:12:34Z</time>
      </trkpt>
      <trkpt lat="46.73346" lon="5.9702">
        <ele>606.3</ele>
        <time>2022-03-03T08:12:40Z</time>
      </trkpt>
      <trkpt lat="46.73347" lon="5.97013">
        <ele>605.9</ele>
        <time>2022-03-03T08:12:46Z</time>
      </trkpt>
      <trkpt lat="46.73345" lon="5.97006">
        <ele>605.8</ele>
        <time>2022-03-03T08:12:50Z</time>
      </trkpt>
      <trkpt lat="46.73342" lon="5.96999">
        <ele>605.1</ele>
        <time>2022-03-03T08:12:54Z</time>
      </trkpt>
      <trkpt lat="46.7334" lon="5.96993">
        <ele>604.6</ele>
        <time>2022-03-03T08:12:58Z</time>
      </trkpt>
      <trkpt lat="46.73338" lon="5.96987">
        <ele>604.4</ele>
        <time>2022-03-03T08:13:02Z</time>
      </trkpt>
      <trkpt lat="46.73336" lon="5.96979">
        <ele>604.9</ele>
        <time>2022-03-03T08:13:07Z</time>
      </trkpt>
      <trkpt lat="46.73335" lon="5.96972">
        <ele>605.3</ele>
        <time>2022-03-03T08:13:11Z</time>
      </trkpt>
      <trkpt lat="46.73335" lon="5.96964">
        <ele>605.3</ele>
        <time>2022-03-03T08:13:16Z</time>
      </trkpt>
      <trkpt lat="46.73334" lon="5.96958">
        <ele>605</ele>
        <time>2022-03-03T08:13:20Z</time>
      </trkpt>
      <trkpt lat="46.73332" lon="5.96951">
        <ele>604.8</ele>
        <time>2022-03-03T08:13:24Z</time>
      </trkpt>
      <trkpt lat="46.73329" lon="5.96944">
        <ele>604.9</ele>
        <time>2022-03-03T08:13:28Z</time>
      </trkpt>
      <trkpt lat="46.73326" lon="5.96938">
        <ele>605.1</ele>
        <time>2022-03-03T08:13:32Z</time>
      </trkpt>
      <trkpt lat="46.73325" lon="5.96931">
        <ele>605</ele>
        <time>2022-03-03T08:13:36Z</time>
      </trkpt>
      <trkpt lat="46.73323" lon="5.96924">
        <ele>605</ele>
        <time>2022-03-03T08:13:40Z</time>
      </trkpt>
      <trkpt lat="46.73322" lon="5.96918">
        <ele>605.1</ele>
        <time>2022-03-03T08:13:44Z</time>
      </trkpt>
      <trkpt lat="46.73321" lon="5.9691">
        <ele>605.1</ele>
        <time>2022-03-03T08:13:49Z</time>
      </trkpt>
      <trkpt lat="46.73321" lon="5.96902">
        <ele>604.8</ele>
        <time>2022-03-03T08:13:54Z</time>
      </trkpt>
      <trkpt lat="46.7332" lon="5.96894">
        <ele>604.6</ele>
        <time>2022-03-03T08:13:59Z</time>
      </trkpt>
      <trkpt lat="46.73319" lon="5.96887">
        <ele>604.9</ele>
        <time>2022-03-03T08:14:04Z</time>
      </trkpt>
      <trkpt lat="46.73316" lon="5.96881">
        <ele>604.9</ele>
        <time>2022-03-03T08:14:08Z</time>
      </trkpt>
      <trkpt lat="46.73315" lon="5.96874">
        <ele>605</ele>
        <time>2022-03-03T08:14:13Z</time>
      </trkpt>
      <trkpt lat="46.73313" lon="5.96867">
        <ele>605.4</ele>
        <time>2022-03-03T08:14:17Z</time>
      </trkpt>
      <trkpt lat="46.73311" lon="5.96861">
        <ele>606</ele>
        <time>2022-03-03T08:14:21Z</time>
      </trkpt>
      <trkpt lat="46.73308" lon="5.96856">
        <ele>606.6</ele>
        <time>2022-03-03T08:14:25Z</time>
      </trkpt>
      <trkpt lat="46.73307" lon="5.96849">
        <ele>607.1</ele>
        <time>2022-03-03T08:14:30Z</time>
      </trkpt>
      <trkpt lat="46.73306" lon="5.96843">
        <ele>607.5</ele>
        <time>2022-03-03T08:14:34Z</time>
      </trkpt>
      <trkpt lat="46.73303" lon="5.96837">
        <ele>607.6</ele>
        <time>2022-03-03T08:14:38Z</time>
      </trkpt>
      <trkpt lat="46.73302" lon="5.9683">
        <ele>607.5</ele>
        <time>2022-03-03T08:14:43Z</time>
      </trkpt>
      <trkpt lat="46.733" lon="5.96823">
        <ele>607.7</ele>
        <time>2022-03-03T08:14:48Z</time>
      </trkpt>
      <trkpt lat="46.73299" lon="5.96816">
        <ele>607.8</ele>
        <time>2022-03-03T08:14:53Z</time>
      </trkpt>
      <trkpt lat="46.73299" lon="5.96809">
        <ele>607.7</ele>
        <time>2022-03-03T08:14:58Z</time>
      </trkpt>
      <trkpt lat="46.73297" lon="5.96802">
        <ele>607.6</ele>
        <time>2022-03-03T08:15:03Z</time>
      </trkpt>
      <trkpt lat="46.73296" lon="5.96796">
        <ele>607.4</ele>
        <time>2022-03-03T08:15:07Z</time>
      </trkpt>
      <trkpt lat="46.73295" lon="5.96789">
        <ele>607.7</ele>
        <time>2022-03-03T08:15:11Z</time>
      </trkpt>
      <trkpt lat="46.73293" lon="5.96782">
        <ele>607.5</ele>
        <time>2022-03-03T08:15:15Z</time>
      </trkpt>
      <trkpt lat="46.73291" lon="5.96775">
        <ele>606.7</ele>
        <time>2022-03-03T08:15:18Z</time>
      </trkpt>
      <trkpt lat="46.73289" lon="5.96769">
        <ele>605.9</ele>
        <time>2022-03-03T08:15:23Z</time>
      </trkpt>
      <trkpt lat="46.73285" lon="5.96763">
        <ele>605.4</ele>
        <time>2022-03-03T08:15:29Z</time>
      </trkpt>
      <trkpt lat="46.73282" lon="5.96758">
        <ele>605</ele>
        <time>2022-03-03T08:15:34Z</time>
      </trkpt>
      <trkpt lat="46.7328" lon="5.96751">
        <ele>604.6</ele>
        <time>2022-03-03T08:15:40Z</time>
      </trkpt>
      <trkpt lat="46.73279" lon="5.96744">
        <ele>604.3</ele>
        <time>2022-03-03T08:15:45Z</time>
      </trkpt>
      <trkpt lat="46.73277" lon="5.96739">
        <ele>604.1</ele>
        <time>2022-03-03T08:15:50Z</time>
      </trkpt>
      <trkpt lat="46.73276" lon="5.96731">
        <ele>604</ele>
        <time>2022-03-03T08:15:55Z</time>
      </trkpt>
      <trkpt lat="46.73273" lon="5.96725">
        <ele>603.9</ele>
        <time>2022-03-03T08:16:00Z</time>
      </trkpt>
      <trkpt lat="46.73271" lon="5.96718">
        <ele>603.8</ele>
        <time>2022-03-03T08:16:04Z</time>
      </trkpt>
      <trkpt lat="46.7327" lon="5.96711">
        <ele>603.5</ele>
        <time>2022-03-03T08:16:09Z</time>
      </trkpt>
      <trkpt lat="46.73268" lon="5.96704">
        <ele>603.8</ele>
        <time>2022-03-03T08:16:14Z</time>
      </trkpt>
      <trkpt lat="46.73266" lon="5.96697">
        <ele>603.9</ele>
        <time>2022-03-03T08:16:18Z</time>
      </trkpt>
      <trkpt lat="46.73263" lon="5.96693">
        <ele>603.6</ele>
        <time>2022-03-03T08:16:22Z</time>
      </trkpt>
      <trkpt lat="46.7326" lon="5.96687">
        <ele>602.6</ele>
        <time>2022-03-03T08:16:28Z</time>
      </trkpt>
      <trkpt lat="46.73259" lon="5.9668">
        <ele>601.9</ele>
        <time>2022-03-03T08:16:33Z</time>
      </trkpt>
      <trkpt lat="46.73257" lon="5.96674">
        <ele>600.9</ele>
        <time>2022-03-03T08:16:40Z</time>
      </trkpt>
      <trkpt lat="46.73256" lon="5.96666">
        <ele>600.2</ele>
        <time>2022-03-03T08:16:46Z</time>
      </trkpt>
      <trkpt lat="46.73253" lon="5.96662">
        <ele>600.3</ele>
        <time>2022-03-03T08:16:50Z</time>
      </trkpt>
      <trkpt lat="46.73248" lon="5.96658">
        <ele>600.3</ele>
        <time>2022-03-03T08:16:55Z</time>
      </trkpt>
      <trkpt lat="46.73243" lon="5.96654">
        <ele>600.3</ele>
        <time>2022-03-03T08:16:59Z</time>
      </trkpt>
      <trkpt lat="46.73238" lon="5.96652">
        <ele>600</ele>
        <time>2022-03-03T08:17:04Z</time>
      </trkpt>
      <trkpt lat="46.73233" lon="5.96651">
        <ele>600.5</ele>
        <time>2022-03-03T08:17:08Z</time>
      </trkpt>
      <trkpt lat="46.73229" lon="5.96646">
        <ele>600.6</ele>
        <time>2022-03-03T08:17:14Z</time>
      </trkpt>
      <trkpt lat="46.73226" lon="5.9664">
        <ele>600.8</ele>
        <time>2022-03-03T08:17:19Z</time>
      </trkpt>
      <trkpt lat="46.73221" lon="5.96637">
        <ele>601.4</ele>
        <time>2022-03-03T08:17:23Z</time>
      </trkpt>
      <trkpt lat="46.73217" lon="5.96635">
        <ele>602.1</ele>
        <time>2022-03-03T08:17:27Z</time>
      </trkpt>
      <trkpt lat="46.73212" lon="5.96635">
        <ele>602.8</ele>
        <time>2022-03-03T08:17:32Z</time>
      </trkpt>
      <trkpt lat="46.73207" lon="5.96634">
        <ele>603.1</ele>
        <time>2022-03-03T08:17:38Z</time>
      </trkpt>
      <trkpt lat="46.73204" lon="5.96628">
        <ele>603.4</ele>
        <time>2022-03-03T08:17:43Z</time>
      </trkpt>
      <trkpt lat="46.73199" lon="5.96625">
        <ele>603.8</ele>
        <time>2022-03-03T08:17:47Z</time>
      </trkpt>
      <trkpt lat="46.73195" lon="5.96621">
        <ele>604.9</ele>
        <time>2022-03-03T08:17:53Z</time>
      </trkpt>
      <trkpt lat="46.73191" lon="5.96617">
        <ele>605.8</ele>
        <time>2022-03-03T08:17:58Z</time>
      </trkpt>
      <trkpt lat="46.73187" lon="5.96614">
        <ele>606.4</ele>
        <time>2022-03-03T08:18:03Z</time>
      </trkpt>
      <trkpt lat="46.73183" lon="5.96609">
        <ele>605.7</ele>
        <time>2022-03-03T08:18:10Z</time>
      </trkpt>
      <trkpt lat="46.73178" lon="5.96604">
        <ele>605.5</ele>
        <time>2022-03-03T08:18:14Z</time>
      </trkpt>
      <trkpt lat="46.73174" lon="5.96601">
        <ele>605.9</ele>
        <time>2022-03-03T08:18:17Z</time>
      </trkpt>
      <trkpt lat="46.73169" lon="5.96599">
        <ele>606.5</ele>
        <time>2022-03-03T08:18:21Z</time>
      </trkpt>
      <trkpt lat="46.73164" lon="5.96598">
        <ele>607.3</ele>
        <time>2022-03-03T08:18:26Z</time>
      </trkpt>
      <trkpt lat="46.73159" lon="5.96598">
        <ele>608.6</ele>
        <time>2022-03-03T08:18:31Z</time>
      </trkpt>
      <trkpt lat="46.73154" lon="5.96595">
        <ele>610.5</ele>
        <time>2022-03-03T08:18:37Z</time>
      </trkpt>
      <trkpt lat="46.7315" lon="5.96591">
        <ele>612.2</ele>
        <time>2022-03-03T08:18:42Z</time>
      </trkpt>
      <trkpt lat="46.73145" lon="5.96589">
        <ele>615</ele>
        <time>2022-03-03T08:18:49Z</time>
      </trkpt>
      <trkpt lat="46.7314" lon="5.96588">
        <ele>616.7</ele>
        <time>2022-03-03T08:18:55Z</time>
      </trkpt>
      <trkpt lat="46.73135" lon="5.96586">
        <ele>617.1</ele>
        <time>2022-03-03T08:19:00Z</time>
      </trkpt>
      <trkpt lat="46.73131" lon="5.96587">
        <ele>617.7</ele>
        <time>2022-03-03T08:19:05Z</time>
      </trkpt>
      <trkpt lat="46.73127" lon="5.96581">
        <ele>618.1</ele>
        <time>2022-03-03T08:19:14Z</time>
      </trkpt>
      <trkpt lat="46.73124" lon="5.96577">
        <ele>617.9</ele>
        <time>2022-03-03T08:19:21Z</time>
      </trkpt>
      <trkpt lat="46.7312" lon="5.96573">
        <ele>617.3</ele>
        <time>2022-03-03T08:19:28Z</time>
      </trkpt>
      <trkpt lat="46.73115" lon="5.96571">
        <ele>617</ele>
        <time>2022-03-03T08:19:33Z</time>
      </trkpt>
      <trkpt lat="46.7311" lon="5.9657">
        <ele>617</ele>
        <time>2022-03-03T08:19:38Z</time>
      </trkpt>
      <trkpt lat="46.73106" lon="5.96567">
        <ele>617.3</ele>
        <time>2022-03-03T08:19:42Z</time>
      </trkpt>
      <trkpt lat="46.73101" lon="5.96564">
        <ele>618.4</ele>
        <time>2022-03-03T08:19:47Z</time>
      </trkpt>
      <trkpt lat="46.73097" lon="5.96561">
        <ele>620.5</ele>
        <time>2022-03-03T08:19:55Z</time>
      </trkpt>
      <trkpt lat="46.73092" lon="5.96559">
        <ele>623.7</ele>
        <time>2022-03-03T08:20:05Z</time>
      </trkpt>
      <trkpt lat="46.73088" lon="5.96558">
        <ele>626.6</ele>
        <time>2022-03-03T08:20:13Z</time>
      </trkpt>
      <trkpt lat="46.73083" lon="5.9656">
        <ele>628.5</ele>
        <time>2022-03-03T08:20:19Z</time>
      </trkpt>
      <trkpt lat="46.73078" lon="5.96557">
        <ele>630.7</ele>
        <time>2022-03-03T08:20:29Z</time>
      </trkpt>
      <trkpt lat="46.73073" lon="5.96554">
        <ele>630.2</ele>
        <time>2022-03-03T08:20:34Z</time>
      </trkpt>
      <trkpt lat="46.73068" lon="5.96554">
        <ele>629</ele>
        <time>2022-03-03T08:20:38Z</time>
      </trkpt>
      <trkpt lat="46.73063" lon="5.96554">
        <ele>627.8</ele>
        <time>2022-03-03T08:20:42Z</time>
      </trkpt>
      <trkpt lat="46.73059" lon="5.9655">
        <ele>626.7</ele>
        <time>2022-03-03T08:20:48Z</time>
      </trkpt>
      <trkpt lat="46.73054" lon="5.96549">
        <ele>626.1</ele>
        <time>2022-03-03T08:20:54Z</time>
      </trkpt>
      <trkpt lat="46.7305" lon="5.96546">
        <ele>626.1</ele>
        <time>2022-03-03T08:21:00Z</time>
      </trkpt>
      <trkpt lat="46.73045" lon="5.96545">
        <ele>627.3</ele>
        <time>2022-03-03T08:21:06Z</time>
      </trkpt>
      <trkpt lat="46.7304" lon="5.96541">
        <ele>627.8</ele>
        <time>2022-03-03T08:21:12Z</time>
      </trkpt>
      <trkpt lat="46.73035" lon="5.96539">
        <ele>628.1</ele>
        <time>2022-03-03T08:21:17Z</time>
      </trkpt>
      <trkpt lat="46.73031" lon="5.96538">
        <ele>628.5</ele>
        <time>2022-03-03T08:21:23Z</time>
      </trkpt>
      <trkpt lat="46.73026" lon="5.96537">
        <ele>629.5</ele>
        <time>2022-03-03T08:21:30Z</time>
      </trkpt>
      <trkpt lat="46.73021" lon="5.96536">
        <ele>630.2</ele>
        <time>2022-03-03T08:21:36Z</time>
      </trkpt>
      <trkpt lat="46.73016" lon="5.96537">
        <ele>631</ele>
        <time>2022-03-03T08:21:43Z</time>
      </trkpt>
      <trkpt lat="46.73011" lon="5.96539">
        <ele>631.9</ele>
        <time>2022-03-03T08:21:48Z</time>
      </trkpt>
      <trkpt lat="46.73007" lon="5.96538">
        <ele>632.1</ele>
        <time>2022-03-03T08:21:52Z</time>
      </trkpt>
      <trkpt lat="46.73002" lon="5.96536">
        <ele>632.6</ele>
        <time>2022-03-03T08:21:57Z</time>
      </trkpt>
      <trkpt lat="46.72997" lon="5.96534">
        <ele>633.2</ele>
        <time>2022-03-03T08:22:04Z</time>
      </trkpt>
      <trkpt lat="46.72993" lon="5.9653">
        <ele>633.3</ele>
        <time>2022-03-03T08:22:10Z</time>
      </trkpt>
      <trkpt lat="46.72989" lon="5.96526">
        <ele>632.9</ele>
        <time>2022-03-03T08:22:15Z</time>
      </trkpt>
      <trkpt lat="46.72985" lon="5.96524">
        <ele>633</ele>
        <time>2022-03-03T08:22:21Z</time>
      </trkpt>
      <trkpt lat="46.7298" lon="5.96522">
        <ele>634</ele>
        <time>2022-03-03T08:22:28Z</time>
      </trkpt>
      <trkpt lat="46.72976" lon="5.96519">
        <ele>634.9</ele>
        <time>2022-03-03T08:22:35Z</time>
      </trkpt>
      <trkpt lat="46.72971" lon="5.96517">
        <ele>635.7</ele>
        <time>2022-03-03T08:22:41Z</time>
      </trkpt>
      <trkpt lat="46.72967" lon="5.96517">
        <ele>636.4</ele>
        <time>2022-03-03T08:22:46Z</time>
      </trkpt>
      <trkpt lat="46.72962" lon="5.96515">
        <ele>637.1</ele>
        <time>2022-03-03T08:22:52Z</time>
      </trkpt>
      <trkpt lat="46.72957" lon="5.96513">
        <ele>637.2</ele>
        <time>2022-03-03T08:22:58Z</time>
      </trkpt>
      <trkpt lat="46.72952" lon="5.96509">
        <ele>637.2</ele>
        <time>2022-03-03T08:23:03Z</time>
      </trkpt>
      <trkpt lat="46.72948" lon="5.96506">
        <ele>637.2</ele>
        <time>2022-03-03T08:23:08Z</time>
      </trkpt>
      <trkpt lat="46.72943" lon="5.96506">
        <ele>637.3</ele>
        <time>2022-03-03T08:23:13Z</time>
      </trkpt>
      <trkpt lat="46.72938" lon="5.96505">
        <ele>637.5</ele>
        <time>2022-03-03T08:23:18Z</time>
      </trkpt>
      <trkpt lat="46.72933" lon="5.96504">
        <ele>637.7</ele>
        <time>2022-03-03T08:23:23Z</time>
      </trkpt>
      <trkpt lat="46.72928" lon="5.96502">
        <ele>637.7</ele>
        <time>2022-03-03T08:23:29Z</time>
      </trkpt>
      <trkpt lat="46.72923" lon="5.96501">
        <ele>638</ele>
        <time>2022-03-03T08:23:34Z</time>
      </trkpt>
      <trkpt lat="46.72918" lon="5.96499">
        <ele>638.8</ele>
        <time>2022-03-03T08:23:39Z</time>
      </trkpt>
      <trkpt lat="46.72914" lon="5.96497">
        <ele>639.8</ele>
        <time>2022-03-03T08:23:45Z</time>
      </trkpt>
      <trkpt lat="46.72909" lon="5.96495">
        <ele>640.8</ele>
        <time>2022-03-03T08:23:50Z</time>
      </trkpt>
      <trkpt lat="46.72904" lon="5.96492">
        <ele>641.6</ele>
        <time>2022-03-03T08:23:56Z</time>
      </trkpt>
      <trkpt lat="46.72899" lon="5.96489">
        <ele>642.4</ele>
        <time>2022-03-03T08:24:02Z</time>
      </trkpt>
      <trkpt lat="46.72895" lon="5.96484">
        <ele>643.3</ele>
        <time>2022-03-03T08:24:08Z</time>
      </trkpt>
      <trkpt lat="46.7289" lon="5.96482">
        <ele>645</ele>
        <time>2022-03-03T08:24:15Z</time>
      </trkpt>
      <trkpt lat="46.72885" lon="5.96479">
        <ele>645.9</ele>
        <time>2022-03-03T08:24:20Z</time>
      </trkpt>
      <trkpt lat="46.7288" lon="5.96476">
        <ele>646.7</ele>
        <time>2022-03-03T08:24:27Z</time>
      </trkpt>
      <trkpt lat="46.72876" lon="5.96473">
        <ele>647.6</ele>
        <time>2022-03-03T08:24:33Z</time>
      </trkpt>
      <trkpt lat="46.72871" lon="5.9647">
        <ele>648.4</ele>
        <time>2022-03-03T08:24:38Z</time>
      </trkpt>
      <trkpt lat="46.72867" lon="5.96466">
        <ele>649.1</ele>
        <time>2022-03-03T08:24:43Z</time>
      </trkpt>
      <trkpt lat="46.72864" lon="5.96461">
        <ele>649.9</ele>
        <time>2022-03-03T08:24:48Z</time>
      </trkpt>
      <trkpt lat="46.72862" lon="5.96456">
        <ele>651</ele>
        <time>2022-03-03T08:24:55Z</time>
      </trkpt>
      <trkpt lat="46.72863" lon="5.96449">
        <ele>654.9</ele>
        <time>2022-03-03T08:27:29Z</time>
      </trkpt>
      <trkpt lat="46.72868" lon="5.96446">
        <ele>656.8</ele>
        <time>2022-03-03T08:27:44Z</time>
      </trkpt>
      <trkpt lat="46.72867" lon="5.96454">
        <ele>658</ele>
        <time>2022-03-03T08:27:57Z</time>
      </trkpt>
      <trkpt lat="46.72871" lon="5.96455">
        <ele>659.1</ele>
        <time>2022-03-03T08:31:12Z</time>
      </trkpt>
      <trkpt lat="46.72872" lon="5.96461">
        <ele>663.1</ele>
        <time>2022-03-03T08:31:50Z</time>
      </trkpt>
      <trkpt lat="46.72868" lon="5.96467">
        <ele>664.7</ele>
        <time>2022-03-03T08:32:03Z</time>
      </trkpt>
      <trkpt lat="46.72867" lon="5.96459">
        <ele>662.3</ele>
        <time>2022-03-03T08:32:24Z</time>
      </trkpt>
      <trkpt lat="46.72868" lon="5.96453">
        <ele>659.8</ele>
        <time>2022-03-03T08:32:29Z</time>
      </trkpt>
      <trkpt lat="46.72873" lon="5.96449">
        <ele>657.7</ele>
        <time>2022-03-03T08:35:14Z</time>
      </trkpt>
      <trkpt lat="46.72873" lon="5.96442">
        <ele>655.9</ele>
        <time>2022-03-03T08:35:32Z</time>
      </trkpt>
      <trkpt lat="46.7287" lon="5.96436">
        <ele>654.5</ele>
        <time>2022-03-03T08:35:42Z</time>
      </trkpt>
      <trkpt lat="46.72866" lon="5.96434">
        <ele>653.5</ele>
        <time>2022-03-03T08:35:47Z</time>
      </trkpt>
      <trkpt lat="46.72861" lon="5.96431">
        <ele>653.3</ele>
        <time>2022-03-03T08:35:51Z</time>
      </trkpt>
      <trkpt lat="46.72857" lon="5.96428">
        <ele>653.4</ele>
        <time>2022-03-03T08:35:55Z</time>
      </trkpt>
      <trkpt lat="46.72852" lon="5.96425">
        <ele>653.6</ele>
        <time>2022-03-03T08:35:59Z</time>
      </trkpt>
      <trkpt lat="46.72847" lon="5.96423">
        <ele>654.1</ele>
        <time>2022-03-03T08:36:04Z</time>
      </trkpt>
      <trkpt lat="46.72844" lon="5.96419">
        <ele>654.7</ele>
        <time>2022-03-03T08:36:10Z</time>
      </trkpt>
      <trkpt lat="46.7284" lon="5.96414">
        <ele>655.6</ele>
        <time>2022-03-03T08:36:18Z</time>
      </trkpt>
      <trkpt lat="46.72836" lon="5.96411">
        <ele>656.4</ele>
        <time>2022-03-03T08:36:23Z</time>
      </trkpt>
      <trkpt lat="46.72831" lon="5.96409">
        <ele>657.4</ele>
        <time>2022-03-03T08:36:28Z</time>
      </trkpt>
      <trkpt lat="46.72828" lon="5.96403">
        <ele>658.4</ele>
        <time>2022-03-03T08:36:35Z</time>
      </trkpt>
      <trkpt lat="46.72823" lon="5.964">
        <ele>658.6</ele>
        <time>2022-03-03T08:36:41Z</time>
      </trkpt>
      <trkpt lat="46.72819" lon="5.96397">
        <ele>658.5</ele>
        <time>2022-03-03T08:36:45Z</time>
      </trkpt>
      <trkpt lat="46.72815" lon="5.96393">
        <ele>658.6</ele>
        <time>2022-03-03T08:36:52Z</time>
      </trkpt>
      <trkpt lat="46.72813" lon="5.96387">
        <ele>658.7</ele>
        <time>2022-03-03T08:36:56Z</time>
      </trkpt>
      <trkpt lat="46.72809" lon="5.96381">
        <ele>658.7</ele>
        <time>2022-03-03T08:37:01Z</time>
      </trkpt>
      <trkpt lat="46.72805" lon="5.96378">
        <ele>658.5</ele>
        <time>2022-03-03T08:37:04Z</time>
      </trkpt>
      <trkpt lat="46.72801" lon="5.96372">
        <ele>658</ele>
        <time>2022-03-03T08:37:08Z</time>
      </trkpt>
      <trkpt lat="46.72797" lon="5.9637">
        <ele>657.3</ele>
        <time>2022-03-03T08:37:14Z</time>
      </trkpt>
      <trkpt lat="46.72791" lon="5.96371">
        <ele>656.9</ele>
        <time>2022-03-03T08:37:20Z</time>
      </trkpt>
      <trkpt lat="46.72787" lon="5.9637">
        <ele>656.6</ele>
        <time>2022-03-03T08:37:24Z</time>
      </trkpt>
      <trkpt lat="46.72782" lon="5.96366">
        <ele>655.9</ele>
        <time>2022-03-03T08:37:30Z</time>
      </trkpt>
      <trkpt lat="46.72778" lon="5.96364">
        <ele>655.2</ele>
        <time>2022-03-03T08:37:35Z</time>
      </trkpt>
      <trkpt lat="46.72774" lon="5.96365">
        <ele>654.9</ele>
        <time>2022-03-03T08:37:39Z</time>
      </trkpt>
      <trkpt lat="46.72769" lon="5.96368">
        <ele>654.4</ele>
        <time>2022-03-03T08:37:43Z</time>
      </trkpt>
      <trkpt lat="46.72764" lon="5.96371">
        <ele>654.1</ele>
        <time>2022-03-03T08:37:47Z</time>
      </trkpt>
      <trkpt lat="46.72759" lon="5.96371">
        <ele>653.9</ele>
        <time>2022-03-03T08:37:51Z</time>
      </trkpt>
      <trkpt lat="46.72754" lon="5.96368">
        <ele>653.3</ele>
        <time>2022-03-03T08:37:56Z</time>
      </trkpt>
      <trkpt lat="46.7275" lon="5.96365">
        <ele>652.4</ele>
        <time>2022-03-03T08:38:01Z</time>
      </trkpt>
      <trkpt lat="46.72748" lon="5.96358">
        <ele>651</ele>
        <time>2022-03-03T08:38:06Z</time>
      </trkpt>
      <trkpt lat="46.72747" lon="5.96351">
        <ele>648.7</ele>
        <time>2022-03-03T08:38:13Z</time>
      </trkpt>
      <trkpt lat="46.72744" lon="5.96346">
        <ele>647.7</ele>
        <time>2022-03-03T08:38:18Z</time>
      </trkpt>
      <trkpt lat="46.72741" lon="5.96341">
        <ele>647.2</ele>
        <time>2022-03-03T08:38:23Z</time>
      </trkpt>
      <trkpt lat="46.72737" lon="5.96338">
        <ele>646.2</ele>
        <time>2022-03-03T08:38:31Z</time>
      </trkpt>
      <trkpt lat="46.72731" lon="5.96336">
        <ele>645.9</ele>
        <time>2022-03-03T08:38:37Z</time>
      </trkpt>
      <trkpt lat="46.72727" lon="5.96333">
        <ele>645.4</ele>
        <time>2022-03-03T08:38:44Z</time>
      </trkpt>
      <trkpt lat="46.72723" lon="5.96329">
        <ele>644.9</ele>
        <time>2022-03-03T08:38:50Z</time>
      </trkpt>
      <trkpt lat="46.72718" lon="5.96325">
        <ele>644.7</ele>
        <time>2022-03-03T08:38:55Z</time>
      </trkpt>
      <trkpt lat="46.72713" lon="5.96323">
        <ele>644.5</ele>
        <time>2022-03-03T08:38:59Z</time>
      </trkpt>
      <trkpt lat="46.72709" lon="5.9632">
        <ele>644.1</ele>
        <time>2022-03-03T08:39:03Z</time>
      </trkpt>
      <trkpt lat="46.72704" lon="5.96317">
        <ele>643.4</ele>
        <time>2022-03-03T08:39:07Z</time>
      </trkpt>
      <trkpt lat="46.72701" lon="5.96313">
        <ele>643</ele>
        <time>2022-03-03T08:39:11Z</time>
      </trkpt>
      <trkpt lat="46.72696" lon="5.96308">
        <ele>642.4</ele>
        <time>2022-03-03T08:39:16Z</time>
      </trkpt>
      <trkpt lat="46.72693" lon="5.96303">
        <ele>642</ele>
        <time>2022-03-03T08:39:21Z</time>
      </trkpt>
      <trkpt lat="46.72689" lon="5.96299">
        <ele>642.4</ele>
        <time>2022-03-03T08:39:29Z</time>
      </trkpt>
      <trkpt lat="46.72685" lon="5.96293">
        <ele>643.2</ele>
        <time>2022-03-03T08:39:35Z</time>
      </trkpt>
      <trkpt lat="46.72683" lon="5.96287">
        <ele>643.4</ele>
        <time>2022-03-03T08:39:41Z</time>
      </trkpt>
      <trkpt lat="46.7268" lon="5.9628">
        <ele>643</ele>
        <time>2022-03-03T08:39:47Z</time>
      </trkpt>
      <trkpt lat="46.72678" lon="5.96274">
        <ele>642.5</ele>
        <time>2022-03-03T08:39:52Z</time>
      </trkpt>
      <trkpt lat="46.72674" lon="5.96267">
        <ele>641.8</ele>
        <time>2022-03-03T08:39:57Z</time>
      </trkpt>
      <trkpt lat="46.72671" lon="5.96261">
        <ele>640.8</ele>
        <time>2022-03-03T08:40:02Z</time>
      </trkpt>
      <trkpt lat="46.72667" lon="5.96257">
        <ele>640.1</ele>
        <time>2022-03-03T08:40:08Z</time>
      </trkpt>
      <trkpt lat="46.72663" lon="5.96252">
        <ele>639.7</ele>
        <time>2022-03-03T08:40:16Z</time>
      </trkpt>
      <trkpt lat="46.72659" lon="5.96247">
        <ele>639.2</ele>
        <time>2022-03-03T08:40:21Z</time>
      </trkpt>
      <trkpt lat="46.72655" lon="5.96242">
        <ele>638.5</ele>
        <time>2022-03-03T08:40:26Z</time>
      </trkpt>
      <trkpt lat="46.72651" lon="5.96237">
        <ele>637.8</ele>
        <time>2022-03-03T08:40:31Z</time>
      </trkpt>
      <trkpt lat="46.72647" lon="5.96232">
        <ele>637.3</ele>
        <time>2022-03-03T08:40:35Z</time>
      </trkpt>
      <trkpt lat="46.72643" lon="5.96226">
        <ele>637</ele>
        <time>2022-03-03T08:40:40Z</time>
      </trkpt>
      <trkpt lat="46.7264" lon="5.9622">
        <ele>636.3</ele>
        <time>2022-03-03T08:40:46Z</time>
      </trkpt>
      <trkpt lat="46.72637" lon="5.96214">
        <ele>634.7</ele>
        <time>2022-03-03T08:40:52Z</time>
      </trkpt>
      <trkpt lat="46.72633" lon="5.96209">
        <ele>633.4</ele>
        <time>2022-03-03T08:40:57Z</time>
      </trkpt>
      <trkpt lat="46.72629" lon="5.96204">
        <ele>632.5</ele>
        <time>2022-03-03T08:41:01Z</time>
      </trkpt>
      <trkpt lat="46.72626" lon="5.96198">
        <ele>631.7</ele>
        <time>2022-03-03T08:41:06Z</time>
      </trkpt>
      <trkpt lat="46.72623" lon="5.96193">
        <ele>631</ele>
        <time>2022-03-03T08:41:11Z</time>
      </trkpt>
      <trkpt lat="46.7262" lon="5.96187">
        <ele>630.6</ele>
        <time>2022-03-03T08:41:16Z</time>
      </trkpt>
      <trkpt lat="46.72617" lon="5.9618">
        <ele>630.7</ele>
        <time>2022-03-03T08:41:21Z</time>
      </trkpt>
      <trkpt lat="46.72614" lon="5.96174">
        <ele>630.7</ele>
        <time>2022-03-03T08:41:26Z</time>
      </trkpt>
      <trkpt lat="46.7261" lon="5.96169">
        <ele>630.8</ele>
        <time>2022-03-03T08:41:31Z</time>
      </trkpt>
      <trkpt lat="46.72607" lon="5.96165">
        <ele>631.2</ele>
        <time>2022-03-03T08:41:36Z</time>
      </trkpt>
      <trkpt lat="46.72603" lon="5.9616">
        <ele>631.7</ele>
        <time>2022-03-03T08:41:42Z</time>
      </trkpt>
      <trkpt lat="46.72601" lon="5.96154">
        <ele>631.5</ele>
        <time>2022-03-03T08:41:47Z</time>
      </trkpt>
      <trkpt lat="46.72599" lon="5.96148">
        <ele>631</ele>
        <time>2022-03-03T08:41:52Z</time>
      </trkpt>
      <trkpt lat="46.72597" lon="5.96142">
        <ele>630</ele>
        <time>2022-03-03T08:41:57Z</time>
      </trkpt>
      <trkpt lat="46.72595" lon="5.96136">
        <ele>629.1</ele>
        <time>2022-03-03T08:42:03Z</time>
      </trkpt>
      <trkpt lat="46.7259" lon="5.96133">
        <ele>627.8</ele>
        <time>2022-03-03T08:42:31Z</time>
      </trkpt>
      <trkpt lat="46.72586" lon="5.96136">
        <ele>628.4</ele>
        <time>2022-03-03T08:42:46Z</time>
      </trkpt>
      <trkpt lat="46.72581" lon="5.96134">
        <ele>627.3</ele>
        <time>2022-03-03T08:42:56Z</time>
      </trkpt>
      <trkpt lat="46.72576" lon="5.96132">
        <ele>626.7</ele>
        <time>2022-03-03T08:43:01Z</time>
      </trkpt>
      <trkpt lat="46.72571" lon="5.9613">
        <ele>626.3</ele>
        <time>2022-03-03T08:43:06Z</time>
      </trkpt>
      <trkpt lat="46.72567" lon="5.96128">
        <ele>625.9</ele>
        <time>2022-03-03T08:43:11Z</time>
      </trkpt>
      <trkpt lat="46.72562" lon="5.96126">
        <ele>625.4</ele>
        <time>2022-03-03T08:43:17Z</time>
      </trkpt>
      <trkpt lat="46.72557" lon="5.96123">
        <ele>624.1</ele>
        <time>2022-03-03T08:43:27Z</time>
      </trkpt>
      <trkpt lat="46.72553" lon="5.9612">
        <ele>623.6</ele>
        <time>2022-03-03T08:43:33Z</time>
      </trkpt>
      <trkpt lat="46.72548" lon="5.96119">
        <ele>622.9</ele>
        <time>2022-03-03T08:43:39Z</time>
      </trkpt>
      <trkpt lat="46.72543" lon="5.96119">
        <ele>622.3</ele>
        <time>2022-03-03T08:43:43Z</time>
      </trkpt>
      <trkpt lat="46.72538" lon="5.96119">
        <ele>621.7</ele>
        <time>2022-03-03T08:43:48Z</time>
      </trkpt>
      <trkpt lat="46.72533" lon="5.96119">
        <ele>620.7</ele>
        <time>2022-03-03T08:43:54Z</time>
      </trkpt>
      <trkpt lat="46.72529" lon="5.96119">
        <ele>619.9</ele>
        <time>2022-03-03T08:43:59Z</time>
      </trkpt>
      <trkpt lat="46.72524" lon="5.9612">
        <ele>618.9</ele>
        <time>2022-03-03T08:44:05Z</time>
      </trkpt>
      <trkpt lat="46.72518" lon="5.96119">
        <ele>617.8</ele>
        <time>2022-03-03T08:44:10Z</time>
      </trkpt>
      <trkpt lat="46.72513" lon="5.96118">
        <ele>617.1</ele>
        <time>2022-03-03T08:44:14Z</time>
      </trkpt>
      <trkpt lat="46.72508" lon="5.96114">
        <ele>616.4</ele>
        <time>2022-03-03T08:44:21Z</time>
      </trkpt>
      <trkpt lat="46.72504" lon="5.96112">
        <ele>615.7</ele>
        <time>2022-03-03T08:44:27Z</time>
      </trkpt>
      <trkpt lat="46.72499" lon="5.96111">
        <ele>615.2</ele>
        <time>2022-03-03T08:44:35Z</time>
      </trkpt>
      <trkpt lat="46.72494" lon="5.9611">
        <ele>615</ele>
        <time>2022-03-03T08:44:40Z</time>
      </trkpt>
      <trkpt lat="46.72489" lon="5.96108">
        <ele>614.6</ele>
        <time>2022-03-03T08:44:46Z</time>
      </trkpt>
      <trkpt lat="46.72483" lon="5.96107">
        <ele>614.3</ele>
        <time>2022-03-03T08:44:50Z</time>
      </trkpt>
      <trkpt lat="46.72479" lon="5.96104">
        <ele>614.2</ele>
        <time>2022-03-03T08:44:55Z</time>
      </trkpt>
      <trkpt lat="46.72475" lon="5.961">
        <ele>614.1</ele>
        <time>2022-03-03T08:45:04Z</time>
      </trkpt>
      <trkpt lat="46.72471" lon="5.96096">
        <ele>614</ele>
        <time>2022-03-03T08:45:11Z</time>
      </trkpt>
      <trkpt lat="46.72466" lon="5.96092">
        <ele>613.7</ele>
        <time>2022-03-03T08:45:16Z</time>
      </trkpt>
      <trkpt lat="46.72462" lon="5.96088">
        <ele>612.8</ele>
        <time>2022-03-03T08:45:21Z</time>
      </trkpt>
      <trkpt lat="46.72457" lon="5.96084">
        <ele>611.9</ele>
        <time>2022-03-03T08:45:25Z</time>
      </trkpt>
      <trkpt lat="46.72453" lon="5.96079">
        <ele>610.7</ele>
        <time>2022-03-03T08:45:29Z</time>
      </trkpt>
      <trkpt lat="46.7245" lon="5.96074">
        <ele>609.5</ele>
        <time>2022-03-03T08:45:33Z</time>
      </trkpt>
      <trkpt lat="46.72445" lon="5.9607">
        <ele>608.1</ele>
        <time>2022-03-03T08:45:37Z</time>
      </trkpt>
      <trkpt lat="46.72441" lon="5.96066">
        <ele>606</ele>
        <time>2022-03-03T08:45:43Z</time>
      </trkpt>
      <trkpt lat="46.72438" lon="5.96062">
        <ele>604.8</ele>
        <time>2022-03-03T08:45:48Z</time>
      </trkpt>
      <trkpt lat="46.72433" lon="5.9606">
        <ele>603.8</ele>
        <time>2022-03-03T08:45:52Z</time>
      </trkpt>
      <trkpt lat="46.72432" lon="5.96054">
        <ele>600.9</ele>
        <time>2022-03-03T08:46:07Z</time>
      </trkpt>
      <trkpt lat="46.72428" lon="5.96057">
        <ele>599.4</ele>
        <time>2022-03-03T08:46:17Z</time>
      </trkpt>
      <trkpt lat="46.72423" lon="5.96062">
        <ele>598.2</ele>
        <time>2022-03-03T08:46:23Z</time>
      </trkpt>
      <trkpt lat="46.72419" lon="5.96065">
        <ele>596.2</ele>
        <time>2022-03-03T08:46:34Z</time>
      </trkpt>
      <trkpt lat="46.72416" lon="5.96069">
        <ele>595.5</ele>
        <time>2022-03-03T08:46:39Z</time>
      </trkpt>
      <trkpt lat="46.72412" lon="5.96074">
        <ele>595</ele>
        <time>2022-03-03T08:46:44Z</time>
      </trkpt>
      <trkpt lat="46.7241" lon="5.96081">
        <ele>594.5</ele>
        <time>2022-03-03T08:46:51Z</time>
      </trkpt>
      <trkpt lat="46.72411" lon="5.96088">
        <ele>594.1</ele>
        <time>2022-03-03T08:46:57Z</time>
      </trkpt>
      <trkpt lat="46.72408" lon="5.96092">
        <ele>593.9</ele>
        <time>2022-03-03T08:47:02Z</time>
      </trkpt>
      <trkpt lat="46.72405" lon="5.96098">
        <ele>593.9</ele>
        <time>2022-03-03T08:47:07Z</time>
      </trkpt>
      <trkpt lat="46.72401" lon="5.96104">
        <ele>593.4</ele>
        <time>2022-03-03T08:47:15Z</time>
      </trkpt>
      <trkpt lat="46.72397" lon="5.96108">
        <ele>593.1</ele>
        <time>2022-03-03T08:47:19Z</time>
      </trkpt>
      <trkpt lat="46.72395" lon="5.96114">
        <ele>592.7</ele>
        <time>2022-03-03T08:47:27Z</time>
      </trkpt>
      <trkpt lat="46.72393" lon="5.96121">
        <ele>592.5</ele>
        <time>2022-03-03T08:47:31Z</time>
      </trkpt>
      <trkpt lat="46.72393" lon="5.96128">
        <ele>592.8</ele>
        <time>2022-03-03T08:47:37Z</time>
      </trkpt>
      <trkpt lat="46.72394" lon="5.96135">
        <ele>593</ele>
        <time>2022-03-03T08:47:41Z</time>
      </trkpt>
      <trkpt lat="46.72392" lon="5.96142">
        <ele>592.9</ele>
        <time>2022-03-03T08:47:47Z</time>
      </trkpt>
      <trkpt lat="46.72388" lon="5.96148">
        <ele>592.7</ele>
        <time>2022-03-03T08:47:51Z</time>
      </trkpt>
      <trkpt lat="46.72384" lon="5.96152">
        <ele>592.7</ele>
        <time>2022-03-03T08:47:54Z</time>
      </trkpt>
      <trkpt lat="46.7238" lon="5.96156">
        <ele>592.4</ele>
        <time>2022-03-03T08:47:59Z</time>
      </trkpt>
      <trkpt lat="46.7238" lon="5.96163">
        <ele>591.9</ele>
        <time>2022-03-03T08:48:05Z</time>
      </trkpt>
      <trkpt lat="46.72378" lon="5.96169">
        <ele>591.5</ele>
        <time>2022-03-03T08:48:10Z</time>
      </trkpt>
      <trkpt lat="46.72375" lon="5.96176">
        <ele>590.9</ele>
        <time>2022-03-03T08:48:15Z</time>
      </trkpt>
      <trkpt lat="46.72376" lon="5.96183">
        <ele>589.7</ele>
        <time>2022-03-03T08:48:22Z</time>
      </trkpt>
      <trkpt lat="46.72376" lon="5.9619">
        <ele>588.7</ele>
        <time>2022-03-03T08:48:28Z</time>
      </trkpt>
      <trkpt lat="46.72378" lon="5.96198">
        <ele>588.3</ele>
        <time>2022-03-03T08:48:33Z</time>
      </trkpt>
      <trkpt lat="46.7238" lon="5.96204">
        <ele>587.6</ele>
        <time>2022-03-03T08:48:38Z</time>
      </trkpt>
      <trkpt lat="46.72383" lon="5.96209">
        <ele>586.9</ele>
        <time>2022-03-03T08:48:45Z</time>
      </trkpt>
      <trkpt lat="46.72386" lon="5.96215">
        <ele>587</ele>
        <time>2022-03-03T08:48:50Z</time>
      </trkpt>
      <trkpt lat="46.72388" lon="5.96221">
        <ele>587.7</ele>
        <time>2022-03-03T08:48:55Z</time>
      </trkpt>
      <trkpt lat="46.72393" lon="5.96224">
        <ele>587.5</ele>
        <time>2022-03-03T08:49:01Z</time>
      </trkpt>
      <trkpt lat="46.72398" lon="5.96225">
        <ele>586.5</ele>
        <time>2022-03-03T08:49:06Z</time>
      </trkpt>
      <trkpt lat="46.72402" lon="5.9623">
        <ele>586</ele>
        <time>2022-03-03T08:49:10Z</time>
      </trkpt>
      <trkpt lat="46.72403" lon="5.96237">
        <ele>586.1</ele>
        <time>2022-03-03T08:49:13Z</time>
      </trkpt>
      <trkpt lat="46.72404" lon="5.96245">
        <ele>586.1</ele>
        <time>2022-03-03T08:49:17Z</time>
      </trkpt>
      <trkpt lat="46.72405" lon="5.96252">
        <ele>585.8</ele>
        <time>2022-03-03T08:49:23Z</time>
      </trkpt>
      <trkpt lat="46.72411" lon="5.96254">
        <ele>585.4</ele>
        <time>2022-03-03T08:49:28Z</time>
      </trkpt>
      <trkpt lat="46.72415" lon="5.96257">
        <ele>584.9</ele>
        <time>2022-03-03T08:49:33Z</time>
      </trkpt>
      <trkpt lat="46.72419" lon="5.96262">
        <ele>584.7</ele>
        <time>2022-03-03T08:49:37Z</time>
      </trkpt>
      <trkpt lat="46.72423" lon="5.96268">
        <ele>585</ele>
        <time>2022-03-03T08:49:42Z</time>
      </trkpt>
      <trkpt lat="46.72426" lon="5.96272">
        <ele>585.6</ele>
        <time>2022-03-03T08:49:46Z</time>
      </trkpt>
      <trkpt lat="46.7243" lon="5.96277">
        <ele>586.1</ele>
        <time>2022-03-03T08:49:51Z</time>
      </trkpt>
      <trkpt lat="46.72433" lon="5.96283">
        <ele>586.7</ele>
        <time>2022-03-03T08:49:56Z</time>
      </trkpt>
      <trkpt lat="46.72436" lon="5.96289">
        <ele>587</ele>
        <time>2022-03-03T08:50:01Z</time>
      </trkpt>
      <trkpt lat="46.72439" lon="5.96295">
        <ele>587.6</ele>
        <time>2022-03-03T08:50:06Z</time>
      </trkpt>
      <trkpt lat="46.72443" lon="5.96297">
        <ele>588.2</ele>
        <time>2022-03-03T08:50:10Z</time>
      </trkpt>
      <trkpt lat="46.72448" lon="5.963">
        <ele>588.6</ele>
        <time>2022-03-03T08:50:14Z</time>
      </trkpt>
      <trkpt lat="46.72452" lon="5.96305">
        <ele>588.8</ele>
        <time>2022-03-03T08:50:19Z</time>
      </trkpt>
      <trkpt lat="46.72455" lon="5.96311">
        <ele>589.1</ele>
        <time>2022-03-03T08:50:24Z</time>
      </trkpt>
      <trkpt lat="46.72457" lon="5.96317">
        <ele>589.2</ele>
        <time>2022-03-03T08:50:32Z</time>
      </trkpt>
      <trkpt lat="46.72462" lon="5.96321">
        <ele>589.1</ele>
        <time>2022-03-03T08:50:37Z</time>
      </trkpt>
      <trkpt lat="46.72466" lon="5.96323">
        <ele>589</ele>
        <time>2022-03-03T08:50:41Z</time>
      </trkpt>
      <trkpt lat="46.72471" lon="5.96325">
        <ele>589.3</ele>
        <time>2022-03-03T08:50:45Z</time>
      </trkpt>
      <trkpt lat="46.72476" lon="5.96325">
        <ele>589.7</ele>
        <time>2022-03-03T08:50:48Z</time>
      </trkpt>
      <trkpt lat="46.72481" lon="5.96326">
        <ele>590.5</ele>
        <time>2022-03-03T08:50:51Z</time>
      </trkpt>
      <trkpt lat="46.72486" lon="5.96327">
        <ele>591.2</ele>
        <time>2022-03-03T08:50:54Z</time>
      </trkpt>
      <trkpt lat="46.72491" lon="5.96328">
        <ele>591.9</ele>
        <time>2022-03-03T08:50:58Z</time>
      </trkpt>
      <trkpt lat="46.72496" lon="5.96331">
        <ele>592.5</ele>
        <time>2022-03-03T08:51:02Z</time>
      </trkpt>
      <trkpt lat="46.72499" lon="5.96336">
        <ele>593</ele>
        <time>2022-03-03T08:51:06Z</time>
      </trkpt>
      <trkpt lat="46.72503" lon="5.9634">
        <ele>593.1</ele>
        <time>2022-03-03T08:51:11Z</time>
      </trkpt>
      <trkpt lat="46.72506" lon="5.96345">
        <ele>592.9</ele>
        <time>2022-03-03T08:51:17Z</time>
      </trkpt>
      <trkpt lat="46.72509" lon="5.9635">
        <ele>592.1</ele>
        <time>2022-03-03T08:51:27Z</time>
      </trkpt>
      <trkpt lat="46.72514" lon="5.96354">
        <ele>592</ele>
        <time>2022-03-03T08:51:37Z</time>
      </trkpt>
      <trkpt lat="46.72518" lon="5.96354">
        <ele>592.4</ele>
        <time>2022-03-03T08:51:45Z</time>
      </trkpt>
      <trkpt lat="46.72523" lon="5.96356">
        <ele>592.4</ele>
        <time>2022-03-03T08:51:51Z</time>
      </trkpt>
      <trkpt lat="46.72528" lon="5.96358">
        <ele>592.3</ele>
        <time>2022-03-03T08:51:56Z</time>
      </trkpt>
      <trkpt lat="46.72533" lon="5.96356">
        <ele>592.2</ele>
        <time>2022-03-03T08:52:00Z</time>
      </trkpt>
      <trkpt lat="46.72538" lon="5.96354">
        <ele>592.1</ele>
        <time>2022-03-03T08:52:04Z</time>
      </trkpt>
      <trkpt lat="46.72539" lon="5.96362">
        <ele>592.3</ele>
        <time>2022-03-03T08:52:10Z</time>
      </trkpt>
      <trkpt lat="46.72538" lon="5.96369">
        <ele>592.5</ele>
        <time>2022-03-03T08:52:15Z</time>
      </trkpt>
      <trkpt lat="46.72538" lon="5.96377">
        <ele>593.2</ele>
        <time>2022-03-03T08:52:23Z</time>
      </trkpt>
      <trkpt lat="46.72537" lon="5.96383">
        <ele>593.6</ele>
        <time>2022-03-03T08:52:27Z</time>
      </trkpt>
      <trkpt lat="46.72533" lon="5.96389">
        <ele>593.9</ele>
        <time>2022-03-03T08:52:34Z</time>
      </trkpt>
      <trkpt lat="46.72529" lon="5.96395">
        <ele>594.6</ele>
        <time>2022-03-03T08:52:38Z</time>
      </trkpt>
      <trkpt lat="46.72524" lon="5.96397">
        <ele>594.6</ele>
        <time>2022-03-03T08:52:42Z</time>
      </trkpt>
      <trkpt lat="46.72519" lon="5.96397">
        <ele>593.7</ele>
        <time>2022-03-03T08:52:46Z</time>
      </trkpt>
      <trkpt lat="46.72515" lon="5.96392">
        <ele>592.6</ele>
        <time>2022-03-03T08:52:51Z</time>
      </trkpt>
      <trkpt lat="46.72511" lon="5.96388">
        <ele>590.2</ele>
        <time>2022-03-03T08:53:05Z</time>
      </trkpt>
      <trkpt lat="46.72505" lon="5.96391">
        <ele>587.3</ele>
        <time>2022-03-03T08:53:23Z</time>
      </trkpt>
      <trkpt lat="46.72501" lon="5.9639">
        <ele>586.5</ele>
        <time>2022-03-03T08:53:28Z</time>
      </trkpt>
      <trkpt lat="46.72496" lon="5.9639">
        <ele>586.1</ele>
        <time>2022-03-03T08:53:32Z</time>
      </trkpt>
      <trkpt lat="46.72491" lon="5.96387">
        <ele>585.8</ele>
        <time>2022-03-03T08:53:37Z</time>
      </trkpt>
      <trkpt lat="46.72487" lon="5.96383">
        <ele>585.5</ele>
        <time>2022-03-03T08:53:42Z</time>
      </trkpt>
      <trkpt lat="46.72482" lon="5.96381">
        <ele>585.1</ele>
        <time>2022-03-03T08:53:46Z</time>
      </trkpt>
      <trkpt lat="46.72478" lon="5.96376">
        <ele>584.5</ele>
        <time>2022-03-03T08:53:52Z</time>
      </trkpt>
      <trkpt lat="46.72475" lon="5.9637">
        <ele>583.6</ele>
        <time>2022-03-03T08:54:00Z</time>
      </trkpt>
      <trkpt lat="46.72471" lon="5.96367">
        <ele>583.3</ele>
        <time>2022-03-03T08:54:05Z</time>
      </trkpt>
      <trkpt lat="46.72466" lon="5.96368">
        <ele>583</ele>
        <time>2022-03-03T08:54:11Z</time>
      </trkpt>
      <trkpt lat="46.72461" lon="5.96368">
        <ele>582.9</ele>
        <time>2022-03-03T08:54:16Z</time>
      </trkpt>
      <trkpt lat="46.72457" lon="5.96367">
        <ele>582.8</ele>
        <time>2022-03-03T08:54:20Z</time>
      </trkpt>
      <trkpt lat="46.72453" lon="5.96363">
        <ele>582.5</ele>
        <time>2022-03-03T08:54:26Z</time>
      </trkpt>
      <trkpt lat="46.72449" lon="5.96359">
        <ele>582.5</ele>
        <time>2022-03-03T08:54:30Z</time>
      </trkpt>
      <trkpt lat="46.72446" lon="5.96354">
        <ele>582.3</ele>
        <time>2022-03-03T08:54:34Z</time>
      </trkpt>
      <trkpt lat="46.72444" lon="5.96346">
        <ele>582.4</ele>
        <time>2022-03-03T08:54:38Z</time>
      </trkpt>
      <trkpt lat="46.7244" lon="5.96342">
        <ele>582.5</ele>
        <time>2022-03-03T08:54:42Z</time>
      </trkpt>
      <trkpt lat="46.72434" lon="5.9634">
        <ele>582.7</ele>
        <time>2022-03-03T08:54:46Z</time>
      </trkpt>
      <trkpt lat="46.7243" lon="5.96337">
        <ele>583.1</ele>
        <time>2022-03-03T08:54:49Z</time>
      </trkpt>
      <trkpt lat="46.72425" lon="5.96335">
        <ele>583.3</ele>
        <time>2022-03-03T08:54:53Z</time>
      </trkpt>
      <trkpt lat="46.7242" lon="5.96333">
        <ele>583.3</ele>
        <time>2022-03-03T08:54:58Z</time>
      </trkpt>
      <trkpt lat="46.72415" lon="5.96331">
        <ele>583.8</ele>
        <time>2022-03-03T08:55:05Z</time>
      </trkpt>
      <trkpt lat="46.7241" lon="5.96334">
        <ele>584</ele>
        <time>2022-03-03T08:55:10Z</time>
      </trkpt>
      <trkpt lat="46.72406" lon="5.9633">
        <ele>584</ele>
        <time>2022-03-03T08:55:16Z</time>
      </trkpt>
      <trkpt lat="46.72402" lon="5.96326">
        <ele>583.7</ele>
        <time>2022-03-03T08:55:22Z</time>
      </trkpt>
      <trkpt lat="46.72398" lon="5.96321">
        <ele>583.1</ele>
        <time>2022-03-03T08:55:28Z</time>
      </trkpt>
      <trkpt lat="46.72394" lon="5.96317">
        <ele>582.7</ele>
        <time>2022-03-03T08:55:33Z</time>
      </trkpt>
      <trkpt lat="46.72389" lon="5.96316">
        <ele>582.3</ele>
        <time>2022-03-03T08:55:38Z</time>
      </trkpt>
      <trkpt lat="46.72384" lon="5.96315">
        <ele>581.9</ele>
        <time>2022-03-03T08:55:42Z</time>
      </trkpt>
      <trkpt lat="46.7238" lon="5.96314">
        <ele>581.5</ele>
        <time>2022-03-03T08:55:47Z</time>
      </trkpt>
      <trkpt lat="46.72375" lon="5.96311">
        <ele>580.8</ele>
        <time>2022-03-03T08:55:53Z</time>
      </trkpt>
      <trkpt lat="46.72371" lon="5.96308">
        <ele>580.2</ele>
        <time>2022-03-03T08:55:58Z</time>
      </trkpt>
      <trkpt lat="46.72366" lon="5.96304">
        <ele>579.7</ele>
        <time>2022-03-03T08:56:03Z</time>
      </trkpt>
      <trkpt lat="46.72363" lon="5.96299">
        <ele>579.5</ele>
        <time>2022-03-03T08:56:07Z</time>
      </trkpt>
      <trkpt lat="46.7236" lon="5.96295">
        <ele>579</ele>
        <time>2022-03-03T08:56:11Z</time>
      </trkpt>
      <trkpt lat="46.72355" lon="5.96291">
        <ele>578.8</ele>
        <time>2022-03-03T08:56:15Z</time>
      </trkpt>
      <trkpt lat="46.72351" lon="5.96287">
        <ele>578.9</ele>
        <time>2022-03-03T08:56:18Z</time>
      </trkpt>
      <trkpt lat="46.72347" lon="5.96281">
        <ele>579.1</ele>
        <time>2022-03-03T08:56:22Z</time>
      </trkpt>
      <trkpt lat="46.72344" lon="5.96277">
        <ele>579</ele>
        <time>2022-03-03T08:56:31Z</time>
      </trkpt>
      <trkpt lat="46.7234" lon="5.96273">
        <ele>578.6</ele>
        <time>2022-03-03T08:56:39Z</time>
      </trkpt>
      <trkpt lat="46.72336" lon="5.9627">
        <ele>578.5</ele>
        <time>2022-03-03T08:56:43Z</time>
      </trkpt>
      <trkpt lat="46.72332" lon="5.96267">
        <ele>578.5</ele>
        <time>2022-03-03T08:56:47Z</time>
      </trkpt>
      <trkpt lat="46.72328" lon="5.96263">
        <ele>578.8</ele>
        <time>2022-03-03T08:56:51Z</time>
      </trkpt>
      <trkpt lat="46.72323" lon="5.96259">
        <ele>579.1</ele>
        <time>2022-03-03T08:56:56Z</time>
      </trkpt>
      <trkpt lat="46.72318" lon="5.96257">
        <ele>579.7</ele>
        <time>2022-03-03T08:57:01Z</time>
      </trkpt>
      <trkpt lat="46.72313" lon="5.96256">
        <ele>580.6</ele>
        <time>2022-03-03T08:57:10Z</time>
      </trkpt>
      <trkpt lat="46.72307" lon="5.96257">
        <ele>580.6</ele>
        <time>2022-03-03T08:57:15Z</time>
      </trkpt>
      <trkpt lat="46.72302" lon="5.96257">
        <ele>580.6</ele>
        <time>2022-03-03T08:57:20Z</time>
      </trkpt>
      <trkpt lat="46.72297" lon="5.96255">
        <ele>580.5</ele>
        <time>2022-03-03T08:57:27Z</time>
      </trkpt>
      <trkpt lat="46.72292" lon="5.96251">
        <ele>580.7</ele>
        <time>2022-03-03T08:57:32Z</time>
      </trkpt>
      <trkpt lat="46.72288" lon="5.96247">
        <ele>580.9</ele>
        <time>2022-03-03T08:57:36Z</time>
      </trkpt>
      <trkpt lat="46.72284" lon="5.96242">
        <ele>581.2</ele>
        <time>2022-03-03T08:57:42Z</time>
      </trkpt>
      <trkpt lat="46.7228" lon="5.9624">
        <ele>581.6</ele>
        <time>2022-03-03T08:57:46Z</time>
      </trkpt>
      <trkpt lat="46.72276" lon="5.96236">
        <ele>581.8</ele>
        <time>2022-03-03T08:57:50Z</time>
      </trkpt>
      <trkpt lat="46.72273" lon="5.9623">
        <ele>582.1</ele>
        <time>2022-03-03T08:57:55Z</time>
      </trkpt>
      <trkpt lat="46.72271" lon="5.96223">
        <ele>582.3</ele>
        <time>2022-03-03T08:57:59Z</time>
      </trkpt>
      <trkpt lat="46.72271" lon="5.96215">
        <ele>582.2</ele>
        <time>2022-03-03T08:58:04Z</time>
      </trkpt>
      <trkpt lat="46.7227" lon="5.96208">
        <ele>581.9</ele>
        <time>2022-03-03T08:58:08Z</time>
      </trkpt>
      <trkpt lat="46.72271" lon="5.962">
        <ele>581.4</ele>
        <time>2022-03-03T08:58:13Z</time>
      </trkpt>
      <trkpt lat="46.72274" lon="5.96194">
        <ele>579.3</ele>
        <time>2022-03-03T08:58:22Z</time>
      </trkpt>
      <trkpt lat="46.72275" lon="5.96187">
        <ele>577.5</ele>
        <time>2022-03-03T08:58:31Z</time>
      </trkpt>
      <trkpt lat="46.72279" lon="5.96183">
        <ele>576.6</ele>
        <time>2022-03-03T08:58:39Z</time>
      </trkpt>
      <trkpt lat="46.72283" lon="5.96178">
        <ele>576.3</ele>
        <time>2022-03-03T08:58:43Z</time>
      </trkpt>
      <trkpt lat="46.72286" lon="5.96173">
        <ele>576.3</ele>
        <time>2022-03-03T08:58:46Z</time>
      </trkpt>
      <trkpt lat="46.72288" lon="5.96167">
        <ele>576.8</ele>
        <time>2022-03-03T08:58:50Z</time>
      </trkpt>
      <trkpt lat="46.7229" lon="5.96161">
        <ele>577.8</ele>
        <time>2022-03-03T08:58:55Z</time>
      </trkpt>
      <trkpt lat="46.72292" lon="5.96154">
        <ele>578.3</ele>
        <time>2022-03-03T08:59:01Z</time>
      </trkpt>
      <trkpt lat="46.72291" lon="5.96147">
        <ele>579.2</ele>
        <time>2022-03-03T08:59:06Z</time>
      </trkpt>
      <trkpt lat="46.72286" lon="5.96146">
        <ele>581.3</ele>
        <time>2022-03-03T08:59:15Z</time>
      </trkpt>
      <trkpt lat="46.72284" lon="5.96152">
        <ele>582.9</ele>
        <time>2022-03-03T08:59:21Z</time>
      </trkpt>
      <trkpt lat="46.72279" lon="5.96157">
        <ele>584.3</ele>
        <time>2022-03-03T08:59:26Z</time>
      </trkpt>
      <trkpt lat="46.72276" lon="5.96162">
        <ele>585.7</ele>
        <time>2022-03-03T08:59:31Z</time>
      </trkpt>
      <trkpt lat="46.72272" lon="5.96168">
        <ele>587.4</ele>
        <time>2022-03-03T08:59:37Z</time>
      </trkpt>
      <trkpt lat="46.72269" lon="5.96173">
        <ele>588.4</ele>
        <time>2022-03-03T08:59:42Z</time>
      </trkpt>
      <trkpt lat="46.72266" lon="5.9618">
        <ele>590.2</ele>
        <time>2022-03-03T08:59:49Z</time>
      </trkpt>
      <trkpt lat="46.72263" lon="5.96185">
        <ele>592</ele>
        <time>2022-03-03T08:59:56Z</time>
      </trkpt>
      <trkpt lat="46.7226" lon="5.96191">
        <ele>593.7</ele>
        <time>2022-03-03T09:00:03Z</time>
      </trkpt>
      <trkpt lat="46.72257" lon="5.96197">
        <ele>595.5</ele>
        <time>2022-03-03T09:00:10Z</time>
      </trkpt>
      <trkpt lat="46.72253" lon="5.96201">
        <ele>596.3</ele>
        <time>2022-03-03T09:00:15Z</time>
      </trkpt>
      <trkpt lat="46.72248" lon="5.96203">
        <ele>596.9</ele>
        <time>2022-03-03T09:00:22Z</time>
      </trkpt>
      <trkpt lat="46.72244" lon="5.96204">
        <ele>596.9</ele>
        <time>2022-03-03T09:00:25Z</time>
      </trkpt>
      <trkpt lat="46.72239" lon="5.96205">
        <ele>596.7</ele>
        <time>2022-03-03T09:00:29Z</time>
      </trkpt>
      <trkpt lat="46.72234" lon="5.96205">
        <ele>596.6</ele>
        <time>2022-03-03T09:00:35Z</time>
      </trkpt>
      <trkpt lat="46.72229" lon="5.96206">
        <ele>596.2</ele>
        <time>2022-03-03T09:00:41Z</time>
      </trkpt>
      <trkpt lat="46.72224" lon="5.96209">
        <ele>596.1</ele>
        <time>2022-03-03T09:00:48Z</time>
      </trkpt>
      <trkpt lat="46.72219" lon="5.96211">
        <ele>596.4</ele>
        <time>2022-03-03T09:00:56Z</time>
      </trkpt>
      <trkpt lat="46.72214" lon="5.9621">
        <ele>597.4</ele>
        <time>2022-03-03T09:01:02Z</time>
      </trkpt>
      <trkpt lat="46.7221" lon="5.96208">
        <ele>598.1</ele>
        <time>2022-03-03T09:01:09Z</time>
      </trkpt>
      <trkpt lat="46.72205" lon="5.96209">
        <ele>598.3</ele>
        <time>2022-03-03T09:01:13Z</time>
      </trkpt>
      <trkpt lat="46.722" lon="5.9621">
        <ele>598.6</ele>
        <time>2022-03-03T09:01:17Z</time>
      </trkpt>
      <trkpt lat="46.72195" lon="5.96212">
        <ele>599.3</ele>
        <time>2022-03-03T09:01:22Z</time>
      </trkpt>
      <trkpt lat="46.72191" lon="5.96214">
        <ele>599.7</ele>
        <time>2022-03-03T09:01:26Z</time>
      </trkpt>
      <trkpt lat="46.72186" lon="5.96216">
        <ele>600.3</ele>
        <time>2022-03-03T09:01:32Z</time>
      </trkpt>
      <trkpt lat="46.72182" lon="5.96217">
        <ele>601.1</ele>
        <time>2022-03-03T09:01:37Z</time>
      </trkpt>
      <trkpt lat="46.72178" lon="5.96222">
        <ele>602.6</ele>
        <time>2022-03-03T09:01:44Z</time>
      </trkpt>
      <trkpt lat="46.72174" lon="5.96226">
        <ele>603.6</ele>
        <time>2022-03-03T09:01:49Z</time>
      </trkpt>
      <trkpt lat="46.72171" lon="5.9623">
        <ele>604.5</ele>
        <time>2022-03-03T09:01:54Z</time>
      </trkpt>
      <trkpt lat="46.72167" lon="5.96235">
        <ele>605.1</ele>
        <time>2022-03-03T09:01:59Z</time>
      </trkpt>
      <trkpt lat="46.72163" lon="5.96238">
        <ele>606</ele>
        <time>2022-03-03T09:02:03Z</time>
      </trkpt>
      <trkpt lat="46.72159" lon="5.96241">
        <ele>607.4</ele>
        <time>2022-03-03T09:02:09Z</time>
      </trkpt>
      <trkpt lat="46.72154" lon="5.96244">
        <ele>608</ele>
        <time>2022-03-03T09:02:13Z</time>
      </trkpt>
      <trkpt lat="46.7215" lon="5.96248">
        <ele>608.1</ele>
        <time>2022-03-03T09:02:16Z</time>
      </trkpt>
      <trkpt lat="46.72146" lon="5.96252">
        <ele>608.6</ele>
        <time>2022-03-03T09:02:21Z</time>
      </trkpt>
      <trkpt lat="46.72141" lon="5.96252">
        <ele>608.7</ele>
        <time>2022-03-03T09:02:26Z</time>
      </trkpt>
      <trkpt lat="46.72136" lon="5.96255">
        <ele>608.9</ele>
        <time>2022-03-03T09:02:32Z</time>
      </trkpt>
      <trkpt lat="46.72135" lon="5.96262">
        <ele>609.2</ele>
        <time>2022-03-03T09:02:37Z</time>
      </trkpt>
      <trkpt lat="46.72132" lon="5.96267">
        <ele>609.9</ele>
        <time>2022-03-03T09:02:42Z</time>
      </trkpt>
      <trkpt lat="46.72129" lon="5.96272">
        <ele>610.5</ele>
        <time>2022-03-03T09:02:48Z</time>
      </trkpt>
      <trkpt lat="46.72126" lon="5.96279">
        <ele>610.7</ele>
        <time>2022-03-03T09:02:53Z</time>
      </trkpt>
      <trkpt lat="46.72128" lon="5.96286">
        <ele>610.2</ele>
        <time>2022-03-03T09:03:00Z</time>
      </trkpt>
      <trkpt lat="46.72126" lon="5.96293">
        <ele>609.8</ele>
        <time>2022-03-03T09:03:06Z</time>
      </trkpt>
      <trkpt lat="46.72125" lon="5.96299">
        <ele>609.6</ele>
        <time>2022-03-03T09:03:10Z</time>
      </trkpt>
      <trkpt lat="46.72124" lon="5.96306">
        <ele>609.6</ele>
        <time>2022-03-03T09:03:15Z</time>
      </trkpt>
      <trkpt lat="46.72122" lon="5.96313">
        <ele>609.8</ele>
        <time>2022-03-03T09:03:20Z</time>
      </trkpt>
      <trkpt lat="46.72121" lon="5.96319">
        <ele>610</ele>
        <time>2022-03-03T09:03:24Z</time>
      </trkpt>
      <trkpt lat="46.7212" lon="5.96327">
        <ele>610.2</ele>
        <time>2022-03-03T09:03:30Z</time>
      </trkpt>
      <trkpt lat="46.72118" lon="5.96334">
        <ele>610.4</ele>
        <time>2022-03-03T09:03:33Z</time>
      </trkpt>
      <trkpt lat="46.72118" lon="5.96341">
        <ele>610.4</ele>
        <time>2022-03-03T09:03:38Z</time>
      </trkpt>
      <trkpt lat="46.72119" lon="5.96347">
        <ele>610.3</ele>
        <time>2022-03-03T09:03:43Z</time>
      </trkpt>
      <trkpt lat="46.72118" lon="5.96355">
        <ele>610.1</ele>
        <time>2022-03-03T09:03:50Z</time>
      </trkpt>
      <trkpt lat="46.72119" lon="5.96362">
        <ele>610.3</ele>
        <time>2022-03-03T09:03:58Z</time>
      </trkpt>
      <trkpt lat="46.72119" lon="5.96369">
        <ele>611</ele>
        <time>2022-03-03T09:04:05Z</time>
      </trkpt>
      <trkpt lat="46.72117" lon="5.96375">
        <ele>610.9</ele>
        <time>2022-03-03T09:04:09Z</time>
      </trkpt>
      <trkpt lat="46.72115" lon="5.96382">
        <ele>610.1</ele>
        <time>2022-03-03T09:04:14Z</time>
      </trkpt>
      <trkpt lat="46.72116" lon="5.9639">
        <ele>609.1</ele>
        <time>2022-03-03T09:04:20Z</time>
      </trkpt>
      <trkpt lat="46.72118" lon="5.96396">
        <ele>607.9</ele>
        <time>2022-03-03T09:04:27Z</time>
      </trkpt>
      <trkpt lat="46.72116" lon="5.96402">
        <ele>607.2</ele>
        <time>2022-03-03T09:04:33Z</time>
      </trkpt>
      <trkpt lat="46.72112" lon="5.96408">
        <ele>606.9</ele>
        <time>2022-03-03T09:04:37Z</time>
      </trkpt>
      <trkpt lat="46.72109" lon="5.96413">
        <ele>606.8</ele>
        <time>2022-03-03T09:04:41Z</time>
      </trkpt>
      <trkpt lat="46.72109" lon="5.9642">
        <ele>607</ele>
        <time>2022-03-03T09:04:45Z</time>
      </trkpt>
      <trkpt lat="46.72107" lon="5.96427">
        <ele>607.5</ele>
        <time>2022-03-03T09:04:48Z</time>
      </trkpt>
      <trkpt lat="46.72105" lon="5.96434">
        <ele>608</ele>
        <time>2022-03-03T09:04:52Z</time>
      </trkpt>
      <trkpt lat="46.72104" lon="5.9644">
        <ele>609</ele>
        <time>2022-03-03T09:04:57Z</time>
      </trkpt>
      <trkpt lat="46.72105" lon="5.96447">
        <ele>610.2</ele>
        <time>2022-03-03T09:05:03Z</time>
      </trkpt>
      <trkpt lat="46.72105" lon="5.96454">
        <ele>610.6</ele>
        <time>2022-03-03T09:05:09Z</time>
      </trkpt>
      <trkpt lat="46.72106" lon="5.96461">
        <ele>610.6</ele>
        <time>2022-03-03T09:05:15Z</time>
      </trkpt>
      <trkpt lat="46.72108" lon="5.96467">
        <ele>610.5</ele>
        <time>2022-03-03T09:05:21Z</time>
      </trkpt>
      <trkpt lat="46.72111" lon="5.96473">
        <ele>610.1</ele>
        <time>2022-03-03T09:05:28Z</time>
      </trkpt>
      <trkpt lat="46.72115" lon="5.96477">
        <ele>610</ele>
        <time>2022-03-03T09:05:34Z</time>
      </trkpt>
      <trkpt lat="46.72118" lon="5.96483">
        <ele>610.2</ele>
        <time>2022-03-03T09:05:39Z</time>
      </trkpt>
      <trkpt lat="46.7212" lon="5.96489">
        <ele>610.4</ele>
        <time>2022-03-03T09:05:45Z</time>
      </trkpt>
      <trkpt lat="46.72123" lon="5.96495">
        <ele>610.7</ele>
        <time>2022-03-03T09:05:50Z</time>
      </trkpt>
      <trkpt lat="46.72127" lon="5.96499">
        <ele>611.4</ele>
        <time>2022-03-03T09:05:54Z</time>
      </trkpt>
      <trkpt lat="46.72131" lon="5.96504">
        <ele>612.1</ele>
        <time>2022-03-03T09:05:59Z</time>
      </trkpt>
      <trkpt lat="46.72135" lon="5.9651">
        <ele>612.5</ele>
        <time>2022-03-03T09:06:04Z</time>
      </trkpt>
      <trkpt lat="46.72137" lon="5.96516">
        <ele>612.9</ele>
        <time>2022-03-03T09:06:09Z</time>
      </trkpt>
      <trkpt lat="46.72141" lon="5.96519">
        <ele>613.5</ele>
        <time>2022-03-03T09:06:15Z</time>
      </trkpt>
      <trkpt lat="46.72146" lon="5.96521">
        <ele>613.5</ele>
        <time>2022-03-03T09:06:22Z</time>
      </trkpt>
      <trkpt lat="46.7215" lon="5.96526">
        <ele>613.3</ele>
        <time>2022-03-03T09:06:26Z</time>
      </trkpt>
      <trkpt lat="46.72153" lon="5.9653">
        <ele>613.4</ele>
        <time>2022-03-03T09:06:30Z</time>
      </trkpt>
      <trkpt lat="46.72157" lon="5.96534">
        <ele>613.6</ele>
        <time>2022-03-03T09:06:34Z</time>
      </trkpt>
      <trkpt lat="46.7216" lon="5.96539">
        <ele>613.9</ele>
        <time>2022-03-03T09:06:38Z</time>
      </trkpt>
      <trkpt lat="46.72163" lon="5.96545">
        <ele>614.5</ele>
        <time>2022-03-03T09:06:44Z</time>
      </trkpt>
      <trkpt lat="46.72168" lon="5.96548">
        <ele>615.2</ele>
        <time>2022-03-03T09:06:58Z</time>
      </trkpt>
      <trkpt lat="46.72172" lon="5.96553">
        <ele>615</ele>
        <time>2022-03-03T09:07:03Z</time>
      </trkpt>
      <trkpt lat="46.72173" lon="5.96559">
        <ele>614.4</ele>
        <time>2022-03-03T09:07:10Z</time>
      </trkpt>
      <trkpt lat="46.72177" lon="5.96564">
        <ele>614</ele>
        <time>2022-03-03T09:07:16Z</time>
      </trkpt>
      <trkpt lat="46.72181" lon="5.96568">
        <ele>613.6</ele>
        <time>2022-03-03T09:07:21Z</time>
      </trkpt>
      <trkpt lat="46.72185" lon="5.96571">
        <ele>613.4</ele>
        <time>2022-03-03T09:07:27Z</time>
      </trkpt>
      <trkpt lat="46.72189" lon="5.96574">
        <ele>612.8</ele>
        <time>2022-03-03T09:07:40Z</time>
      </trkpt>
      <trkpt lat="46.72194" lon="5.96577">
        <ele>612.8</ele>
        <time>2022-03-03T09:07:46Z</time>
      </trkpt>
      <trkpt lat="46.72198" lon="5.9658">
        <ele>612.9</ele>
        <time>2022-03-03T09:07:51Z</time>
      </trkpt>
      <trkpt lat="46.72203" lon="5.96583">
        <ele>613</ele>
        <time>2022-03-03T09:07:56Z</time>
      </trkpt>
      <trkpt lat="46.72208" lon="5.96586">
        <ele>613.1</ele>
        <time>2022-03-03T09:08:02Z</time>
      </trkpt>
      <trkpt lat="46.72213" lon="5.96588">
        <ele>613.4</ele>
        <time>2022-03-03T09:08:07Z</time>
      </trkpt>
      <trkpt lat="46.72218" lon="5.96589">
        <ele>613.7</ele>
        <time>2022-03-03T09:08:11Z</time>
      </trkpt>
      <trkpt lat="46.72223" lon="5.96591">
        <ele>614.1</ele>
        <time>2022-03-03T09:08:14Z</time>
      </trkpt>
      <trkpt lat="46.72227" lon="5.96594">
        <ele>614.6</ele>
        <time>2022-03-03T09:08:17Z</time>
      </trkpt>
      <trkpt lat="46.72229" lon="5.96602">
        <ele>615.3</ele>
        <time>2022-03-03T09:08:23Z</time>
      </trkpt>
      <trkpt lat="46.72232" lon="5.96607">
        <ele>615.6</ele>
        <time>2022-03-03T09:08:28Z</time>
      </trkpt>
      <trkpt lat="46.72236" lon="5.96611">
        <ele>615.8</ele>
        <time>2022-03-03T09:08:34Z</time>
      </trkpt>
      <trkpt lat="46.72241" lon="5.96612">
        <ele>616.4</ele>
        <time>2022-03-03T09:08:40Z</time>
      </trkpt>
      <trkpt lat="46.72246" lon="5.96613">
        <ele>616.9</ele>
        <time>2022-03-03T09:08:45Z</time>
      </trkpt>
      <trkpt lat="46.72251" lon="5.96614">
        <ele>617.6</ele>
        <time>2022-03-03T09:08:49Z</time>
      </trkpt>
      <trkpt lat="46.72256" lon="5.96616">
        <ele>618.4</ele>
        <time>2022-03-03T09:08:54Z</time>
      </trkpt>
      <trkpt lat="46.72261" lon="5.96619">
        <ele>619</ele>
        <time>2022-03-03T09:08:57Z</time>
      </trkpt>
      <trkpt lat="46.72264" lon="5.96625">
        <ele>619.5</ele>
        <time>2022-03-03T09:09:00Z</time>
      </trkpt>
      <trkpt lat="46.72267" lon="5.9663">
        <ele>619.8</ele>
        <time>2022-03-03T09:09:04Z</time>
      </trkpt>
      <trkpt lat="46.72271" lon="5.96634">
        <ele>619.9</ele>
        <time>2022-03-03T09:09:07Z</time>
      </trkpt>
      <trkpt lat="46.72275" lon="5.96637">
        <ele>619.9</ele>
        <time>2022-03-03T09:09:12Z</time>
      </trkpt>
      <trkpt lat="46.72279" lon="5.96642">
        <ele>619.5</ele>
        <time>2022-03-03T09:09:24Z</time>
      </trkpt>
      <trkpt lat="46.72282" lon="5.96647">
        <ele>619.1</ele>
        <time>2022-03-03T09:09:32Z</time>
      </trkpt>
      <trkpt lat="46.72286" lon="5.96651">
        <ele>619.8</ele>
        <time>2022-03-03T09:09:38Z</time>
      </trkpt>
      <trkpt lat="46.7229" lon="5.96655">
        <ele>620.5</ele>
        <time>2022-03-03T09:09:45Z</time>
      </trkpt>
      <trkpt lat="46.72293" lon="5.96661">
        <ele>621.1</ele>
        <time>2022-03-03T09:09:52Z</time>
      </trkpt>
      <trkpt lat="46.72296" lon="5.96665">
        <ele>621.7</ele>
        <time>2022-03-03T09:09:57Z</time>
      </trkpt>
      <trkpt lat="46.72301" lon="5.96671">
        <ele>622.7</ele>
        <time>2022-03-03T09:10:02Z</time>
      </trkpt>
      <trkpt lat="46.72305" lon="5.96675">
        <ele>623.9</ele>
        <time>2022-03-03T09:10:06Z</time>
      </trkpt>
      <trkpt lat="46.72309" lon="5.96679">
        <ele>625.8</ele>
        <time>2022-03-03T09:10:12Z</time>
      </trkpt>
      <trkpt lat="46.72313" lon="5.96684">
        <ele>627.2</ele>
        <time>2022-03-03T09:10:18Z</time>
      </trkpt>
      <trkpt lat="46.72317" lon="5.96689">
        <ele>628.4</ele>
        <time>2022-03-03T09:10:23Z</time>
      </trkpt>
      <trkpt lat="46.7232" lon="5.96694">
        <ele>629.3</ele>
        <time>2022-03-03T09:10:27Z</time>
      </trkpt>
      <trkpt lat="46.72322" lon="5.96701">
        <ele>631.1</ele>
        <time>2022-03-03T09:10:33Z</time>
      </trkpt>
      <trkpt lat="46.72325" lon="5.96707">
        <ele>632.2</ele>
        <time>2022-03-03T09:10:39Z</time>
      </trkpt>
      <trkpt lat="46.72327" lon="5.96714">
        <ele>633.1</ele>
        <time>2022-03-03T09:10:45Z</time>
      </trkpt>
      <trkpt lat="46.72325" lon="5.9672">
        <ele>633.7</ele>
        <time>2022-03-03T09:10:55Z</time>
      </trkpt>
      <trkpt lat="46.72324" lon="5.96727">
        <ele>633.9</ele>
        <time>2022-03-03T09:11:02Z</time>
      </trkpt>
      <trkpt lat="46.72322" lon="5.96733">
        <ele>634.1</ele>
        <time>2022-03-03T09:11:07Z</time>
      </trkpt>
      <trkpt lat="46.72321" lon="5.9674">
        <ele>634.7</ele>
        <time>2022-03-03T09:11:13Z</time>
      </trkpt>
      <trkpt lat="46.72319" lon="5.96747">
        <ele>635.7</ele>
        <time>2022-03-03T09:11:18Z</time>
      </trkpt>
      <trkpt lat="46.7232" lon="5.96754">
        <ele>636.9</ele>
        <time>2022-03-03T09:11:24Z</time>
      </trkpt>
      <trkpt lat="46.72318" lon="5.96761">
        <ele>638.1</ele>
        <time>2022-03-03T09:11:30Z</time>
      </trkpt>
      <trkpt lat="46.72316" lon="5.96768">
        <ele>638.7</ele>
        <time>2022-03-03T09:11:35Z</time>
      </trkpt>
      <trkpt lat="46.72314" lon="5.96775">
        <ele>639.3</ele>
        <time>2022-03-03T09:11:40Z</time>
      </trkpt>
      <trkpt lat="46.72311" lon="5.96781">
        <ele>639.7</ele>
        <time>2022-03-03T09:11:45Z</time>
      </trkpt>
      <trkpt lat="46.72307" lon="5.96784">
        <ele>640</ele>
        <time>2022-03-03T09:11:50Z</time>
      </trkpt>
      <trkpt lat="46.72302" lon="5.96786">
        <ele>640.5</ele>
        <time>2022-03-03T09:11:58Z</time>
      </trkpt>
      <trkpt lat="46.72297" lon="5.96785">
        <ele>641</ele>
        <time>2022-03-03T09:12:03Z</time>
      </trkpt>
      <trkpt lat="46.72292" lon="5.96786">
        <ele>641.5</ele>
        <time>2022-03-03T09:12:08Z</time>
      </trkpt>
      <trkpt lat="46.72288" lon="5.96787">
        <ele>641.9</ele>
        <time>2022-03-03T09:12:13Z</time>
      </trkpt>
      <trkpt lat="46.72283" lon="5.96787">
        <ele>642.3</ele>
        <time>2022-03-03T09:12:21Z</time>
      </trkpt>
      <trkpt lat="46.72278" lon="5.96786">
        <ele>641.3</ele>
        <time>2022-03-03T09:12:26Z</time>
      </trkpt>
      <trkpt lat="46.72272" lon="5.96788">
        <ele>640.3</ele>
        <time>2022-03-03T09:12:30Z</time>
      </trkpt>
      <trkpt lat="46.72268" lon="5.96789">
        <ele>639.4</ele>
        <time>2022-03-03T09:12:34Z</time>
      </trkpt>
      <trkpt lat="46.72263" lon="5.9679">
        <ele>638.7</ele>
        <time>2022-03-03T09:12:39Z</time>
      </trkpt>
      <trkpt lat="46.72258" lon="5.96794">
        <ele>638.6</ele>
        <time>2022-03-03T09:12:44Z</time>
      </trkpt>
      <trkpt lat="46.72253" lon="5.96796">
        <ele>638.7</ele>
        <time>2022-03-03T09:12:48Z</time>
      </trkpt>
      <trkpt lat="46.72248" lon="5.96799">
        <ele>638.7</ele>
        <time>2022-03-03T09:12:53Z</time>
      </trkpt>
      <trkpt lat="46.72243" lon="5.96801">
        <ele>638.7</ele>
        <time>2022-03-03T09:12:57Z</time>
      </trkpt>
      <trkpt lat="46.72239" lon="5.96804">
        <ele>639</ele>
        <time>2022-03-03T09:13:00Z</time>
      </trkpt>
      <trkpt lat="46.72234" lon="5.96809">
        <ele>639.7</ele>
        <time>2022-03-03T09:13:04Z</time>
      </trkpt>
      <trkpt lat="46.72231" lon="5.96813">
        <ele>640.6</ele>
        <time>2022-03-03T09:13:07Z</time>
      </trkpt>
      <trkpt lat="46.72227" lon="5.96817">
        <ele>642.5</ele>
        <time>2022-03-03T09:13:12Z</time>
      </trkpt>
      <trkpt lat="46.72222" lon="5.96821">
        <ele>644.6</ele>
        <time>2022-03-03T09:13:17Z</time>
      </trkpt>
      <trkpt lat="46.72218" lon="5.96823">
        <ele>646.4</ele>
        <time>2022-03-03T09:13:22Z</time>
      </trkpt>
      <trkpt lat="46.72213" lon="5.96827">
        <ele>648.1</ele>
        <time>2022-03-03T09:13:27Z</time>
      </trkpt>
      <trkpt lat="46.72209" lon="5.9683">
        <ele>649.8</ele>
        <time>2022-03-03T09:13:32Z</time>
      </trkpt>
      <trkpt lat="46.72204" lon="5.96828">
        <ele>651.9</ele>
        <time>2022-03-03T09:13:38Z</time>
      </trkpt>
      <trkpt lat="46.72201" lon="5.96824">
        <ele>653.4</ele>
        <time>2022-03-03T09:13:43Z</time>
      </trkpt>
      <trkpt lat="46.72196" lon="5.96824">
        <ele>654.5</ele>
        <time>2022-03-03T09:13:48Z</time>
      </trkpt>
      <trkpt lat="46.7219" lon="5.96824">
        <ele>655.4</ele>
        <time>2022-03-03T09:13:52Z</time>
      </trkpt>
      <trkpt lat="46.72185" lon="5.96825">
        <ele>656.3</ele>
        <time>2022-03-03T09:13:56Z</time>
      </trkpt>
      <trkpt lat="46.7218" lon="5.96826">
        <ele>656.9</ele>
        <time>2022-03-03T09:14:00Z</time>
      </trkpt>
      <trkpt lat="46.72176" lon="5.96829">
        <ele>657.3</ele>
        <time>2022-03-03T09:14:04Z</time>
      </trkpt>
      <trkpt lat="46.72171" lon="5.9683">
        <ele>657.8</ele>
        <time>2022-03-03T09:14:08Z</time>
      </trkpt>
      <trkpt lat="46.72166" lon="5.96833">
        <ele>658.5</ele>
        <time>2022-03-03T09:14:13Z</time>
      </trkpt>
      <trkpt lat="46.72161" lon="5.96834">
        <ele>658.9</ele>
        <time>2022-03-03T09:14:17Z</time>
      </trkpt>
      <trkpt lat="46.72156" lon="5.96834">
        <ele>659</ele>
        <time>2022-03-03T09:14:21Z</time>
      </trkpt>
      <trkpt lat="46.72151" lon="5.96835">
        <ele>658.8</ele>
        <time>2022-03-03T09:14:25Z</time>
      </trkpt>
      <trkpt lat="46.72145" lon="5.96835">
        <ele>658.5</ele>
        <time>2022-03-03T09:14:29Z</time>
      </trkpt>
      <trkpt lat="46.72141" lon="5.96834">
        <ele>655.9</ele>
        <time>2022-03-03T09:14:36Z</time>
      </trkpt>
      <trkpt lat="46.72135" lon="5.96834">
        <ele>654.1</ele>
        <time>2022-03-03T09:14:42Z</time>
      </trkpt>
      <trkpt lat="46.7213" lon="5.96835">
        <ele>653</ele>
        <time>2022-03-03T09:14:47Z</time>
      </trkpt>
      <trkpt lat="46.72125" lon="5.96835">
        <ele>652.3</ele>
        <time>2022-03-03T09:14:51Z</time>
      </trkpt>
      <trkpt lat="46.72119" lon="5.96836">
        <ele>651.9</ele>
        <time>2022-03-03T09:14:55Z</time>
      </trkpt>
      <trkpt lat="46.72115" lon="5.96837">
        <ele>651.7</ele>
        <time>2022-03-03T09:14:58Z</time>
      </trkpt>
      <trkpt lat="46.7211" lon="5.96837">
        <ele>651.2</ele>
        <time>2022-03-03T09:15:02Z</time>
      </trkpt>
      <trkpt lat="46.72105" lon="5.96837">
        <ele>651.2</ele>
        <time>2022-03-03T09:15:06Z</time>
      </trkpt>
      <trkpt lat="46.721" lon="5.96839">
        <ele>651.7</ele>
        <time>2022-03-03T09:15:10Z</time>
      </trkpt>
      <trkpt lat="46.72095" lon="5.9684">
        <ele>652.2</ele>
        <time>2022-03-03T09:15:14Z</time>
      </trkpt>
      <trkpt lat="46.72091" lon="5.9684">
        <ele>653.3</ele>
        <time>2022-03-03T09:15:21Z</time>
      </trkpt>
      <trkpt lat="46.72085" lon="5.9684">
        <ele>653.7</ele>
        <time>2022-03-03T09:15:27Z</time>
      </trkpt>
      <trkpt lat="46.7208" lon="5.96839">
        <ele>653.7</ele>
        <time>2022-03-03T09:15:31Z</time>
      </trkpt>
      <trkpt lat="46.72074" lon="5.9684">
        <ele>653.8</ele>
        <time>2022-03-03T09:15:35Z</time>
      </trkpt>
      <trkpt lat="46.72069" lon="5.96841">
        <ele>654.3</ele>
        <time>2022-03-03T09:15:41Z</time>
      </trkpt>
      <trkpt lat="46.72064" lon="5.96841">
        <ele>653.6</ele>
        <time>2022-03-03T09:15:49Z</time>
      </trkpt>
      <trkpt lat="46.72058" lon="5.96839">
        <ele>652.8</ele>
        <time>2022-03-03T09:15:52Z</time>
      </trkpt>
      <trkpt lat="46.72052" lon="5.96839">
        <ele>652.1</ele>
        <time>2022-03-03T09:15:55Z</time>
      </trkpt>
      <trkpt lat="46.72047" lon="5.96838">
        <ele>651.2</ele>
        <time>2022-03-03T09:15:58Z</time>
      </trkpt>
      <trkpt lat="46.72042" lon="5.96837">
        <ele>650.5</ele>
        <time>2022-03-03T09:16:01Z</time>
      </trkpt>
      <trkpt lat="46.72037" lon="5.96835">
        <ele>648.9</ele>
        <time>2022-03-03T09:16:06Z</time>
      </trkpt>
      <trkpt lat="46.72032" lon="5.96834">
        <ele>646.7</ele>
        <time>2022-03-03T09:16:13Z</time>
      </trkpt>
      <trkpt lat="46.72027" lon="5.96832">
        <ele>645.7</ele>
        <time>2022-03-03T09:16:17Z</time>
      </trkpt>
      <trkpt lat="46.72022" lon="5.96832">
        <ele>645.1</ele>
        <time>2022-03-03T09:16:21Z</time>
      </trkpt>
      <trkpt lat="46.72017" lon="5.96831">
        <ele>644.9</ele>
        <time>2022-03-03T09:16:25Z</time>
      </trkpt>
      <trkpt lat="46.72012" lon="5.96832">
        <ele>645</ele>
        <time>2022-03-03T09:16:29Z</time>
      </trkpt>
      <trkpt lat="46.72007" lon="5.9683">
        <ele>644.9</ele>
        <time>2022-03-03T09:16:35Z</time>
      </trkpt>
      <trkpt lat="46.72002" lon="5.96829">
        <ele>644.6</ele>
        <time>2022-03-03T09:16:41Z</time>
      </trkpt>
      <trkpt lat="46.71997" lon="5.96829">
        <ele>644.8</ele>
        <time>2022-03-03T09:16:49Z</time>
      </trkpt>
      <trkpt lat="46.71992" lon="5.96829">
        <ele>645.2</ele>
        <time>2022-03-03T09:16:54Z</time>
      </trkpt>
      <trkpt lat="46.71987" lon="5.96828">
        <ele>645.5</ele>
        <time>2022-03-03T09:16:58Z</time>
      </trkpt>
      <trkpt lat="46.71982" lon="5.96827">
        <ele>646</ele>
        <time>2022-03-03T09:17:03Z</time>
      </trkpt>
      <trkpt lat="46.71976" lon="5.96826">
        <ele>646.5</ele>
        <time>2022-03-03T09:17:07Z</time>
      </trkpt>
      <trkpt lat="46.71972" lon="5.96825">
        <ele>646.6</ele>
        <time>2022-03-03T09:17:11Z</time>
      </trkpt>
      <trkpt lat="46.71966" lon="5.96824">
        <ele>646</ele>
        <time>2022-03-03T09:17:15Z</time>
      </trkpt>
      <trkpt lat="46.71961" lon="5.96823">
        <ele>645.4</ele>
        <time>2022-03-03T09:17:19Z</time>
      </trkpt>
      <trkpt lat="46.71956" lon="5.96822">
        <ele>645</ele>
        <time>2022-03-03T09:17:24Z</time>
      </trkpt>
      <trkpt lat="46.71951" lon="5.96822">
        <ele>644.7</ele>
        <time>2022-03-03T09:17:30Z</time>
      </trkpt>
      <trkpt lat="46.71947" lon="5.96819">
        <ele>644.7</ele>
        <time>2022-03-03T09:17:34Z</time>
      </trkpt>
      <trkpt lat="46.71942" lon="5.96817">
        <ele>645.1</ele>
        <time>2022-03-03T09:17:38Z</time>
      </trkpt>
      <trkpt lat="46.71937" lon="5.96816">
        <ele>645.2</ele>
        <time>2022-03-03T09:17:43Z</time>
      </trkpt>
      <trkpt lat="46.71931" lon="5.96815">
        <ele>645.1</ele>
        <time>2022-03-03T09:17:47Z</time>
      </trkpt>
      <trkpt lat="46.71926" lon="5.96816">
        <ele>645.3</ele>
        <time>2022-03-03T09:17:51Z</time>
      </trkpt>
      <trkpt lat="46.71921" lon="5.96814">
        <ele>645.5</ele>
        <time>2022-03-03T09:17:56Z</time>
      </trkpt>
      <trkpt lat="46.71916" lon="5.96814">
        <ele>645.5</ele>
        <time>2022-03-03T09:18:01Z</time>
      </trkpt>
      <trkpt lat="46.71911" lon="5.96815">
        <ele>645.5</ele>
        <time>2022-03-03T09:18:06Z</time>
      </trkpt>
      <trkpt lat="46.71905" lon="5.96815">
        <ele>645.5</ele>
        <time>2022-03-03T09:18:12Z</time>
      </trkpt>
      <trkpt lat="46.71901" lon="5.96815">
        <ele>645.6</ele>
        <time>2022-03-03T09:18:16Z</time>
      </trkpt>
      <trkpt lat="46.71895" lon="5.96814">
        <ele>645.5</ele>
        <time>2022-03-03T09:18:21Z</time>
      </trkpt>
      <trkpt lat="46.71888" lon="5.96815">
        <ele>645.5</ele>
        <time>2022-03-03T09:18:25Z</time>
      </trkpt>
      <trkpt lat="46.71883" lon="5.96815">
        <ele>645.8</ele>
        <time>2022-03-03T09:18:28Z</time>
      </trkpt>
      <trkpt lat="46.71879" lon="5.96815">
        <ele>645.7</ele>
        <time>2022-03-03T09:18:32Z</time>
      </trkpt>
      <trkpt lat="46.71874" lon="5.96815">
        <ele>645.6</ele>
        <time>2022-03-03T09:18:36Z</time>
      </trkpt>
      <trkpt lat="46.71869" lon="5.96813">
        <ele>645.9</ele>
        <time>2022-03-03T09:18:40Z</time>
      </trkpt>
      <trkpt lat="46.71865" lon="5.96812">
        <ele>646.2</ele>
        <time>2022-03-03T09:18:45Z</time>
      </trkpt>
      <trkpt lat="46.7186" lon="5.96809">
        <ele>645.9</ele>
        <time>2022-03-03T09:18:51Z</time>
      </trkpt>
      <trkpt lat="46.71856" lon="5.96808">
        <ele>645.5</ele>
        <time>2022-03-03T09:18:54Z</time>
      </trkpt>
      <trkpt lat="46.71851" lon="5.96805">
        <ele>644.7</ele>
        <time>2022-03-03T09:18:58Z</time>
      </trkpt>
      <trkpt lat="46.71846" lon="5.96802">
        <ele>644.3</ele>
        <time>2022-03-03T09:19:02Z</time>
      </trkpt>
      <trkpt lat="46.71841" lon="5.96798">
        <ele>644.3</ele>
        <time>2022-03-03T09:19:08Z</time>
      </trkpt>
      <trkpt lat="46.71837" lon="5.96794">
        <ele>644.3</ele>
        <time>2022-03-03T09:19:14Z</time>
      </trkpt>
      <trkpt lat="46.71832" lon="5.96791">
        <ele>644.3</ele>
        <time>2022-03-03T09:19:18Z</time>
      </trkpt>
      <trkpt lat="46.71827" lon="5.96788">
        <ele>644.1</ele>
        <time>2022-03-03T09:19:22Z</time>
      </trkpt>
      <trkpt lat="46.71822" lon="5.96786">
        <ele>644.2</ele>
        <time>2022-03-03T09:19:25Z</time>
      </trkpt>
      <trkpt lat="46.71816" lon="5.96783">
        <ele>644.5</ele>
        <time>2022-03-03T09:19:28Z</time>
      </trkpt>
      <trkpt lat="46.71811" lon="5.96781">
        <ele>644.9</ele>
        <time>2022-03-03T09:19:31Z</time>
      </trkpt>
      <trkpt lat="46.71807" lon="5.96778">
        <ele>645.4</ele>
        <time>2022-03-03T09:19:35Z</time>
      </trkpt>
      <trkpt lat="46.71803" lon="5.96774">
        <ele>646.1</ele>
        <time>2022-03-03T09:19:41Z</time>
      </trkpt>
      <trkpt lat="46.718" lon="5.96769">
        <ele>646.5</ele>
        <time>2022-03-03T09:19:50Z</time>
      </trkpt>
      <trkpt lat="46.71797" lon="5.96765">
        <ele>647.3</ele>
        <time>2022-03-03T09:19:57Z</time>
      </trkpt>
      <trkpt lat="46.71791" lon="5.96762">
        <ele>647.4</ele>
        <time>2022-03-03T09:20:02Z</time>
      </trkpt>
      <trkpt lat="46.71787" lon="5.9676">
        <ele>647.1</ele>
        <time>2022-03-03T09:20:06Z</time>
      </trkpt>
      <trkpt lat="46.71783" lon="5.96756">
        <ele>647.6</ele>
        <time>2022-03-03T09:20:11Z</time>
      </trkpt>
      <trkpt lat="46.71778" lon="5.96753">
        <ele>648.3</ele>
        <time>2022-03-03T09:20:16Z</time>
      </trkpt>
      <trkpt lat="46.71774" lon="5.9675">
        <ele>648.7</ele>
        <time>2022-03-03T09:20:21Z</time>
      </trkpt>
      <trkpt lat="46.7177" lon="5.96747">
        <ele>648.9</ele>
        <time>2022-03-03T09:20:25Z</time>
      </trkpt>
      <trkpt lat="46.71767" lon="5.96742">
        <ele>648.8</ele>
        <time>2022-03-03T09:20:31Z</time>
      </trkpt>
      <trkpt lat="46.71761" lon="5.96739">
        <ele>648.6</ele>
        <time>2022-03-03T09:20:36Z</time>
      </trkpt>
      <trkpt lat="46.71756" lon="5.96736">
        <ele>649.1</ele>
        <time>2022-03-03T09:20:40Z</time>
      </trkpt>
      <trkpt lat="46.71751" lon="5.96733">
        <ele>649.7</ele>
        <time>2022-03-03T09:20:44Z</time>
      </trkpt>
      <trkpt lat="46.71747" lon="5.96731">
        <ele>650.2</ele>
        <time>2022-03-03T09:20:48Z</time>
      </trkpt>
      <trkpt lat="46.71743" lon="5.96728">
        <ele>650.4</ele>
        <time>2022-03-03T09:20:53Z</time>
      </trkpt>
      <trkpt lat="46.71739" lon="5.96725">
        <ele>650.5</ele>
        <time>2022-03-03T09:21:00Z</time>
      </trkpt>
      <trkpt lat="46.71735" lon="5.9672">
        <ele>650.4</ele>
        <time>2022-03-03T09:21:09Z</time>
      </trkpt>
      <trkpt lat="46.7173" lon="5.96719">
        <ele>650.3</ele>
        <time>2022-03-03T09:21:13Z</time>
      </trkpt>
      <trkpt lat="46.71725" lon="5.96717">
        <ele>650.6</ele>
        <time>2022-03-03T09:21:19Z</time>
      </trkpt>
      <trkpt lat="46.71721" lon="5.96714">
        <ele>650.8</ele>
        <time>2022-03-03T09:21:24Z</time>
      </trkpt>
      <trkpt lat="46.71716" lon="5.96712">
        <ele>651</ele>
        <time>2022-03-03T09:21:29Z</time>
      </trkpt>
      <trkpt lat="46.71712" lon="5.96708">
        <ele>651</ele>
        <time>2022-03-03T09:21:34Z</time>
      </trkpt>
      <trkpt lat="46.71708" lon="5.96705">
        <ele>651.1</ele>
        <time>2022-03-03T09:21:40Z</time>
      </trkpt>
      <trkpt lat="46.71702" lon="5.96704">
        <ele>651.3</ele>
        <time>2022-03-03T09:21:45Z</time>
      </trkpt>
      <trkpt lat="46.71697" lon="5.96704">
        <ele>651.6</ele>
        <time>2022-03-03T09:21:49Z</time>
      </trkpt>
      <trkpt lat="46.71692" lon="5.96702">
        <ele>652.2</ele>
        <time>2022-03-03T09:21:54Z</time>
      </trkpt>
      <trkpt lat="46.71687" lon="5.96699">
        <ele>652.5</ele>
        <time>2022-03-03T09:21:58Z</time>
      </trkpt>
      <trkpt lat="46.71682" lon="5.96697">
        <ele>652.5</ele>
        <time>2022-03-03T09:22:02Z</time>
      </trkpt>
      <trkpt lat="46.71678" lon="5.96694">
        <ele>652.5</ele>
        <time>2022-03-03T09:22:08Z</time>
      </trkpt>
      <trkpt lat="46.71673" lon="5.96691">
        <ele>652.7</ele>
        <time>2022-03-03T09:22:13Z</time>
      </trkpt>
      <trkpt lat="46.71669" lon="5.96689">
        <ele>652.7</ele>
        <time>2022-03-03T09:22:17Z</time>
      </trkpt>
      <trkpt lat="46.71664" lon="5.96686">
        <ele>652.2</ele>
        <time>2022-03-03T09:22:22Z</time>
      </trkpt>
      <trkpt lat="46.71659" lon="5.96685">
        <ele>651.5</ele>
        <time>2022-03-03T09:22:27Z</time>
      </trkpt>
      <trkpt lat="46.71655" lon="5.9668">
        <ele>650.7</ele>
        <time>2022-03-03T09:22:33Z</time>
      </trkpt>
      <trkpt lat="46.71653" lon="5.96673">
        <ele>650.7</ele>
        <time>2022-03-03T09:22:39Z</time>
      </trkpt>
      <trkpt lat="46.71648" lon="5.96671">
        <ele>650.9</ele>
        <time>2022-03-03T09:22:44Z</time>
      </trkpt>
      <trkpt lat="46.71643" lon="5.9667">
        <ele>651.1</ele>
        <time>2022-03-03T09:22:48Z</time>
      </trkpt>
      <trkpt lat="46.71638" lon="5.96669">
        <ele>651.4</ele>
        <time>2022-03-03T09:22:52Z</time>
      </trkpt>
      <trkpt lat="46.71633" lon="5.96668">
        <ele>651.8</ele>
        <time>2022-03-03T09:22:56Z</time>
      </trkpt>
      <trkpt lat="46.71629" lon="5.96665">
        <ele>652.3</ele>
        <time>2022-03-03T09:23:02Z</time>
      </trkpt>
      <trkpt lat="46.71624" lon="5.96664">
        <ele>652.9</ele>
        <time>2022-03-03T09:23:06Z</time>
      </trkpt>
      <trkpt lat="46.71618" lon="5.96663">
        <ele>653.4</ele>
        <time>2022-03-03T09:23:10Z</time>
      </trkpt>
      <trkpt lat="46.71614" lon="5.96663">
        <ele>654.1</ele>
        <time>2022-03-03T09:23:13Z</time>
      </trkpt>
      <trkpt lat="46.71608" lon="5.96663">
        <ele>654.9</ele>
        <time>2022-03-03T09:23:17Z</time>
      </trkpt>
      <trkpt lat="46.71604" lon="5.96658">
        <ele>655.5</ele>
        <time>2022-03-03T09:23:22Z</time>
      </trkpt>
      <trkpt lat="46.71599" lon="5.96657">
        <ele>655.7</ele>
        <time>2022-03-03T09:23:28Z</time>
      </trkpt>
      <trkpt lat="46.71594" lon="5.96656">
        <ele>656.9</ele>
        <time>2022-03-03T09:23:34Z</time>
      </trkpt>
      <trkpt lat="46.7159" lon="5.96656">
        <ele>657.8</ele>
        <time>2022-03-03T09:23:39Z</time>
      </trkpt>
      <trkpt lat="46.71584" lon="5.96655">
        <ele>658.3</ele>
        <time>2022-03-03T09:23:44Z</time>
      </trkpt>
      <trkpt lat="46.7158" lon="5.96651">
        <ele>658.3</ele>
        <time>2022-03-03T09:23:49Z</time>
      </trkpt>
      <trkpt lat="46.71575" lon="5.96647">
        <ele>658.3</ele>
        <time>2022-03-03T09:23:54Z</time>
      </trkpt>
      <trkpt lat="46.7157" lon="5.96645">
        <ele>658.7</ele>
        <time>2022-03-03T09:23:59Z</time>
      </trkpt>
      <trkpt lat="46.71565" lon="5.96642">
        <ele>659.2</ele>
        <time>2022-03-03T09:24:03Z</time>
      </trkpt>
      <trkpt lat="46.71561" lon="5.96639">
        <ele>660.2</ele>
        <time>2022-03-03T09:24:10Z</time>
      </trkpt>
      <trkpt lat="46.71557" lon="5.96638">
        <ele>661.1</ele>
        <time>2022-03-03T09:24:16Z</time>
      </trkpt>
      <trkpt lat="46.71552" lon="5.96635">
        <ele>661.5</ele>
        <time>2022-03-03T09:24:22Z</time>
      </trkpt>
      <trkpt lat="46.71547" lon="5.96633">
        <ele>661.3</ele>
        <time>2022-03-03T09:24:27Z</time>
      </trkpt>
      <trkpt lat="46.71542" lon="5.96631">
        <ele>660.8</ele>
        <time>2022-03-03T09:24:30Z</time>
      </trkpt>
      <trkpt lat="46.71537" lon="5.9663">
        <ele>660.3</ele>
        <time>2022-03-03T09:24:34Z</time>
      </trkpt>
      <trkpt lat="46.71532" lon="5.96628">
        <ele>659.9</ele>
        <time>2022-03-03T09:24:40Z</time>
      </trkpt>
      <trkpt lat="46.71526" lon="5.96627">
        <ele>659.8</ele>
        <time>2022-03-03T09:24:45Z</time>
      </trkpt>
      <trkpt lat="46.71521" lon="5.96627">
        <ele>659.8</ele>
        <time>2022-03-03T09:24:49Z</time>
      </trkpt>
      <trkpt lat="46.71516" lon="5.96626">
        <ele>660.1</ele>
        <time>2022-03-03T09:24:53Z</time>
      </trkpt>
      <trkpt lat="46.71511" lon="5.96624">
        <ele>660.3</ele>
        <time>2022-03-03T09:24:59Z</time>
      </trkpt>
      <trkpt lat="46.71508" lon="5.96619">
        <ele>660</ele>
        <time>2022-03-03T09:25:05Z</time>
      </trkpt>
      <trkpt lat="46.71504" lon="5.96617">
        <ele>660.3</ele>
        <time>2022-03-03T09:25:09Z</time>
      </trkpt>
      <trkpt lat="46.71499" lon="5.96617">
        <ele>660.5</ele>
        <time>2022-03-03T09:25:13Z</time>
      </trkpt>
      <trkpt lat="46.71494" lon="5.96616">
        <ele>661.1</ele>
        <time>2022-03-03T09:25:17Z</time>
      </trkpt>
      <trkpt lat="46.7149" lon="5.96615">
        <ele>661.6</ele>
        <time>2022-03-03T09:25:21Z</time>
      </trkpt>
      <trkpt lat="46.71485" lon="5.96614">
        <ele>661.9</ele>
        <time>2022-03-03T09:25:27Z</time>
      </trkpt>
      <trkpt lat="46.7148" lon="5.96611">
        <ele>662.4</ele>
        <time>2022-03-03T09:25:32Z</time>
      </trkpt>
      <trkpt lat="46.71477" lon="5.96607">
        <ele>663</ele>
        <time>2022-03-03T09:25:37Z</time>
      </trkpt>
      <trkpt lat="46.71472" lon="5.96603">
        <ele>663.4</ele>
        <time>2022-03-03T09:25:43Z</time>
      </trkpt>
      <trkpt lat="46.71467" lon="5.96602">
        <ele>663.6</ele>
        <time>2022-03-03T09:25:48Z</time>
      </trkpt>
      <trkpt lat="46.71462" lon="5.96601">
        <ele>664.3</ele>
        <time>2022-03-03T09:25:54Z</time>
      </trkpt>
      <trkpt lat="46.71458" lon="5.96599">
        <ele>665.2</ele>
        <time>2022-03-03T09:26:00Z</time>
      </trkpt>
      <trkpt lat="46.71453" lon="5.96596">
        <ele>665.9</ele>
        <time>2022-03-03T09:26:05Z</time>
      </trkpt>
      <trkpt lat="46.71447" lon="5.96594">
        <ele>666.6</ele>
        <time>2022-03-03T09:26:09Z</time>
      </trkpt>
      <trkpt lat="46.71442" lon="5.96592">
        <ele>667.1</ele>
        <time>2022-03-03T09:26:13Z</time>
      </trkpt>
      <trkpt lat="46.71437" lon="5.96591">
        <ele>667.8</ele>
        <time>2022-03-03T09:26:18Z</time>
      </trkpt>
      <trkpt lat="46.71432" lon="5.96589">
        <ele>668.1</ele>
        <time>2022-03-03T09:26:22Z</time>
      </trkpt>
      <trkpt lat="46.71426" lon="5.96588">
        <ele>668.4</ele>
        <time>2022-03-03T09:26:26Z</time>
      </trkpt>
      <trkpt lat="46.71421" lon="5.96587">
        <ele>668.1</ele>
        <time>2022-03-03T09:26:30Z</time>
      </trkpt>
      <trkpt lat="46.71417" lon="5.96583">
        <ele>667</ele>
        <time>2022-03-03T09:26:36Z</time>
      </trkpt>
      <trkpt lat="46.71412" lon="5.96582">
        <ele>666.5</ele>
        <time>2022-03-03T09:26:42Z</time>
      </trkpt>
      <trkpt lat="46.71406" lon="5.9658">
        <ele>666.7</ele>
        <time>2022-03-03T09:26:47Z</time>
      </trkpt>
      <trkpt lat="46.71402" lon="5.96576">
        <ele>666.8</ele>
        <time>2022-03-03T09:26:52Z</time>
      </trkpt>
      <trkpt lat="46.71397" lon="5.96574">
        <ele>666.4</ele>
        <time>2022-03-03T09:26:59Z</time>
      </trkpt>
      <trkpt lat="46.71393" lon="5.96572">
        <ele>666.4</ele>
        <time>2022-03-03T09:27:04Z</time>
      </trkpt>
      <trkpt lat="46.71388" lon="5.96571">
        <ele>666.7</ele>
        <time>2022-03-03T09:27:08Z</time>
      </trkpt>
      <trkpt lat="46.71383" lon="5.96571">
        <ele>667.4</ele>
        <time>2022-03-03T09:27:13Z</time>
      </trkpt>
      <trkpt lat="46.71378" lon="5.96571">
        <ele>668.7</ele>
        <time>2022-03-03T09:27:19Z</time>
      </trkpt>
      <trkpt lat="46.71374" lon="5.96568">
        <ele>668.9</ele>
        <time>2022-03-03T09:27:26Z</time>
      </trkpt>
      <trkpt lat="46.71369" lon="5.96569">
        <ele>669</ele>
        <time>2022-03-03T09:27:30Z</time>
      </trkpt>
      <trkpt lat="46.71365" lon="5.96568">
        <ele>669.5</ele>
        <time>2022-03-03T09:27:38Z</time>
      </trkpt>
      <trkpt lat="46.71359" lon="5.96569">
        <ele>671.6</ele>
        <time>2022-03-03T09:28:56Z</time>
      </trkpt>
      <trkpt lat="46.71354" lon="5.96568">
        <ele>672.9</ele>
        <time>2022-03-03T09:29:00Z</time>
      </trkpt>
      <trkpt lat="46.71349" lon="5.96567">
        <ele>674.5</ele>
        <time>2022-03-03T09:29:07Z</time>
      </trkpt>
      <trkpt lat="46.71344" lon="5.96568">
        <ele>675.8</ele>
        <time>2022-03-03T09:29:16Z</time>
      </trkpt>
      <trkpt lat="46.71339" lon="5.96566">
        <ele>675.9</ele>
        <time>2022-03-03T09:29:22Z</time>
      </trkpt>
      <trkpt lat="46.71335" lon="5.96563">
        <ele>675.9</ele>
        <time>2022-03-03T09:29:28Z</time>
      </trkpt>
      <trkpt lat="46.7133" lon="5.96563">
        <ele>676.5</ele>
        <time>2022-03-03T09:29:32Z</time>
      </trkpt>
      <trkpt lat="46.71325" lon="5.96562">
        <ele>678</ele>
        <time>2022-03-03T09:29:37Z</time>
      </trkpt>
      <trkpt lat="46.7132" lon="5.9656">
        <ele>679.2</ele>
        <time>2022-03-03T09:29:46Z</time>
      </trkpt>
      <trkpt lat="46.71315" lon="5.96559">
        <ele>678.3</ele>
        <time>2022-03-03T09:29:51Z</time>
      </trkpt>
      <trkpt lat="46.7131" lon="5.96559">
        <ele>676.7</ele>
        <time>2022-03-03T09:29:57Z</time>
      </trkpt>
      <trkpt lat="46.71306" lon="5.96559">
        <ele>674.7</ele>
        <time>2022-03-03T09:30:04Z</time>
      </trkpt>
      <trkpt lat="46.71301" lon="5.96556">
        <ele>673.3</ele>
        <time>2022-03-03T09:30:10Z</time>
      </trkpt>
      <trkpt lat="46.71296" lon="5.96554">
        <ele>672.1</ele>
        <time>2022-03-03T09:30:16Z</time>
      </trkpt>
      <trkpt lat="46.71291" lon="5.96554">
        <ele>670.5</ele>
        <time>2022-03-03T09:30:23Z</time>
      </trkpt>
      <trkpt lat="46.71286" lon="5.96554">
        <ele>669.6</ele>
        <time>2022-03-03T09:30:28Z</time>
      </trkpt>
      <trkpt lat="46.71281" lon="5.96554">
        <ele>669.2</ele>
        <time>2022-03-03T09:30:34Z</time>
      </trkpt>
      <trkpt lat="46.71276" lon="5.96554">
        <ele>669.3</ele>
        <time>2022-03-03T09:30:39Z</time>
      </trkpt>
      <trkpt lat="46.7127" lon="5.96555">
        <ele>669.4</ele>
        <time>2022-03-03T09:30:44Z</time>
      </trkpt>
      <trkpt lat="46.71265" lon="5.96557">
        <ele>669.7</ele>
        <time>2022-03-03T09:30:49Z</time>
      </trkpt>
      <trkpt lat="46.7126" lon="5.96559">
        <ele>669.7</ele>
        <time>2022-03-03T09:30:53Z</time>
      </trkpt>
      <trkpt lat="46.71255" lon="5.96561">
        <ele>669.2</ele>
        <time>2022-03-03T09:30:57Z</time>
      </trkpt>
      <trkpt lat="46.7125" lon="5.96563">
        <ele>668.8</ele>
        <time>2022-03-03T09:31:02Z</time>
      </trkpt>
      <trkpt lat="46.71246" lon="5.96566">
        <ele>669.1</ele>
        <time>2022-03-03T09:31:07Z</time>
      </trkpt>
      <trkpt lat="46.7125" lon="5.96567">
        <ele>672</ele>
        <time>2022-03-03T09:31:23Z</time>
      </trkpt>
      <trkpt lat="46.71247" lon="5.96571">
        <ele>676.8</ele>
        <time>2022-03-03T09:32:18Z</time>
      </trkpt>
      <trkpt lat="46.71242" lon="5.96571">
        <ele>675.2</ele>
        <time>2022-03-03T09:32:31Z</time>
      </trkpt>
      <trkpt lat="46.71238" lon="5.96566">
        <ele>675</ele>
        <time>2022-03-03T09:32:37Z</time>
      </trkpt>
      <trkpt lat="46.71234" lon="5.96565">
        <ele>675.4</ele>
        <time>2022-03-03T09:32:40Z</time>
      </trkpt>
      <trkpt lat="46.71229" lon="5.96565">
        <ele>676.3</ele>
        <time>2022-03-03T09:32:44Z</time>
      </trkpt>
      <trkpt lat="46.71224" lon="5.96567">
        <ele>676.9</ele>
        <time>2022-03-03T09:32:49Z</time>
      </trkpt>
      <trkpt lat="46.71219" lon="5.96568">
        <ele>677.5</ele>
        <time>2022-03-03T09:32:53Z</time>
      </trkpt>
      <trkpt lat="46.71214" lon="5.96565">
        <ele>678.4</ele>
        <time>2022-03-03T09:32:59Z</time>
      </trkpt>
      <trkpt lat="46.71209" lon="5.96564">
        <ele>679.4</ele>
        <time>2022-03-03T09:33:04Z</time>
      </trkpt>
      <trkpt lat="46.71205" lon="5.96565">
        <ele>679.9</ele>
        <time>2022-03-03T09:33:08Z</time>
      </trkpt>
      <trkpt lat="46.712" lon="5.96568">
        <ele>680.4</ele>
        <time>2022-03-03T09:33:12Z</time>
      </trkpt>
      <trkpt lat="46.71195" lon="5.96568">
        <ele>681.4</ele>
        <time>2022-03-03T09:33:19Z</time>
      </trkpt>
      <trkpt lat="46.7119" lon="5.96567">
        <ele>681.8</ele>
        <time>2022-03-03T09:33:24Z</time>
      </trkpt>
      <trkpt lat="46.71184" lon="5.96568">
        <ele>681.5</ele>
        <time>2022-03-03T09:33:29Z</time>
      </trkpt>
      <trkpt lat="46.71179" lon="5.9657">
        <ele>680.6</ele>
        <time>2022-03-03T09:33:35Z</time>
      </trkpt>
      <trkpt lat="46.71174" lon="5.96572">
        <ele>679.8</ele>
        <time>2022-03-03T09:33:39Z</time>
      </trkpt>
      <trkpt lat="46.71169" lon="5.96574">
        <ele>679.4</ele>
        <time>2022-03-03T09:33:43Z</time>
      </trkpt>
      <trkpt lat="46.71164" lon="5.96576">
        <ele>679.3</ele>
        <time>2022-03-03T09:33:46Z</time>
      </trkpt>
      <trkpt lat="46.71159" lon="5.96576">
        <ele>679.7</ele>
        <time>2022-03-03T09:33:51Z</time>
      </trkpt>
      <trkpt lat="46.71155" lon="5.96577">
        <ele>680.4</ele>
        <time>2022-03-03T09:33:56Z</time>
      </trkpt>
      <trkpt lat="46.7115" lon="5.96575">
        <ele>681.4</ele>
        <time>2022-03-03T09:34:04Z</time>
      </trkpt>
      <trkpt lat="46.71145" lon="5.96576">
        <ele>681.9</ele>
        <time>2022-03-03T09:34:08Z</time>
      </trkpt>
      <trkpt lat="46.7114" lon="5.96578">
        <ele>682.1</ele>
        <time>2022-03-03T09:34:12Z</time>
      </trkpt>
      <trkpt lat="46.71135" lon="5.96578">
        <ele>682.1</ele>
        <time>2022-03-03T09:34:17Z</time>
      </trkpt>
      <trkpt lat="46.7113" lon="5.96578">
        <ele>681.8</ele>
        <time>2022-03-03T09:34:23Z</time>
      </trkpt>
      <trkpt lat="46.71125" lon="5.96577">
        <ele>682</ele>
        <time>2022-03-03T09:34:28Z</time>
      </trkpt>
      <trkpt lat="46.7112" lon="5.96579">
        <ele>681.8</ele>
        <time>2022-03-03T09:34:32Z</time>
      </trkpt>
      <trkpt lat="46.71116" lon="5.96576">
        <ele>680.8</ele>
        <time>2022-03-03T09:34:37Z</time>
      </trkpt>
      <trkpt lat="46.71113" lon="5.96571">
        <ele>679.8</ele>
        <time>2022-03-03T09:34:44Z</time>
      </trkpt>
      <trkpt lat="46.71108" lon="5.96568">
        <ele>679.8</ele>
        <time>2022-03-03T09:34:49Z</time>
      </trkpt>
      <trkpt lat="46.71103" lon="5.96566">
        <ele>680.9</ele>
        <time>2022-03-03T09:34:55Z</time>
      </trkpt>
      <trkpt lat="46.71099" lon="5.96562">
        <ele>682</ele>
        <time>2022-03-03T09:35:01Z</time>
      </trkpt>
      <trkpt lat="46.71094" lon="5.96561">
        <ele>682.5</ele>
        <time>2022-03-03T09:35:05Z</time>
      </trkpt>
      <trkpt lat="46.7109" lon="5.96558">
        <ele>682.7</ele>
        <time>2022-03-03T09:35:10Z</time>
      </trkpt>
      <trkpt lat="46.71086" lon="5.96556">
        <ele>682.9</ele>
        <time>2022-03-03T09:35:15Z</time>
      </trkpt>
      <trkpt lat="46.71081" lon="5.96553">
        <ele>682.9</ele>
        <time>2022-03-03T09:35:19Z</time>
      </trkpt>
      <trkpt lat="46.71076" lon="5.96548">
        <ele>683.1</ele>
        <time>2022-03-03T09:35:24Z</time>
      </trkpt>
      <trkpt lat="46.71071" lon="5.96546">
        <ele>682.9</ele>
        <time>2022-03-03T09:35:28Z</time>
      </trkpt>
      <trkpt lat="46.71066" lon="5.96541">
        <ele>683.1</ele>
        <time>2022-03-03T09:35:33Z</time>
      </trkpt>
      <trkpt lat="46.71065" lon="5.96535">
        <ele>683</ele>
        <time>2022-03-03T09:35:37Z</time>
      </trkpt>
      <trkpt lat="46.71062" lon="5.96529">
        <ele>683.1</ele>
        <time>2022-03-03T09:35:42Z</time>
      </trkpt>
      <trkpt lat="46.71057" lon="5.96525">
        <ele>682.9</ele>
        <time>2022-03-03T09:35:46Z</time>
      </trkpt>
      <trkpt lat="46.71053" lon="5.96519">
        <ele>682.7</ele>
        <time>2022-03-03T09:35:51Z</time>
      </trkpt>
      <trkpt lat="46.7105" lon="5.96513">
        <ele>682.8</ele>
        <time>2022-03-03T09:35:56Z</time>
      </trkpt>
      <trkpt lat="46.71047" lon="5.96509">
        <ele>683.2</ele>
        <time>2022-03-03T09:36:01Z</time>
      </trkpt>
      <trkpt lat="46.71043" lon="5.96505">
        <ele>683.7</ele>
        <time>2022-03-03T09:36:06Z</time>
      </trkpt>
      <trkpt lat="46.71039" lon="5.96499">
        <ele>683.8</ele>
        <time>2022-03-03T09:36:12Z</time>
      </trkpt>
      <trkpt lat="46.71038" lon="5.96493">
        <ele>683.2</ele>
        <time>2022-03-03T09:36:17Z</time>
      </trkpt>
      <trkpt lat="46.71034" lon="5.96487">
        <ele>682.4</ele>
        <time>2022-03-03T09:36:22Z</time>
      </trkpt>
      <trkpt lat="46.71033" lon="5.9648">
        <ele>682.3</ele>
        <time>2022-03-03T09:36:26Z</time>
      </trkpt>
      <trkpt lat="46.7103" lon="5.96474">
        <ele>682.1</ele>
        <time>2022-03-03T09:36:31Z</time>
      </trkpt>
      <trkpt lat="46.71026" lon="5.96469">
        <ele>682</ele>
        <time>2022-03-03T09:36:35Z</time>
      </trkpt>
      <trkpt lat="46.71024" lon="5.96463">
        <ele>682.2</ele>
        <time>2022-03-03T09:36:40Z</time>
      </trkpt>
      <trkpt lat="46.71021" lon="5.96458">
        <ele>682.3</ele>
        <time>2022-03-03T09:36:45Z</time>
      </trkpt>
      <trkpt lat="46.71017" lon="5.96453">
        <ele>682.7</ele>
        <time>2022-03-03T09:36:50Z</time>
      </trkpt>
      <trkpt lat="46.71014" lon="5.96447">
        <ele>684.1</ele>
        <time>2022-03-03T09:36:55Z</time>
      </trkpt>
      <trkpt lat="46.71012" lon="5.96441">
        <ele>685.7</ele>
        <time>2022-03-03T09:37:01Z</time>
      </trkpt>
      <trkpt lat="46.71008" lon="5.96437">
        <ele>686.9</ele>
        <time>2022-03-03T09:37:06Z</time>
      </trkpt>
      <trkpt lat="46.71003" lon="5.96433">
        <ele>687.7</ele>
        <time>2022-03-03T09:37:11Z</time>
      </trkpt>
      <trkpt lat="46.71" lon="5.96429">
        <ele>688.9</ele>
        <time>2022-03-03T09:37:16Z</time>
      </trkpt>
      <trkpt lat="46.70998" lon="5.96422">
        <ele>689.8</ele>
        <time>2022-03-03T09:37:21Z</time>
      </trkpt>
      <trkpt lat="46.70996" lon="5.96416">
        <ele>690.7</ele>
        <time>2022-03-03T09:37:28Z</time>
      </trkpt>
      <trkpt lat="46.70991" lon="5.96413">
        <ele>691.1</ele>
        <time>2022-03-03T09:37:33Z</time>
      </trkpt>
      <trkpt lat="46.70987" lon="5.9641">
        <ele>690.9</ele>
        <time>2022-03-03T09:37:37Z</time>
      </trkpt>
      <trkpt lat="46.70982" lon="5.96406">
        <ele>690.3</ele>
        <time>2022-03-03T09:37:41Z</time>
      </trkpt>
      <trkpt lat="46.70978" lon="5.96403">
        <ele>690</ele>
        <time>2022-03-03T09:37:45Z</time>
      </trkpt>
      <trkpt lat="46.70974" lon="5.96399">
        <ele>690.1</ele>
        <time>2022-03-03T09:37:49Z</time>
      </trkpt>
      <trkpt lat="46.70972" lon="5.96393">
        <ele>689.8</ele>
        <time>2022-03-03T09:37:53Z</time>
      </trkpt>
      <trkpt lat="46.70969" lon="5.96387">
        <ele>689.3</ele>
        <time>2022-03-03T09:37:58Z</time>
      </trkpt>
      <trkpt lat="46.70967" lon="5.9638">
        <ele>689.7</ele>
        <time>2022-03-03T09:38:04Z</time>
      </trkpt>
      <trkpt lat="46.70963" lon="5.96376">
        <ele>690.2</ele>
        <time>2022-03-03T09:38:09Z</time>
      </trkpt>
      <trkpt lat="46.7096" lon="5.96372">
        <ele>690.2</ele>
        <time>2022-03-03T09:38:15Z</time>
      </trkpt>
      <trkpt lat="46.70956" lon="5.96369">
        <ele>690</ele>
        <time>2022-03-03T09:38:19Z</time>
      </trkpt>
      <trkpt lat="46.70951" lon="5.96366">
        <ele>689.9</ele>
        <time>2022-03-03T09:38:23Z</time>
      </trkpt>
      <trkpt lat="46.70947" lon="5.96362">
        <ele>690</ele>
        <time>2022-03-03T09:38:28Z</time>
      </trkpt>
      <trkpt lat="46.70943" lon="5.96357">
        <ele>690</ele>
        <time>2022-03-03T09:38:34Z</time>
      </trkpt>
      <trkpt lat="46.70939" lon="5.96353">
        <ele>690.6</ele>
        <time>2022-03-03T09:38:40Z</time>
      </trkpt>
      <trkpt lat="46.70934" lon="5.9635">
        <ele>691.2</ele>
        <time>2022-03-03T09:38:46Z</time>
      </trkpt>
      <trkpt lat="46.7093" lon="5.96347">
        <ele>692.1</ele>
        <time>2022-03-03T09:38:52Z</time>
      </trkpt>
      <trkpt lat="46.70924" lon="5.96343">
        <ele>692.4</ele>
        <time>2022-03-03T09:38:57Z</time>
      </trkpt>
      <trkpt lat="46.70919" lon="5.96341">
        <ele>692.3</ele>
        <time>2022-03-03T09:39:01Z</time>
      </trkpt>
      <trkpt lat="46.70915" lon="5.96338">
        <ele>692.5</ele>
        <time>2022-03-03T09:39:05Z</time>
      </trkpt>
      <trkpt lat="46.70911" lon="5.96336">
        <ele>693</ele>
        <time>2022-03-03T09:39:09Z</time>
      </trkpt>
      <trkpt lat="46.70906" lon="5.96335">
        <ele>693.9</ele>
        <time>2022-03-03T09:39:13Z</time>
      </trkpt>
      <trkpt lat="46.70902" lon="5.96335">
        <ele>695.4</ele>
        <time>2022-03-03T09:39:19Z</time>
      </trkpt>
      <trkpt lat="46.70897" lon="5.96332">
        <ele>696.8</ele>
        <time>2022-03-03T09:39:25Z</time>
      </trkpt>
      <trkpt lat="46.70892" lon="5.9633">
        <ele>697.9</ele>
        <time>2022-03-03T09:39:31Z</time>
      </trkpt>
      <trkpt lat="46.70887" lon="5.96329">
        <ele>698.1</ele>
        <time>2022-03-03T09:39:36Z</time>
      </trkpt>
      <trkpt lat="46.70882" lon="5.96327">
        <ele>697.8</ele>
        <time>2022-03-03T09:39:40Z</time>
      </trkpt>
      <trkpt lat="46.70878" lon="5.96326">
        <ele>697.3</ele>
        <time>2022-03-03T09:39:44Z</time>
      </trkpt>
      <trkpt lat="46.70873" lon="5.96322">
        <ele>696.9</ele>
        <time>2022-03-03T09:39:49Z</time>
      </trkpt>
      <trkpt lat="46.70868" lon="5.96319">
        <ele>696.8</ele>
        <time>2022-03-03T09:39:54Z</time>
      </trkpt>
      <trkpt lat="46.70864" lon="5.96316">
        <ele>696</ele>
        <time>2022-03-03T09:39:59Z</time>
      </trkpt>
      <trkpt lat="46.7086" lon="5.96313">
        <ele>695.2</ele>
        <time>2022-03-03T09:40:04Z</time>
      </trkpt>
      <trkpt lat="46.70855" lon="5.96311">
        <ele>694.7</ele>
        <time>2022-03-03T09:40:08Z</time>
      </trkpt>
      <trkpt lat="46.70851" lon="5.96308">
        <ele>694.1</ele>
        <time>2022-03-03T09:40:13Z</time>
      </trkpt>
      <trkpt lat="46.70846" lon="5.96304">
        <ele>693.3</ele>
        <time>2022-03-03T09:40:19Z</time>
      </trkpt>
      <trkpt lat="46.70841" lon="5.963">
        <ele>693.3</ele>
        <time>2022-03-03T09:40:25Z</time>
      </trkpt>
      <trkpt lat="46.70837" lon="5.963">
        <ele>693.7</ele>
        <time>2022-03-03T09:40:30Z</time>
      </trkpt>
      <trkpt lat="46.70832" lon="5.96297">
        <ele>694.3</ele>
        <time>2022-03-03T09:40:35Z</time>
      </trkpt>
      <trkpt lat="46.70829" lon="5.96292">
        <ele>694.6</ele>
        <time>2022-03-03T09:40:41Z</time>
      </trkpt>
      <trkpt lat="46.70825" lon="5.96288">
        <ele>694.4</ele>
        <time>2022-03-03T09:40:46Z</time>
      </trkpt>
      <trkpt lat="46.7082" lon="5.96286">
        <ele>694.3</ele>
        <time>2022-03-03T09:40:51Z</time>
      </trkpt>
      <trkpt lat="46.70815" lon="5.96283">
        <ele>695</ele>
        <time>2022-03-03T09:40:57Z</time>
      </trkpt>
      <trkpt lat="46.7081" lon="5.9628">
        <ele>695.8</ele>
        <time>2022-03-03T09:41:02Z</time>
      </trkpt>
      <trkpt lat="46.70805" lon="5.96278">
        <ele>697.1</ele>
        <time>2022-03-03T09:41:07Z</time>
      </trkpt>
      <trkpt lat="46.708" lon="5.96277">
        <ele>698.5</ele>
        <time>2022-03-03T09:41:12Z</time>
      </trkpt>
      <trkpt lat="46.70795" lon="5.96276">
        <ele>699.8</ele>
        <time>2022-03-03T09:41:17Z</time>
      </trkpt>
      <trkpt lat="46.7079" lon="5.96273">
        <ele>700.4</ele>
        <time>2022-03-03T09:41:21Z</time>
      </trkpt>
      <trkpt lat="46.70786" lon="5.96269">
        <ele>700.5</ele>
        <time>2022-03-03T09:41:27Z</time>
      </trkpt>
      <trkpt lat="46.70782" lon="5.96267">
        <ele>700.3</ele>
        <time>2022-03-03T09:41:32Z</time>
      </trkpt>
      <trkpt lat="46.70777" lon="5.96266">
        <ele>699.9</ele>
        <time>2022-03-03T09:41:37Z</time>
      </trkpt>
      <trkpt lat="46.70772" lon="5.96264">
        <ele>700.1</ele>
        <time>2022-03-03T09:41:42Z</time>
      </trkpt>
      <trkpt lat="46.70768" lon="5.96263">
        <ele>700.4</ele>
        <time>2022-03-03T09:41:45Z</time>
      </trkpt>
      <trkpt lat="46.70763" lon="5.9626">
        <ele>700.5</ele>
        <time>2022-03-03T09:41:49Z</time>
      </trkpt>
      <trkpt lat="46.70759" lon="5.96256">
        <ele>699.2</ele>
        <time>2022-03-03T09:41:54Z</time>
      </trkpt>
      <trkpt lat="46.70755" lon="5.96252">
        <ele>697</ele>
        <time>2022-03-03T09:42:00Z</time>
      </trkpt>
      <trkpt lat="46.7075" lon="5.96249">
        <ele>695.5</ele>
        <time>2022-03-03T09:42:06Z</time>
      </trkpt>
      <trkpt lat="46.70744" lon="5.96249">
        <ele>694.7</ele>
        <time>2022-03-03T09:42:11Z</time>
      </trkpt>
      <trkpt lat="46.70738" lon="5.96249">
        <ele>694.6</ele>
        <time>2022-03-03T09:42:15Z</time>
      </trkpt>
      <trkpt lat="46.70733" lon="5.96247">
        <ele>694.9</ele>
        <time>2022-03-03T09:42:19Z</time>
      </trkpt>
      <trkpt lat="46.70729" lon="5.96244">
        <ele>695.6</ele>
        <time>2022-03-03T09:42:23Z</time>
      </trkpt>
      <trkpt lat="46.70723" lon="5.96243">
        <ele>696.2</ele>
        <time>2022-03-03T09:42:27Z</time>
      </trkpt>
      <trkpt lat="46.70718" lon="5.96243">
        <ele>696.9</ele>
        <time>2022-03-03T09:42:31Z</time>
      </trkpt>
      <trkpt lat="46.70713" lon="5.96242">
        <ele>697.4</ele>
        <time>2022-03-03T09:42:36Z</time>
      </trkpt>
      <trkpt lat="46.70709" lon="5.96239">
        <ele>697.1</ele>
        <time>2022-03-03T09:42:41Z</time>
      </trkpt>
      <trkpt lat="46.70704" lon="5.96236">
        <ele>696.8</ele>
        <time>2022-03-03T09:42:46Z</time>
      </trkpt>
      <trkpt lat="46.70699" lon="5.96235">
        <ele>696.4</ele>
        <time>2022-03-03T09:42:50Z</time>
      </trkpt>
      <trkpt lat="46.70694" lon="5.96234">
        <ele>695.8</ele>
        <time>2022-03-03T09:42:54Z</time>
      </trkpt>
      <trkpt lat="46.70689" lon="5.96232">
        <ele>695.2</ele>
        <time>2022-03-03T09:42:59Z</time>
      </trkpt>
      <trkpt lat="46.70684" lon="5.96229">
        <ele>694.7</ele>
        <time>2022-03-03T09:43:03Z</time>
      </trkpt>
      <trkpt lat="46.70679" lon="5.96227">
        <ele>694.2</ele>
        <time>2022-03-03T09:43:07Z</time>
      </trkpt>
      <trkpt lat="46.70674" lon="5.96226">
        <ele>694.2</ele>
        <time>2022-03-03T09:43:11Z</time>
      </trkpt>
      <trkpt lat="46.70669" lon="5.96226">
        <ele>694.2</ele>
        <time>2022-03-03T09:43:15Z</time>
      </trkpt>
      <trkpt lat="46.70664" lon="5.96224">
        <ele>694.3</ele>
        <time>2022-03-03T09:43:20Z</time>
      </trkpt>
      <trkpt lat="46.7066" lon="5.96222">
        <ele>695.1</ele>
        <time>2022-03-03T09:43:25Z</time>
      </trkpt>
      <trkpt lat="46.70656" lon="5.96217">
        <ele>697</ele>
        <time>2022-03-03T09:43:30Z</time>
      </trkpt>
      <trkpt lat="46.70651" lon="5.96215">
        <ele>698.9</ele>
        <time>2022-03-03T09:43:35Z</time>
      </trkpt>
      <trkpt lat="46.70647" lon="5.96213">
        <ele>700.4</ele>
        <time>2022-03-03T09:43:40Z</time>
      </trkpt>
      <trkpt lat="46.70642" lon="5.9621">
        <ele>701</ele>
        <time>2022-03-03T09:43:44Z</time>
      </trkpt>
      <trkpt lat="46.70637" lon="5.9621">
        <ele>701.5</ele>
        <time>2022-03-03T09:43:48Z</time>
      </trkpt>
      <trkpt lat="46.70633" lon="5.96207">
        <ele>702.1</ele>
        <time>2022-03-03T09:43:54Z</time>
      </trkpt>
      <trkpt lat="46.70629" lon="5.96202">
        <ele>702.5</ele>
        <time>2022-03-03T09:44:00Z</time>
      </trkpt>
      <trkpt lat="46.70625" lon="5.96198">
        <ele>702.8</ele>
        <time>2022-03-03T09:44:04Z</time>
      </trkpt>
      <trkpt lat="46.7062" lon="5.96195">
        <ele>703.1</ele>
        <time>2022-03-03T09:44:08Z</time>
      </trkpt>
      <trkpt lat="46.70615" lon="5.96192">
        <ele>703.3</ele>
        <time>2022-03-03T09:44:12Z</time>
      </trkpt>
      <trkpt lat="46.70611" lon="5.96187">
        <ele>703.1</ele>
        <time>2022-03-03T09:44:17Z</time>
      </trkpt>
      <trkpt lat="46.70607" lon="5.96183">
        <ele>702.9</ele>
        <time>2022-03-03T09:44:22Z</time>
      </trkpt>
      <trkpt lat="46.70603" lon="5.96179">
        <ele>702.3</ele>
        <time>2022-03-03T09:44:27Z</time>
      </trkpt>
      <trkpt lat="46.70599" lon="5.96175">
        <ele>702.5</ele>
        <time>2022-03-03T09:44:31Z</time>
      </trkpt>
      <trkpt lat="46.70594" lon="5.96173">
        <ele>703.2</ele>
        <time>2022-03-03T09:44:35Z</time>
      </trkpt>
      <trkpt lat="46.70588" lon="5.96173">
        <ele>704.3</ele>
        <time>2022-03-03T09:44:39Z</time>
      </trkpt>
      <trkpt lat="46.70583" lon="5.96174">
        <ele>705.8</ele>
        <time>2022-03-03T09:44:43Z</time>
      </trkpt>
      <trkpt lat="46.70578" lon="5.96172">
        <ele>707.5</ele>
        <time>2022-03-03T09:44:48Z</time>
      </trkpt>
      <trkpt lat="46.70573" lon="5.96169">
        <ele>709.5</ele>
        <time>2022-03-03T09:44:54Z</time>
      </trkpt>
      <trkpt lat="46.70569" lon="5.96168">
        <ele>711.2</ele>
        <time>2022-03-03T09:44:59Z</time>
      </trkpt>
      <trkpt lat="46.70567" lon="5.96162">
        <ele>712.5</ele>
        <time>2022-03-03T09:45:05Z</time>
      </trkpt>
      <trkpt lat="46.70563" lon="5.96157">
        <ele>712.9</ele>
        <time>2022-03-03T09:45:11Z</time>
      </trkpt>
      <trkpt lat="46.70559" lon="5.96153">
        <ele>712.9</ele>
        <time>2022-03-03T09:45:16Z</time>
      </trkpt>
      <trkpt lat="46.70556" lon="5.96147">
        <ele>711.7</ele>
        <time>2022-03-03T09:45:22Z</time>
      </trkpt>
      <trkpt lat="46.70552" lon="5.96143">
        <ele>709.7</ele>
        <time>2022-03-03T09:45:28Z</time>
      </trkpt>
      <trkpt lat="46.70548" lon="5.96141">
        <ele>708.6</ele>
        <time>2022-03-03T09:45:31Z</time>
      </trkpt>
      <trkpt lat="46.70542" lon="5.96138">
        <ele>706.7</ele>
        <time>2022-03-03T09:45:35Z</time>
      </trkpt>
      <trkpt lat="46.70538" lon="5.96133">
        <ele>704.7</ele>
        <time>2022-03-03T09:45:40Z</time>
      </trkpt>
      <trkpt lat="46.70534" lon="5.96128">
        <ele>703.2</ele>
        <time>2022-03-03T09:45:45Z</time>
      </trkpt>
      <trkpt lat="46.70529" lon="5.96127">
        <ele>702.3</ele>
        <time>2022-03-03T09:45:49Z</time>
      </trkpt>
      <trkpt lat="46.70524" lon="5.96124">
        <ele>701.1</ele>
        <time>2022-03-03T09:45:54Z</time>
      </trkpt>
      <trkpt lat="46.70519" lon="5.96122">
        <ele>700.2</ele>
        <time>2022-03-03T09:45:58Z</time>
      </trkpt>
      <trkpt lat="46.70515" lon="5.96118">
        <ele>699.4</ele>
        <time>2022-03-03T09:46:02Z</time>
      </trkpt>
      <trkpt lat="46.7051" lon="5.96114">
        <ele>698.9</ele>
        <time>2022-03-03T09:46:07Z</time>
      </trkpt>
      <trkpt lat="46.70506" lon="5.9611">
        <ele>698.8</ele>
        <time>2022-03-03T09:46:11Z</time>
      </trkpt>
      <trkpt lat="46.70502" lon="5.96105">
        <ele>698.7</ele>
        <time>2022-03-03T09:46:16Z</time>
      </trkpt>
      <trkpt lat="46.705" lon="5.96098">
        <ele>698.5</ele>
        <time>2022-03-03T09:46:22Z</time>
      </trkpt>
      <trkpt lat="46.70497" lon="5.96092">
        <ele>698</ele>
        <time>2022-03-03T09:46:27Z</time>
      </trkpt>
      <trkpt lat="46.70492" lon="5.96093">
        <ele>697.7</ele>
        <time>2022-03-03T09:46:35Z</time>
      </trkpt>
      <trkpt lat="46.70494" lon="5.96099">
        <ele>696.9</ele>
        <time>2022-03-03T09:46:42Z</time>
      </trkpt>
      <trkpt lat="46.70496" lon="5.96106">
        <ele>695.8</ele>
        <time>2022-03-03T09:46:48Z</time>
      </trkpt>
      <trkpt lat="46.70499" lon="5.96111">
        <ele>694.9</ele>
        <time>2022-03-03T09:46:52Z</time>
      </trkpt>
      <trkpt lat="46.70501" lon="5.96117">
        <ele>693.1</ele>
        <time>2022-03-03T09:46:57Z</time>
      </trkpt>
      <trkpt lat="46.70504" lon="5.96123">
        <ele>690.5</ele>
        <time>2022-03-03T09:47:03Z</time>
      </trkpt>
      <trkpt lat="46.70508" lon="5.96128">
        <ele>688.6</ele>
        <time>2022-03-03T09:47:09Z</time>
      </trkpt>
      <trkpt lat="46.70509" lon="5.96134">
        <ele>687.2</ele>
        <time>2022-03-03T09:47:13Z</time>
      </trkpt>
      <trkpt lat="46.70512" lon="5.9614">
        <ele>685.7</ele>
        <time>2022-03-03T09:47:17Z</time>
      </trkpt>
      <trkpt lat="46.70515" lon="5.96146">
        <ele>684.4</ele>
        <time>2022-03-03T09:47:22Z</time>
      </trkpt>
      <trkpt lat="46.70519" lon="5.9615">
        <ele>682.9</ele>
        <time>2022-03-03T09:47:28Z</time>
      </trkpt>
      <trkpt lat="46.70523" lon="5.96154">
        <ele>681.5</ele>
        <time>2022-03-03T09:47:33Z</time>
      </trkpt>
      <trkpt lat="46.70526" lon="5.9616">
        <ele>680.6</ele>
        <time>2022-03-03T09:47:38Z</time>
      </trkpt>
      <trkpt lat="46.70528" lon="5.96166">
        <ele>680.3</ele>
        <time>2022-03-03T09:47:42Z</time>
      </trkpt>
      <trkpt lat="46.70531" lon="5.96173">
        <ele>680.5</ele>
        <time>2022-03-03T09:47:46Z</time>
      </trkpt>
      <trkpt lat="46.70533" lon="5.96181">
        <ele>680.6</ele>
        <time>2022-03-03T09:47:50Z</time>
      </trkpt>
      <trkpt lat="46.70533" lon="5.96187">
        <ele>680.6</ele>
        <time>2022-03-03T09:47:53Z</time>
      </trkpt>
      <trkpt lat="46.70533" lon="5.96195">
        <ele>680.3</ele>
        <time>2022-03-03T09:47:57Z</time>
      </trkpt>
      <trkpt lat="46.70533" lon="5.96202">
        <ele>679.9</ele>
        <time>2022-03-03T09:48:01Z</time>
      </trkpt>
      <trkpt lat="46.70531" lon="5.96209">
        <ele>679.5</ele>
        <time>2022-03-03T09:48:05Z</time>
      </trkpt>
      <trkpt lat="46.70529" lon="5.96216">
        <ele>679.2</ele>
        <time>2022-03-03T09:48:10Z</time>
      </trkpt>
      <trkpt lat="46.70527" lon="5.96224">
        <ele>679.2</ele>
        <time>2022-03-03T09:48:14Z</time>
      </trkpt>
      <trkpt lat="46.70526" lon="5.96231">
        <ele>679</ele>
        <time>2022-03-03T09:48:18Z</time>
      </trkpt>
      <trkpt lat="46.70523" lon="5.96237">
        <ele>678.5</ele>
        <time>2022-03-03T09:48:23Z</time>
      </trkpt>
      <trkpt lat="46.70522" lon="5.96244">
        <ele>677.9</ele>
        <time>2022-03-03T09:48:27Z</time>
      </trkpt>
      <trkpt lat="46.7052" lon="5.96252">
        <ele>677.3</ele>
        <time>2022-03-03T09:48:32Z</time>
      </trkpt>
      <trkpt lat="46.70517" lon="5.9626">
        <ele>677</ele>
        <time>2022-03-03T09:48:36Z</time>
      </trkpt>
      <trkpt lat="46.70515" lon="5.96266">
        <ele>676.7</ele>
        <time>2022-03-03T09:48:41Z</time>
      </trkpt>
      <trkpt lat="46.70518" lon="5.96273">
        <ele>677.5</ele>
        <time>2022-03-03T09:48:58Z</time>
      </trkpt>
      <trkpt lat="46.70523" lon="5.96275">
        <ele>677.6</ele>
        <time>2022-03-03T09:49:03Z</time>
      </trkpt>
      <trkpt lat="46.70528" lon="5.96277">
        <ele>677.9</ele>
        <time>2022-03-03T09:49:08Z</time>
      </trkpt>
      <trkpt lat="46.70532" lon="5.96281">
        <ele>678.4</ele>
        <time>2022-03-03T09:49:14Z</time>
      </trkpt>
      <trkpt lat="46.70534" lon="5.96287">
        <ele>679.1</ele>
        <time>2022-03-03T09:49:20Z</time>
      </trkpt>
      <trkpt lat="46.70539" lon="5.9629">
        <ele>679.4</ele>
        <time>2022-03-03T09:49:25Z</time>
      </trkpt>
      <trkpt lat="46.70544" lon="5.96293">
        <ele>679.3</ele>
        <time>2022-03-03T09:49:29Z</time>
      </trkpt>
      <trkpt lat="46.70548" lon="5.96297">
        <ele>679.1</ele>
        <time>2022-03-03T09:49:32Z</time>
      </trkpt>
      <trkpt lat="46.70552" lon="5.96301">
        <ele>678.9</ele>
        <time>2022-03-03T09:49:36Z</time>
      </trkpt>
      <trkpt lat="46.70557" lon="5.96305">
        <ele>679</ele>
        <time>2022-03-03T09:49:42Z</time>
      </trkpt>
      <trkpt lat="46.70561" lon="5.96307">
        <ele>679.3</ele>
        <time>2022-03-03T09:49:46Z</time>
      </trkpt>
      <trkpt lat="46.70567" lon="5.9631">
        <ele>680.6</ele>
        <time>2022-03-03T09:49:53Z</time>
      </trkpt>
      <trkpt lat="46.70571" lon="5.96313">
        <ele>681.1</ele>
        <time>2022-03-03T09:49:57Z</time>
      </trkpt>
      <trkpt lat="46.70576" lon="5.96315">
        <ele>681.1</ele>
        <time>2022-03-03T09:50:00Z</time>
      </trkpt>
      <trkpt lat="46.70581" lon="5.96317">
        <ele>681</ele>
        <time>2022-03-03T09:50:03Z</time>
      </trkpt>
      <trkpt lat="46.70586" lon="5.9632">
        <ele>680.8</ele>
        <time>2022-03-03T09:50:08Z</time>
      </trkpt>
      <trkpt lat="46.70591" lon="5.96323">
        <ele>680.6</ele>
        <time>2022-03-03T09:50:11Z</time>
      </trkpt>
      <trkpt lat="46.70594" lon="5.96328">
        <ele>680.3</ele>
        <time>2022-03-03T09:50:16Z</time>
      </trkpt>
      <trkpt lat="46.70597" lon="5.96333">
        <ele>680.2</ele>
        <time>2022-03-03T09:50:21Z</time>
      </trkpt>
      <trkpt lat="46.706" lon="5.96338">
        <ele>680.3</ele>
        <time>2022-03-03T09:50:27Z</time>
      </trkpt>
      <trkpt lat="46.70604" lon="5.96344">
        <ele>679.6</ele>
        <time>2022-03-03T09:50:33Z</time>
      </trkpt>
      <trkpt lat="46.70608" lon="5.96349">
        <ele>679.1</ele>
        <time>2022-03-03T09:50:39Z</time>
      </trkpt>
      <trkpt lat="46.70611" lon="5.96355">
        <ele>679.8</ele>
        <time>2022-03-03T09:50:45Z</time>
      </trkpt>
      <trkpt lat="46.70614" lon="5.96361">
        <ele>681</ele>
        <time>2022-03-03T09:50:51Z</time>
      </trkpt>
      <trkpt lat="46.70618" lon="5.96366">
        <ele>682</ele>
        <time>2022-03-03T09:50:57Z</time>
      </trkpt>
      <trkpt lat="46.70622" lon="5.96371">
        <ele>683.5</ele>
        <time>2022-03-03T09:51:03Z</time>
      </trkpt>
      <trkpt lat="46.70626" lon="5.96374">
        <ele>684.4</ele>
        <time>2022-03-03T09:51:07Z</time>
      </trkpt>
      <trkpt lat="46.70631" lon="5.96377">
        <ele>685.1</ele>
        <time>2022-03-03T09:51:11Z</time>
      </trkpt>
      <trkpt lat="46.70635" lon="5.96382">
        <ele>685.8</ele>
        <time>2022-03-03T09:51:16Z</time>
      </trkpt>
      <trkpt lat="46.7064" lon="5.96385">
        <ele>686.5</ele>
        <time>2022-03-03T09:51:20Z</time>
      </trkpt>
      <trkpt lat="46.70644" lon="5.96387">
        <ele>687.3</ele>
        <time>2022-03-03T09:51:24Z</time>
      </trkpt>
      <trkpt lat="46.70649" lon="5.96389">
        <ele>688.3</ele>
        <time>2022-03-03T09:51:29Z</time>
      </trkpt>
      <trkpt lat="46.70654" lon="5.96391">
        <ele>688.7</ele>
        <time>2022-03-03T09:51:33Z</time>
      </trkpt>
      <trkpt lat="46.70658" lon="5.96394">
        <ele>688.8</ele>
        <time>2022-03-03T09:51:36Z</time>
      </trkpt>
      <trkpt lat="46.70663" lon="5.96396">
        <ele>688.9</ele>
        <time>2022-03-03T09:51:39Z</time>
      </trkpt>
      <trkpt lat="46.70668" lon="5.96397">
        <ele>688.9</ele>
        <time>2022-03-03T09:51:43Z</time>
      </trkpt>
      <trkpt lat="46.70672" lon="5.96401">
        <ele>688.6</ele>
        <time>2022-03-03T09:51:48Z</time>
      </trkpt>
      <trkpt lat="46.70674" lon="5.96407">
        <ele>688.3</ele>
        <time>2022-03-03T09:51:53Z</time>
      </trkpt>
      <trkpt lat="46.70678" lon="5.96413">
        <ele>687.5</ele>
        <time>2022-03-03T09:51:58Z</time>
      </trkpt>
      <trkpt lat="46.70682" lon="5.96418">
        <ele>686.8</ele>
        <time>2022-03-03T09:52:02Z</time>
      </trkpt>
      <trkpt lat="46.70686" lon="5.96423">
        <ele>686.4</ele>
        <time>2022-03-03T09:52:06Z</time>
      </trkpt>
      <trkpt lat="46.7069" lon="5.96428">
        <ele>686.1</ele>
        <time>2022-03-03T09:52:11Z</time>
      </trkpt>
      <trkpt lat="46.70694" lon="5.9643">
        <ele>686</ele>
        <time>2022-03-03T09:52:15Z</time>
      </trkpt>
      <trkpt lat="46.70699" lon="5.96434">
        <ele>685.6</ele>
        <time>2022-03-03T09:52:20Z</time>
      </trkpt>
      <trkpt lat="46.70704" lon="5.96437">
        <ele>684.8</ele>
        <time>2022-03-03T09:52:26Z</time>
      </trkpt>
      <trkpt lat="46.70708" lon="5.96442">
        <ele>684.5</ele>
        <time>2022-03-03T09:52:32Z</time>
      </trkpt>
      <trkpt lat="46.70712" lon="5.96446">
        <ele>684.2</ele>
        <time>2022-03-03T09:52:37Z</time>
      </trkpt>
      <trkpt lat="46.70716" lon="5.96449">
        <ele>683.8</ele>
        <time>2022-03-03T09:52:42Z</time>
      </trkpt>
      <trkpt lat="46.7072" lon="5.96454">
        <ele>683.3</ele>
        <time>2022-03-03T09:52:48Z</time>
      </trkpt>
      <trkpt lat="46.70724" lon="5.96458">
        <ele>682.9</ele>
        <time>2022-03-03T09:52:53Z</time>
      </trkpt>
      <trkpt lat="46.70728" lon="5.96463">
        <ele>682.8</ele>
        <time>2022-03-03T09:52:57Z</time>
      </trkpt>
      <trkpt lat="46.70731" lon="5.96468">
        <ele>682.8</ele>
        <time>2022-03-03T09:53:02Z</time>
      </trkpt>
      <trkpt lat="46.70734" lon="5.96474">
        <ele>682.8</ele>
        <time>2022-03-03T09:53:07Z</time>
      </trkpt>
      <trkpt lat="46.70739" lon="5.96476">
        <ele>682.4</ele>
        <time>2022-03-03T09:53:12Z</time>
      </trkpt>
      <trkpt lat="46.70744" lon="5.96478">
        <ele>681.9</ele>
        <time>2022-03-03T09:53:17Z</time>
      </trkpt>
      <trkpt lat="46.70748" lon="5.96479">
        <ele>680.8</ele>
        <time>2022-03-03T09:53:22Z</time>
      </trkpt>
      <trkpt lat="46.70753" lon="5.96481">
        <ele>679.5</ele>
        <time>2022-03-03T09:53:26Z</time>
      </trkpt>
      <trkpt lat="46.70758" lon="5.96483">
        <ele>678.3</ele>
        <time>2022-03-03T09:53:30Z</time>
      </trkpt>
      <trkpt lat="46.70763" lon="5.96485">
        <ele>677.2</ele>
        <time>2022-03-03T09:53:35Z</time>
      </trkpt>
      <trkpt lat="46.70768" lon="5.96488">
        <ele>675.7</ele>
        <time>2022-03-03T09:53:40Z</time>
      </trkpt>
      <trkpt lat="46.70772" lon="5.96491">
        <ele>674.5</ele>
        <time>2022-03-03T09:53:45Z</time>
      </trkpt>
      <trkpt lat="46.70777" lon="5.96495">
        <ele>673.5</ele>
        <time>2022-03-03T09:53:50Z</time>
      </trkpt>
      <trkpt lat="46.70782" lon="5.96498">
        <ele>672.8</ele>
        <time>2022-03-03T09:53:56Z</time>
      </trkpt>
      <trkpt lat="46.70786" lon="5.96501">
        <ele>672.5</ele>
        <time>2022-03-03T09:54:00Z</time>
      </trkpt>
      <trkpt lat="46.7079" lon="5.96505">
        <ele>672.4</ele>
        <time>2022-03-03T09:54:05Z</time>
      </trkpt>
      <trkpt lat="46.70792" lon="5.96499">
        <ele>672.3</ele>
        <time>2022-03-03T09:54:12Z</time>
      </trkpt>
      <trkpt lat="46.70787" lon="5.96498">
        <ele>672.3</ele>
        <time>2022-03-03T09:54:22Z</time>
      </trkpt>
      <trkpt lat="46.70791" lon="5.96503">
        <ele>671.6</ele>
        <time>2022-03-03T09:54:51Z</time>
      </trkpt>
      <trkpt lat="46.70795" lon="5.96506">
        <ele>671.7</ele>
        <time>2022-03-03T09:54:57Z</time>
      </trkpt>
      <trkpt lat="46.70797" lon="5.96512">
        <ele>670.7</ele>
        <time>2022-03-03T09:55:02Z</time>
      </trkpt>
      <trkpt lat="46.70801" lon="5.96517">
        <ele>669.3</ele>
        <time>2022-03-03T09:55:07Z</time>
      </trkpt>
      <trkpt lat="46.70805" lon="5.96519">
        <ele>667.6</ele>
        <time>2022-03-03T09:55:11Z</time>
      </trkpt>
      <trkpt lat="46.7081" lon="5.96522">
        <ele>665.7</ele>
        <time>2022-03-03T09:55:15Z</time>
      </trkpt>
      <trkpt lat="46.70813" lon="5.96528">
        <ele>663.1</ele>
        <time>2022-03-03T09:55:19Z</time>
      </trkpt>
      <trkpt lat="46.70816" lon="5.96534">
        <ele>661.1</ele>
        <time>2022-03-03T09:55:23Z</time>
      </trkpt>
      <trkpt lat="46.70817" lon="5.96543">
        <ele>659.7</ele>
        <time>2022-03-03T09:55:26Z</time>
      </trkpt>
      <trkpt lat="46.70815" lon="5.9655">
        <ele>658.7</ele>
        <time>2022-03-03T09:55:30Z</time>
      </trkpt>
      <trkpt lat="46.70812" lon="5.96558">
        <ele>658.4</ele>
        <time>2022-03-03T09:55:34Z</time>
      </trkpt>
      <trkpt lat="46.70809" lon="5.96563">
        <ele>658.4</ele>
        <time>2022-03-03T09:55:37Z</time>
      </trkpt>
      <trkpt lat="46.70807" lon="5.96569">
        <ele>658.3</ele>
        <time>2022-03-03T09:55:41Z</time>
      </trkpt>
      <trkpt lat="46.70804" lon="5.96575">
        <ele>658.2</ele>
        <time>2022-03-03T09:55:45Z</time>
      </trkpt>
      <trkpt lat="46.70801" lon="5.9658">
        <ele>658.2</ele>
        <time>2022-03-03T09:55:49Z</time>
      </trkpt>
      <trkpt lat="46.70797" lon="5.96587">
        <ele>658.5</ele>
        <time>2022-03-03T09:55:53Z</time>
      </trkpt>
      <trkpt lat="46.70794" lon="5.96592">
        <ele>658.8</ele>
        <time>2022-03-03T09:55:56Z</time>
      </trkpt>
      <trkpt lat="46.70789" lon="5.96597">
        <ele>659.2</ele>
        <time>2022-03-03T09:56:00Z</time>
      </trkpt>
      <trkpt lat="46.70785" lon="5.96601">
        <ele>659.8</ele>
        <time>2022-03-03T09:56:04Z</time>
      </trkpt>
      <trkpt lat="46.7078" lon="5.96605">
        <ele>660.3</ele>
        <time>2022-03-03T09:56:07Z</time>
      </trkpt>
      <trkpt lat="46.70775" lon="5.96608">
        <ele>661.1</ele>
        <time>2022-03-03T09:56:10Z</time>
      </trkpt>
      <trkpt lat="46.70771" lon="5.96611">
        <ele>661.6</ele>
        <time>2022-03-03T09:56:13Z</time>
      </trkpt>
      <trkpt lat="46.70767" lon="5.96615">
        <ele>662</ele>
        <time>2022-03-03T09:56:17Z</time>
      </trkpt>
      <trkpt lat="46.70762" lon="5.96618">
        <ele>661.8</ele>
        <time>2022-03-03T09:56:21Z</time>
      </trkpt>
      <trkpt lat="46.70757" lon="5.96619">
        <ele>661.2</ele>
        <time>2022-03-03T09:56:25Z</time>
      </trkpt>
      <trkpt lat="46.70752" lon="5.9662">
        <ele>660.5</ele>
        <time>2022-03-03T09:56:29Z</time>
      </trkpt>
      <trkpt lat="46.70747" lon="5.9662">
        <ele>659.6</ele>
        <time>2022-03-03T09:56:33Z</time>
      </trkpt>
      <trkpt lat="46.70742" lon="5.9662">
        <ele>659</ele>
        <time>2022-03-03T09:56:37Z</time>
      </trkpt>
      <trkpt lat="46.70736" lon="5.96622">
        <ele>658.7</ele>
        <time>2022-03-03T09:56:41Z</time>
      </trkpt>
      <trkpt lat="46.70731" lon="5.96623">
        <ele>658.9</ele>
        <time>2022-03-03T09:56:44Z</time>
      </trkpt>
      <trkpt lat="46.70726" lon="5.96626">
        <ele>658.7</ele>
        <time>2022-03-03T09:56:47Z</time>
      </trkpt>
      <trkpt lat="46.70721" lon="5.96629">
        <ele>658.2</ele>
        <time>2022-03-03T09:56:51Z</time>
      </trkpt>
      <trkpt lat="46.70716" lon="5.96632">
        <ele>657.8</ele>
        <time>2022-03-03T09:56:55Z</time>
      </trkpt>
      <trkpt lat="46.7071" lon="5.96635">
        <ele>657.5</ele>
        <time>2022-03-03T09:56:59Z</time>
      </trkpt>
      <trkpt lat="46.70706" lon="5.96637">
        <ele>656.9</ele>
        <time>2022-03-03T09:57:02Z</time>
      </trkpt>
      <trkpt lat="46.70701" lon="5.96639">
        <ele>656.2</ele>
        <time>2022-03-03T09:57:05Z</time>
      </trkpt>
      <trkpt lat="46.70697" lon="5.96642">
        <ele>655.6</ele>
        <time>2022-03-03T09:57:08Z</time>
      </trkpt>
      <trkpt lat="46.70692" lon="5.96644">
        <ele>654.9</ele>
        <time>2022-03-03T09:57:11Z</time>
      </trkpt>
      <trkpt lat="46.70687" lon="5.96644">
        <ele>654.1</ele>
        <time>2022-03-03T09:57:15Z</time>
      </trkpt>
      <trkpt lat="46.70683" lon="5.96644">
        <ele>653.7</ele>
        <time>2022-03-03T09:57:18Z</time>
      </trkpt>
      <trkpt lat="46.70678" lon="5.96644">
        <ele>653.4</ele>
        <time>2022-03-03T09:57:21Z</time>
      </trkpt>
      <trkpt lat="46.70673" lon="5.96644">
        <ele>653.3</ele>
        <time>2022-03-03T09:57:24Z</time>
      </trkpt>
      <trkpt lat="46.70669" lon="5.96645">
        <ele>653.1</ele>
        <time>2022-03-03T09:57:27Z</time>
      </trkpt>
      <trkpt lat="46.70664" lon="5.9665">
        <ele>653.2</ele>
        <time>2022-03-03T09:57:31Z</time>
      </trkpt>
      <trkpt lat="46.70659" lon="5.96654">
        <ele>653.4</ele>
        <time>2022-03-03T09:57:35Z</time>
      </trkpt>
      <trkpt lat="46.70654" lon="5.96657">
        <ele>653.8</ele>
        <time>2022-03-03T09:57:39Z</time>
      </trkpt>
      <trkpt lat="46.7065" lon="5.96662">
        <ele>654.2</ele>
        <time>2022-03-03T09:57:43Z</time>
      </trkpt>
      <trkpt lat="46.70647" lon="5.96667">
        <ele>654.3</ele>
        <time>2022-03-03T09:57:47Z</time>
      </trkpt>
      <trkpt lat="46.70643" lon="5.96674">
        <ele>654</ele>
        <time>2022-03-03T09:57:51Z</time>
      </trkpt>
      <trkpt lat="46.70639" lon="5.9668">
        <ele>653.4</ele>
        <time>2022-03-03T09:57:55Z</time>
      </trkpt>
      <trkpt lat="46.70636" lon="5.96685">
        <ele>652.9</ele>
        <time>2022-03-03T09:57:58Z</time>
      </trkpt>
      <trkpt lat="46.70633" lon="5.96692">
        <ele>652.2</ele>
        <time>2022-03-03T09:58:02Z</time>
      </trkpt>
      <trkpt lat="46.70631" lon="5.96698">
        <ele>652.4</ele>
        <time>2022-03-03T09:58:06Z</time>
      </trkpt>
      <trkpt lat="46.70628" lon="5.96704">
        <ele>653.2</ele>
        <time>2022-03-03T09:58:10Z</time>
      </trkpt>
      <trkpt lat="46.70625" lon="5.96709">
        <ele>653.8</ele>
        <time>2022-03-03T09:58:14Z</time>
      </trkpt>
      <trkpt lat="46.70622" lon="5.96716">
        <ele>654.1</ele>
        <time>2022-03-03T09:58:19Z</time>
      </trkpt>
      <trkpt lat="46.70619" lon="5.96722">
        <ele>654.3</ele>
        <time>2022-03-03T09:58:23Z</time>
      </trkpt>
      <trkpt lat="46.70616" lon="5.96728">
        <ele>654.8</ele>
        <time>2022-03-03T09:58:27Z</time>
      </trkpt>
      <trkpt lat="46.70614" lon="5.96734">
        <ele>654.9</ele>
        <time>2022-03-03T09:58:32Z</time>
      </trkpt>
      <trkpt lat="46.70612" lon="5.96741">
        <ele>654.8</ele>
        <time>2022-03-03T09:58:37Z</time>
      </trkpt>
      <trkpt lat="46.70609" lon="5.96746">
        <ele>654.7</ele>
        <time>2022-03-03T09:58:41Z</time>
      </trkpt>
      <trkpt lat="46.70606" lon="5.96752">
        <ele>654.2</ele>
        <time>2022-03-03T09:58:45Z</time>
      </trkpt>
      <trkpt lat="46.70603" lon="5.96758">
        <ele>653.7</ele>
        <time>2022-03-03T09:58:50Z</time>
      </trkpt>
      <trkpt lat="46.70601" lon="5.96765">
        <ele>654.1</ele>
        <time>2022-03-03T09:58:57Z</time>
      </trkpt>
      <trkpt lat="46.70598" lon="5.96772">
        <ele>654.2</ele>
        <time>2022-03-03T09:59:02Z</time>
      </trkpt>
      <trkpt lat="46.70596" lon="5.9678">
        <ele>654.5</ele>
        <time>2022-03-03T09:59:07Z</time>
      </trkpt>
      <trkpt lat="46.70595" lon="5.96786">
        <ele>655</ele>
        <time>2022-03-03T09:59:12Z</time>
      </trkpt>
      <trkpt lat="46.70592" lon="5.96792">
        <ele>655.5</ele>
        <time>2022-03-03T09:59:17Z</time>
      </trkpt>
      <trkpt lat="46.70591" lon="5.96798">
        <ele>655.9</ele>
        <time>2022-03-03T09:59:22Z</time>
      </trkpt>
      <trkpt lat="46.7059" lon="5.96805">
        <ele>656.2</ele>
        <time>2022-03-03T09:59:26Z</time>
      </trkpt>
      <trkpt lat="46.70588" lon="5.96811">
        <ele>656.5</ele>
        <time>2022-03-03T09:59:31Z</time>
      </trkpt>
      <trkpt lat="46.70586" lon="5.96818">
        <ele>656.6</ele>
        <time>2022-03-03T09:59:36Z</time>
      </trkpt>
      <trkpt lat="46.70586" lon="5.96825">
        <ele>656.9</ele>
        <time>2022-03-03T09:59:41Z</time>
      </trkpt>
      <trkpt lat="46.70585" lon="5.96832">
        <ele>657.2</ele>
        <time>2022-03-03T09:59:45Z</time>
      </trkpt>
      <trkpt lat="46.70584" lon="5.96838">
        <ele>657.7</ele>
        <time>2022-03-03T09:59:49Z</time>
      </trkpt>
      <trkpt lat="46.70584" lon="5.96845">
        <ele>658.5</ele>
        <time>2022-03-03T09:59:54Z</time>
      </trkpt>
      <trkpt lat="46.70583" lon="5.96852">
        <ele>659</ele>
        <time>2022-03-03T10:00:00Z</time>
      </trkpt>
      <trkpt lat="46.70582" lon="5.96859">
        <ele>659.5</ele>
        <time>2022-03-03T10:00:05Z</time>
      </trkpt>
      <trkpt lat="46.70581" lon="5.96866">
        <ele>660.4</ele>
        <time>2022-03-03T10:00:10Z</time>
      </trkpt>
      <trkpt lat="46.70581" lon="5.96873">
        <ele>661.4</ele>
        <time>2022-03-03T10:00:15Z</time>
      </trkpt>
      <trkpt lat="46.70581" lon="5.9688">
        <ele>662</ele>
        <time>2022-03-03T10:00:20Z</time>
      </trkpt>
      <trkpt lat="46.7058" lon="5.96887">
        <ele>662.5</ele>
        <time>2022-03-03T10:00:26Z</time>
      </trkpt>
      <trkpt lat="46.70581" lon="5.96894">
        <ele>662.9</ele>
        <time>2022-03-03T10:00:31Z</time>
      </trkpt>
      <trkpt lat="46.70581" lon="5.96902">
        <ele>662.6</ele>
        <time>2022-03-03T10:00:38Z</time>
      </trkpt>
      <trkpt lat="46.70582" lon="5.96908">
        <ele>662</ele>
        <time>2022-03-03T10:00:45Z</time>
      </trkpt>
      <trkpt lat="46.7058" lon="5.96915">
        <ele>662</ele>
        <time>2022-03-03T10:00:51Z</time>
      </trkpt>
      <trkpt lat="46.70577" lon="5.96921">
        <ele>662.8</ele>
        <time>2022-03-03T10:00:56Z</time>
      </trkpt>
      <trkpt lat="46.70574" lon="5.96926">
        <ele>664.1</ele>
        <time>2022-03-03T10:01:03Z</time>
      </trkpt>
      <trkpt lat="46.7057" lon="5.96933">
        <ele>664.7</ele>
        <time>2022-03-03T10:01:09Z</time>
      </trkpt>
      <trkpt lat="46.70567" lon="5.96938">
        <ele>665.3</ele>
        <time>2022-03-03T10:01:14Z</time>
      </trkpt>
      <trkpt lat="46.70562" lon="5.96943">
        <ele>666.1</ele>
        <time>2022-03-03T10:01:19Z</time>
      </trkpt>
      <trkpt lat="46.70559" lon="5.96947">
        <ele>667.8</ele>
        <time>2022-03-03T10:01:25Z</time>
      </trkpt>
      <trkpt lat="46.70554" lon="5.9695">
        <ele>669.5</ele>
        <time>2022-03-03T10:01:31Z</time>
      </trkpt>
      <trkpt lat="46.70549" lon="5.96953">
        <ele>671.3</ele>
        <time>2022-03-03T10:01:38Z</time>
      </trkpt>
      <trkpt lat="46.70545" lon="5.96956">
        <ele>672.4</ele>
        <time>2022-03-03T10:01:43Z</time>
      </trkpt>
      <trkpt lat="46.7054" lon="5.96957">
        <ele>672.9</ele>
        <time>2022-03-03T10:01:48Z</time>
      </trkpt>
      <trkpt lat="46.70535" lon="5.96961">
        <ele>673.5</ele>
        <time>2022-03-03T10:01:54Z</time>
      </trkpt>
      <trkpt lat="46.70531" lon="5.96965">
        <ele>673.9</ele>
        <time>2022-03-03T10:01:59Z</time>
      </trkpt>
      <trkpt lat="46.70527" lon="5.96969">
        <ele>674.3</ele>
        <time>2022-03-03T10:02:06Z</time>
      </trkpt>
      <trkpt lat="46.70525" lon="5.96975">
        <ele>674.7</ele>
        <time>2022-03-03T10:02:15Z</time>
      </trkpt>
      <trkpt lat="46.70522" lon="5.96982">
        <ele>675.3</ele>
        <time>2022-03-03T10:02:21Z</time>
      </trkpt>
      <trkpt lat="46.70521" lon="5.96988">
        <ele>676</ele>
        <time>2022-03-03T10:02:27Z</time>
      </trkpt>
      <trkpt lat="46.70519" lon="5.96995">
        <ele>676.6</ele>
        <time>2022-03-03T10:02:33Z</time>
      </trkpt>
      <trkpt lat="46.70517" lon="5.97002">
        <ele>677.5</ele>
        <time>2022-03-03T10:02:39Z</time>
      </trkpt>
      <trkpt lat="46.70516" lon="5.9701">
        <ele>679.4</ele>
        <time>2022-03-03T10:02:46Z</time>
      </trkpt>
      <trkpt lat="46.70512" lon="5.97018">
        <ele>680.5</ele>
        <time>2022-03-03T10:02:57Z</time>
      </trkpt>
      <trkpt lat="46.70509" lon="5.97023">
        <ele>680.4</ele>
        <time>2022-03-03T10:03:00Z</time>
      </trkpt>
      <trkpt lat="46.70506" lon="5.97028">
        <ele>680</ele>
        <time>2022-03-03T10:03:03Z</time>
      </trkpt>
      <trkpt lat="46.70502" lon="5.97033">
        <ele>679.5</ele>
        <time>2022-03-03T10:03:07Z</time>
      </trkpt>
      <trkpt lat="46.70498" lon="5.97039">
        <ele>679.1</ele>
        <time>2022-03-03T10:03:13Z</time>
      </trkpt>
      <trkpt lat="46.70494" lon="5.97043">
        <ele>679.4</ele>
        <time>2022-03-03T10:03:17Z</time>
      </trkpt>
      <trkpt lat="46.7049" lon="5.97048">
        <ele>680.8</ele>
        <time>2022-03-03T10:03:21Z</time>
      </trkpt>
      <trkpt lat="46.70486" lon="5.97053">
        <ele>682.4</ele>
        <time>2022-03-03T10:03:25Z</time>
      </trkpt>
      <trkpt lat="46.70482" lon="5.97058">
        <ele>683.9</ele>
        <time>2022-03-03T10:03:28Z</time>
      </trkpt>
      <trkpt lat="46.70477" lon="5.97062">
        <ele>685.9</ele>
        <time>2022-03-03T10:03:32Z</time>
      </trkpt>
      <trkpt lat="46.70473" lon="5.97066">
        <ele>689</ele>
        <time>2022-03-03T10:03:37Z</time>
      </trkpt>
      <trkpt lat="46.70468" lon="5.97068">
        <ele>692.6</ele>
        <time>2022-03-03T10:03:44Z</time>
      </trkpt>
      <trkpt lat="46.70463" lon="5.97069">
        <ele>695.1</ele>
        <time>2022-03-03T10:03:50Z</time>
      </trkpt>
      <trkpt lat="46.70458" lon="5.97066">
        <ele>696.5</ele>
        <time>2022-03-03T10:03:56Z</time>
      </trkpt>
      <trkpt lat="46.70453" lon="5.97064">
        <ele>697.1</ele>
        <time>2022-03-03T10:04:01Z</time>
      </trkpt>
      <trkpt lat="46.70449" lon="5.97061">
        <ele>697.5</ele>
        <time>2022-03-03T10:04:10Z</time>
      </trkpt>
      <trkpt lat="46.70444" lon="5.97059">
        <ele>697.4</ele>
        <time>2022-03-03T10:04:15Z</time>
      </trkpt>
      <trkpt lat="46.70439" lon="5.97059">
        <ele>697.2</ele>
        <time>2022-03-03T10:04:20Z</time>
      </trkpt>
      <trkpt lat="46.70434" lon="5.9706">
        <ele>697.1</ele>
        <time>2022-03-03T10:04:25Z</time>
      </trkpt>
      <trkpt lat="46.70429" lon="5.97064">
        <ele>696.8</ele>
        <time>2022-03-03T10:04:31Z</time>
      </trkpt>
      <trkpt lat="46.70425" lon="5.97067">
        <ele>696.2</ele>
        <time>2022-03-03T10:04:38Z</time>
      </trkpt>
      <trkpt lat="46.70421" lon="5.97071">
        <ele>695.8</ele>
        <time>2022-03-03T10:04:44Z</time>
      </trkpt>
      <trkpt lat="46.70417" lon="5.97075">
        <ele>696</ele>
        <time>2022-03-03T10:04:50Z</time>
      </trkpt>
      <trkpt lat="46.70414" lon="5.97082">
        <ele>696</ele>
        <time>2022-03-03T10:04:55Z</time>
      </trkpt>
      <trkpt lat="46.70411" lon="5.97087">
        <ele>696.1</ele>
        <time>2022-03-03T10:05:01Z</time>
      </trkpt>
      <trkpt lat="46.70407" lon="5.97091">
        <ele>695.5</ele>
        <time>2022-03-03T10:05:08Z</time>
      </trkpt>
      <trkpt lat="46.70405" lon="5.97097">
        <ele>695.2</ele>
        <time>2022-03-03T10:05:12Z</time>
      </trkpt>
      <trkpt lat="46.70403" lon="5.97104">
        <ele>694.9</ele>
        <time>2022-03-03T10:05:15Z</time>
      </trkpt>
      <trkpt lat="46.70399" lon="5.97108">
        <ele>694.3</ele>
        <time>2022-03-03T10:05:20Z</time>
      </trkpt>
      <trkpt lat="46.70395" lon="5.97112">
        <ele>693.6</ele>
        <time>2022-03-03T10:05:26Z</time>
      </trkpt>
      <trkpt lat="46.70392" lon="5.97117">
        <ele>693.3</ele>
        <time>2022-03-03T10:05:31Z</time>
      </trkpt>
      <trkpt lat="46.70392" lon="5.97123">
        <ele>693.2</ele>
        <time>2022-03-03T10:05:35Z</time>
      </trkpt>
      <trkpt lat="46.7039" lon="5.9713">
        <ele>694.1</ele>
        <time>2022-03-03T10:05:42Z</time>
      </trkpt>
      <trkpt lat="46.70386" lon="5.97134">
        <ele>695</ele>
        <time>2022-03-03T10:05:48Z</time>
      </trkpt>
      <trkpt lat="46.70381" lon="5.97136">
        <ele>695.6</ele>
        <time>2022-03-03T10:05:54Z</time>
      </trkpt>
      <trkpt lat="46.70376" lon="5.97134">
        <ele>696.2</ele>
        <time>2022-03-03T10:06:00Z</time>
      </trkpt>
      <trkpt lat="46.70371" lon="5.97135">
        <ele>697</ele>
        <time>2022-03-03T10:06:08Z</time>
      </trkpt>
      <trkpt lat="46.7037" lon="5.97142">
        <ele>698.9</ele>
        <time>2022-03-03T10:06:16Z</time>
      </trkpt>
      <trkpt lat="46.70365" lon="5.9714">
        <ele>701.1</ele>
        <time>2022-03-03T10:08:26Z</time>
      </trkpt>
      <trkpt lat="46.7036" lon="5.97138">
        <ele>702.1</ele>
        <time>2022-03-03T10:08:31Z</time>
      </trkpt>
      <trkpt lat="46.70356" lon="5.97134">
        <ele>703</ele>
        <time>2022-03-03T10:08:36Z</time>
      </trkpt>
      <trkpt lat="46.70352" lon="5.97131">
        <ele>703.6</ele>
        <time>2022-03-03T10:08:41Z</time>
      </trkpt>
      <trkpt lat="46.70348" lon="5.97133">
        <ele>704.8</ele>
        <time>2022-03-03T10:08:51Z</time>
      </trkpt>
      <trkpt lat="46.70345" lon="5.9714">
        <ele>705.6</ele>
        <time>2022-03-03T10:08:56Z</time>
      </trkpt>
      <trkpt lat="46.70342" lon="5.97145">
        <ele>705.9</ele>
        <time>2022-03-03T10:09:01Z</time>
      </trkpt>
      <trkpt lat="46.7034" lon="5.97152">
        <ele>706.1</ele>
        <time>2022-03-03T10:09:06Z</time>
      </trkpt>
      <trkpt lat="46.70339" lon="5.97159">
        <ele>707.2</ele>
        <time>2022-03-03T10:09:13Z</time>
      </trkpt>
      <trkpt lat="46.70338" lon="5.97166">
        <ele>708.3</ele>
        <time>2022-03-03T10:09:20Z</time>
      </trkpt>
      <trkpt lat="46.7034" lon="5.97173">
        <ele>709</ele>
        <time>2022-03-03T10:09:27Z</time>
      </trkpt>
      <trkpt lat="46.70343" lon="5.9718">
        <ele>709.7</ele>
        <time>2022-03-03T10:09:32Z</time>
      </trkpt>
      <trkpt lat="46.70344" lon="5.97186">
        <ele>710.4</ele>
        <time>2022-03-03T10:09:37Z</time>
      </trkpt>
      <trkpt lat="46.70346" lon="5.97193">
        <ele>711.4</ele>
        <time>2022-03-03T10:09:42Z</time>
      </trkpt>
      <trkpt lat="46.70349" lon="5.97198">
        <ele>712.3</ele>
        <time>2022-03-03T10:09:47Z</time>
      </trkpt>
      <trkpt lat="46.70352" lon="5.97204">
        <ele>713.1</ele>
        <time>2022-03-03T10:09:52Z</time>
      </trkpt>
      <trkpt lat="46.70355" lon="5.97209">
        <ele>713.7</ele>
        <time>2022-03-03T10:09:58Z</time>
      </trkpt>
      <trkpt lat="46.70354" lon="5.97216">
        <ele>714.9</ele>
        <time>2022-03-03T10:10:05Z</time>
      </trkpt>
      <trkpt lat="46.70353" lon="5.97224">
        <ele>716</ele>
        <time>2022-03-03T10:10:10Z</time>
      </trkpt>
      <trkpt lat="46.70354" lon="5.97231">
        <ele>717.1</ele>
        <time>2022-03-03T10:10:16Z</time>
      </trkpt>
      <trkpt lat="46.70354" lon="5.97238">
        <ele>718.3</ele>
        <time>2022-03-03T10:10:25Z</time>
      </trkpt>
      <trkpt lat="46.70352" lon="5.97245">
        <ele>718</ele>
        <time>2022-03-03T10:10:30Z</time>
      </trkpt>
      <trkpt lat="46.70349" lon="5.97251">
        <ele>718</ele>
        <time>2022-03-03T10:10:34Z</time>
      </trkpt>
      <trkpt lat="46.70346" lon="5.97256">
        <ele>718</ele>
        <time>2022-03-03T10:10:40Z</time>
      </trkpt>
      <trkpt lat="46.70341" lon="5.97255">
        <ele>721.1</ele>
        <time>2022-03-03T10:10:59Z</time>
      </trkpt>
      <trkpt lat="46.70339" lon="5.97248">
        <ele>721.3</ele>
        <time>2022-03-03T10:11:15Z</time>
      </trkpt>
      <trkpt lat="46.70336" lon="5.97242">
        <ele>720.9</ele>
        <time>2022-03-03T10:11:22Z</time>
      </trkpt>
      <trkpt lat="46.70334" lon="5.97236">
        <ele>721.2</ele>
        <time>2022-03-03T10:11:28Z</time>
      </trkpt>
      <trkpt lat="46.70329" lon="5.97233">
        <ele>721.5</ele>
        <time>2022-03-03T10:11:33Z</time>
      </trkpt>
      <trkpt lat="46.70325" lon="5.97229">
        <ele>722.3</ele>
        <time>2022-03-03T10:11:39Z</time>
      </trkpt>
      <trkpt lat="46.70322" lon="5.97225">
        <ele>723</ele>
        <time>2022-03-03T10:11:45Z</time>
      </trkpt>
      <trkpt lat="46.70319" lon="5.97219">
        <ele>723.2</ele>
        <time>2022-03-03T10:11:51Z</time>
      </trkpt>
      <trkpt lat="46.70315" lon="5.97213">
        <ele>723.2</ele>
        <time>2022-03-03T10:11:57Z</time>
      </trkpt>
      <trkpt lat="46.70311" lon="5.97208">
        <ele>722.7</ele>
        <time>2022-03-03T10:12:02Z</time>
      </trkpt>
      <trkpt lat="46.70307" lon="5.97205">
        <ele>722</ele>
        <time>2022-03-03T10:12:06Z</time>
      </trkpt>
      <trkpt lat="46.70302" lon="5.97203">
        <ele>721.3</ele>
        <time>2022-03-03T10:12:11Z</time>
      </trkpt>
      <trkpt lat="46.70297" lon="5.972">
        <ele>721</ele>
        <time>2022-03-03T10:12:16Z</time>
      </trkpt>
      <trkpt lat="46.70293" lon="5.97197">
        <ele>721.9</ele>
        <time>2022-03-03T10:12:22Z</time>
      </trkpt>
      <trkpt lat="46.70288" lon="5.97193">
        <ele>723</ele>
        <time>2022-03-03T10:12:28Z</time>
      </trkpt>
      <trkpt lat="46.70283" lon="5.97191">
        <ele>723.4</ele>
        <time>2022-03-03T10:12:34Z</time>
      </trkpt>
      <trkpt lat="46.70279" lon="5.97188">
        <ele>723.4</ele>
        <time>2022-03-03T10:12:40Z</time>
      </trkpt>
      <trkpt lat="46.70275" lon="5.97185">
        <ele>723.7</ele>
        <time>2022-03-03T10:12:44Z</time>
      </trkpt>
      <trkpt lat="46.7027" lon="5.97182">
        <ele>724.2</ele>
        <time>2022-03-03T10:12:48Z</time>
      </trkpt>
      <trkpt lat="46.70265" lon="5.97179">
        <ele>724.4</ele>
        <time>2022-03-03T10:12:53Z</time>
      </trkpt>
      <trkpt lat="46.70261" lon="5.97177">
        <ele>724.7</ele>
        <time>2022-03-03T10:12:58Z</time>
      </trkpt>
      <trkpt lat="46.70256" lon="5.97174">
        <ele>725.3</ele>
        <time>2022-03-03T10:13:04Z</time>
      </trkpt>
      <trkpt lat="46.70252" lon="5.97171">
        <ele>726.3</ele>
        <time>2022-03-03T10:13:10Z</time>
      </trkpt>
      <trkpt lat="46.70246" lon="5.97171">
        <ele>727.1</ele>
        <time>2022-03-03T10:13:16Z</time>
      </trkpt>
      <trkpt lat="46.70242" lon="5.97168">
        <ele>727.4</ele>
        <time>2022-03-03T10:13:21Z</time>
      </trkpt>
      <trkpt lat="46.70237" lon="5.97166">
        <ele>727.9</ele>
        <time>2022-03-03T10:13:25Z</time>
      </trkpt>
      <trkpt lat="46.70233" lon="5.97165">
        <ele>728.7</ele>
        <time>2022-03-03T10:13:29Z</time>
      </trkpt>
      <trkpt lat="46.70228" lon="5.97163">
        <ele>729.2</ele>
        <time>2022-03-03T10:13:34Z</time>
      </trkpt>
      <trkpt lat="46.70223" lon="5.9716">
        <ele>729.6</ele>
        <time>2022-03-03T10:13:39Z</time>
      </trkpt>
      <trkpt lat="46.70219" lon="5.97157">
        <ele>730</ele>
        <time>2022-03-03T10:13:45Z</time>
      </trkpt>
      <trkpt lat="46.70214" lon="5.97154">
        <ele>730.2</ele>
        <time>2022-03-03T10:13:50Z</time>
      </trkpt>
      <trkpt lat="46.70209" lon="5.97151">
        <ele>729.6</ele>
        <time>2022-03-03T10:13:56Z</time>
      </trkpt>
      <trkpt lat="46.70204" lon="5.97148">
        <ele>729.3</ele>
        <time>2022-03-03T10:14:01Z</time>
      </trkpt>
      <trkpt lat="46.70199" lon="5.97145">
        <ele>729.5</ele>
        <time>2022-03-03T10:14:06Z</time>
      </trkpt>
      <trkpt lat="46.70194" lon="5.97143">
        <ele>729.9</ele>
        <time>2022-03-03T10:14:12Z</time>
      </trkpt>
      <trkpt lat="46.7019" lon="5.9714">
        <ele>730.2</ele>
        <time>2022-03-03T10:14:17Z</time>
      </trkpt>
      <trkpt lat="46.70185" lon="5.97138">
        <ele>730</ele>
        <time>2022-03-03T10:14:22Z</time>
      </trkpt>
      <trkpt lat="46.7018" lon="5.97136">
        <ele>729.7</ele>
        <time>2022-03-03T10:14:27Z</time>
      </trkpt>
      <trkpt lat="46.70176" lon="5.97133">
        <ele>729.6</ele>
        <time>2022-03-03T10:14:33Z</time>
      </trkpt>
      <trkpt lat="46.70171" lon="5.97131">
        <ele>730.4</ele>
        <time>2022-03-03T10:14:39Z</time>
      </trkpt>
      <trkpt lat="46.70166" lon="5.97131">
        <ele>731.4</ele>
        <time>2022-03-03T10:14:45Z</time>
      </trkpt>
      <trkpt lat="46.70161" lon="5.9713">
        <ele>731.7</ele>
        <time>2022-03-03T10:14:49Z</time>
      </trkpt>
      <trkpt lat="46.70156" lon="5.97129">
        <ele>732</ele>
        <time>2022-03-03T10:14:53Z</time>
      </trkpt>
      <trkpt lat="46.70152" lon="5.97127">
        <ele>732.7</ele>
        <time>2022-03-03T10:14:58Z</time>
      </trkpt>
      <trkpt lat="46.70147" lon="5.97125">
        <ele>733.8</ele>
        <time>2022-03-03T10:15:03Z</time>
      </trkpt>
      <trkpt lat="46.70142" lon="5.97123">
        <ele>734.7</ele>
        <time>2022-03-03T10:15:08Z</time>
      </trkpt>
      <trkpt lat="46.70137" lon="5.97121">
        <ele>735.4</ele>
        <time>2022-03-03T10:15:15Z</time>
      </trkpt>
      <trkpt lat="46.70132" lon="5.9712">
        <ele>735.3</ele>
        <time>2022-03-03T10:15:21Z</time>
      </trkpt>
      <trkpt lat="46.70127" lon="5.97119">
        <ele>735.4</ele>
        <time>2022-03-03T10:15:27Z</time>
      </trkpt>
      <trkpt lat="46.70122" lon="5.97119">
        <ele>735.6</ele>
        <time>2022-03-03T10:15:32Z</time>
      </trkpt>
      <trkpt lat="46.70117" lon="5.97118">
        <ele>735.7</ele>
        <time>2022-03-03T10:15:37Z</time>
      </trkpt>
      <trkpt lat="46.70111" lon="5.97117">
        <ele>736.1</ele>
        <time>2022-03-03T10:15:42Z</time>
      </trkpt>
      <trkpt lat="46.70106" lon="5.97118">
        <ele>736.1</ele>
        <time>2022-03-03T10:15:48Z</time>
      </trkpt>
      <trkpt lat="46.70101" lon="5.97119">
        <ele>735.7</ele>
        <time>2022-03-03T10:15:54Z</time>
      </trkpt>
      <trkpt lat="46.70095" lon="5.97121">
        <ele>735.2</ele>
        <time>2022-03-03T10:15:59Z</time>
      </trkpt>
      <trkpt lat="46.7009" lon="5.97123">
        <ele>735</ele>
        <time>2022-03-03T10:16:03Z</time>
      </trkpt>
      <trkpt lat="46.70085" lon="5.97124">
        <ele>735.1</ele>
        <time>2022-03-03T10:16:08Z</time>
      </trkpt>
      <trkpt lat="46.7008" lon="5.97126">
        <ele>735.1</ele>
        <time>2022-03-03T10:16:12Z</time>
      </trkpt>
      <trkpt lat="46.70076" lon="5.97125">
        <ele>735.4</ele>
        <time>2022-03-03T10:16:16Z</time>
      </trkpt>
      <trkpt lat="46.70071" lon="5.97125">
        <ele>736.6</ele>
        <time>2022-03-03T10:16:22Z</time>
      </trkpt>
      <trkpt lat="46.70066" lon="5.97124">
        <ele>737.2</ele>
        <time>2022-03-03T10:16:29Z</time>
      </trkpt>
      <trkpt lat="46.70061" lon="5.97125">
        <ele>737.3</ele>
        <time>2022-03-03T10:16:34Z</time>
      </trkpt>
      <trkpt lat="46.70056" lon="5.97125">
        <ele>737.5</ele>
        <time>2022-03-03T10:16:39Z</time>
      </trkpt>
      <trkpt lat="46.70051" lon="5.97125">
        <ele>737.1</ele>
        <time>2022-03-03T10:16:44Z</time>
      </trkpt>
      <trkpt lat="46.70045" lon="5.97126">
        <ele>736</ele>
        <time>2022-03-03T10:16:50Z</time>
      </trkpt>
      <trkpt lat="46.7004" lon="5.97126">
        <ele>735.2</ele>
        <time>2022-03-03T10:16:55Z</time>
      </trkpt>
      <trkpt lat="46.70035" lon="5.97127">
        <ele>735</ele>
        <time>2022-03-03T10:17:00Z</time>
      </trkpt>
      <trkpt lat="46.7003" lon="5.97129">
        <ele>735.2</ele>
        <time>2022-03-03T10:17:05Z</time>
      </trkpt>
      <trkpt lat="46.70025" lon="5.9713">
        <ele>735.5</ele>
        <time>2022-03-03T10:17:10Z</time>
      </trkpt>
      <trkpt lat="46.7002" lon="5.97129">
        <ele>735.8</ele>
        <time>2022-03-03T10:17:15Z</time>
      </trkpt>
      <trkpt lat="46.70015" lon="5.9713">
        <ele>735.7</ele>
        <time>2022-03-03T10:17:20Z</time>
      </trkpt>
      <trkpt lat="46.7001" lon="5.97131">
        <ele>735.4</ele>
        <time>2022-03-03T10:17:25Z</time>
      </trkpt>
      <trkpt lat="46.70006" lon="5.97133">
        <ele>735.1</ele>
        <time>2022-03-03T10:17:30Z</time>
      </trkpt>
      <trkpt lat="46.70001" lon="5.97134">
        <ele>735.8</ele>
        <time>2022-03-03T10:17:35Z</time>
      </trkpt>
      <trkpt lat="46.69995" lon="5.97134">
        <ele>736.6</ele>
        <time>2022-03-03T10:17:40Z</time>
      </trkpt>
      <trkpt lat="46.6999" lon="5.97136">
        <ele>736.9</ele>
        <time>2022-03-03T10:17:45Z</time>
      </trkpt>
      <trkpt lat="46.69985" lon="5.97137">
        <ele>737</ele>
        <time>2022-03-03T10:17:49Z</time>
      </trkpt>
      <trkpt lat="46.6998" lon="5.97137">
        <ele>737</ele>
        <time>2022-03-03T10:17:54Z</time>
      </trkpt>
      <trkpt lat="46.69975" lon="5.97137">
        <ele>736.8</ele>
        <time>2022-03-03T10:17:59Z</time>
      </trkpt>
      <trkpt lat="46.6997" lon="5.97138">
        <ele>737.5</ele>
        <time>2022-03-03T10:18:04Z</time>
      </trkpt>
      <trkpt lat="46.69965" lon="5.97138">
        <ele>738</ele>
        <time>2022-03-03T10:18:09Z</time>
      </trkpt>
      <trkpt lat="46.6996" lon="5.97138">
        <ele>738.2</ele>
        <time>2022-03-03T10:18:14Z</time>
      </trkpt>
      <trkpt lat="46.69956" lon="5.97138">
        <ele>738</ele>
        <time>2022-03-03T10:18:20Z</time>
      </trkpt>
      <trkpt lat="46.6995" lon="5.97139">
        <ele>737.4</ele>
        <time>2022-03-03T10:18:25Z</time>
      </trkpt>
      <trkpt lat="46.69946" lon="5.97137">
        <ele>736.9</ele>
        <time>2022-03-03T10:18:30Z</time>
      </trkpt>
      <trkpt lat="46.6994" lon="5.97137">
        <ele>735.3</ele>
        <time>2022-03-03T10:18:36Z</time>
      </trkpt>
      <trkpt lat="46.69935" lon="5.97135">
        <ele>733.7</ele>
        <time>2022-03-03T10:18:41Z</time>
      </trkpt>
      <trkpt lat="46.6993" lon="5.97135">
        <ele>732.2</ele>
        <time>2022-03-03T10:18:47Z</time>
      </trkpt>
      <trkpt lat="46.69925" lon="5.97137">
        <ele>731.6</ele>
        <time>2022-03-03T10:18:52Z</time>
      </trkpt>
      <trkpt lat="46.6992" lon="5.97137">
        <ele>731.4</ele>
        <time>2022-03-03T10:18:57Z</time>
      </trkpt>
      <trkpt lat="46.69914" lon="5.97137">
        <ele>731.8</ele>
        <time>2022-03-03T10:19:02Z</time>
      </trkpt>
      <trkpt lat="46.6991" lon="5.97137">
        <ele>733</ele>
        <time>2022-03-03T10:19:06Z</time>
      </trkpt>
      <trkpt lat="46.69904" lon="5.97136">
        <ele>735</ele>
        <time>2022-03-03T10:19:11Z</time>
      </trkpt>
      <trkpt lat="46.69899" lon="5.97134">
        <ele>737.2</ele>
        <time>2022-03-03T10:19:16Z</time>
      </trkpt>
      <trkpt lat="46.69894" lon="5.97132">
        <ele>739</ele>
        <time>2022-03-03T10:19:21Z</time>
      </trkpt>
      <trkpt lat="46.6989" lon="5.9713">
        <ele>741</ele>
        <time>2022-03-03T10:19:26Z</time>
      </trkpt>
      <trkpt lat="46.69885" lon="5.97127">
        <ele>742.1</ele>
        <time>2022-03-03T10:19:32Z</time>
      </trkpt>
      <trkpt lat="46.69881" lon="5.97125">
        <ele>742</ele>
        <time>2022-03-03T10:19:37Z</time>
      </trkpt>
      <trkpt lat="46.69877" lon="5.97121">
        <ele>741.4</ele>
        <time>2022-03-03T10:19:42Z</time>
      </trkpt>
      <trkpt lat="46.69873" lon="5.97118">
        <ele>739.9</ele>
        <time>2022-03-03T10:19:47Z</time>
      </trkpt>
      <trkpt lat="46.69867" lon="5.97117">
        <ele>738.8</ele>
        <time>2022-03-03T10:19:52Z</time>
      </trkpt>
      <trkpt lat="46.69862" lon="5.97114">
        <ele>738.6</ele>
        <time>2022-03-03T10:19:57Z</time>
      </trkpt>
      <trkpt lat="46.69858" lon="5.97111">
        <ele>739.4</ele>
        <time>2022-03-03T10:20:02Z</time>
      </trkpt>
      <trkpt lat="46.69854" lon="5.97107">
        <ele>740.4</ele>
        <time>2022-03-03T10:20:07Z</time>
      </trkpt>
      <trkpt lat="46.6985" lon="5.97104">
        <ele>741.5</ele>
        <time>2022-03-03T10:20:12Z</time>
      </trkpt>
      <trkpt lat="46.69845" lon="5.97102">
        <ele>742.7</ele>
        <time>2022-03-03T10:20:17Z</time>
      </trkpt>
      <trkpt lat="46.69842" lon="5.97097">
        <ele>743.4</ele>
        <time>2022-03-03T10:20:22Z</time>
      </trkpt>
      <trkpt lat="46.69838" lon="5.97092">
        <ele>743.9</ele>
        <time>2022-03-03T10:20:30Z</time>
      </trkpt>
      <trkpt lat="46.69834" lon="5.97089">
        <ele>744.8</ele>
        <time>2022-03-03T10:20:39Z</time>
      </trkpt>
      <trkpt lat="46.69829" lon="5.97088">
        <ele>744.9</ele>
        <time>2022-03-03T10:20:44Z</time>
      </trkpt>
      <trkpt lat="46.69824" lon="5.97088">
        <ele>745.3</ele>
        <time>2022-03-03T10:20:49Z</time>
      </trkpt>
      <trkpt lat="46.69819" lon="5.97087">
        <ele>746.1</ele>
        <time>2022-03-03T10:20:54Z</time>
      </trkpt>
      <trkpt lat="46.69814" lon="5.97085">
        <ele>747</ele>
        <time>2022-03-03T10:20:59Z</time>
      </trkpt>
      <trkpt lat="46.69809" lon="5.97083">
        <ele>747.7</ele>
        <time>2022-03-03T10:21:04Z</time>
      </trkpt>
      <trkpt lat="46.69805" lon="5.97081">
        <ele>747.7</ele>
        <time>2022-03-03T10:21:10Z</time>
      </trkpt>
      <trkpt lat="46.69801" lon="5.97077">
        <ele>747.7</ele>
        <time>2022-03-03T10:21:15Z</time>
      </trkpt>
      <trkpt lat="46.69796" lon="5.97075">
        <ele>747.9</ele>
        <time>2022-03-03T10:21:20Z</time>
      </trkpt>
      <trkpt lat="46.69791" lon="5.97072">
        <ele>747.7</ele>
        <time>2022-03-03T10:21:25Z</time>
      </trkpt>
      <trkpt lat="46.69787" lon="5.9707">
        <ele>747.6</ele>
        <time>2022-03-03T10:21:29Z</time>
      </trkpt>
      <trkpt lat="46.69782" lon="5.97068">
        <ele>747</ele>
        <time>2022-03-03T10:21:34Z</time>
      </trkpt>
      <trkpt lat="46.69777" lon="5.97066">
        <ele>746.6</ele>
        <time>2022-03-03T10:21:40Z</time>
      </trkpt>
      <trkpt lat="46.69773" lon="5.97063">
        <ele>746.9</ele>
        <time>2022-03-03T10:21:45Z</time>
      </trkpt>
      <trkpt lat="46.69767" lon="5.9706">
        <ele>747.3</ele>
        <time>2022-03-03T10:21:50Z</time>
      </trkpt>
      <trkpt lat="46.69763" lon="5.97058">
        <ele>747.7</ele>
        <time>2022-03-03T10:21:54Z</time>
      </trkpt>
      <trkpt lat="46.69759" lon="5.97054">
        <ele>747.6</ele>
        <time>2022-03-03T10:22:00Z</time>
      </trkpt>
      <trkpt lat="46.69755" lon="5.97048">
        <ele>747.5</ele>
        <time>2022-03-03T10:22:06Z</time>
      </trkpt>
      <trkpt lat="46.69751" lon="5.97044">
        <ele>747.3</ele>
        <time>2022-03-03T10:22:10Z</time>
      </trkpt>
      <trkpt lat="46.69746" lon="5.9704">
        <ele>746.7</ele>
        <time>2022-03-03T10:22:15Z</time>
      </trkpt>
      <trkpt lat="46.69743" lon="5.97034">
        <ele>746.7</ele>
        <time>2022-03-03T10:22:21Z</time>
      </trkpt>
      <trkpt lat="46.69739" lon="5.97029">
        <ele>747.1</ele>
        <time>2022-03-03T10:22:25Z</time>
      </trkpt>
      <trkpt lat="46.69735" lon="5.97026">
        <ele>747.4</ele>
        <time>2022-03-03T10:22:29Z</time>
      </trkpt>
      <trkpt lat="46.6973" lon="5.97023">
        <ele>747.4</ele>
        <time>2022-03-03T10:22:33Z</time>
      </trkpt>
      <trkpt lat="46.69725" lon="5.97018">
        <ele>747.7</ele>
        <time>2022-03-03T10:22:37Z</time>
      </trkpt>
      <trkpt lat="46.69721" lon="5.97014">
        <ele>747.6</ele>
        <time>2022-03-03T10:22:42Z</time>
      </trkpt>
      <trkpt lat="46.69715" lon="5.97013">
        <ele>747.6</ele>
        <time>2022-03-03T10:22:47Z</time>
      </trkpt>
      <trkpt lat="46.6971" lon="5.97011">
        <ele>747.9</ele>
        <time>2022-03-03T10:22:52Z</time>
      </trkpt>
      <trkpt lat="46.69705" lon="5.97009">
        <ele>748.4</ele>
        <time>2022-03-03T10:22:57Z</time>
      </trkpt>
      <trkpt lat="46.697" lon="5.97009">
        <ele>748.4</ele>
        <time>2022-03-03T10:23:03Z</time>
      </trkpt>
      <trkpt lat="46.69695" lon="5.97009">
        <ele>748.3</ele>
        <time>2022-03-03T10:23:09Z</time>
      </trkpt>
      <trkpt lat="46.6969" lon="5.97007">
        <ele>748.4</ele>
        <time>2022-03-03T10:23:15Z</time>
      </trkpt>
      <trkpt lat="46.69684" lon="5.97006">
        <ele>748.6</ele>
        <time>2022-03-03T10:23:20Z</time>
      </trkpt>
      <trkpt lat="46.6968" lon="5.97003">
        <ele>748.7</ele>
        <time>2022-03-03T10:23:24Z</time>
      </trkpt>
      <trkpt lat="46.69676" lon="5.97">
        <ele>748.1</ele>
        <time>2022-03-03T10:23:29Z</time>
      </trkpt>
      <trkpt lat="46.69671" lon="5.96995">
        <ele>747.5</ele>
        <time>2022-03-03T10:23:35Z</time>
      </trkpt>
      <trkpt lat="46.69667" lon="5.96992">
        <ele>746.8</ele>
        <time>2022-03-03T10:23:39Z</time>
      </trkpt>
      <trkpt lat="46.69662" lon="5.9699">
        <ele>746.2</ele>
        <time>2022-03-03T10:23:43Z</time>
      </trkpt>
      <trkpt lat="46.69658" lon="5.96988">
        <ele>745.6</ele>
        <time>2022-03-03T10:23:48Z</time>
      </trkpt>
      <trkpt lat="46.69653" lon="5.96987">
        <ele>745.6</ele>
        <time>2022-03-03T10:23:53Z</time>
      </trkpt>
      <trkpt lat="46.69648" lon="5.96987">
        <ele>746.4</ele>
        <time>2022-03-03T10:23:59Z</time>
      </trkpt>
      <trkpt lat="46.69643" lon="5.96984">
        <ele>747.1</ele>
        <time>2022-03-03T10:24:05Z</time>
      </trkpt>
      <trkpt lat="46.69639" lon="5.96981">
        <ele>747.5</ele>
        <time>2022-03-03T10:24:11Z</time>
      </trkpt>
      <trkpt lat="46.69634" lon="5.96981">
        <ele>747.2</ele>
        <time>2022-03-03T10:24:17Z</time>
      </trkpt>
      <trkpt lat="46.69629" lon="5.9698">
        <ele>746.6</ele>
        <time>2022-03-03T10:24:21Z</time>
      </trkpt>
      <trkpt lat="46.69625" lon="5.96979">
        <ele>745.7</ele>
        <time>2022-03-03T10:24:26Z</time>
      </trkpt>
      <trkpt lat="46.6962" lon="5.96978">
        <ele>745.2</ele>
        <time>2022-03-03T10:24:31Z</time>
      </trkpt>
      <trkpt lat="46.69615" lon="5.96979">
        <ele>744.7</ele>
        <time>2022-03-03T10:24:35Z</time>
      </trkpt>
      <trkpt lat="46.6961" lon="5.96981">
        <ele>743.9</ele>
        <time>2022-03-03T10:24:39Z</time>
      </trkpt>
      <trkpt lat="46.69606" lon="5.96983">
        <ele>743.2</ele>
        <time>2022-03-03T10:24:45Z</time>
      </trkpt>
      <trkpt lat="46.696" lon="5.96983">
        <ele>743.6</ele>
        <time>2022-03-03T10:24:51Z</time>
      </trkpt>
      <trkpt lat="46.69595" lon="5.96984">
        <ele>743.7</ele>
        <time>2022-03-03T10:24:55Z</time>
      </trkpt>
      <trkpt lat="46.69591" lon="5.96986">
        <ele>744</ele>
        <time>2022-03-03T10:24:59Z</time>
      </trkpt>
      <trkpt lat="46.69586" lon="5.96986">
        <ele>744.3</ele>
        <time>2022-03-03T10:25:03Z</time>
      </trkpt>
      <trkpt lat="46.69581" lon="5.96986">
        <ele>744.6</ele>
        <time>2022-03-03T10:25:08Z</time>
      </trkpt>
      <trkpt lat="46.69576" lon="5.96988">
        <ele>744.7</ele>
        <time>2022-03-03T10:25:12Z</time>
      </trkpt>
      <trkpt lat="46.69571" lon="5.9699">
        <ele>744.6</ele>
        <time>2022-03-03T10:25:15Z</time>
      </trkpt>
      <trkpt lat="46.69565" lon="5.96991">
        <ele>745.3</ele>
        <time>2022-03-03T10:25:19Z</time>
      </trkpt>
      <trkpt lat="46.6956" lon="5.9699">
        <ele>746.3</ele>
        <time>2022-03-03T10:25:23Z</time>
      </trkpt>
      <trkpt lat="46.69555" lon="5.96991">
        <ele>747.8</ele>
        <time>2022-03-03T10:25:29Z</time>
      </trkpt>
      <trkpt lat="46.6955" lon="5.96993">
        <ele>749</ele>
        <time>2022-03-03T10:25:37Z</time>
      </trkpt>
      <trkpt lat="46.69546" lon="5.96996">
        <ele>749.5</ele>
        <time>2022-03-03T10:25:41Z</time>
      </trkpt>
      <trkpt lat="46.69541" lon="5.96999">
        <ele>750.1</ele>
        <time>2022-03-03T10:25:45Z</time>
      </trkpt>
      <trkpt lat="46.69536" lon="5.97002">
        <ele>750.5</ele>
        <time>2022-03-03T10:25:49Z</time>
      </trkpt>
      <trkpt lat="46.69531" lon="5.97001">
        <ele>750.8</ele>
        <time>2022-03-03T10:25:54Z</time>
      </trkpt>
      <trkpt lat="46.69527" lon="5.96997">
        <ele>751.1</ele>
        <time>2022-03-03T10:26:02Z</time>
      </trkpt>
      <trkpt lat="46.69523" lon="5.96997">
        <ele>751</ele>
        <time>2022-03-03T10:26:09Z</time>
      </trkpt>
      <trkpt lat="46.69518" lon="5.96998">
        <ele>750.7</ele>
        <time>2022-03-03T10:26:15Z</time>
      </trkpt>
      <trkpt lat="46.69513" lon="5.97002">
        <ele>749.9</ele>
        <time>2022-03-03T10:26:21Z</time>
      </trkpt>
      <trkpt lat="46.69509" lon="5.97006">
        <ele>749.7</ele>
        <time>2022-03-03T10:26:24Z</time>
      </trkpt>
      <trkpt lat="46.69505" lon="5.97011">
        <ele>749.2</ele>
        <time>2022-03-03T10:26:28Z</time>
      </trkpt>
      <trkpt lat="46.69501" lon="5.97016">
        <ele>748.9</ele>
        <time>2022-03-03T10:26:32Z</time>
      </trkpt>
      <trkpt lat="46.69496" lon="5.97019">
        <ele>748.6</ele>
        <time>2022-03-03T10:26:36Z</time>
      </trkpt>
      <trkpt lat="46.69492" lon="5.97023">
        <ele>748.4</ele>
        <time>2022-03-03T10:26:39Z</time>
      </trkpt>
      <trkpt lat="46.69487" lon="5.97026">
        <ele>748.4</ele>
        <time>2022-03-03T10:26:42Z</time>
      </trkpt>
      <trkpt lat="46.69483" lon="5.97029">
        <ele>748.2</ele>
        <time>2022-03-03T10:26:46Z</time>
      </trkpt>
      <trkpt lat="46.69478" lon="5.97031">
        <ele>747.7</ele>
        <time>2022-03-03T10:26:51Z</time>
      </trkpt>
      <trkpt lat="46.69473" lon="5.97036">
        <ele>747.4</ele>
        <time>2022-03-03T10:26:55Z</time>
      </trkpt>
      <trkpt lat="46.69469" lon="5.97041">
        <ele>747.1</ele>
        <time>2022-03-03T10:27:00Z</time>
      </trkpt>
      <trkpt lat="46.69465" lon="5.97045">
        <ele>746.7</ele>
        <time>2022-03-03T10:27:04Z</time>
      </trkpt>
      <trkpt lat="46.69461" lon="5.9705">
        <ele>746.9</ele>
        <time>2022-03-03T10:27:14Z</time>
      </trkpt>
      <trkpt lat="46.69457" lon="5.97055">
        <ele>746.7</ele>
        <time>2022-03-03T10:27:23Z</time>
      </trkpt>
      <trkpt lat="46.69454" lon="5.97061">
        <ele>746.3</ele>
        <time>2022-03-03T10:27:27Z</time>
      </trkpt>
      <trkpt lat="46.6945" lon="5.97066">
        <ele>746.5</ele>
        <time>2022-03-03T10:27:31Z</time>
      </trkpt>
      <trkpt lat="46.69447" lon="5.97072">
        <ele>747.8</ele>
        <time>2022-03-03T10:27:38Z</time>
      </trkpt>
      <trkpt lat="46.69445" lon="5.9708">
        <ele>748.9</ele>
        <time>2022-03-03T10:27:44Z</time>
      </trkpt>
      <trkpt lat="46.69443" lon="5.97085">
        <ele>749.6</ele>
        <time>2022-03-03T10:27:47Z</time>
      </trkpt>
      <trkpt lat="46.6944" lon="5.9709">
        <ele>750.5</ele>
        <time>2022-03-03T10:27:50Z</time>
      </trkpt>
      <trkpt lat="46.69438" lon="5.97097">
        <ele>752.1</ele>
        <time>2022-03-03T10:27:56Z</time>
      </trkpt>
      <trkpt lat="46.69433" lon="5.971">
        <ele>753.3</ele>
        <time>2022-03-03T10:28:03Z</time>
      </trkpt>
      <trkpt lat="46.69429" lon="5.97103">
        <ele>753.2</ele>
        <time>2022-03-03T10:28:09Z</time>
      </trkpt>
      <trkpt lat="46.69425" lon="5.97107">
        <ele>752.4</ele>
        <time>2022-03-03T10:28:20Z</time>
      </trkpt>
      <trkpt lat="46.6942" lon="5.97106">
        <ele>752</ele>
        <time>2022-03-03T10:28:27Z</time>
      </trkpt>
      <trkpt lat="46.69415" lon="5.97105">
        <ele>751.6</ele>
        <time>2022-03-03T10:28:32Z</time>
      </trkpt>
      <trkpt lat="46.6941" lon="5.97104">
        <ele>752</ele>
        <time>2022-03-03T10:28:39Z</time>
      </trkpt>
      <trkpt lat="46.69405" lon="5.97104">
        <ele>753</ele>
        <time>2022-03-03T10:28:45Z</time>
      </trkpt>
      <trkpt lat="46.694" lon="5.97102">
        <ele>753.6</ele>
        <time>2022-03-03T10:28:50Z</time>
      </trkpt>
      <trkpt lat="46.69396" lon="5.97098">
        <ele>753.9</ele>
        <time>2022-03-03T10:28:56Z</time>
      </trkpt>
      <trkpt lat="46.69394" lon="5.97093">
        <ele>754.2</ele>
        <time>2022-03-03T10:29:05Z</time>
      </trkpt>
      <trkpt lat="46.69391" lon="5.97086">
        <ele>754.6</ele>
        <time>2022-03-03T10:29:12Z</time>
      </trkpt>
      <trkpt lat="46.69387" lon="5.97084">
        <ele>755.5</ele>
        <time>2022-03-03T10:29:18Z</time>
      </trkpt>
      <trkpt lat="46.69381" lon="5.97083">
        <ele>756.7</ele>
        <time>2022-03-03T10:29:23Z</time>
      </trkpt>
      <trkpt lat="46.69376" lon="5.97082">
        <ele>757.5</ele>
        <time>2022-03-03T10:29:28Z</time>
      </trkpt>
      <trkpt lat="46.6937" lon="5.97083">
        <ele>757.5</ele>
        <time>2022-03-03T10:29:32Z</time>
      </trkpt>
      <trkpt lat="46.69366" lon="5.97085">
        <ele>757.2</ele>
        <time>2022-03-03T10:29:35Z</time>
      </trkpt>
      <trkpt lat="46.69361" lon="5.97088">
        <ele>756.8</ele>
        <time>2022-03-03T10:29:39Z</time>
      </trkpt>
      <trkpt lat="46.69356" lon="5.97087">
        <ele>756.4</ele>
        <time>2022-03-03T10:29:45Z</time>
      </trkpt>
      <trkpt lat="46.69352" lon="5.97084">
        <ele>756.5</ele>
        <time>2022-03-03T10:29:49Z</time>
      </trkpt>
      <trkpt lat="46.69347" lon="5.97082">
        <ele>757.2</ele>
        <time>2022-03-03T10:29:55Z</time>
      </trkpt>
      <trkpt lat="46.69346" lon="5.97075">
        <ele>759.2</ele>
        <time>2022-03-03T10:30:08Z</time>
      </trkpt>
      <trkpt lat="46.69341" lon="5.97074">
        <ele>760.1</ele>
        <time>2022-03-03T10:30:13Z</time>
      </trkpt>
      <trkpt lat="46.69336" lon="5.97075">
        <ele>761.7</ele>
        <time>2022-03-03T10:30:19Z</time>
      </trkpt>
      <trkpt lat="46.69332" lon="5.97081">
        <ele>762.6</ele>
        <time>2022-03-03T10:30:26Z</time>
      </trkpt>
      <trkpt lat="46.69329" lon="5.97086">
        <ele>762.6</ele>
        <time>2022-03-03T10:30:29Z</time>
      </trkpt>
      <trkpt lat="46.69328" lon="5.97093">
        <ele>762.6</ele>
        <time>2022-03-03T10:30:34Z</time>
      </trkpt>
      <trkpt lat="46.69326" lon="5.971">
        <ele>762.1</ele>
        <time>2022-03-03T10:30:43Z</time>
      </trkpt>
      <trkpt lat="46.69322" lon="5.97104">
        <ele>762.3</ele>
        <time>2022-03-03T10:30:58Z</time>
      </trkpt>
      <trkpt lat="46.69327" lon="5.97101">
        <ele>766.4</ele>
        <time>2022-03-03T10:31:13Z</time>
      </trkpt>
      <trkpt lat="46.69322" lon="5.97099">
        <ele>767.9</ele>
        <time>2022-03-03T10:31:27Z</time>
      </trkpt>
      <trkpt lat="46.69322" lon="5.97105">
        <ele>771.7</ele>
        <time>2022-03-03T10:32:04Z</time>
      </trkpt>
      <trkpt lat="46.69327" lon="5.97104">
        <ele>774.4</ele>
        <time>2022-03-03T10:32:14Z</time>
      </trkpt>
      <trkpt lat="46.69332" lon="5.97103">
        <ele>774.4</ele>
        <time>2022-03-03T10:32:25Z</time>
      </trkpt>
      <trkpt lat="46.69336" lon="5.97107">
        <ele>773.2</ele>
        <time>2022-03-03T10:32:35Z</time>
      </trkpt>
      <trkpt lat="46.6934" lon="5.97104">
        <ele>772.3</ele>
        <time>2022-03-03T10:32:43Z</time>
      </trkpt>
      <trkpt lat="46.69336" lon="5.97108">
        <ele>769.8</ele>
        <time>2022-03-03T10:32:58Z</time>
      </trkpt>
      <trkpt lat="46.69336" lon="5.97115">
        <ele>769.4</ele>
        <time>2022-03-03T10:33:03Z</time>
      </trkpt>
      <trkpt lat="46.69336" lon="5.97123">
        <ele>769.1</ele>
        <time>2022-03-03T10:33:08Z</time>
      </trkpt>
      <trkpt lat="46.69334" lon="5.9713">
        <ele>768.6</ele>
        <time>2022-03-03T10:33:14Z</time>
      </trkpt>
      <trkpt lat="46.69335" lon="5.97137">
        <ele>767.5</ele>
        <time>2022-03-03T10:33:21Z</time>
      </trkpt>
      <trkpt lat="46.69335" lon="5.97145">
        <ele>767</ele>
        <time>2022-03-03T10:33:26Z</time>
      </trkpt>
      <trkpt lat="46.69334" lon="5.97152">
        <ele>767</ele>
        <time>2022-03-03T10:33:30Z</time>
      </trkpt>
      <trkpt lat="46.69333" lon="5.97159">
        <ele>767.3</ele>
        <time>2022-03-03T10:33:34Z</time>
      </trkpt>
      <trkpt lat="46.69333" lon="5.97166">
        <ele>767.8</ele>
        <time>2022-03-03T10:33:39Z</time>
      </trkpt>
      <trkpt lat="46.69334" lon="5.97173">
        <ele>768.4</ele>
        <time>2022-03-03T10:33:43Z</time>
      </trkpt>
      <trkpt lat="46.69333" lon="5.97179">
        <ele>769.2</ele>
        <time>2022-03-03T10:33:47Z</time>
      </trkpt>
      <trkpt lat="46.69332" lon="5.97186">
        <ele>770.1</ele>
        <time>2022-03-03T10:33:52Z</time>
      </trkpt>
      <trkpt lat="46.69332" lon="5.97193">
        <ele>771.2</ele>
        <time>2022-03-03T10:33:58Z</time>
      </trkpt>
      <trkpt lat="46.69335" lon="5.97198">
        <ele>771.9</ele>
        <time>2022-03-03T10:34:04Z</time>
      </trkpt>
      <trkpt lat="46.69334" lon="5.97206">
        <ele>772.2</ele>
        <time>2022-03-03T10:34:08Z</time>
      </trkpt>
      <trkpt lat="46.69333" lon="5.97212">
        <ele>771.3</ele>
        <time>2022-03-03T10:34:15Z</time>
      </trkpt>
      <trkpt lat="46.69333" lon="5.9722">
        <ele>769.8</ele>
        <time>2022-03-03T10:34:21Z</time>
      </trkpt>
      <trkpt lat="46.69334" lon="5.97226">
        <ele>768</ele>
        <time>2022-03-03T10:34:28Z</time>
      </trkpt>
      <trkpt lat="46.69336" lon="5.97233">
        <ele>766.3</ele>
        <time>2022-03-03T10:34:34Z</time>
      </trkpt>
      <trkpt lat="46.69337" lon="5.9724">
        <ele>765.7</ele>
        <time>2022-03-03T10:34:38Z</time>
      </trkpt>
      <trkpt lat="46.69338" lon="5.97249">
        <ele>765.6</ele>
        <time>2022-03-03T10:34:42Z</time>
      </trkpt>
      <trkpt lat="46.69338" lon="5.97255">
        <ele>765.9</ele>
        <time>2022-03-03T10:34:46Z</time>
      </trkpt>
      <trkpt lat="46.69337" lon="5.97262">
        <ele>766.7</ele>
        <time>2022-03-03T10:34:52Z</time>
      </trkpt>
      <trkpt lat="46.69336" lon="5.97269">
        <ele>767.2</ele>
        <time>2022-03-03T10:34:57Z</time>
      </trkpt>
      <trkpt lat="46.69336" lon="5.97277">
        <ele>767.9</ele>
        <time>2022-03-03T10:35:02Z</time>
      </trkpt>
      <trkpt lat="46.69333" lon="5.97283">
        <ele>768.7</ele>
        <time>2022-03-03T10:35:07Z</time>
      </trkpt>
      <trkpt lat="46.6933" lon="5.9729">
        <ele>769.2</ele>
        <time>2022-03-03T10:35:11Z</time>
      </trkpt>
      <trkpt lat="46.69327" lon="5.97295">
        <ele>769.6</ele>
        <time>2022-03-03T10:35:17Z</time>
      </trkpt>
      <trkpt lat="46.69324" lon="5.973">
        <ele>769.9</ele>
        <time>2022-03-03T10:35:22Z</time>
      </trkpt>
      <trkpt lat="46.69321" lon="5.97305">
        <ele>769.8</ele>
        <time>2022-03-03T10:35:27Z</time>
      </trkpt>
      <trkpt lat="46.69317" lon="5.9731">
        <ele>769.2</ele>
        <time>2022-03-03T10:35:32Z</time>
      </trkpt>
      <trkpt lat="46.69314" lon="5.97315">
        <ele>768.8</ele>
        <time>2022-03-03T10:35:35Z</time>
      </trkpt>
      <trkpt lat="46.69311" lon="5.97322">
        <ele>769</ele>
        <time>2022-03-03T10:35:38Z</time>
      </trkpt>
      <trkpt lat="46.69309" lon="5.97329">
        <ele>769.5</ele>
        <time>2022-03-03T10:35:42Z</time>
      </trkpt>
      <trkpt lat="46.69306" lon="5.97335">
        <ele>770.4</ele>
        <time>2022-03-03T10:35:47Z</time>
      </trkpt>
      <trkpt lat="46.69301" lon="5.97339">
        <ele>770.9</ele>
        <time>2022-03-03T10:35:52Z</time>
      </trkpt>
      <trkpt lat="46.69297" lon="5.97344">
        <ele>771.2</ele>
        <time>2022-03-03T10:35:59Z</time>
      </trkpt>
      <trkpt lat="46.69292" lon="5.97347">
        <ele>770.7</ele>
        <time>2022-03-03T10:36:06Z</time>
      </trkpt>
      <trkpt lat="46.69288" lon="5.97352">
        <ele>770.7</ele>
        <time>2022-03-03T10:36:09Z</time>
      </trkpt>
      <trkpt lat="46.69284" lon="5.97357">
        <ele>770.9</ele>
        <time>2022-03-03T10:36:12Z</time>
      </trkpt>
      <trkpt lat="46.69282" lon="5.97362">
        <ele>771.7</ele>
        <time>2022-03-03T10:36:16Z</time>
      </trkpt>
      <trkpt lat="46.69278" lon="5.97367">
        <ele>772.5</ele>
        <time>2022-03-03T10:36:21Z</time>
      </trkpt>
      <trkpt lat="46.69273" lon="5.97372">
        <ele>772.5</ele>
        <time>2022-03-03T10:36:26Z</time>
      </trkpt>
      <trkpt lat="46.69268" lon="5.97375">
        <ele>772.3</ele>
        <time>2022-03-03T10:36:30Z</time>
      </trkpt>
      <trkpt lat="46.69264" lon="5.97378">
        <ele>772</ele>
        <time>2022-03-03T10:36:34Z</time>
      </trkpt>
      <trkpt lat="46.69259" lon="5.97382">
        <ele>771.6</ele>
        <time>2022-03-03T10:36:39Z</time>
      </trkpt>
      <trkpt lat="46.69255" lon="5.97388">
        <ele>771.3</ele>
        <time>2022-03-03T10:36:44Z</time>
      </trkpt>
      <trkpt lat="46.69253" lon="5.97394">
        <ele>770.7</ele>
        <time>2022-03-03T10:36:50Z</time>
      </trkpt>
      <trkpt lat="46.6925" lon="5.97401">
        <ele>770.2</ele>
        <time>2022-03-03T10:36:56Z</time>
      </trkpt>
      <trkpt lat="46.69247" lon="5.97407">
        <ele>770.3</ele>
        <time>2022-03-03T10:37:00Z</time>
      </trkpt>
      <trkpt lat="46.69243" lon="5.97414">
        <ele>771</ele>
        <time>2022-03-03T10:37:04Z</time>
      </trkpt>
      <trkpt lat="46.6924" lon="5.97419">
        <ele>771.7</ele>
        <time>2022-03-03T10:37:07Z</time>
      </trkpt>
      <trkpt lat="46.69237" lon="5.97424">
        <ele>773</ele>
        <time>2022-03-03T10:37:11Z</time>
      </trkpt>
      <trkpt lat="46.69234" lon="5.9743">
        <ele>774</ele>
        <time>2022-03-03T10:37:15Z</time>
      </trkpt>
      <trkpt lat="46.69232" lon="5.97436">
        <ele>775</ele>
        <time>2022-03-03T10:37:19Z</time>
      </trkpt>
      <trkpt lat="46.69229" lon="5.97443">
        <ele>776</ele>
        <time>2022-03-03T10:37:24Z</time>
      </trkpt>
      <trkpt lat="46.69224" lon="5.97443">
        <ele>776.4</ele>
        <time>2022-03-03T10:37:30Z</time>
      </trkpt>
      <trkpt lat="46.69219" lon="5.97447">
        <ele>776.4</ele>
        <time>2022-03-03T10:37:38Z</time>
      </trkpt>
      <trkpt lat="46.69214" lon="5.97451">
        <ele>776.2</ele>
        <time>2022-03-03T10:37:42Z</time>
      </trkpt>
      <trkpt lat="46.6921" lon="5.97456">
        <ele>776.1</ele>
        <time>2022-03-03T10:37:47Z</time>
      </trkpt>
      <trkpt lat="46.69206" lon="5.97461">
        <ele>776.1</ele>
        <time>2022-03-03T10:37:51Z</time>
      </trkpt>
      <trkpt lat="46.69202" lon="5.97468">
        <ele>776</ele>
        <time>2022-03-03T10:37:54Z</time>
      </trkpt>
      <trkpt lat="46.69198" lon="5.97474">
        <ele>776</ele>
        <time>2022-03-03T10:37:57Z</time>
      </trkpt>
      <trkpt lat="46.69196" lon="5.9748">
        <ele>775.9</ele>
        <time>2022-03-03T10:38:00Z</time>
      </trkpt>
      <trkpt lat="46.69194" lon="5.97487">
        <ele>775.6</ele>
        <time>2022-03-03T10:38:05Z</time>
      </trkpt>
      <trkpt lat="46.69192" lon="5.97494">
        <ele>774.8</ele>
        <time>2022-03-03T10:38:11Z</time>
      </trkpt>
      <trkpt lat="46.6919" lon="5.97501">
        <ele>773.7</ele>
        <time>2022-03-03T10:38:17Z</time>
      </trkpt>
      <trkpt lat="46.69191" lon="5.97509">
        <ele>773</ele>
        <time>2022-03-03T10:38:22Z</time>
      </trkpt>
      <trkpt lat="46.69194" lon="5.97515">
        <ele>772</ele>
        <time>2022-03-03T10:38:26Z</time>
      </trkpt>
      <trkpt lat="46.69195" lon="5.97522">
        <ele>771</ele>
        <time>2022-03-03T10:38:30Z</time>
      </trkpt>
      <trkpt lat="46.69196" lon="5.97529">
        <ele>770.4</ele>
        <time>2022-03-03T10:38:34Z</time>
      </trkpt>
      <trkpt lat="46.69196" lon="5.97537">
        <ele>770.8</ele>
        <time>2022-03-03T10:38:38Z</time>
      </trkpt>
      <trkpt lat="46.69197" lon="5.97544">
        <ele>771.9</ele>
        <time>2022-03-03T10:38:43Z</time>
      </trkpt>
      <trkpt lat="46.692" lon="5.97551">
        <ele>772.7</ele>
        <time>2022-03-03T10:38:48Z</time>
      </trkpt>
      <trkpt lat="46.69202" lon="5.97557">
        <ele>773.1</ele>
        <time>2022-03-03T10:38:52Z</time>
      </trkpt>
      <trkpt lat="46.69205" lon="5.97562">
        <ele>772.9</ele>
        <time>2022-03-03T10:38:58Z</time>
      </trkpt>
      <trkpt lat="46.69208" lon="5.97567">
        <ele>773.1</ele>
        <time>2022-03-03T10:39:06Z</time>
      </trkpt>
      <trkpt lat="46.69211" lon="5.97573">
        <ele>774.3</ele>
        <time>2022-03-03T10:39:14Z</time>
      </trkpt>
      <trkpt lat="46.69216" lon="5.97577">
        <ele>775.4</ele>
        <time>2022-03-03T10:39:19Z</time>
      </trkpt>
      <trkpt lat="46.6922" lon="5.97581">
        <ele>776</ele>
        <time>2022-03-03T10:39:24Z</time>
      </trkpt>
      <trkpt lat="46.69225" lon="5.9758">
        <ele>776.9</ele>
        <time>2022-03-03T10:39:32Z</time>
      </trkpt>
      <trkpt lat="46.69229" lon="5.97577">
        <ele>776.9</ele>
        <time>2022-03-03T10:39:38Z</time>
      </trkpt>
      <trkpt lat="46.69234" lon="5.97573">
        <ele>776.4</ele>
        <time>2022-03-03T10:39:43Z</time>
      </trkpt>
      <trkpt lat="46.69239" lon="5.97569">
        <ele>775.5</ele>
        <time>2022-03-03T10:39:48Z</time>
      </trkpt>
      <trkpt lat="46.69243" lon="5.97566">
        <ele>774.5</ele>
        <time>2022-03-03T10:39:53Z</time>
      </trkpt>
      <trkpt lat="46.69247" lon="5.97562">
        <ele>773.4</ele>
        <time>2022-03-03T10:39:59Z</time>
      </trkpt>
      <trkpt lat="46.69252" lon="5.97558">
        <ele>772.9</ele>
        <time>2022-03-03T10:40:04Z</time>
      </trkpt>
      <trkpt lat="46.69255" lon="5.97553">
        <ele>772.6</ele>
        <time>2022-03-03T10:40:08Z</time>
      </trkpt>
      <trkpt lat="46.69259" lon="5.97549">
        <ele>772.1</ele>
        <time>2022-03-03T10:40:12Z</time>
      </trkpt>
      <trkpt lat="46.69263" lon="5.97544">
        <ele>771.6</ele>
        <time>2022-03-03T10:40:16Z</time>
      </trkpt>
      <trkpt lat="46.69267" lon="5.9754">
        <ele>771.2</ele>
        <time>2022-03-03T10:40:20Z</time>
      </trkpt>
      <trkpt lat="46.69271" lon="5.97537">
        <ele>771.2</ele>
        <time>2022-03-03T10:40:24Z</time>
      </trkpt>
      <trkpt lat="46.69276" lon="5.97533">
        <ele>771.4</ele>
        <time>2022-03-03T10:40:28Z</time>
      </trkpt>
      <trkpt lat="46.69279" lon="5.97527">
        <ele>771.3</ele>
        <time>2022-03-03T10:40:34Z</time>
      </trkpt>
      <trkpt lat="46.69282" lon="5.97521">
        <ele>770.6</ele>
        <time>2022-03-03T10:40:41Z</time>
      </trkpt>
      <trkpt lat="46.69286" lon="5.97515">
        <ele>769.9</ele>
        <time>2022-03-03T10:40:46Z</time>
      </trkpt>
      <trkpt lat="46.6929" lon="5.97512">
        <ele>769.2</ele>
        <time>2022-03-03T10:40:51Z</time>
      </trkpt>
      <trkpt lat="46.69294" lon="5.97507">
        <ele>768.8</ele>
        <time>2022-03-03T10:40:57Z</time>
      </trkpt>
      <trkpt lat="46.69298" lon="5.97502">
        <ele>768.9</ele>
        <time>2022-03-03T10:41:01Z</time>
      </trkpt>
      <trkpt lat="46.69301" lon="5.97497">
        <ele>769.3</ele>
        <time>2022-03-03T10:41:05Z</time>
      </trkpt>
      <trkpt lat="46.69303" lon="5.97491">
        <ele>769.9</ele>
        <time>2022-03-03T10:41:09Z</time>
      </trkpt>
      <trkpt lat="46.69306" lon="5.97485">
        <ele>770.7</ele>
        <time>2022-03-03T10:41:14Z</time>
      </trkpt>
      <trkpt lat="46.69308" lon="5.97478">
        <ele>771.4</ele>
        <time>2022-03-03T10:41:19Z</time>
      </trkpt>
      <trkpt lat="46.69312" lon="5.97473">
        <ele>771.8</ele>
        <time>2022-03-03T10:41:23Z</time>
      </trkpt>
      <trkpt lat="46.69316" lon="5.97468">
        <ele>772.2</ele>
        <time>2022-03-03T10:41:27Z</time>
      </trkpt>
      <trkpt lat="46.6932" lon="5.97464">
        <ele>772.1</ele>
        <time>2022-03-03T10:41:32Z</time>
      </trkpt>
      <trkpt lat="46.69325" lon="5.9746">
        <ele>772</ele>
        <time>2022-03-03T10:41:37Z</time>
      </trkpt>
      <trkpt lat="46.69329" lon="5.97455">
        <ele>771.9</ele>
        <time>2022-03-03T10:41:44Z</time>
      </trkpt>
      <trkpt lat="46.69332" lon="5.97451">
        <ele>772</ele>
        <time>2022-03-03T10:41:49Z</time>
      </trkpt>
      <trkpt lat="46.69336" lon="5.97445">
        <ele>772.5</ele>
        <time>2022-03-03T10:41:54Z</time>
      </trkpt>
      <trkpt lat="46.69339" lon="5.97439">
        <ele>773</ele>
        <time>2022-03-03T10:41:59Z</time>
      </trkpt>
      <trkpt lat="46.69342" lon="5.97432">
        <ele>772.8</ele>
        <time>2022-03-03T10:42:05Z</time>
      </trkpt>
      <trkpt lat="46.69345" lon="5.97426">
        <ele>772.1</ele>
        <time>2022-03-03T10:42:11Z</time>
      </trkpt>
      <trkpt lat="46.69348" lon="5.97421">
        <ele>771.6</ele>
        <time>2022-03-03T10:42:18Z</time>
      </trkpt>
      <trkpt lat="46.69353" lon="5.97418">
        <ele>771.7</ele>
        <time>2022-03-03T10:42:25Z</time>
      </trkpt>
      <trkpt lat="46.69356" lon="5.97411">
        <ele>771.4</ele>
        <time>2022-03-03T10:42:29Z</time>
      </trkpt>
      <trkpt lat="46.69359" lon="5.97404">
        <ele>771.3</ele>
        <time>2022-03-03T10:42:33Z</time>
      </trkpt>
      <trkpt lat="46.6936" lon="5.97397">
        <ele>771.5</ele>
        <time>2022-03-03T10:42:36Z</time>
      </trkpt>
      <trkpt lat="46.69362" lon="5.97391">
        <ele>771.6</ele>
        <time>2022-03-03T10:42:39Z</time>
      </trkpt>
      <trkpt lat="46.69364" lon="5.97384">
        <ele>771.9</ele>
        <time>2022-03-03T10:42:43Z</time>
      </trkpt>
      <trkpt lat="46.69367" lon="5.97378">
        <ele>772.4</ele>
        <time>2022-03-03T10:42:48Z</time>
      </trkpt>
      <trkpt lat="46.69371" lon="5.97373">
        <ele>772.9</ele>
        <time>2022-03-03T10:42:53Z</time>
      </trkpt>
      <trkpt lat="46.69374" lon="5.97368">
        <ele>773.1</ele>
        <time>2022-03-03T10:42:57Z</time>
      </trkpt>
      <trkpt lat="46.69378" lon="5.97364">
        <ele>772.9</ele>
        <time>2022-03-03T10:43:01Z</time>
      </trkpt>
      <trkpt lat="46.6938" lon="5.97358">
        <ele>772.1</ele>
        <time>2022-03-03T10:43:06Z</time>
      </trkpt>
      <trkpt lat="46.69383" lon="5.97352">
        <ele>771.3</ele>
        <time>2022-03-03T10:43:11Z</time>
      </trkpt>
      <trkpt lat="46.69386" lon="5.97346">
        <ele>770.8</ele>
        <time>2022-03-03T10:43:15Z</time>
      </trkpt>
      <trkpt lat="46.69389" lon="5.9734">
        <ele>770.2</ele>
        <time>2022-03-03T10:43:20Z</time>
      </trkpt>
      <trkpt lat="46.69392" lon="5.97334">
        <ele>769.6</ele>
        <time>2022-03-03T10:43:25Z</time>
      </trkpt>
      <trkpt lat="46.69395" lon="5.9733">
        <ele>769.2</ele>
        <time>2022-03-03T10:43:29Z</time>
      </trkpt>
      <trkpt lat="46.694" lon="5.97327">
        <ele>769.2</ele>
        <time>2022-03-03T10:43:33Z</time>
      </trkpt>
      <trkpt lat="46.69403" lon="5.97323">
        <ele>769.1</ele>
        <time>2022-03-03T10:43:37Z</time>
      </trkpt>
      <trkpt lat="46.69408" lon="5.9732">
        <ele>768.9</ele>
        <time>2022-03-03T10:43:42Z</time>
      </trkpt>
      <trkpt lat="46.69411" lon="5.97314">
        <ele>768.7</ele>
        <time>2022-03-03T10:43:47Z</time>
      </trkpt>
      <trkpt lat="46.69415" lon="5.97309">
        <ele>768.6</ele>
        <time>2022-03-03T10:43:51Z</time>
      </trkpt>
      <trkpt lat="46.69418" lon="5.97304">
        <ele>768.8</ele>
        <time>2022-03-03T10:43:56Z</time>
      </trkpt>
      <trkpt lat="46.69422" lon="5.97299">
        <ele>769.2</ele>
        <time>2022-03-03T10:44:02Z</time>
      </trkpt>
      <trkpt lat="46.69421" lon="5.97307">
        <ele>770.3</ele>
        <time>2022-03-03T10:44:16Z</time>
      </trkpt>
      <trkpt lat="46.69419" lon="5.97313">
        <ele>770.6</ele>
        <time>2022-03-03T10:44:23Z</time>
      </trkpt>
      <trkpt lat="46.69416" lon="5.97319">
        <ele>771.2</ele>
        <time>2022-03-03T10:44:30Z</time>
      </trkpt>
      <trkpt lat="46.69413" lon="5.97325">
        <ele>771.7</ele>
        <time>2022-03-03T10:44:36Z</time>
      </trkpt>
      <trkpt lat="46.6941" lon="5.97331">
        <ele>771.9</ele>
        <time>2022-03-03T10:44:41Z</time>
      </trkpt>
      <trkpt lat="46.69407" lon="5.97336">
        <ele>771.9</ele>
        <time>2022-03-03T10:44:46Z</time>
      </trkpt>
      <trkpt lat="46.69405" lon="5.97342">
        <ele>771.9</ele>
        <time>2022-03-03T10:44:51Z</time>
      </trkpt>
      <trkpt lat="46.69403" lon="5.97348">
        <ele>771.9</ele>
        <time>2022-03-03T10:44:56Z</time>
      </trkpt>
      <trkpt lat="46.694" lon="5.97354">
        <ele>772</ele>
        <time>2022-03-03T10:45:00Z</time>
      </trkpt>
      <trkpt lat="46.69397" lon="5.97361">
        <ele>772.4</ele>
        <time>2022-03-03T10:45:05Z</time>
      </trkpt>
      <trkpt lat="46.69394" lon="5.97367">
        <ele>772.4</ele>
        <time>2022-03-03T10:45:10Z</time>
      </trkpt>
      <trkpt lat="46.69391" lon="5.97373">
        <ele>772.6</ele>
        <time>2022-03-03T10:45:14Z</time>
      </trkpt>
      <trkpt lat="46.69387" lon="5.97379">
        <ele>772.6</ele>
        <time>2022-03-03T10:45:19Z</time>
      </trkpt>
      <trkpt lat="46.69384" lon="5.97384">
        <ele>773.1</ele>
        <time>2022-03-03T10:45:24Z</time>
      </trkpt>
      <trkpt lat="46.69381" lon="5.97391">
        <ele>773.9</ele>
        <time>2022-03-03T10:45:29Z</time>
      </trkpt>
      <trkpt lat="46.69379" lon="5.97397">
        <ele>774.8</ele>
        <time>2022-03-03T10:45:34Z</time>
      </trkpt>
      <trkpt lat="46.69377" lon="5.97404">
        <ele>775.2</ele>
        <time>2022-03-03T10:45:40Z</time>
      </trkpt>
      <trkpt lat="46.69376" lon="5.9741">
        <ele>775.1</ele>
        <time>2022-03-03T10:45:45Z</time>
      </trkpt>
      <trkpt lat="46.69376" lon="5.97418">
        <ele>774.7</ele>
        <time>2022-03-03T10:45:50Z</time>
      </trkpt>
      <trkpt lat="46.69375" lon="5.97425">
        <ele>774.5</ele>
        <time>2022-03-03T10:45:54Z</time>
      </trkpt>
      <trkpt lat="46.69373" lon="5.97432">
        <ele>774.5</ele>
        <time>2022-03-03T10:45:59Z</time>
      </trkpt>
      <trkpt lat="46.69372" lon="5.97439">
        <ele>774.6</ele>
        <time>2022-03-03T10:46:04Z</time>
      </trkpt>
      <trkpt lat="46.69371" lon="5.97446">
        <ele>774.5</ele>
        <time>2022-03-03T10:46:09Z</time>
      </trkpt>
      <trkpt lat="46.6937" lon="5.97453">
        <ele>774.8</ele>
        <time>2022-03-03T10:46:14Z</time>
      </trkpt>
      <trkpt lat="46.69369" lon="5.9746">
        <ele>775.5</ele>
        <time>2022-03-03T10:46:19Z</time>
      </trkpt>
      <trkpt lat="46.69367" lon="5.97467">
        <ele>776.4</ele>
        <time>2022-03-03T10:46:24Z</time>
      </trkpt>
      <trkpt lat="46.69367" lon="5.97475">
        <ele>777.8</ele>
        <time>2022-03-03T10:46:30Z</time>
      </trkpt>
      <trkpt lat="46.69367" lon="5.97483">
        <ele>778.6</ele>
        <time>2022-03-03T10:46:35Z</time>
      </trkpt>
      <trkpt lat="46.69367" lon="5.97491">
        <ele>779.2</ele>
        <time>2022-03-03T10:46:39Z</time>
      </trkpt>
      <trkpt lat="46.69366" lon="5.97498">
        <ele>779.5</ele>
        <time>2022-03-03T10:46:43Z</time>
      </trkpt>
      <trkpt lat="46.69365" lon="5.97505">
        <ele>779.5</ele>
        <time>2022-03-03T10:46:48Z</time>
      </trkpt>
      <trkpt lat="46.69364" lon="5.97512">
        <ele>779.6</ele>
        <time>2022-03-03T10:46:54Z</time>
      </trkpt>
      <trkpt lat="46.69364" lon="5.97519">
        <ele>780</ele>
        <time>2022-03-03T10:47:00Z</time>
      </trkpt>
      <trkpt lat="46.69362" lon="5.97525">
        <ele>780.7</ele>
        <time>2022-03-03T10:47:06Z</time>
      </trkpt>
      <trkpt lat="46.69361" lon="5.97532">
        <ele>780.9</ele>
        <time>2022-03-03T10:47:12Z</time>
      </trkpt>
      <trkpt lat="46.6936" lon="5.97541">
        <ele>781.3</ele>
        <time>2022-03-03T10:47:16Z</time>
      </trkpt>
      <trkpt lat="46.69359" lon="5.97548">
        <ele>781.9</ele>
        <time>2022-03-03T10:47:20Z</time>
      </trkpt>
      <trkpt lat="46.69357" lon="5.97554">
        <ele>782.9</ele>
        <time>2022-03-03T10:47:25Z</time>
      </trkpt>
      <trkpt lat="46.69355" lon="5.97561">
        <ele>783.9</ele>
        <time>2022-03-03T10:47:32Z</time>
      </trkpt>
      <trkpt lat="46.69354" lon="5.97568">
        <ele>784.5</ele>
        <time>2022-03-03T10:47:38Z</time>
      </trkpt>
      <trkpt lat="46.69353" lon="5.97574">
        <ele>784.7</ele>
        <time>2022-03-03T10:47:46Z</time>
      </trkpt>
      <trkpt lat="46.69353" lon="5.97581">
        <ele>784.7</ele>
        <time>2022-03-03T10:47:51Z</time>
      </trkpt>
      <trkpt lat="46.69352" lon="5.97588">
        <ele>784.9</ele>
        <time>2022-03-03T10:47:55Z</time>
      </trkpt>
      <trkpt lat="46.6935" lon="5.97594">
        <ele>785.3</ele>
        <time>2022-03-03T10:47:58Z</time>
      </trkpt>
      <trkpt lat="46.69349" lon="5.97602">
        <ele>786.1</ele>
        <time>2022-03-03T10:48:02Z</time>
      </trkpt>
      <trkpt lat="46.69349" lon="5.97609">
        <ele>787.2</ele>
        <time>2022-03-03T10:48:06Z</time>
      </trkpt>
      <trkpt lat="46.6935" lon="5.97616">
        <ele>788.5</ele>
        <time>2022-03-03T10:48:10Z</time>
      </trkpt>
      <trkpt lat="46.6935" lon="5.97624">
        <ele>789.7</ele>
        <time>2022-03-03T10:48:14Z</time>
      </trkpt>
      <trkpt lat="46.6935" lon="5.97632">
        <ele>791.5</ele>
        <time>2022-03-03T10:48:20Z</time>
      </trkpt>
      <trkpt lat="46.6935" lon="5.97639">
        <ele>792.6</ele>
        <time>2022-03-03T10:48:24Z</time>
      </trkpt>
      <trkpt lat="46.6935" lon="5.97647">
        <ele>793.8</ele>
        <time>2022-03-03T10:48:28Z</time>
      </trkpt>
      <trkpt lat="46.69351" lon="5.97654">
        <ele>795.5</ele>
        <time>2022-03-03T10:48:33Z</time>
      </trkpt>
      <trkpt lat="46.69353" lon="5.9766">
        <ele>796.9</ele>
        <time>2022-03-03T10:48:38Z</time>
      </trkpt>
      <trkpt lat="46.69355" lon="5.97667">
        <ele>797.8</ele>
        <time>2022-03-03T10:48:44Z</time>
      </trkpt>
      <trkpt lat="46.69357" lon="5.97673">
        <ele>798.2</ele>
        <time>2022-03-03T10:48:49Z</time>
      </trkpt>
      <trkpt lat="46.69358" lon="5.97681">
        <ele>798.2</ele>
        <time>2022-03-03T10:48:54Z</time>
      </trkpt>
      <trkpt lat="46.69359" lon="5.97687">
        <ele>797.6</ele>
        <time>2022-03-03T10:48:59Z</time>
      </trkpt>
      <trkpt lat="46.69362" lon="5.97694">
        <ele>797</ele>
        <time>2022-03-03T10:49:04Z</time>
      </trkpt>
      <trkpt lat="46.69363" lon="5.97702">
        <ele>796.7</ele>
        <time>2022-03-03T10:49:09Z</time>
      </trkpt>
      <trkpt lat="46.69365" lon="5.97709">
        <ele>796.2</ele>
        <time>2022-03-03T10:49:14Z</time>
      </trkpt>
      <trkpt lat="46.69368" lon="5.97715">
        <ele>795.7</ele>
        <time>2022-03-03T10:49:19Z</time>
      </trkpt>
      <trkpt lat="46.6937" lon="5.97721">
        <ele>795.5</ele>
        <time>2022-03-03T10:49:24Z</time>
      </trkpt>
      <trkpt lat="46.69372" lon="5.97728">
        <ele>795.7</ele>
        <time>2022-03-03T10:49:29Z</time>
      </trkpt>
      <trkpt lat="46.69376" lon="5.97734">
        <ele>796.6</ele>
        <time>2022-03-03T10:49:35Z</time>
      </trkpt>
      <trkpt lat="46.69379" lon="5.9774">
        <ele>797.6</ele>
        <time>2022-03-03T10:49:40Z</time>
      </trkpt>
      <trkpt lat="46.69381" lon="5.97747">
        <ele>798.3</ele>
        <time>2022-03-03T10:49:44Z</time>
      </trkpt>
      <trkpt lat="46.69385" lon="5.97753">
        <ele>799.1</ele>
        <time>2022-03-03T10:49:49Z</time>
      </trkpt>
      <trkpt lat="46.69388" lon="5.97757">
        <ele>799.6</ele>
        <time>2022-03-03T10:49:54Z</time>
      </trkpt>
      <trkpt lat="46.69392" lon="5.97763">
        <ele>800.3</ele>
        <time>2022-03-03T10:50:00Z</time>
      </trkpt>
      <trkpt lat="46.69395" lon="5.97768">
        <ele>801</ele>
        <time>2022-03-03T10:50:04Z</time>
      </trkpt>
      <trkpt lat="46.69398" lon="5.97774">
        <ele>801.9</ele>
        <time>2022-03-03T10:50:09Z</time>
      </trkpt>
      <trkpt lat="46.69401" lon="5.9778">
        <ele>802.4</ele>
        <time>2022-03-03T10:50:14Z</time>
      </trkpt>
      <trkpt lat="46.69402" lon="5.97787">
        <ele>802.4</ele>
        <time>2022-03-03T10:50:18Z</time>
      </trkpt>
      <trkpt lat="46.69404" lon="5.97794">
        <ele>802</ele>
        <time>2022-03-03T10:50:23Z</time>
      </trkpt>
      <trkpt lat="46.69407" lon="5.978">
        <ele>801.9</ele>
        <time>2022-03-03T10:50:28Z</time>
      </trkpt>
      <trkpt lat="46.69409" lon="5.97805">
        <ele>801.7</ele>
        <time>2022-03-03T10:50:33Z</time>
      </trkpt>
      <trkpt lat="46.69414" lon="5.97809">
        <ele>801.4</ele>
        <time>2022-03-03T10:50:39Z</time>
      </trkpt>
      <trkpt lat="46.69419" lon="5.97813">
        <ele>801.2</ele>
        <time>2022-03-03T10:50:44Z</time>
      </trkpt>
      <trkpt lat="46.69422" lon="5.97818">
        <ele>800.9</ele>
        <time>2022-03-03T10:50:49Z</time>
      </trkpt>
      <trkpt lat="46.69426" lon="5.97823">
        <ele>800.5</ele>
        <time>2022-03-03T10:50:54Z</time>
      </trkpt>
      <trkpt lat="46.69429" lon="5.97829">
        <ele>800.1</ele>
        <time>2022-03-03T10:50:59Z</time>
      </trkpt>
      <trkpt lat="46.69434" lon="5.97832">
        <ele>800.2</ele>
        <time>2022-03-03T10:51:03Z</time>
      </trkpt>
      <trkpt lat="46.69453" lon="5.97792">
        <ele>802</ele>
        <time>2022-03-03T10:51:16Z</time>
      </trkpt>
      <trkpt lat="46.69462" lon="5.97826">
        <ele>802.5</ele>
        <time>2022-03-03T10:51:36Z</time>
      </trkpt>
      <trkpt lat="46.69463" lon="5.97849">
        <ele>802.9</ele>
        <time>2022-03-03T10:51:39Z</time>
      </trkpt>
      <trkpt lat="46.69464" lon="5.97865">
        <ele>802.9</ele>
        <time>2022-03-03T10:51:42Z</time>
      </trkpt>
      <trkpt lat="46.69467" lon="5.97875">
        <ele>802.9</ele>
        <time>2022-03-03T10:51:45Z</time>
      </trkpt>
      <trkpt lat="46.69469" lon="5.97881">
        <ele>802.9</ele>
        <time>2022-03-03T10:51:49Z</time>
      </trkpt>
      <trkpt lat="46.69471" lon="5.97889">
        <ele>803.6</ele>
        <time>2022-03-03T10:51:53Z</time>
      </trkpt>
      <trkpt lat="46.69472" lon="5.97897">
        <ele>804.4</ele>
        <time>2022-03-03T10:51:57Z</time>
      </trkpt>
      <trkpt lat="46.69475" lon="5.97904">
        <ele>805</ele>
        <time>2022-03-03T10:52:02Z</time>
      </trkpt>
      <trkpt lat="46.69478" lon="5.97908">
        <ele>806</ele>
        <time>2022-03-03T10:52:07Z</time>
      </trkpt>
      <trkpt lat="46.69481" lon="5.97913">
        <ele>806.9</ele>
        <time>2022-03-03T10:52:11Z</time>
      </trkpt>
      <trkpt lat="46.69486" lon="5.97915">
        <ele>807.7</ele>
        <time>2022-03-03T10:52:15Z</time>
      </trkpt>
      <trkpt lat="46.69492" lon="5.97919">
        <ele>808.3</ele>
        <time>2022-03-03T10:52:20Z</time>
      </trkpt>
      <trkpt lat="46.69495" lon="5.97923">
        <ele>808.8</ele>
        <time>2022-03-03T10:52:24Z</time>
      </trkpt>
      <trkpt lat="46.69499" lon="5.97926">
        <ele>809.3</ele>
        <time>2022-03-03T10:52:28Z</time>
      </trkpt>
      <trkpt lat="46.69503" lon="5.97931">
        <ele>810.3</ele>
        <time>2022-03-03T10:52:35Z</time>
      </trkpt>
      <trkpt lat="46.69508" lon="5.97934">
        <ele>811</ele>
        <time>2022-03-03T10:52:40Z</time>
      </trkpt>
      <trkpt lat="46.69512" lon="5.97938">
        <ele>811.7</ele>
        <time>2022-03-03T10:52:46Z</time>
      </trkpt>
      <trkpt lat="46.69518" lon="5.9794">
        <ele>812.2</ele>
        <time>2022-03-03T10:52:50Z</time>
      </trkpt>
      <trkpt lat="46.69523" lon="5.97942">
        <ele>812.1</ele>
        <time>2022-03-03T10:52:54Z</time>
      </trkpt>
      <trkpt lat="46.69528" lon="5.97943">
        <ele>811.8</ele>
        <time>2022-03-03T10:52:58Z</time>
      </trkpt>
      <trkpt lat="46.69532" lon="5.97945">
        <ele>811.3</ele>
        <time>2022-03-03T10:53:02Z</time>
      </trkpt>
      <trkpt lat="46.69537" lon="5.97947">
        <ele>809.9</ele>
        <time>2022-03-03T10:53:09Z</time>
      </trkpt>
      <trkpt lat="46.69542" lon="5.9795">
        <ele>809.2</ele>
        <time>2022-03-03T10:53:13Z</time>
      </trkpt>
      <trkpt lat="46.69546" lon="5.97954">
        <ele>808.7</ele>
        <time>2022-03-03T10:53:17Z</time>
      </trkpt>
      <trkpt lat="46.69549" lon="5.9796">
        <ele>808.3</ele>
        <time>2022-03-03T10:53:22Z</time>
      </trkpt>
      <trkpt lat="46.69551" lon="5.97967">
        <ele>808.3</ele>
        <time>2022-03-03T10:53:26Z</time>
      </trkpt>
      <trkpt lat="46.69554" lon="5.97973">
        <ele>808.3</ele>
        <time>2022-03-03T10:53:30Z</time>
      </trkpt>
      <trkpt lat="46.69557" lon="5.9798">
        <ele>808.4</ele>
        <time>2022-03-03T10:53:34Z</time>
      </trkpt>
      <trkpt lat="46.6956" lon="5.97986">
        <ele>808.8</ele>
        <time>2022-03-03T10:53:38Z</time>
      </trkpt>
      <trkpt lat="46.69563" lon="5.9799">
        <ele>809</ele>
        <time>2022-03-03T10:53:42Z</time>
      </trkpt>
      <trkpt lat="46.69567" lon="5.97995">
        <ele>809.4</ele>
        <time>2022-03-03T10:53:46Z</time>
      </trkpt>
      <trkpt lat="46.69572" lon="5.98">
        <ele>810.2</ele>
        <time>2022-03-03T10:53:50Z</time>
      </trkpt>
      <trkpt lat="46.69574" lon="5.98005">
        <ele>811.4</ele>
        <time>2022-03-03T10:53:55Z</time>
      </trkpt>
      <trkpt lat="46.69577" lon="5.98011">
        <ele>812</ele>
        <time>2022-03-03T10:54:00Z</time>
      </trkpt>
      <trkpt lat="46.69582" lon="5.98017">
        <ele>812.2</ele>
        <time>2022-03-03T10:54:04Z</time>
      </trkpt>
      <trkpt lat="46.69585" lon="5.98022">
        <ele>812.6</ele>
        <time>2022-03-03T10:54:08Z</time>
      </trkpt>
      <trkpt lat="46.6959" lon="5.98023">
        <ele>812.6</ele>
        <time>2022-03-03T10:54:14Z</time>
      </trkpt>
      <trkpt lat="46.69594" lon="5.98028">
        <ele>812.2</ele>
        <time>2022-03-03T10:54:20Z</time>
      </trkpt>
      <trkpt lat="46.69594" lon="5.98036">
        <ele>812.1</ele>
        <time>2022-03-03T10:54:24Z</time>
      </trkpt>
      <trkpt lat="46.69595" lon="5.98044">
        <ele>812.1</ele>
        <time>2022-03-03T10:54:27Z</time>
      </trkpt>
      <trkpt lat="46.69596" lon="5.98052">
        <ele>812.2</ele>
        <time>2022-03-03T10:54:31Z</time>
      </trkpt>
      <trkpt lat="46.69597" lon="5.9806">
        <ele>812.1</ele>
        <time>2022-03-03T10:54:35Z</time>
      </trkpt>
      <trkpt lat="46.69598" lon="5.98067">
        <ele>812.2</ele>
        <time>2022-03-03T10:54:38Z</time>
      </trkpt>
      <trkpt lat="46.696" lon="5.98074">
        <ele>813.1</ele>
        <time>2022-03-03T10:54:42Z</time>
      </trkpt>
      <trkpt lat="46.69602" lon="5.9808">
        <ele>814.3</ele>
        <time>2022-03-03T10:54:46Z</time>
      </trkpt>
      <trkpt lat="46.69604" lon="5.98087">
        <ele>815.7</ele>
        <time>2022-03-03T10:54:51Z</time>
      </trkpt>
      <trkpt lat="46.69605" lon="5.98095">
        <ele>816.6</ele>
        <time>2022-03-03T10:54:57Z</time>
      </trkpt>
      <trkpt lat="46.69605" lon="5.98102">
        <ele>817.2</ele>
        <time>2022-03-03T10:55:02Z</time>
      </trkpt>
      <trkpt lat="46.69607" lon="5.98109">
        <ele>817.1</ele>
        <time>2022-03-03T10:55:09Z</time>
      </trkpt>
      <trkpt lat="46.69608" lon="5.98115">
        <ele>816.7</ele>
        <time>2022-03-03T10:55:14Z</time>
      </trkpt>
      <trkpt lat="46.6961" lon="5.98121">
        <ele>816.6</ele>
        <time>2022-03-03T10:55:18Z</time>
      </trkpt>
      <trkpt lat="46.69611" lon="5.98128">
        <ele>816.3</ele>
        <time>2022-03-03T10:55:22Z</time>
      </trkpt>
      <trkpt lat="46.69612" lon="5.98135">
        <ele>815.8</ele>
        <time>2022-03-03T10:55:26Z</time>
      </trkpt>
      <trkpt lat="46.69614" lon="5.98142">
        <ele>815.3</ele>
        <time>2022-03-03T10:55:30Z</time>
      </trkpt>
      <trkpt lat="46.69615" lon="5.98148">
        <ele>815</ele>
        <time>2022-03-03T10:55:33Z</time>
      </trkpt>
      <trkpt lat="46.69615" lon="5.98155">
        <ele>815.2</ele>
        <time>2022-03-03T10:55:37Z</time>
      </trkpt>
      <trkpt lat="46.69616" lon="5.98162">
        <ele>815.6</ele>
        <time>2022-03-03T10:55:43Z</time>
      </trkpt>
      <trkpt lat="46.69618" lon="5.98169">
        <ele>816</ele>
        <time>2022-03-03T10:55:48Z</time>
      </trkpt>
      <trkpt lat="46.69619" lon="5.98177">
        <ele>816.1</ele>
        <time>2022-03-03T10:55:53Z</time>
      </trkpt>
      <trkpt lat="46.69619" lon="5.98184">
        <ele>816.7</ele>
        <time>2022-03-03T10:55:58Z</time>
      </trkpt>
      <trkpt lat="46.69617" lon="5.98191">
        <ele>817.1</ele>
        <time>2022-03-03T10:56:03Z</time>
      </trkpt>
      <trkpt lat="46.69616" lon="5.98198">
        <ele>816.8</ele>
        <time>2022-03-03T10:56:07Z</time>
      </trkpt>
      <trkpt lat="46.69614" lon="5.98205">
        <ele>816.2</ele>
        <time>2022-03-03T10:56:12Z</time>
      </trkpt>
      <trkpt lat="46.69613" lon="5.98212">
        <ele>815.4</ele>
        <time>2022-03-03T10:56:17Z</time>
      </trkpt>
      <trkpt lat="46.69613" lon="5.9822">
        <ele>814.4</ele>
        <time>2022-03-03T10:56:22Z</time>
      </trkpt>
      <trkpt lat="46.69613" lon="5.98227">
        <ele>813.9</ele>
        <time>2022-03-03T10:56:26Z</time>
      </trkpt>
      <trkpt lat="46.69613" lon="5.98235">
        <ele>813.6</ele>
        <time>2022-03-03T10:56:31Z</time>
      </trkpt>
      <trkpt lat="46.69613" lon="5.98241">
        <ele>813.7</ele>
        <time>2022-03-03T10:56:36Z</time>
      </trkpt>
      <trkpt lat="46.69613" lon="5.98248">
        <ele>814.3</ele>
        <time>2022-03-03T10:56:41Z</time>
      </trkpt>
      <trkpt lat="46.69613" lon="5.98256">
        <ele>815.1</ele>
        <time>2022-03-03T10:56:46Z</time>
      </trkpt>
      <trkpt lat="46.69613" lon="5.98264">
        <ele>816</ele>
        <time>2022-03-03T10:56:51Z</time>
      </trkpt>
      <trkpt lat="46.69613" lon="5.98271">
        <ele>817.3</ele>
        <time>2022-03-03T10:56:56Z</time>
      </trkpt>
      <trkpt lat="46.69613" lon="5.98278">
        <ele>818.9</ele>
        <time>2022-03-03T10:57:02Z</time>
      </trkpt>
      <trkpt lat="46.69612" lon="5.98286">
        <ele>819.9</ele>
        <time>2022-03-03T10:57:07Z</time>
      </trkpt>
      <trkpt lat="46.69609" lon="5.98293">
        <ele>820.9</ele>
        <time>2022-03-03T10:57:11Z</time>
      </trkpt>
      <trkpt lat="46.69608" lon="5.983">
        <ele>822.1</ele>
        <time>2022-03-03T10:57:15Z</time>
      </trkpt>
      <trkpt lat="46.69606" lon="5.98308">
        <ele>822.9</ele>
        <time>2022-03-03T10:57:19Z</time>
      </trkpt>
      <trkpt lat="46.69605" lon="5.98315">
        <ele>823.3</ele>
        <time>2022-03-03T10:57:24Z</time>
      </trkpt>
      <trkpt lat="46.69604" lon="5.98321">
        <ele>823.6</ele>
        <time>2022-03-03T10:57:29Z</time>
      </trkpt>
      <trkpt lat="46.69603" lon="5.98329">
        <ele>823.5</ele>
        <time>2022-03-03T10:57:35Z</time>
      </trkpt>
      <trkpt lat="46.69601" lon="5.98335">
        <ele>823.5</ele>
        <time>2022-03-03T10:57:39Z</time>
      </trkpt>
      <trkpt lat="46.69599" lon="5.98341">
        <ele>823.4</ele>
        <time>2022-03-03T10:57:43Z</time>
      </trkpt>
      <trkpt lat="46.69596" lon="5.98348">
        <ele>823.4</ele>
        <time>2022-03-03T10:57:47Z</time>
      </trkpt>
      <trkpt lat="46.69593" lon="5.98355">
        <ele>823.6</ele>
        <time>2022-03-03T10:57:51Z</time>
      </trkpt>
      <trkpt lat="46.69592" lon="5.98362">
        <ele>823.6</ele>
        <time>2022-03-03T10:57:55Z</time>
      </trkpt>
      <trkpt lat="46.6959" lon="5.9837">
        <ele>823.8</ele>
        <time>2022-03-03T10:58:00Z</time>
      </trkpt>
      <trkpt lat="46.69587" lon="5.98377">
        <ele>824</ele>
        <time>2022-03-03T10:58:05Z</time>
      </trkpt>
      <trkpt lat="46.69586" lon="5.98384">
        <ele>823.8</ele>
        <time>2022-03-03T10:58:10Z</time>
      </trkpt>
      <trkpt lat="46.69586" lon="5.98391">
        <ele>824</ele>
        <time>2022-03-03T10:58:15Z</time>
      </trkpt>
      <trkpt lat="46.69588" lon="5.98398">
        <ele>824.3</ele>
        <time>2022-03-03T10:58:20Z</time>
      </trkpt>
      <trkpt lat="46.69589" lon="5.98405">
        <ele>824.4</ele>
        <time>2022-03-03T10:58:25Z</time>
      </trkpt>
      <trkpt lat="46.6959" lon="5.98412">
        <ele>824.4</ele>
        <time>2022-03-03T10:58:29Z</time>
      </trkpt>
      <trkpt lat="46.69592" lon="5.9842">
        <ele>824.5</ele>
        <time>2022-03-03T10:58:33Z</time>
      </trkpt>
      <trkpt lat="46.69594" lon="5.98427">
        <ele>824.8</ele>
        <time>2022-03-03T10:58:37Z</time>
      </trkpt>
      <trkpt lat="46.69596" lon="5.98434">
        <ele>825.2</ele>
        <time>2022-03-03T10:58:42Z</time>
      </trkpt>
      <trkpt lat="46.69597" lon="5.98442">
        <ele>825.5</ele>
        <time>2022-03-03T10:58:47Z</time>
      </trkpt>
      <trkpt lat="46.69598" lon="5.98449">
        <ele>825.5</ele>
        <time>2022-03-03T10:58:52Z</time>
      </trkpt>
      <trkpt lat="46.69599" lon="5.98456">
        <ele>825.7</ele>
        <time>2022-03-03T10:58:56Z</time>
      </trkpt>
      <trkpt lat="46.696" lon="5.98462">
        <ele>826.6</ele>
        <time>2022-03-03T10:59:00Z</time>
      </trkpt>
      <trkpt lat="46.696" lon="5.9847">
        <ele>827.7</ele>
        <time>2022-03-03T10:59:05Z</time>
      </trkpt>
      <trkpt lat="46.69601" lon="5.98477">
        <ele>828.7</ele>
        <time>2022-03-03T10:59:10Z</time>
      </trkpt>
      <trkpt lat="46.69602" lon="5.98484">
        <ele>829.3</ele>
        <time>2022-03-03T10:59:14Z</time>
      </trkpt>
      <trkpt lat="46.69603" lon="5.9849">
        <ele>829.6</ele>
        <time>2022-03-03T10:59:18Z</time>
      </trkpt>
      <trkpt lat="46.69605" lon="5.98498">
        <ele>829.6</ele>
        <time>2022-03-03T10:59:22Z</time>
      </trkpt>
      <trkpt lat="46.69605" lon="5.98504">
        <ele>829.9</ele>
        <time>2022-03-03T10:59:26Z</time>
      </trkpt>
      <trkpt lat="46.69606" lon="5.98512">
        <ele>830.7</ele>
        <time>2022-03-03T10:59:31Z</time>
      </trkpt>
      <trkpt lat="46.69607" lon="5.9852">
        <ele>831.4</ele>
        <time>2022-03-03T10:59:37Z</time>
      </trkpt>
      <trkpt lat="46.69608" lon="5.98527">
        <ele>831.9</ele>
        <time>2022-03-03T10:59:41Z</time>
      </trkpt>
      <trkpt lat="46.69608" lon="5.98533">
        <ele>832.5</ele>
        <time>2022-03-03T10:59:45Z</time>
      </trkpt>
      <trkpt lat="46.69609" lon="5.98541">
        <ele>833.5</ele>
        <time>2022-03-03T10:59:50Z</time>
      </trkpt>
      <trkpt lat="46.69609" lon="5.98549">
        <ele>834.4</ele>
        <time>2022-03-03T10:59:55Z</time>
      </trkpt>
      <trkpt lat="46.69609" lon="5.98556">
        <ele>834.8</ele>
        <time>2022-03-03T11:00:00Z</time>
      </trkpt>
      <trkpt lat="46.6961" lon="5.98563">
        <ele>835.8</ele>
        <time>2022-03-03T11:00:06Z</time>
      </trkpt>
      <trkpt lat="46.69612" lon="5.9857">
        <ele>837</ele>
        <time>2022-03-03T11:00:12Z</time>
      </trkpt>
      <trkpt lat="46.69614" lon="5.98577">
        <ele>837.9</ele>
        <time>2022-03-03T11:00:17Z</time>
      </trkpt>
      <trkpt lat="46.69618" lon="5.98581">
        <ele>838.6</ele>
        <time>2022-03-03T11:00:22Z</time>
      </trkpt>
      <trkpt lat="46.69622" lon="5.98577">
        <ele>839</ele>
        <time>2022-03-03T11:00:34Z</time>
      </trkpt>
      <trkpt lat="46.69625" lon="5.98571">
        <ele>838.3</ele>
        <time>2022-03-03T11:00:39Z</time>
      </trkpt>
      <trkpt lat="46.69627" lon="5.98565">
        <ele>835.8</ele>
        <time>2022-03-03T11:00:48Z</time>
      </trkpt>
      <trkpt lat="46.69629" lon="5.98558">
        <ele>834.1</ele>
        <time>2022-03-03T11:00:56Z</time>
      </trkpt>
      <trkpt lat="46.69631" lon="5.98552">
        <ele>833.1</ele>
        <time>2022-03-03T11:01:02Z</time>
      </trkpt>
      <trkpt lat="46.69635" lon="5.98546">
        <ele>833</ele>
        <time>2022-03-03T11:01:08Z</time>
      </trkpt>
      <trkpt lat="46.6964" lon="5.98543">
        <ele>833.8</ele>
        <time>2022-03-03T11:01:13Z</time>
      </trkpt>
      <trkpt lat="46.69644" lon="5.98544">
        <ele>834.7</ele>
        <time>2022-03-03T11:01:17Z</time>
      </trkpt>
      <trkpt lat="46.6965" lon="5.98546">
        <ele>835.5</ele>
        <time>2022-03-03T11:01:22Z</time>
      </trkpt>
      <trkpt lat="46.69654" lon="5.98548">
        <ele>836.1</ele>
        <time>2022-03-03T11:01:28Z</time>
      </trkpt>
      <trkpt lat="46.6965" lon="5.98548">
        <ele>839.5</ele>
        <time>2022-03-03T11:02:17Z</time>
      </trkpt>
      <trkpt lat="46.69646" lon="5.98544">
        <ele>841.2</ele>
        <time>2022-03-03T11:02:24Z</time>
      </trkpt>
      <trkpt lat="46.69641" lon="5.98544">
        <ele>847</ele>
        <time>2022-03-03T11:03:16Z</time>
      </trkpt>
      <trkpt lat="46.69644" lon="5.98548">
        <ele>846.6</ele>
        <time>2022-03-03T11:03:23Z</time>
      </trkpt>
      <trkpt lat="46.69649" lon="5.98549">
        <ele>844.1</ele>
        <time>2022-03-03T11:03:34Z</time>
      </trkpt>
      <trkpt lat="46.69648" lon="5.98555">
        <ele>839</ele>
        <time>2022-03-03T11:03:45Z</time>
      </trkpt>
      <trkpt lat="46.69643" lon="5.98559">
        <ele>837.2</ele>
        <time>2022-03-03T11:04:39Z</time>
      </trkpt>
      <trkpt lat="46.69648" lon="5.98557">
        <ele>841</ele>
        <time>2022-03-03T11:05:23Z</time>
      </trkpt>
      <trkpt lat="46.6964" lon="5.98547">
        <ele>876.9</ele>
        <time>2022-03-03T11:35:59Z</time>
      </trkpt>
      <trkpt lat="46.69645" lon="5.98549">
        <ele>867.2</ele>
        <time>2022-03-03T11:36:16Z</time>
      </trkpt>
      <trkpt lat="46.69645" lon="5.98555">
        <ele>858.2</ele>
        <time>2022-03-03T11:42:35Z</time>
      </trkpt>
      <trkpt lat="46.69641" lon="5.98552">
        <ele>856</ele>
        <time>2022-03-03T11:43:14Z</time>
      </trkpt>
      <trkpt lat="46.69642" lon="5.98543">
        <ele>855.4</ele>
        <time>2022-03-03T11:43:32Z</time>
      </trkpt>
      <trkpt lat="46.69642" lon="5.98537">
        <ele>855.6</ele>
        <time>2022-03-03T11:43:35Z</time>
      </trkpt>
      <trkpt lat="46.69647" lon="5.98533">
        <ele>853.7</ele>
        <time>2022-03-03T11:43:59Z</time>
      </trkpt>
      <trkpt lat="46.69651" lon="5.98539">
        <ele>848.9</ele>
        <time>2022-03-03T11:44:42Z</time>
      </trkpt>
      <trkpt lat="46.69654" lon="5.98544">
        <ele>848</ele>
        <time>2022-03-03T11:44:45Z</time>
      </trkpt>
      <trkpt lat="46.69652" lon="5.98551">
        <ele>845.7</ele>
        <time>2022-03-03T11:44:54Z</time>
      </trkpt>
      <trkpt lat="46.69648" lon="5.98547">
        <ele>833.7</ele>
        <time>2022-03-03T11:46:29Z</time>
      </trkpt>
      <trkpt lat="46.69643" lon="5.98548">
        <ele>832.3</ele>
        <time>2022-03-03T11:46:36Z</time>
      </trkpt>
      <trkpt lat="46.69638" lon="5.98551">
        <ele>830.9</ele>
        <time>2022-03-03T11:46:42Z</time>
      </trkpt>
      <trkpt lat="46.69635" lon="5.98554">
        <ele>829.3</ele>
        <time>2022-03-03T11:46:50Z</time>
      </trkpt>
      <trkpt lat="46.69631" lon="5.98559">
        <ele>828.3</ele>
        <time>2022-03-03T11:46:56Z</time>
      </trkpt>
      <trkpt lat="46.69629" lon="5.98565">
        <ele>827</ele>
        <time>2022-03-03T11:47:03Z</time>
      </trkpt>
      <trkpt lat="46.69625" lon="5.98567">
        <ele>826.1</ele>
        <time>2022-03-03T11:47:09Z</time>
      </trkpt>
      <trkpt lat="46.69622" lon="5.98574">
        <ele>825.5</ele>
        <time>2022-03-03T11:47:15Z</time>
      </trkpt>
      <trkpt lat="46.6962" lon="5.9858">
        <ele>825.3</ele>
        <time>2022-03-03T11:47:19Z</time>
      </trkpt>
      <trkpt lat="46.69619" lon="5.98586">
        <ele>825.4</ele>
        <time>2022-03-03T11:47:22Z</time>
      </trkpt>
      <trkpt lat="46.69616" lon="5.98593">
        <ele>825.6</ele>
        <time>2022-03-03T11:47:26Z</time>
      </trkpt>
      <trkpt lat="46.69613" lon="5.986">
        <ele>825.8</ele>
        <time>2022-03-03T11:47:30Z</time>
      </trkpt>
      <trkpt lat="46.69611" lon="5.98606">
        <ele>825.8</ele>
        <time>2022-03-03T11:47:34Z</time>
      </trkpt>
      <trkpt lat="46.69611" lon="5.98614">
        <ele>825.9</ele>
        <time>2022-03-03T11:47:39Z</time>
      </trkpt>
      <trkpt lat="46.69609" lon="5.98621">
        <ele>826.2</ele>
        <time>2022-03-03T11:47:45Z</time>
      </trkpt>
      <trkpt lat="46.6961" lon="5.98628">
        <ele>827.1</ele>
        <time>2022-03-03T11:47:51Z</time>
      </trkpt>
      <trkpt lat="46.69609" lon="5.98635">
        <ele>827.4</ele>
        <time>2022-03-03T11:47:57Z</time>
      </trkpt>
      <trkpt lat="46.69607" lon="5.98643">
        <ele>827.5</ele>
        <time>2022-03-03T11:48:03Z</time>
      </trkpt>
      <trkpt lat="46.69605" lon="5.98649">
        <ele>827.4</ele>
        <time>2022-03-03T11:48:08Z</time>
      </trkpt>
      <trkpt lat="46.69604" lon="5.98657">
        <ele>827.1</ele>
        <time>2022-03-03T11:48:13Z</time>
      </trkpt>
      <trkpt lat="46.69603" lon="5.98664">
        <ele>827.2</ele>
        <time>2022-03-03T11:48:17Z</time>
      </trkpt>
      <trkpt lat="46.69603" lon="5.98671">
        <ele>827.2</ele>
        <time>2022-03-03T11:48:21Z</time>
      </trkpt>
      <trkpt lat="46.69602" lon="5.98678">
        <ele>826.4</ele>
        <time>2022-03-03T11:48:27Z</time>
      </trkpt>
      <trkpt lat="46.69601" lon="5.98685">
        <ele>825.7</ele>
        <time>2022-03-03T11:48:33Z</time>
      </trkpt>
      <trkpt lat="46.69599" lon="5.98691">
        <ele>825.3</ele>
        <time>2022-03-03T11:48:38Z</time>
      </trkpt>
      <trkpt lat="46.696" lon="5.98698">
        <ele>825.8</ele>
        <time>2022-03-03T11:48:42Z</time>
      </trkpt>
      <trkpt lat="46.696" lon="5.98706">
        <ele>827.5</ele>
        <time>2022-03-03T11:48:47Z</time>
      </trkpt>
      <trkpt lat="46.696" lon="5.98713">
        <ele>829.4</ele>
        <time>2022-03-03T11:48:51Z</time>
      </trkpt>
      <trkpt lat="46.69598" lon="5.98719">
        <ele>831.3</ele>
        <time>2022-03-03T11:48:56Z</time>
      </trkpt>
      <trkpt lat="46.69597" lon="5.98727">
        <ele>832.9</ele>
        <time>2022-03-03T11:49:00Z</time>
      </trkpt>
      <trkpt lat="46.69594" lon="5.98733">
        <ele>834.4</ele>
        <time>2022-03-03T11:49:05Z</time>
      </trkpt>
      <trkpt lat="46.69592" lon="5.98739">
        <ele>835.3</ele>
        <time>2022-03-03T11:49:10Z</time>
      </trkpt>
      <trkpt lat="46.6959" lon="5.98745">
        <ele>835.9</ele>
        <time>2022-03-03T11:49:14Z</time>
      </trkpt>
      <trkpt lat="46.69588" lon="5.98753">
        <ele>836.7</ele>
        <time>2022-03-03T11:49:18Z</time>
      </trkpt>
      <trkpt lat="46.69586" lon="5.98759">
        <ele>837.4</ele>
        <time>2022-03-03T11:49:21Z</time>
      </trkpt>
      <trkpt lat="46.69584" lon="5.98766">
        <ele>837.8</ele>
        <time>2022-03-03T11:49:24Z</time>
      </trkpt>
      <trkpt lat="46.69582" lon="5.98772">
        <ele>837.8</ele>
        <time>2022-03-03T11:49:28Z</time>
      </trkpt>
      <trkpt lat="46.69578" lon="5.98777">
        <ele>837.6</ele>
        <time>2022-03-03T11:49:32Z</time>
      </trkpt>
      <trkpt lat="46.69575" lon="5.98782">
        <ele>837.5</ele>
        <time>2022-03-03T11:49:38Z</time>
      </trkpt>
      <trkpt lat="46.69572" lon="5.98787">
        <ele>837.9</ele>
        <time>2022-03-03T11:49:43Z</time>
      </trkpt>
      <trkpt lat="46.69568" lon="5.98791">
        <ele>838.1</ele>
        <time>2022-03-03T11:49:48Z</time>
      </trkpt>
      <trkpt lat="46.69564" lon="5.98796">
        <ele>838.8</ele>
        <time>2022-03-03T11:49:54Z</time>
      </trkpt>
      <trkpt lat="46.69561" lon="5.98801">
        <ele>839.2</ele>
        <time>2022-03-03T11:50:00Z</time>
      </trkpt>
      <trkpt lat="46.69558" lon="5.98808">
        <ele>839.3</ele>
        <time>2022-03-03T11:50:07Z</time>
      </trkpt>
      <trkpt lat="46.69555" lon="5.98813">
        <ele>839.2</ele>
        <time>2022-03-03T11:50:13Z</time>
      </trkpt>
      <trkpt lat="46.69552" lon="5.98819">
        <ele>839.1</ele>
        <time>2022-03-03T11:50:19Z</time>
      </trkpt>
      <trkpt lat="46.69549" lon="5.98825">
        <ele>838.9</ele>
        <time>2022-03-03T11:50:24Z</time>
      </trkpt>
      <trkpt lat="46.69546" lon="5.98832">
        <ele>838.6</ele>
        <time>2022-03-03T11:50:30Z</time>
      </trkpt>
      <trkpt lat="46.69544" lon="5.98838">
        <ele>838.7</ele>
        <time>2022-03-03T11:50:36Z</time>
      </trkpt>
      <trkpt lat="46.69541" lon="5.98844">
        <ele>839.1</ele>
        <time>2022-03-03T11:50:41Z</time>
      </trkpt>
      <trkpt lat="46.69538" lon="5.9885">
        <ele>839.5</ele>
        <time>2022-03-03T11:50:46Z</time>
      </trkpt>
      <trkpt lat="46.69536" lon="5.98857">
        <ele>839.6</ele>
        <time>2022-03-03T11:50:51Z</time>
      </trkpt>
      <trkpt lat="46.69533" lon="5.98863">
        <ele>839.5</ele>
        <time>2022-03-03T11:50:55Z</time>
      </trkpt>
      <trkpt lat="46.6953" lon="5.98868">
        <ele>839.5</ele>
        <time>2022-03-03T11:50:59Z</time>
      </trkpt>
      <trkpt lat="46.69528" lon="5.98873">
        <ele>839.8</ele>
        <time>2022-03-03T11:51:04Z</time>
      </trkpt>
      <trkpt lat="46.69524" lon="5.98879">
        <ele>840</ele>
        <time>2022-03-03T11:51:09Z</time>
      </trkpt>
      <trkpt lat="46.6952" lon="5.98884">
        <ele>839.9</ele>
        <time>2022-03-03T11:51:14Z</time>
      </trkpt>
      <trkpt lat="46.69517" lon="5.9889">
        <ele>840</ele>
        <time>2022-03-03T11:51:19Z</time>
      </trkpt>
      <trkpt lat="46.69514" lon="5.98896">
        <ele>840</ele>
        <time>2022-03-03T11:51:24Z</time>
      </trkpt>
      <trkpt lat="46.69511" lon="5.98903">
        <ele>840.1</ele>
        <time>2022-03-03T11:51:30Z</time>
      </trkpt>
      <trkpt lat="46.69509" lon="5.98908">
        <ele>840.2</ele>
        <time>2022-03-03T11:51:35Z</time>
      </trkpt>
      <trkpt lat="46.69506" lon="5.98915">
        <ele>840.2</ele>
        <time>2022-03-03T11:51:39Z</time>
      </trkpt>
      <trkpt lat="46.69504" lon="5.98922">
        <ele>840.7</ele>
        <time>2022-03-03T11:51:44Z</time>
      </trkpt>
      <trkpt lat="46.69502" lon="5.98929">
        <ele>841.7</ele>
        <time>2022-03-03T11:51:49Z</time>
      </trkpt>
      <trkpt lat="46.695" lon="5.98936">
        <ele>843</ele>
        <time>2022-03-03T11:51:54Z</time>
      </trkpt>
      <trkpt lat="46.69499" lon="5.98943">
        <ele>844.2</ele>
        <time>2022-03-03T11:51:59Z</time>
      </trkpt>
      <trkpt lat="46.69497" lon="5.98949">
        <ele>845.4</ele>
        <time>2022-03-03T11:52:04Z</time>
      </trkpt>
      <trkpt lat="46.69496" lon="5.98956">
        <ele>846.2</ele>
        <time>2022-03-03T11:52:09Z</time>
      </trkpt>
      <trkpt lat="46.69496" lon="5.98962">
        <ele>846.4</ele>
        <time>2022-03-03T11:52:13Z</time>
      </trkpt>
      <trkpt lat="46.69495" lon="5.9897">
        <ele>846.7</ele>
        <time>2022-03-03T11:52:18Z</time>
      </trkpt>
      <trkpt lat="46.69495" lon="5.98978">
        <ele>847.1</ele>
        <time>2022-03-03T11:52:23Z</time>
      </trkpt>
      <trkpt lat="46.69496" lon="5.98984">
        <ele>847.3</ele>
        <time>2022-03-03T11:52:27Z</time>
      </trkpt>
      <trkpt lat="46.69497" lon="5.98991">
        <ele>847.7</ele>
        <time>2022-03-03T11:52:32Z</time>
      </trkpt>
      <trkpt lat="46.69498" lon="5.98998">
        <ele>848.8</ele>
        <time>2022-03-03T11:52:37Z</time>
      </trkpt>
      <trkpt lat="46.69499" lon="5.99005">
        <ele>849.7</ele>
        <time>2022-03-03T11:52:41Z</time>
      </trkpt>
      <trkpt lat="46.69501" lon="5.9901">
        <ele>850.4</ele>
        <time>2022-03-03T11:52:45Z</time>
      </trkpt>
      <trkpt lat="46.69502" lon="5.99018">
        <ele>851.3</ele>
        <time>2022-03-03T11:52:50Z</time>
      </trkpt>
      <trkpt lat="46.69504" lon="5.99025">
        <ele>853.4</ele>
        <time>2022-03-03T11:52:55Z</time>
      </trkpt>
      <trkpt lat="46.69504" lon="5.99033">
        <ele>855.1</ele>
        <time>2022-03-03T11:53:01Z</time>
      </trkpt>
      <trkpt lat="46.69505" lon="5.99041">
        <ele>855.7</ele>
        <time>2022-03-03T11:53:06Z</time>
      </trkpt>
      <trkpt lat="46.69505" lon="5.99047">
        <ele>855.6</ele>
        <time>2022-03-03T11:53:11Z</time>
      </trkpt>
      <trkpt lat="46.69505" lon="5.99054">
        <ele>855.2</ele>
        <time>2022-03-03T11:53:15Z</time>
      </trkpt>
      <trkpt lat="46.69503" lon="5.99062">
        <ele>854.6</ele>
        <time>2022-03-03T11:53:20Z</time>
      </trkpt>
      <trkpt lat="46.69502" lon="5.99069">
        <ele>853.7</ele>
        <time>2022-03-03T11:53:25Z</time>
      </trkpt>
      <trkpt lat="46.69501" lon="5.99077">
        <ele>853.2</ele>
        <time>2022-03-03T11:53:30Z</time>
      </trkpt>
      <trkpt lat="46.695" lon="5.99083">
        <ele>853.2</ele>
        <time>2022-03-03T11:53:35Z</time>
      </trkpt>
      <trkpt lat="46.69498" lon="5.9909">
        <ele>854</ele>
        <time>2022-03-03T11:53:41Z</time>
      </trkpt>
      <trkpt lat="46.69497" lon="5.99098">
        <ele>854.2</ele>
        <time>2022-03-03T11:53:46Z</time>
      </trkpt>
      <trkpt lat="46.69495" lon="5.99105">
        <ele>854</ele>
        <time>2022-03-03T11:53:51Z</time>
      </trkpt>
      <trkpt lat="46.69493" lon="5.99112">
        <ele>853.6</ele>
        <time>2022-03-03T11:53:56Z</time>
      </trkpt>
      <trkpt lat="46.69492" lon="5.9912">
        <ele>853.6</ele>
        <time>2022-03-03T11:54:01Z</time>
      </trkpt>
      <trkpt lat="46.69492" lon="5.99128">
        <ele>854.2</ele>
        <time>2022-03-03T11:54:06Z</time>
      </trkpt>
      <trkpt lat="46.69491" lon="5.99135">
        <ele>855.2</ele>
        <time>2022-03-03T11:54:11Z</time>
      </trkpt>
      <trkpt lat="46.69491" lon="5.99143">
        <ele>855.7</ele>
        <time>2022-03-03T11:54:16Z</time>
      </trkpt>
      <trkpt lat="46.6949" lon="5.99149">
        <ele>854.1</ele>
        <time>2022-03-03T11:54:31Z</time>
      </trkpt>
      <trkpt lat="46.6949" lon="5.99156">
        <ele>855.1</ele>
        <time>2022-03-03T11:54:37Z</time>
      </trkpt>
      <trkpt lat="46.69488" lon="5.99163">
        <ele>856.4</ele>
        <time>2022-03-03T11:54:46Z</time>
      </trkpt>
      <trkpt lat="46.69488" lon="5.99169">
        <ele>853.1</ele>
        <time>2022-03-03T11:55:32Z</time>
      </trkpt>
      <trkpt lat="46.69486" lon="5.99176">
        <ele>853.3</ele>
        <time>2022-03-03T11:55:39Z</time>
      </trkpt>
      <trkpt lat="46.69485" lon="5.99182">
        <ele>853.3</ele>
        <time>2022-03-03T11:55:44Z</time>
      </trkpt>
      <trkpt lat="46.69483" lon="5.9919">
        <ele>853.3</ele>
        <time>2022-03-03T11:55:50Z</time>
      </trkpt>
      <trkpt lat="46.69481" lon="5.99196">
        <ele>852.9</ele>
        <time>2022-03-03T11:55:55Z</time>
      </trkpt>
      <trkpt lat="46.6948" lon="5.99203">
        <ele>852.7</ele>
        <time>2022-03-03T11:56:01Z</time>
      </trkpt>
      <trkpt lat="46.69478" lon="5.9921">
        <ele>852.6</ele>
        <time>2022-03-03T11:56:07Z</time>
      </trkpt>
      <trkpt lat="46.69478" lon="5.99218">
        <ele>852.5</ele>
        <time>2022-03-03T11:56:13Z</time>
      </trkpt>
      <trkpt lat="46.69478" lon="5.99224">
        <ele>852.3</ele>
        <time>2022-03-03T11:56:18Z</time>
      </trkpt>
      <trkpt lat="46.69479" lon="5.99233">
        <ele>852.3</ele>
        <time>2022-03-03T11:56:24Z</time>
      </trkpt>
      <trkpt lat="46.69481" lon="5.9924">
        <ele>852.3</ele>
        <time>2022-03-03T11:56:30Z</time>
      </trkpt>
      <trkpt lat="46.69483" lon="5.99246">
        <ele>852.3</ele>
        <time>2022-03-03T11:56:35Z</time>
      </trkpt>
      <trkpt lat="46.69485" lon="5.99253">
        <ele>852.4</ele>
        <time>2022-03-03T11:56:41Z</time>
      </trkpt>
      <trkpt lat="46.69486" lon="5.9926">
        <ele>852.8</ele>
        <time>2022-03-03T11:56:47Z</time>
      </trkpt>
      <trkpt lat="46.69487" lon="5.99267">
        <ele>853.3</ele>
        <time>2022-03-03T11:56:53Z</time>
      </trkpt>
      <trkpt lat="46.69489" lon="5.99273">
        <ele>853.6</ele>
        <time>2022-03-03T11:56:57Z</time>
      </trkpt>
      <trkpt lat="46.69491" lon="5.9928">
        <ele>854.4</ele>
        <time>2022-03-03T11:57:02Z</time>
      </trkpt>
      <trkpt lat="46.69493" lon="5.99287">
        <ele>855.1</ele>
        <time>2022-03-03T11:57:07Z</time>
      </trkpt>
      <trkpt lat="46.69495" lon="5.99293">
        <ele>855.8</ele>
        <time>2022-03-03T11:57:12Z</time>
      </trkpt>
      <trkpt lat="46.69498" lon="5.99299">
        <ele>856.3</ele>
        <time>2022-03-03T11:57:17Z</time>
      </trkpt>
      <trkpt lat="46.69501" lon="5.99305">
        <ele>857.4</ele>
        <time>2022-03-03T11:57:25Z</time>
      </trkpt>
      <trkpt lat="46.69503" lon="5.99311">
        <ele>857.8</ele>
        <time>2022-03-03T11:57:30Z</time>
      </trkpt>
      <trkpt lat="46.69507" lon="5.99316">
        <ele>858.5</ele>
        <time>2022-03-03T11:57:35Z</time>
      </trkpt>
      <trkpt lat="46.69511" lon="5.99321">
        <ele>860.2</ele>
        <time>2022-03-03T11:57:43Z</time>
      </trkpt>
      <trkpt lat="46.69513" lon="5.99327">
        <ele>861.8</ele>
        <time>2022-03-03T11:57:50Z</time>
      </trkpt>
      <trkpt lat="46.69516" lon="5.99332">
        <ele>863.1</ele>
        <time>2022-03-03T11:57:56Z</time>
      </trkpt>
      <trkpt lat="46.69519" lon="5.99338">
        <ele>864.2</ele>
        <time>2022-03-03T11:58:01Z</time>
      </trkpt>
      <trkpt lat="46.69522" lon="5.99344">
        <ele>865.5</ele>
        <time>2022-03-03T11:58:06Z</time>
      </trkpt>
      <trkpt lat="46.69525" lon="5.99351">
        <ele>866.6</ele>
        <time>2022-03-03T11:58:11Z</time>
      </trkpt>
      <trkpt lat="46.69527" lon="5.99358">
        <ele>867.4</ele>
        <time>2022-03-03T11:58:15Z</time>
      </trkpt>
      <trkpt lat="46.6953" lon="5.99365">
        <ele>868</ele>
        <time>2022-03-03T11:58:19Z</time>
      </trkpt>
      <trkpt lat="46.69532" lon="5.99372">
        <ele>868.4</ele>
        <time>2022-03-03T11:58:24Z</time>
      </trkpt>
      <trkpt lat="46.69535" lon="5.99377">
        <ele>868.6</ele>
        <time>2022-03-03T11:58:28Z</time>
      </trkpt>
      <trkpt lat="46.69538" lon="5.99382">
        <ele>868.4</ele>
        <time>2022-03-03T11:58:32Z</time>
      </trkpt>
      <trkpt lat="46.6954" lon="5.99389">
        <ele>867.9</ele>
        <time>2022-03-03T11:58:38Z</time>
      </trkpt>
      <trkpt lat="46.69542" lon="5.99396">
        <ele>868</ele>
        <time>2022-03-03T11:58:44Z</time>
      </trkpt>
      <trkpt lat="46.69544" lon="5.99403">
        <ele>867.8</ele>
        <time>2022-03-03T11:58:49Z</time>
      </trkpt>
      <trkpt lat="46.69546" lon="5.99409">
        <ele>867.6</ele>
        <time>2022-03-03T11:58:54Z</time>
      </trkpt>
      <trkpt lat="46.69548" lon="5.99416">
        <ele>867.7</ele>
        <time>2022-03-03T11:58:59Z</time>
      </trkpt>
      <trkpt lat="46.6955" lon="5.99422">
        <ele>867.9</ele>
        <time>2022-03-03T11:59:04Z</time>
      </trkpt>
      <trkpt lat="46.69554" lon="5.99427">
        <ele>868.3</ele>
        <time>2022-03-03T11:59:08Z</time>
      </trkpt>
      <trkpt lat="46.69555" lon="5.99434">
        <ele>869</ele>
        <time>2022-03-03T11:59:12Z</time>
      </trkpt>
      <trkpt lat="46.69557" lon="5.99441">
        <ele>869.9</ele>
        <time>2022-03-03T11:59:16Z</time>
      </trkpt>
      <trkpt lat="46.6956" lon="5.99447">
        <ele>870.9</ele>
        <time>2022-03-03T11:59:20Z</time>
      </trkpt>
      <trkpt lat="46.69562" lon="5.99453">
        <ele>871.6</ele>
        <time>2022-03-03T11:59:24Z</time>
      </trkpt>
      <trkpt lat="46.69564" lon="5.99459">
        <ele>872.1</ele>
        <time>2022-03-03T11:59:28Z</time>
      </trkpt>
      <trkpt lat="46.69566" lon="5.99465">
        <ele>872.6</ele>
        <time>2022-03-03T11:59:33Z</time>
      </trkpt>
      <trkpt lat="46.69566" lon="5.99473">
        <ele>873.1</ele>
        <time>2022-03-03T11:59:38Z</time>
      </trkpt>
      <trkpt lat="46.69566" lon="5.9948">
        <ele>873.2</ele>
        <time>2022-03-03T11:59:42Z</time>
      </trkpt>
      <trkpt lat="46.69565" lon="5.99486">
        <ele>873</ele>
        <time>2022-03-03T11:59:46Z</time>
      </trkpt>
      <trkpt lat="46.69563" lon="5.99494">
        <ele>872.8</ele>
        <time>2022-03-03T11:59:51Z</time>
      </trkpt>
      <trkpt lat="46.69562" lon="5.995">
        <ele>872.7</ele>
        <time>2022-03-03T11:59:55Z</time>
      </trkpt>
      <trkpt lat="46.69561" lon="5.99508">
        <ele>872.4</ele>
        <time>2022-03-03T12:00:00Z</time>
      </trkpt>
      <trkpt lat="46.69559" lon="5.99514">
        <ele>872.2</ele>
        <time>2022-03-03T12:00:05Z</time>
      </trkpt>
      <trkpt lat="46.69556" lon="5.9952">
        <ele>872</ele>
        <time>2022-03-03T12:00:11Z</time>
      </trkpt>
      <trkpt lat="46.69554" lon="5.99526">
        <ele>871.5</ele>
        <time>2022-03-03T12:00:16Z</time>
      </trkpt>
      <trkpt lat="46.69551" lon="5.99533">
        <ele>871.1</ele>
        <time>2022-03-03T12:00:20Z</time>
      </trkpt>
      <trkpt lat="46.69549" lon="5.99539">
        <ele>870.3</ele>
        <time>2022-03-03T12:00:24Z</time>
      </trkpt>
      <trkpt lat="46.69548" lon="5.99545">
        <ele>868.9</ele>
        <time>2022-03-03T12:00:30Z</time>
      </trkpt>
      <trkpt lat="46.69549" lon="5.99552">
        <ele>867.6</ele>
        <time>2022-03-03T12:00:39Z</time>
      </trkpt>
      <trkpt lat="46.69549" lon="5.99559">
        <ele>866.1</ele>
        <time>2022-03-03T12:00:49Z</time>
      </trkpt>
      <trkpt lat="46.69548" lon="5.99567">
        <ele>864.9</ele>
        <time>2022-03-03T12:00:53Z</time>
      </trkpt>
      <trkpt lat="46.69549" lon="5.99574">
        <ele>863.4</ele>
        <time>2022-03-03T12:00:58Z</time>
      </trkpt>
      <trkpt lat="46.69547" lon="5.9958">
        <ele>862.4</ele>
        <time>2022-03-03T12:01:02Z</time>
      </trkpt>
      <trkpt lat="46.69545" lon="5.99589">
        <ele>861</ele>
        <time>2022-03-03T12:01:06Z</time>
      </trkpt>
      <trkpt lat="46.69543" lon="5.99596">
        <ele>860.3</ele>
        <time>2022-03-03T12:01:09Z</time>
      </trkpt>
      <trkpt lat="46.6954" lon="5.99601">
        <ele>859.2</ele>
        <time>2022-03-03T12:01:12Z</time>
      </trkpt>
      <trkpt lat="46.69537" lon="5.99608">
        <ele>857.5</ele>
        <time>2022-03-03T12:01:17Z</time>
      </trkpt>
      <trkpt lat="46.69537" lon="5.99615">
        <ele>855.2</ele>
        <time>2022-03-03T12:01:24Z</time>
      </trkpt>
      <trkpt lat="46.69536" lon="5.99622">
        <ele>854.5</ele>
        <time>2022-03-03T12:01:28Z</time>
      </trkpt>
      <trkpt lat="46.69536" lon="5.9963">
        <ele>853.4</ele>
        <time>2022-03-03T12:01:35Z</time>
      </trkpt>
      <trkpt lat="46.69536" lon="5.99637">
        <ele>853.3</ele>
        <time>2022-03-03T12:01:39Z</time>
      </trkpt>
      <trkpt lat="46.69536" lon="5.99645">
        <ele>853.7</ele>
        <time>2022-03-03T12:01:43Z</time>
      </trkpt>
      <trkpt lat="46.69537" lon="5.99653">
        <ele>854.2</ele>
        <time>2022-03-03T12:01:47Z</time>
      </trkpt>
      <trkpt lat="46.69537" lon="5.99661">
        <ele>854.3</ele>
        <time>2022-03-03T12:01:51Z</time>
      </trkpt>
      <trkpt lat="46.69538" lon="5.99668">
        <ele>854</ele>
        <time>2022-03-03T12:01:56Z</time>
      </trkpt>
      <trkpt lat="46.69539" lon="5.99674">
        <ele>853.2</ele>
        <time>2022-03-03T12:02:02Z</time>
      </trkpt>
      <trkpt lat="46.6954" lon="5.99682">
        <ele>852.6</ele>
        <time>2022-03-03T12:02:07Z</time>
      </trkpt>
      <trkpt lat="46.69543" lon="5.99688">
        <ele>851.7</ele>
        <time>2022-03-03T12:02:13Z</time>
      </trkpt>
      <trkpt lat="46.69544" lon="5.99696">
        <ele>851.5</ele>
        <time>2022-03-03T12:02:16Z</time>
      </trkpt>
      <trkpt lat="46.69545" lon="5.99704">
        <ele>851.3</ele>
        <time>2022-03-03T12:02:20Z</time>
      </trkpt>
      <trkpt lat="46.69546" lon="5.99711">
        <ele>850.8</ele>
        <time>2022-03-03T12:02:26Z</time>
      </trkpt>
      <trkpt lat="46.69547" lon="5.99719">
        <ele>850.2</ele>
        <time>2022-03-03T12:02:31Z</time>
      </trkpt>
      <trkpt lat="46.69548" lon="5.99727">
        <ele>849.3</ele>
        <time>2022-03-03T12:02:38Z</time>
      </trkpt>
      <trkpt lat="46.69546" lon="5.99733">
        <ele>848.2</ele>
        <time>2022-03-03T12:02:44Z</time>
      </trkpt>
      <trkpt lat="46.69547" lon="5.99741">
        <ele>846.6</ele>
        <time>2022-03-03T12:02:51Z</time>
      </trkpt>
      <trkpt lat="46.69549" lon="5.99747">
        <ele>845.2</ele>
        <time>2022-03-03T12:02:57Z</time>
      </trkpt>
      <trkpt lat="46.69551" lon="5.99753">
        <ele>843.8</ele>
        <time>2022-03-03T12:03:02Z</time>
      </trkpt>
      <trkpt lat="46.69553" lon="5.99761">
        <ele>842.4</ele>
        <time>2022-03-03T12:03:09Z</time>
      </trkpt>
      <trkpt lat="46.69555" lon="5.99767">
        <ele>841.2</ele>
        <time>2022-03-03T12:03:15Z</time>
      </trkpt>
      <trkpt lat="46.69557" lon="5.99774">
        <ele>840.3</ele>
        <time>2022-03-03T12:03:19Z</time>
      </trkpt>
      <trkpt lat="46.69558" lon="5.99781">
        <ele>838.6</ele>
        <time>2022-03-03T12:03:25Z</time>
      </trkpt>
      <trkpt lat="46.69559" lon="5.99789">
        <ele>837.6</ele>
        <time>2022-03-03T12:03:31Z</time>
      </trkpt>
      <trkpt lat="46.6956" lon="5.99799">
        <ele>838.3</ele>
        <time>2022-03-03T12:03:34Z</time>
      </trkpt>
      <trkpt lat="46.69561" lon="5.99805">
        <ele>838.9</ele>
        <time>2022-03-03T12:03:39Z</time>
      </trkpt>
      <trkpt lat="46.69564" lon="5.99812">
        <ele>838.4</ele>
        <time>2022-03-03T12:03:45Z</time>
      </trkpt>
      <trkpt lat="46.69567" lon="5.99816">
        <ele>837.6</ele>
        <time>2022-03-03T12:03:50Z</time>
      </trkpt>
      <trkpt lat="46.69569" lon="5.99823">
        <ele>836.1</ele>
        <time>2022-03-03T12:03:56Z</time>
      </trkpt>
      <trkpt lat="46.6957" lon="5.9983">
        <ele>834.2</ele>
        <time>2022-03-03T12:04:03Z</time>
      </trkpt>
      <trkpt lat="46.69569" lon="5.99837">
        <ele>833.6</ele>
        <time>2022-03-03T12:04:08Z</time>
      </trkpt>
      <trkpt lat="46.6957" lon="5.99844">
        <ele>833.7</ele>
        <time>2022-03-03T12:04:11Z</time>
      </trkpt>
      <trkpt lat="46.69571" lon="5.99852">
        <ele>834.2</ele>
        <time>2022-03-03T12:04:14Z</time>
      </trkpt>
      <trkpt lat="46.69569" lon="5.99861">
        <ele>835.5</ele>
        <time>2022-03-03T12:04:17Z</time>
      </trkpt>
      <trkpt lat="46.69567" lon="5.99872">
        <ele>836.7</ele>
        <time>2022-03-03T12:04:20Z</time>
      </trkpt>
      <trkpt lat="46.69567" lon="5.99881">
        <ele>837.4</ele>
        <time>2022-03-03T12:04:23Z</time>
      </trkpt>
      <trkpt lat="46.69568" lon="5.99888">
        <ele>837</ele>
        <time>2022-03-03T12:04:27Z</time>
      </trkpt>
      <trkpt lat="46.69567" lon="5.99897">
        <ele>837.4</ele>
        <time>2022-03-03T12:04:31Z</time>
      </trkpt>
      <trkpt lat="46.69567" lon="5.99906">
        <ele>839.2</ele>
        <time>2022-03-03T12:04:34Z</time>
      </trkpt>
      <trkpt lat="46.69567" lon="5.99914">
        <ele>842</ele>
        <time>2022-03-03T12:04:37Z</time>
      </trkpt>
      <trkpt lat="46.69567" lon="5.99922">
        <ele>844.7</ele>
        <time>2022-03-03T12:04:41Z</time>
      </trkpt>
      <trkpt lat="46.69569" lon="5.99928">
        <ele>846.9</ele>
        <time>2022-03-03T12:04:46Z</time>
      </trkpt>
      <trkpt lat="46.69571" lon="5.99935">
        <ele>848.7</ele>
        <time>2022-03-03T12:04:51Z</time>
      </trkpt>
      <trkpt lat="46.69573" lon="5.99941">
        <ele>850.5</ele>
        <time>2022-03-03T12:04:56Z</time>
      </trkpt>
      <trkpt lat="46.69574" lon="5.99949">
        <ele>852.3</ele>
        <time>2022-03-03T12:05:00Z</time>
      </trkpt>
      <trkpt lat="46.69574" lon="5.99957">
        <ele>853.7</ele>
        <time>2022-03-03T12:05:04Z</time>
      </trkpt>
      <trkpt lat="46.69575" lon="5.99964">
        <ele>854.7</ele>
        <time>2022-03-03T12:05:08Z</time>
      </trkpt>
      <trkpt lat="46.69576" lon="5.99971">
        <ele>855.5</ele>
        <time>2022-03-03T12:05:12Z</time>
      </trkpt>
      <trkpt lat="46.69576" lon="5.99978">
        <ele>856.1</ele>
        <time>2022-03-03T12:05:16Z</time>
      </trkpt>
      <trkpt lat="46.69573" lon="5.99985">
        <ele>856.8</ele>
        <time>2022-03-03T12:05:21Z</time>
      </trkpt>
      <trkpt lat="46.69571" lon="5.99992">
        <ele>857.5</ele>
        <time>2022-03-03T12:05:26Z</time>
      </trkpt>
      <trkpt lat="46.69568" lon="5.99998">
        <ele>858</ele>
        <time>2022-03-03T12:05:30Z</time>
      </trkpt>
      <trkpt lat="46.69567" lon="6.00004">
        <ele>858.6</ele>
        <time>2022-03-03T12:05:34Z</time>
      </trkpt>
      <trkpt lat="46.69565" lon="6.00011">
        <ele>859.8</ele>
        <time>2022-03-03T12:05:39Z</time>
      </trkpt>
      <trkpt lat="46.69564" lon="6.00018">
        <ele>861.3</ele>
        <time>2022-03-03T12:05:44Z</time>
      </trkpt>
      <trkpt lat="46.69563" lon="6.00025">
        <ele>862.3</ele>
        <time>2022-03-03T12:05:49Z</time>
      </trkpt>
      <trkpt lat="46.69562" lon="6.00033">
        <ele>863.2</ele>
        <time>2022-03-03T12:05:55Z</time>
      </trkpt>
      <trkpt lat="46.69561" lon="6.0004">
        <ele>863.5</ele>
        <time>2022-03-03T12:06:00Z</time>
      </trkpt>
      <trkpt lat="46.69558" lon="6.00045">
        <ele>863.6</ele>
        <time>2022-03-03T12:06:05Z</time>
      </trkpt>
      <trkpt lat="46.69557" lon="6.00053">
        <ele>864.1</ele>
        <time>2022-03-03T12:06:11Z</time>
      </trkpt>
      <trkpt lat="46.69555" lon="6.00059">
        <ele>864.7</ele>
        <time>2022-03-03T12:06:16Z</time>
      </trkpt>
      <trkpt lat="46.69554" lon="6.00066">
        <ele>865.5</ele>
        <time>2022-03-03T12:06:21Z</time>
      </trkpt>
      <trkpt lat="46.69552" lon="6.00073">
        <ele>865.9</ele>
        <time>2022-03-03T12:06:26Z</time>
      </trkpt>
      <trkpt lat="46.69549" lon="6.0008">
        <ele>866</ele>
        <time>2022-03-03T12:06:31Z</time>
      </trkpt>
      <trkpt lat="46.69547" lon="6.00086">
        <ele>866</ele>
        <time>2022-03-03T12:06:35Z</time>
      </trkpt>
      <trkpt lat="46.69545" lon="6.00093">
        <ele>866.2</ele>
        <time>2022-03-03T12:06:41Z</time>
      </trkpt>
      <trkpt lat="46.69543" lon="6.001">
        <ele>866.6</ele>
        <time>2022-03-03T12:06:46Z</time>
      </trkpt>
      <trkpt lat="46.6954" lon="6.00106">
        <ele>867.2</ele>
        <time>2022-03-03T12:06:51Z</time>
      </trkpt>
      <trkpt lat="46.69537" lon="6.00113">
        <ele>867.4</ele>
        <time>2022-03-03T12:06:56Z</time>
      </trkpt>
      <trkpt lat="46.69535" lon="6.00119">
        <ele>867</ele>
        <time>2022-03-03T12:07:01Z</time>
      </trkpt>
      <trkpt lat="46.69533" lon="6.00127">
        <ele>866.5</ele>
        <time>2022-03-03T12:07:06Z</time>
      </trkpt>
      <trkpt lat="46.69531" lon="6.00133">
        <ele>865.6</ele>
        <time>2022-03-03T12:07:11Z</time>
      </trkpt>
      <trkpt lat="46.6953" lon="6.00141">
        <ele>864.5</ele>
        <time>2022-03-03T12:07:18Z</time>
      </trkpt>
      <trkpt lat="46.69528" lon="6.00147">
        <ele>863.6</ele>
        <time>2022-03-03T12:07:23Z</time>
      </trkpt>
      <trkpt lat="46.69525" lon="6.00153">
        <ele>862.8</ele>
        <time>2022-03-03T12:07:29Z</time>
      </trkpt>
      <trkpt lat="46.69523" lon="6.0016">
        <ele>861.9</ele>
        <time>2022-03-03T12:07:35Z</time>
      </trkpt>
      <trkpt lat="46.6952" lon="6.00165">
        <ele>861.3</ele>
        <time>2022-03-03T12:07:40Z</time>
      </trkpt>
      <trkpt lat="46.69516" lon="6.0017">
        <ele>860.7</ele>
        <time>2022-03-03T12:07:45Z</time>
      </trkpt>
      <trkpt lat="46.69513" lon="6.00174">
        <ele>860.2</ele>
        <time>2022-03-03T12:07:50Z</time>
      </trkpt>
      <trkpt lat="46.69508" lon="6.00178">
        <ele>859</ele>
        <time>2022-03-03T12:07:58Z</time>
      </trkpt>
      <trkpt lat="46.69505" lon="6.00183">
        <ele>858</ele>
        <time>2022-03-03T12:08:03Z</time>
      </trkpt>
      <trkpt lat="46.69504" lon="6.0019">
        <ele>857.3</ele>
        <time>2022-03-03T12:08:07Z</time>
      </trkpt>
      <trkpt lat="46.69502" lon="6.00197">
        <ele>856.5</ele>
        <time>2022-03-03T12:08:11Z</time>
      </trkpt>
      <trkpt lat="46.69501" lon="6.00204">
        <ele>855.8</ele>
        <time>2022-03-03T12:08:16Z</time>
      </trkpt>
      <trkpt lat="46.69501" lon="6.00211">
        <ele>855.5</ele>
        <time>2022-03-03T12:08:20Z</time>
      </trkpt>
      <trkpt lat="46.69503" lon="6.00218">
        <ele>855.5</ele>
        <time>2022-03-03T12:08:26Z</time>
      </trkpt>
      <trkpt lat="46.69504" lon="6.00225">
        <ele>855.6</ele>
        <time>2022-03-03T12:08:30Z</time>
      </trkpt>
      <trkpt lat="46.69505" lon="6.00231">
        <ele>855.5</ele>
        <time>2022-03-03T12:08:34Z</time>
      </trkpt>
      <trkpt lat="46.69505" lon="6.00238">
        <ele>855.1</ele>
        <time>2022-03-03T12:08:38Z</time>
      </trkpt>
      <trkpt lat="46.69505" lon="6.00245">
        <ele>854.9</ele>
        <time>2022-03-03T12:08:42Z</time>
      </trkpt>
      <trkpt lat="46.69505" lon="6.00252">
        <ele>854.9</ele>
        <time>2022-03-03T12:08:47Z</time>
      </trkpt>
      <trkpt lat="46.69506" lon="6.00259">
        <ele>855.1</ele>
        <time>2022-03-03T12:08:52Z</time>
      </trkpt>
      <trkpt lat="46.69507" lon="6.00266">
        <ele>855.6</ele>
        <time>2022-03-03T12:08:57Z</time>
      </trkpt>
      <trkpt lat="46.69507" lon="6.00274">
        <ele>856.2</ele>
        <time>2022-03-03T12:09:02Z</time>
      </trkpt>
      <trkpt lat="46.69507" lon="6.00281">
        <ele>856</ele>
        <time>2022-03-03T12:09:16Z</time>
      </trkpt>
      <trkpt lat="46.69507" lon="6.00289">
        <ele>855.7</ele>
        <time>2022-03-03T12:09:22Z</time>
      </trkpt>
      <trkpt lat="46.69506" lon="6.00296">
        <ele>855.9</ele>
        <time>2022-03-03T12:09:27Z</time>
      </trkpt>
      <trkpt lat="46.69503" lon="6.00303">
        <ele>856.2</ele>
        <time>2022-03-03T12:09:32Z</time>
      </trkpt>
      <trkpt lat="46.69501" lon="6.00309">
        <ele>856.1</ele>
        <time>2022-03-03T12:09:38Z</time>
      </trkpt>
      <trkpt lat="46.69499" lon="6.00317">
        <ele>855</ele>
        <time>2022-03-03T12:09:48Z</time>
      </trkpt>
      <trkpt lat="46.69497" lon="6.00323">
        <ele>854.7</ele>
        <time>2022-03-03T12:09:53Z</time>
      </trkpt>
      <trkpt lat="46.69496" lon="6.0033">
        <ele>854.7</ele>
        <time>2022-03-03T12:09:59Z</time>
      </trkpt>
      <trkpt lat="46.69495" lon="6.00338">
        <ele>854.9</ele>
        <time>2022-03-03T12:10:03Z</time>
      </trkpt>
      <trkpt lat="46.69495" lon="6.00346">
        <ele>855</ele>
        <time>2022-03-03T12:10:07Z</time>
      </trkpt>
      <trkpt lat="46.69493" lon="6.00353">
        <ele>855.2</ele>
        <time>2022-03-03T12:10:11Z</time>
      </trkpt>
      <trkpt lat="46.69491" lon="6.00359">
        <ele>855.1</ele>
        <time>2022-03-03T12:10:15Z</time>
      </trkpt>
      <trkpt lat="46.6949" lon="6.00366">
        <ele>855.2</ele>
        <time>2022-03-03T12:10:19Z</time>
      </trkpt>
      <trkpt lat="46.69488" lon="6.00373">
        <ele>855.3</ele>
        <time>2022-03-03T12:10:24Z</time>
      </trkpt>
      <trkpt lat="46.69489" lon="6.0038">
        <ele>854.8</ele>
        <time>2022-03-03T12:10:35Z</time>
      </trkpt>
      <trkpt lat="46.69486" lon="6.00386">
        <ele>855</ele>
        <time>2022-03-03T12:10:41Z</time>
      </trkpt>
      <trkpt lat="46.69484" lon="6.00392">
        <ele>855</ele>
        <time>2022-03-03T12:10:47Z</time>
      </trkpt>
      <trkpt lat="46.69482" lon="6.00399">
        <ele>855.2</ele>
        <time>2022-03-03T12:10:52Z</time>
      </trkpt>
      <trkpt lat="46.6948" lon="6.00405">
        <ele>855.1</ele>
        <time>2022-03-03T12:10:56Z</time>
      </trkpt>
      <trkpt lat="46.69477" lon="6.00411">
        <ele>854.7</ele>
        <time>2022-03-03T12:11:00Z</time>
      </trkpt>
      <trkpt lat="46.69473" lon="6.00413">
        <ele>853.8</ele>
        <time>2022-03-03T12:11:04Z</time>
      </trkpt>
      <trkpt lat="46.69468" lon="6.00417">
        <ele>852.6</ele>
        <time>2022-03-03T12:11:08Z</time>
      </trkpt>
      <trkpt lat="46.69465" lon="6.00423">
        <ele>851.2</ele>
        <time>2022-03-03T12:11:14Z</time>
      </trkpt>
      <trkpt lat="46.69462" lon="6.00429">
        <ele>850.6</ele>
        <time>2022-03-03T12:11:18Z</time>
      </trkpt>
      <trkpt lat="46.69459" lon="6.00435">
        <ele>850</ele>
        <time>2022-03-03T12:11:22Z</time>
      </trkpt>
      <trkpt lat="46.69457" lon="6.00442">
        <ele>849.7</ele>
        <time>2022-03-03T12:11:26Z</time>
      </trkpt>
      <trkpt lat="46.69456" lon="6.00448">
        <ele>849.6</ele>
        <time>2022-03-03T12:11:30Z</time>
      </trkpt>
      <trkpt lat="46.69454" lon="6.00454">
        <ele>849.6</ele>
        <time>2022-03-03T12:11:34Z</time>
      </trkpt>
      <trkpt lat="46.69453" lon="6.0046">
        <ele>849.6</ele>
        <time>2022-03-03T12:11:38Z</time>
      </trkpt>
      <trkpt lat="46.69452" lon="6.00467">
        <ele>849.7</ele>
        <time>2022-03-03T12:11:43Z</time>
      </trkpt>
      <trkpt lat="46.69451" lon="6.00474">
        <ele>849.4</ele>
        <time>2022-03-03T12:11:49Z</time>
      </trkpt>
      <trkpt lat="46.69449" lon="6.0048">
        <ele>849</ele>
        <time>2022-03-03T12:11:56Z</time>
      </trkpt>
      <trkpt lat="46.69447" lon="6.00488">
        <ele>848.7</ele>
        <time>2022-03-03T12:12:01Z</time>
      </trkpt>
      <trkpt lat="46.69444" lon="6.00494">
        <ele>848.2</ele>
        <time>2022-03-03T12:12:06Z</time>
      </trkpt>
      <trkpt lat="46.69441" lon="6.00499">
        <ele>847.9</ele>
        <time>2022-03-03T12:12:10Z</time>
      </trkpt>
      <trkpt lat="46.69439" lon="6.00505">
        <ele>847.7</ele>
        <time>2022-03-03T12:12:14Z</time>
      </trkpt>
      <trkpt lat="46.69438" lon="6.00513">
        <ele>847.4</ele>
        <time>2022-03-03T12:12:19Z</time>
      </trkpt>
      <trkpt lat="46.69436" lon="6.0052">
        <ele>847.1</ele>
        <time>2022-03-03T12:12:24Z</time>
      </trkpt>
      <trkpt lat="46.69434" lon="6.00527">
        <ele>847</ele>
        <time>2022-03-03T12:12:28Z</time>
      </trkpt>
      <trkpt lat="46.69431" lon="6.00533">
        <ele>847.4</ele>
        <time>2022-03-03T12:12:32Z</time>
      </trkpt>
      <trkpt lat="46.6943" lon="6.0054">
        <ele>848.4</ele>
        <time>2022-03-03T12:12:37Z</time>
      </trkpt>
      <trkpt lat="46.69428" lon="6.00547">
        <ele>849.4</ele>
        <time>2022-03-03T12:12:42Z</time>
      </trkpt>
      <trkpt lat="46.69425" lon="6.00553">
        <ele>850.4</ele>
        <time>2022-03-03T12:12:47Z</time>
      </trkpt>
      <trkpt lat="46.69426" lon="6.00561">
        <ele>851.7</ele>
        <time>2022-03-03T12:12:52Z</time>
      </trkpt>
      <trkpt lat="46.69427" lon="6.00568">
        <ele>852.8</ele>
        <time>2022-03-03T12:12:57Z</time>
      </trkpt>
      <trkpt lat="46.6943" lon="6.00575">
        <ele>853.6</ele>
        <time>2022-03-03T12:13:01Z</time>
      </trkpt>
      <trkpt lat="46.69432" lon="6.00581">
        <ele>854.3</ele>
        <time>2022-03-03T12:13:06Z</time>
      </trkpt>
      <trkpt lat="46.69436" lon="6.00586">
        <ele>854.6</ele>
        <time>2022-03-03T12:13:12Z</time>
      </trkpt>
      <trkpt lat="46.69441" lon="6.00589">
        <ele>854.9</ele>
        <time>2022-03-03T12:13:17Z</time>
      </trkpt>
      <trkpt lat="46.69445" lon="6.00594">
        <ele>854.8</ele>
        <time>2022-03-03T12:13:22Z</time>
      </trkpt>
      <trkpt lat="46.69449" lon="6.00598">
        <ele>854.5</ele>
        <time>2022-03-03T12:13:26Z</time>
      </trkpt>
      <trkpt lat="46.69452" lon="6.00604">
        <ele>854.2</ele>
        <time>2022-03-03T12:13:31Z</time>
      </trkpt>
      <trkpt lat="46.69455" lon="6.00611">
        <ele>854.3</ele>
        <time>2022-03-03T12:13:36Z</time>
      </trkpt>
      <trkpt lat="46.69456" lon="6.00618">
        <ele>854.5</ele>
        <time>2022-03-03T12:13:41Z</time>
      </trkpt>
      <trkpt lat="46.69457" lon="6.00624">
        <ele>854.6</ele>
        <time>2022-03-03T12:13:46Z</time>
      </trkpt>
      <trkpt lat="46.69457" lon="6.00632">
        <ele>854.6</ele>
        <time>2022-03-03T12:13:51Z</time>
      </trkpt>
      <trkpt lat="46.69457" lon="6.00639">
        <ele>854.6</ele>
        <time>2022-03-03T12:13:57Z</time>
      </trkpt>
      <trkpt lat="46.69455" lon="6.00646">
        <ele>854.3</ele>
        <time>2022-03-03T12:14:02Z</time>
      </trkpt>
      <trkpt lat="46.69452" lon="6.00651">
        <ele>853.8</ele>
        <time>2022-03-03T12:14:06Z</time>
      </trkpt>
      <trkpt lat="46.69448" lon="6.00655">
        <ele>853.2</ele>
        <time>2022-03-03T12:14:10Z</time>
      </trkpt>
      <trkpt lat="46.69445" lon="6.0066">
        <ele>852.2</ele>
        <time>2022-03-03T12:14:18Z</time>
      </trkpt>
      <trkpt lat="46.69442" lon="6.00667">
        <ele>851.5</ele>
        <time>2022-03-03T12:14:24Z</time>
      </trkpt>
      <trkpt lat="46.6944" lon="6.00674">
        <ele>851.1</ele>
        <time>2022-03-03T12:14:29Z</time>
      </trkpt>
      <trkpt lat="46.69438" lon="6.00681">
        <ele>851.2</ele>
        <time>2022-03-03T12:14:34Z</time>
      </trkpt>
      <trkpt lat="46.69437" lon="6.00687">
        <ele>851.6</ele>
        <time>2022-03-03T12:14:38Z</time>
      </trkpt>
      <trkpt lat="46.69436" lon="6.00695">
        <ele>852.1</ele>
        <time>2022-03-03T12:14:41Z</time>
      </trkpt>
      <trkpt lat="46.69437" lon="6.00703">
        <ele>852.7</ele>
        <time>2022-03-03T12:14:45Z</time>
      </trkpt>
      <trkpt lat="46.69437" lon="6.00711">
        <ele>853.3</ele>
        <time>2022-03-03T12:14:49Z</time>
      </trkpt>
      <trkpt lat="46.69437" lon="6.00719">
        <ele>854.1</ele>
        <time>2022-03-03T12:14:54Z</time>
      </trkpt>
      <trkpt lat="46.69437" lon="6.00726">
        <ele>854.6</ele>
        <time>2022-03-03T12:14:59Z</time>
      </trkpt>
      <trkpt lat="46.69436" lon="6.00733">
        <ele>854.5</ele>
        <time>2022-03-03T12:15:05Z</time>
      </trkpt>
      <trkpt lat="46.69434" lon="6.0074">
        <ele>854.2</ele>
        <time>2022-03-03T12:15:11Z</time>
      </trkpt>
      <trkpt lat="46.69434" lon="6.00747">
        <ele>853.9</ele>
        <time>2022-03-03T12:15:15Z</time>
      </trkpt>
      <trkpt lat="46.69433" lon="6.00754">
        <ele>853.4</ele>
        <time>2022-03-03T12:15:20Z</time>
      </trkpt>
      <trkpt lat="46.69432" lon="6.0076">
        <ele>852.4</ele>
        <time>2022-03-03T12:15:25Z</time>
      </trkpt>
      <trkpt lat="46.69432" lon="6.00768">
        <ele>851.3</ele>
        <time>2022-03-03T12:15:30Z</time>
      </trkpt>
      <trkpt lat="46.69431" lon="6.00775">
        <ele>850.3</ele>
        <time>2022-03-03T12:15:35Z</time>
      </trkpt>
      <trkpt lat="46.69431" lon="6.00782">
        <ele>850.2</ele>
        <time>2022-03-03T12:15:40Z</time>
      </trkpt>
      <trkpt lat="46.69432" lon="6.00789">
        <ele>850.6</ele>
        <time>2022-03-03T12:15:44Z</time>
      </trkpt>
      <trkpt lat="46.69432" lon="6.00796">
        <ele>851</ele>
        <time>2022-03-03T12:15:48Z</time>
      </trkpt>
      <trkpt lat="46.69434" lon="6.00803">
        <ele>851.1</ele>
        <time>2022-03-03T12:15:53Z</time>
      </trkpt>
      <trkpt lat="46.69436" lon="6.00809">
        <ele>850.8</ele>
        <time>2022-03-03T12:15:57Z</time>
      </trkpt>
      <trkpt lat="46.69437" lon="6.00816">
        <ele>850.3</ele>
        <time>2022-03-03T12:16:01Z</time>
      </trkpt>
      <trkpt lat="46.69438" lon="6.00822">
        <ele>849.8</ele>
        <time>2022-03-03T12:16:05Z</time>
      </trkpt>
      <trkpt lat="46.69439" lon="6.00829">
        <ele>849.9</ele>
        <time>2022-03-03T12:16:10Z</time>
      </trkpt>
      <trkpt lat="46.69439" lon="6.00836">
        <ele>850.2</ele>
        <time>2022-03-03T12:16:15Z</time>
      </trkpt>
      <trkpt lat="46.6944" lon="6.00844">
        <ele>849.8</ele>
        <time>2022-03-03T12:16:20Z</time>
      </trkpt>
      <trkpt lat="46.69442" lon="6.0085">
        <ele>849</ele>
        <time>2022-03-03T12:16:24Z</time>
      </trkpt>
      <trkpt lat="46.69445" lon="6.00856">
        <ele>848</ele>
        <time>2022-03-03T12:16:29Z</time>
      </trkpt>
      <trkpt lat="46.69447" lon="6.00863">
        <ele>846.8</ele>
        <time>2022-03-03T12:16:35Z</time>
      </trkpt>
      <trkpt lat="46.69449" lon="6.00869">
        <ele>846</ele>
        <time>2022-03-03T12:16:40Z</time>
      </trkpt>
      <trkpt lat="46.69451" lon="6.00876">
        <ele>845.2</ele>
        <time>2022-03-03T12:16:45Z</time>
      </trkpt>
      <trkpt lat="46.69452" lon="6.00884">
        <ele>844.5</ele>
        <time>2022-03-03T12:16:50Z</time>
      </trkpt>
      <trkpt lat="46.69455" lon="6.00891">
        <ele>844</ele>
        <time>2022-03-03T12:16:55Z</time>
      </trkpt>
      <trkpt lat="46.69456" lon="6.00898">
        <ele>843.6</ele>
        <time>2022-03-03T12:16:59Z</time>
      </trkpt>
      <trkpt lat="46.69457" lon="6.00905">
        <ele>843.2</ele>
        <time>2022-03-03T12:17:03Z</time>
      </trkpt>
      <trkpt lat="46.69459" lon="6.00912">
        <ele>842.7</ele>
        <time>2022-03-03T12:17:08Z</time>
      </trkpt>
      <trkpt lat="46.6946" lon="6.00919">
        <ele>842.1</ele>
        <time>2022-03-03T12:17:13Z</time>
      </trkpt>
      <trkpt lat="46.69461" lon="6.00925">
        <ele>841.4</ele>
        <time>2022-03-03T12:17:19Z</time>
      </trkpt>
      <trkpt lat="46.69463" lon="6.00932">
        <ele>840.6</ele>
        <time>2022-03-03T12:17:25Z</time>
      </trkpt>
      <trkpt lat="46.69464" lon="6.00939">
        <ele>839.8</ele>
        <time>2022-03-03T12:17:30Z</time>
      </trkpt>
      <trkpt lat="46.69464" lon="6.00946">
        <ele>839.1</ele>
        <time>2022-03-03T12:17:35Z</time>
      </trkpt>
      <trkpt lat="46.69462" lon="6.00953">
        <ele>838.1</ele>
        <time>2022-03-03T12:17:40Z</time>
      </trkpt>
      <trkpt lat="46.69459" lon="6.00959">
        <ele>836.7</ele>
        <time>2022-03-03T12:17:45Z</time>
      </trkpt>
      <trkpt lat="46.69457" lon="6.00966">
        <ele>835.3</ele>
        <time>2022-03-03T12:17:50Z</time>
      </trkpt>
      <trkpt lat="46.69453" lon="6.0097">
        <ele>834</ele>
        <time>2022-03-03T12:17:54Z</time>
      </trkpt>
      <trkpt lat="46.69449" lon="6.00975">
        <ele>833.3</ele>
        <time>2022-03-03T12:17:58Z</time>
      </trkpt>
      <trkpt lat="46.69446" lon="6.00981">
        <ele>833.5</ele>
        <time>2022-03-03T12:18:03Z</time>
      </trkpt>
      <trkpt lat="46.69448" lon="6.00987">
        <ele>834.2</ele>
        <time>2022-03-03T12:18:14Z</time>
      </trkpt>
      <trkpt lat="46.69453" lon="6.00988">
        <ele>835</ele>
        <time>2022-03-03T12:18:18Z</time>
      </trkpt>
      <trkpt lat="46.69458" lon="6.00988">
        <ele>836</ele>
        <time>2022-03-03T12:18:22Z</time>
      </trkpt>
      <trkpt lat="46.69463" lon="6.00989">
        <ele>837</ele>
        <time>2022-03-03T12:18:26Z</time>
      </trkpt>
      <trkpt lat="46.69468" lon="6.0099">
        <ele>837.8</ele>
        <time>2022-03-03T12:18:30Z</time>
      </trkpt>
      <trkpt lat="46.69473" lon="6.0099">
        <ele>838.3</ele>
        <time>2022-03-03T12:18:34Z</time>
      </trkpt>
      <trkpt lat="46.69478" lon="6.00991">
        <ele>838.5</ele>
        <time>2022-03-03T12:18:39Z</time>
      </trkpt>
      <trkpt lat="46.69483" lon="6.00991">
        <ele>839.4</ele>
        <time>2022-03-03T12:18:44Z</time>
      </trkpt>
      <trkpt lat="46.69489" lon="6.00991">
        <ele>839.9</ele>
        <time>2022-03-03T12:18:49Z</time>
      </trkpt>
      <trkpt lat="46.69494" lon="6.00989">
        <ele>840.1</ele>
        <time>2022-03-03T12:18:54Z</time>
      </trkpt>
      <trkpt lat="46.69499" lon="6.00988">
        <ele>840.2</ele>
        <time>2022-03-03T12:19:00Z</time>
      </trkpt>
      <trkpt lat="46.69504" lon="6.00988">
        <ele>840.8</ele>
        <time>2022-03-03T12:19:05Z</time>
      </trkpt>
      <trkpt lat="46.6951" lon="6.00989">
        <ele>841.1</ele>
        <time>2022-03-03T12:19:10Z</time>
      </trkpt>
      <trkpt lat="46.69514" lon="6.00987">
        <ele>841.2</ele>
        <time>2022-03-03T12:19:15Z</time>
      </trkpt>
      <trkpt lat="46.6952" lon="6.00987">
        <ele>840.6</ele>
        <time>2022-03-03T12:19:21Z</time>
      </trkpt>
      <trkpt lat="46.69525" lon="6.00986">
        <ele>840.2</ele>
        <time>2022-03-03T12:19:27Z</time>
      </trkpt>
      <trkpt lat="46.6953" lon="6.00985">
        <ele>840.4</ele>
        <time>2022-03-03T12:19:33Z</time>
      </trkpt>
      <trkpt lat="46.69535" lon="6.00984">
        <ele>840.6</ele>
        <time>2022-03-03T12:19:37Z</time>
      </trkpt>
      <trkpt lat="46.6954" lon="6.00983">
        <ele>841.1</ele>
        <time>2022-03-03T12:19:42Z</time>
      </trkpt>
      <trkpt lat="46.69545" lon="6.00982">
        <ele>841.5</ele>
        <time>2022-03-03T12:19:46Z</time>
      </trkpt>
      <trkpt lat="46.69549" lon="6.00982">
        <ele>841.6</ele>
        <time>2022-03-03T12:19:50Z</time>
      </trkpt>
      <trkpt lat="46.69555" lon="6.00981">
        <ele>842.4</ele>
        <time>2022-03-03T12:19:55Z</time>
      </trkpt>
      <trkpt lat="46.6956" lon="6.00979">
        <ele>842.9</ele>
        <time>2022-03-03T12:19:59Z</time>
      </trkpt>
      <trkpt lat="46.69564" lon="6.00978">
        <ele>843.5</ele>
        <time>2022-03-03T12:20:03Z</time>
      </trkpt>
      <trkpt lat="46.6957" lon="6.00976">
        <ele>844.3</ele>
        <time>2022-03-03T12:20:08Z</time>
      </trkpt>
      <trkpt lat="46.69574" lon="6.00976">
        <ele>845.5</ele>
        <time>2022-03-03T12:20:13Z</time>
      </trkpt>
      <trkpt lat="46.69579" lon="6.00975">
        <ele>846.2</ele>
        <time>2022-03-03T12:20:17Z</time>
      </trkpt>
      <trkpt lat="46.69584" lon="6.00975">
        <ele>846.9</ele>
        <time>2022-03-03T12:20:22Z</time>
      </trkpt>
      <trkpt lat="46.69588" lon="6.00972">
        <ele>848.1</ele>
        <time>2022-03-03T12:20:28Z</time>
      </trkpt>
      <trkpt lat="46.69593" lon="6.00971">
        <ele>847.4</ele>
        <time>2022-03-03T12:20:34Z</time>
      </trkpt>
      <trkpt lat="46.69598" lon="6.0097">
        <ele>845.9</ele>
        <time>2022-03-03T12:20:39Z</time>
      </trkpt>
      <trkpt lat="46.69603" lon="6.00969">
        <ele>845</ele>
        <time>2022-03-03T12:20:43Z</time>
      </trkpt>
      <trkpt lat="46.69608" lon="6.00969">
        <ele>843.6</ele>
        <time>2022-03-03T12:20:48Z</time>
      </trkpt>
      <trkpt lat="46.69613" lon="6.00967">
        <ele>842.5</ele>
        <time>2022-03-03T12:20:54Z</time>
      </trkpt>
      <trkpt lat="46.69618" lon="6.00966">
        <ele>842.1</ele>
        <time>2022-03-03T12:21:01Z</time>
      </trkpt>
      <trkpt lat="46.69624" lon="6.00967">
        <ele>842.3</ele>
        <time>2022-03-03T12:21:06Z</time>
      </trkpt>
      <trkpt lat="46.69629" lon="6.00966">
        <ele>843</ele>
        <time>2022-03-03T12:21:10Z</time>
      </trkpt>
      <trkpt lat="46.69633" lon="6.00964">
        <ele>844</ele>
        <time>2022-03-03T12:21:14Z</time>
      </trkpt>
      <trkpt lat="46.69639" lon="6.00963">
        <ele>845.2</ele>
        <time>2022-03-03T12:21:18Z</time>
      </trkpt>
      <trkpt lat="46.69643" lon="6.00963">
        <ele>846.6</ele>
        <time>2022-03-03T12:21:23Z</time>
      </trkpt>
      <trkpt lat="46.69648" lon="6.0096">
        <ele>847.9</ele>
        <time>2022-03-03T12:21:28Z</time>
      </trkpt>
      <trkpt lat="46.69653" lon="6.00958">
        <ele>848.9</ele>
        <time>2022-03-03T12:21:32Z</time>
      </trkpt>
      <trkpt lat="46.69657" lon="6.00956">
        <ele>849.9</ele>
        <time>2022-03-03T12:21:37Z</time>
      </trkpt>
      <trkpt lat="46.69662" lon="6.00954">
        <ele>850.3</ele>
        <time>2022-03-03T12:21:41Z</time>
      </trkpt>
      <trkpt lat="46.69666" lon="6.00951">
        <ele>850.1</ele>
        <time>2022-03-03T12:21:46Z</time>
      </trkpt>
      <trkpt lat="46.69671" lon="6.00948">
        <ele>849.9</ele>
        <time>2022-03-03T12:21:50Z</time>
      </trkpt>
      <trkpt lat="46.69676" lon="6.00946">
        <ele>849.5</ele>
        <time>2022-03-03T12:21:55Z</time>
      </trkpt>
      <trkpt lat="46.69681" lon="6.00945">
        <ele>848.7</ele>
        <time>2022-03-03T12:22:01Z</time>
      </trkpt>
      <trkpt lat="46.69686" lon="6.00943">
        <ele>848.2</ele>
        <time>2022-03-03T12:22:06Z</time>
      </trkpt>
      <trkpt lat="46.69691" lon="6.00941">
        <ele>848.1</ele>
        <time>2022-03-03T12:22:11Z</time>
      </trkpt>
      <trkpt lat="46.69696" lon="6.00938">
        <ele>848.1</ele>
        <time>2022-03-03T12:22:17Z</time>
      </trkpt>
      <trkpt lat="46.69701" lon="6.00936">
        <ele>847.9</ele>
        <time>2022-03-03T12:22:22Z</time>
      </trkpt>
      <trkpt lat="46.69706" lon="6.00934">
        <ele>847.7</ele>
        <time>2022-03-03T12:22:26Z</time>
      </trkpt>
      <trkpt lat="46.69711" lon="6.00932">
        <ele>847.2</ele>
        <time>2022-03-03T12:22:32Z</time>
      </trkpt>
      <trkpt lat="46.69715" lon="6.00931">
        <ele>847.1</ele>
        <time>2022-03-03T12:22:36Z</time>
      </trkpt>
      <trkpt lat="46.6972" lon="6.00928">
        <ele>847.1</ele>
        <time>2022-03-03T12:22:40Z</time>
      </trkpt>
      <trkpt lat="46.69725" lon="6.00925">
        <ele>847.1</ele>
        <time>2022-03-03T12:22:45Z</time>
      </trkpt>
      <trkpt lat="46.6973" lon="6.00923">
        <ele>847.2</ele>
        <time>2022-03-03T12:22:49Z</time>
      </trkpt>
      <trkpt lat="46.69734" lon="6.0092">
        <ele>847.1</ele>
        <time>2022-03-03T12:22:53Z</time>
      </trkpt>
      <trkpt lat="46.6974" lon="6.00917">
        <ele>846.9</ele>
        <time>2022-03-03T12:22:57Z</time>
      </trkpt>
      <trkpt lat="46.69744" lon="6.00914">
        <ele>847</ele>
        <time>2022-03-03T12:23:01Z</time>
      </trkpt>
      <trkpt lat="46.69749" lon="6.00911">
        <ele>846.7</ele>
        <time>2022-03-03T12:23:07Z</time>
      </trkpt>
      <trkpt lat="46.69754" lon="6.00908">
        <ele>846.6</ele>
        <time>2022-03-03T12:23:11Z</time>
      </trkpt>
      <trkpt lat="46.69759" lon="6.00906">
        <ele>846.3</ele>
        <time>2022-03-03T12:23:16Z</time>
      </trkpt>
      <trkpt lat="46.69764" lon="6.00904">
        <ele>845.9</ele>
        <time>2022-03-03T12:23:21Z</time>
      </trkpt>
      <trkpt lat="46.69768" lon="6.00901">
        <ele>845.3</ele>
        <time>2022-03-03T12:23:28Z</time>
      </trkpt>
      <trkpt lat="46.69772" lon="6.00899">
        <ele>844.9</ele>
        <time>2022-03-03T12:23:33Z</time>
      </trkpt>
      <trkpt lat="46.69777" lon="6.00896">
        <ele>844.3</ele>
        <time>2022-03-03T12:23:38Z</time>
      </trkpt>
      <trkpt lat="46.69782" lon="6.00895">
        <ele>843.8</ele>
        <time>2022-03-03T12:23:43Z</time>
      </trkpt>
      <trkpt lat="46.69786" lon="6.00894">
        <ele>843.7</ele>
        <time>2022-03-03T12:23:48Z</time>
      </trkpt>
      <trkpt lat="46.69791" lon="6.00894">
        <ele>843.8</ele>
        <time>2022-03-03T12:23:53Z</time>
      </trkpt>
      <trkpt lat="46.69797" lon="6.00894">
        <ele>844.5</ele>
        <time>2022-03-03T12:23:58Z</time>
      </trkpt>
      <trkpt lat="46.69801" lon="6.00894">
        <ele>845.4</ele>
        <time>2022-03-03T12:24:03Z</time>
      </trkpt>
      <trkpt lat="46.69806" lon="6.00893">
        <ele>846.2</ele>
        <time>2022-03-03T12:24:07Z</time>
      </trkpt>
      <trkpt lat="46.69811" lon="6.00893">
        <ele>846.8</ele>
        <time>2022-03-03T12:24:12Z</time>
      </trkpt>
      <trkpt lat="46.69817" lon="6.00894">
        <ele>847.1</ele>
        <time>2022-03-03T12:24:17Z</time>
      </trkpt>
      <trkpt lat="46.69821" lon="6.00896">
        <ele>847.2</ele>
        <time>2022-03-03T12:24:22Z</time>
      </trkpt>
      <trkpt lat="46.69827" lon="6.00898">
        <ele>847</ele>
        <time>2022-03-03T12:24:27Z</time>
      </trkpt>
      <trkpt lat="46.69832" lon="6.009">
        <ele>847.5</ele>
        <time>2022-03-03T12:24:32Z</time>
      </trkpt>
      <trkpt lat="46.69837" lon="6.009">
        <ele>847.8</ele>
        <time>2022-03-03T12:24:37Z</time>
      </trkpt>
      <trkpt lat="46.69841" lon="6.00901">
        <ele>847.9</ele>
        <time>2022-03-03T12:24:41Z</time>
      </trkpt>
      <trkpt lat="46.69847" lon="6.00902">
        <ele>848</ele>
        <time>2022-03-03T12:24:45Z</time>
      </trkpt>
      <trkpt lat="46.69851" lon="6.00902">
        <ele>848.5</ele>
        <time>2022-03-03T12:24:50Z</time>
      </trkpt>
      <trkpt lat="46.69856" lon="6.00903">
        <ele>848.9</ele>
        <time>2022-03-03T12:24:55Z</time>
      </trkpt>
      <trkpt lat="46.69861" lon="6.00903">
        <ele>849.2</ele>
        <time>2022-03-03T12:25:00Z</time>
      </trkpt>
      <trkpt lat="46.69865" lon="6.00905">
        <ele>849.5</ele>
        <time>2022-03-03T12:25:05Z</time>
      </trkpt>
      <trkpt lat="46.6987" lon="6.00906">
        <ele>849.5</ele>
        <time>2022-03-03T12:25:10Z</time>
      </trkpt>
      <trkpt lat="46.69876" lon="6.00906">
        <ele>850</ele>
        <time>2022-03-03T12:25:15Z</time>
      </trkpt>
      <trkpt lat="46.69881" lon="6.00906">
        <ele>850.2</ele>
        <time>2022-03-03T12:25:20Z</time>
      </trkpt>
      <trkpt lat="46.69886" lon="6.00906">
        <ele>850.1</ele>
        <time>2022-03-03T12:25:25Z</time>
      </trkpt>
      <trkpt lat="46.69891" lon="6.00905">
        <ele>849.8</ele>
        <time>2022-03-03T12:25:30Z</time>
      </trkpt>
      <trkpt lat="46.69896" lon="6.00905">
        <ele>849.4</ele>
        <time>2022-03-03T12:25:35Z</time>
      </trkpt>
      <trkpt lat="46.699" lon="6.00904">
        <ele>849</ele>
        <time>2022-03-03T12:25:40Z</time>
      </trkpt>
      <trkpt lat="46.69905" lon="6.00903">
        <ele>848.6</ele>
        <time>2022-03-03T12:25:45Z</time>
      </trkpt>
      <trkpt lat="46.6991" lon="6.009">
        <ele>848.6</ele>
        <time>2022-03-03T12:25:50Z</time>
      </trkpt>
      <trkpt lat="46.69914" lon="6.00896">
        <ele>848.6</ele>
        <time>2022-03-03T12:25:56Z</time>
      </trkpt>
      <trkpt lat="46.69919" lon="6.00894">
        <ele>848.4</ele>
        <time>2022-03-03T12:26:02Z</time>
      </trkpt>
      <trkpt lat="46.69925" lon="6.00894">
        <ele>848.1</ele>
        <time>2022-03-03T12:26:08Z</time>
      </trkpt>
      <trkpt lat="46.6993" lon="6.00893">
        <ele>848.1</ele>
        <time>2022-03-03T12:26:13Z</time>
      </trkpt>
      <trkpt lat="46.69935" lon="6.0089">
        <ele>848.1</ele>
        <time>2022-03-03T12:26:18Z</time>
      </trkpt>
      <trkpt lat="46.6994" lon="6.00887">
        <ele>848.4</ele>
        <time>2022-03-03T12:26:23Z</time>
      </trkpt>
      <trkpt lat="46.69944" lon="6.00887">
        <ele>848.6</ele>
        <time>2022-03-03T12:26:28Z</time>
      </trkpt>
      <trkpt lat="46.69949" lon="6.00884">
        <ele>848.9</ele>
        <time>2022-03-03T12:26:33Z</time>
      </trkpt>
      <trkpt lat="46.69953" lon="6.00881">
        <ele>849.1</ele>
        <time>2022-03-03T12:26:38Z</time>
      </trkpt>
      <trkpt lat="46.69958" lon="6.00878">
        <ele>849</ele>
        <time>2022-03-03T12:26:43Z</time>
      </trkpt>
      <trkpt lat="46.69962" lon="6.00875">
        <ele>849</ele>
        <time>2022-03-03T12:26:48Z</time>
      </trkpt>
      <trkpt lat="46.69966" lon="6.0087">
        <ele>848.9</ele>
        <time>2022-03-03T12:26:54Z</time>
      </trkpt>
      <trkpt lat="46.6997" lon="6.00864">
        <ele>848.9</ele>
        <time>2022-03-03T12:27:00Z</time>
      </trkpt>
      <trkpt lat="46.69973" lon="6.00861">
        <ele>848.8</ele>
        <time>2022-03-03T12:27:04Z</time>
      </trkpt>
      <trkpt lat="46.69977" lon="6.00856">
        <ele>849.6</ele>
        <time>2022-03-03T12:27:09Z</time>
      </trkpt>
      <trkpt lat="46.69981" lon="6.0085">
        <ele>850.6</ele>
        <time>2022-03-03T12:27:14Z</time>
      </trkpt>
      <trkpt lat="46.69984" lon="6.00844">
        <ele>850.7</ele>
        <time>2022-03-03T12:27:19Z</time>
      </trkpt>
      <trkpt lat="46.69987" lon="6.00839">
        <ele>850.4</ele>
        <time>2022-03-03T12:27:24Z</time>
      </trkpt>
      <trkpt lat="46.69989" lon="6.00832">
        <ele>849.9</ele>
        <time>2022-03-03T12:27:29Z</time>
      </trkpt>
      <trkpt lat="46.69991" lon="6.00825">
        <ele>849.3</ele>
        <time>2022-03-03T12:27:34Z</time>
      </trkpt>
      <trkpt lat="46.69993" lon="6.00819">
        <ele>849</ele>
        <time>2022-03-03T12:27:39Z</time>
      </trkpt>
      <trkpt lat="46.69995" lon="6.00813">
        <ele>849.4</ele>
        <time>2022-03-03T12:27:44Z</time>
      </trkpt>
      <trkpt lat="46.69998" lon="6.00806">
        <ele>850.8</ele>
        <time>2022-03-03T12:27:49Z</time>
      </trkpt>
      <trkpt lat="46.70001" lon="6.008">
        <ele>852.2</ele>
        <time>2022-03-03T12:27:54Z</time>
      </trkpt>
      <trkpt lat="46.70005" lon="6.00795">
        <ele>852.8</ele>
        <time>2022-03-03T12:27:59Z</time>
      </trkpt>
      <trkpt lat="46.70006" lon="6.00788">
        <ele>853.6</ele>
        <time>2022-03-03T12:28:05Z</time>
      </trkpt>
      <trkpt lat="46.70007" lon="6.0078">
        <ele>853.9</ele>
        <time>2022-03-03T12:28:11Z</time>
      </trkpt>
      <trkpt lat="46.70008" lon="6.00773">
        <ele>854.2</ele>
        <time>2022-03-03T12:28:16Z</time>
      </trkpt>
      <trkpt lat="46.70007" lon="6.00765">
        <ele>854.6</ele>
        <time>2022-03-03T12:28:21Z</time>
      </trkpt>
      <trkpt lat="46.70006" lon="6.00758">
        <ele>855</ele>
        <time>2022-03-03T12:28:26Z</time>
      </trkpt>
      <trkpt lat="46.70006" lon="6.0075">
        <ele>855.7</ele>
        <time>2022-03-03T12:28:31Z</time>
      </trkpt>
      <trkpt lat="46.70006" lon="6.00743">
        <ele>856</ele>
        <time>2022-03-03T12:28:37Z</time>
      </trkpt>
      <trkpt lat="46.70008" lon="6.00736">
        <ele>855.9</ele>
        <time>2022-03-03T12:28:43Z</time>
      </trkpt>
      <trkpt lat="46.70007" lon="6.00729">
        <ele>855.5</ele>
        <time>2022-03-03T12:28:48Z</time>
      </trkpt>
      <trkpt lat="46.70008" lon="6.00721">
        <ele>855.1</ele>
        <time>2022-03-03T12:28:53Z</time>
      </trkpt>
      <trkpt lat="46.70011" lon="6.00716">
        <ele>854.6</ele>
        <time>2022-03-03T12:28:58Z</time>
      </trkpt>
      <trkpt lat="46.70015" lon="6.00712">
        <ele>854.1</ele>
        <time>2022-03-03T12:29:02Z</time>
      </trkpt>
      <trkpt lat="46.70019" lon="6.00709">
        <ele>853.6</ele>
        <time>2022-03-03T12:29:06Z</time>
      </trkpt>
      <trkpt lat="46.70023" lon="6.00703">
        <ele>852.9</ele>
        <time>2022-03-03T12:29:11Z</time>
      </trkpt>
      <trkpt lat="46.70026" lon="6.00698">
        <ele>852.8</ele>
        <time>2022-03-03T12:29:15Z</time>
      </trkpt>
      <trkpt lat="46.70028" lon="6.00693">
        <ele>852.5</ele>
        <time>2022-03-03T12:29:19Z</time>
      </trkpt>
      <trkpt lat="46.70032" lon="6.00687">
        <ele>852.1</ele>
        <time>2022-03-03T12:29:24Z</time>
      </trkpt>
      <trkpt lat="46.70036" lon="6.00682">
        <ele>851.6</ele>
        <time>2022-03-03T12:29:29Z</time>
      </trkpt>
      <trkpt lat="46.7004" lon="6.00678">
        <ele>851.4</ele>
        <time>2022-03-03T12:29:34Z</time>
      </trkpt>
      <trkpt lat="46.70043" lon="6.00672">
        <ele>851.3</ele>
        <time>2022-03-03T12:29:38Z</time>
      </trkpt>
      <trkpt lat="46.70045" lon="6.00667">
        <ele>851.2</ele>
        <time>2022-03-03T12:29:42Z</time>
      </trkpt>
      <trkpt lat="46.70048" lon="6.0066">
        <ele>851.1</ele>
        <time>2022-03-03T12:29:47Z</time>
      </trkpt>
      <trkpt lat="46.70051" lon="6.00656">
        <ele>851.1</ele>
        <time>2022-03-03T12:29:52Z</time>
      </trkpt>
      <trkpt lat="46.70055" lon="6.00652">
        <ele>851.7</ele>
        <time>2022-03-03T12:29:59Z</time>
      </trkpt>
      <trkpt lat="46.70059" lon="6.00648">
        <ele>852.3</ele>
        <time>2022-03-03T12:30:06Z</time>
      </trkpt>
      <trkpt lat="46.70064" lon="6.00646">
        <ele>852.6</ele>
        <time>2022-03-03T12:30:12Z</time>
      </trkpt>
      <trkpt lat="46.70067" lon="6.00641">
        <ele>852.9</ele>
        <time>2022-03-03T12:30:16Z</time>
      </trkpt>
      <trkpt lat="46.70069" lon="6.00634">
        <ele>853.3</ele>
        <time>2022-03-03T12:30:21Z</time>
      </trkpt>
      <trkpt lat="46.70071" lon="6.00627">
        <ele>855.6</ele>
        <time>2022-03-03T12:34:01Z</time>
      </trkpt>
      <trkpt lat="46.70074" lon="6.0062">
        <ele>856.4</ele>
        <time>2022-03-03T12:34:07Z</time>
      </trkpt>
      <trkpt lat="46.70076" lon="6.00613">
        <ele>856.4</ele>
        <time>2022-03-03T12:34:12Z</time>
      </trkpt>
      <trkpt lat="46.70077" lon="6.00606">
        <ele>856.2</ele>
        <time>2022-03-03T12:34:17Z</time>
      </trkpt>
      <trkpt lat="46.70078" lon="6.00599">
        <ele>855.9</ele>
        <time>2022-03-03T12:34:22Z</time>
      </trkpt>
      <trkpt lat="46.7008" lon="6.00592">
        <ele>855.8</ele>
        <time>2022-03-03T12:34:27Z</time>
      </trkpt>
      <trkpt lat="46.7008" lon="6.00586">
        <ele>855.5</ele>
        <time>2022-03-03T12:34:32Z</time>
      </trkpt>
      <trkpt lat="46.70082" lon="6.00579">
        <ele>854.9</ele>
        <time>2022-03-03T12:34:37Z</time>
      </trkpt>
      <trkpt lat="46.70083" lon="6.00571">
        <ele>854.9</ele>
        <time>2022-03-03T12:34:42Z</time>
      </trkpt>
      <trkpt lat="46.70083" lon="6.00564">
        <ele>854.9</ele>
        <time>2022-03-03T12:34:47Z</time>
      </trkpt>
      <trkpt lat="46.70082" lon="6.00557">
        <ele>854.6</ele>
        <time>2022-03-03T12:34:52Z</time>
      </trkpt>
      <trkpt lat="46.70081" lon="6.0055">
        <ele>854</ele>
        <time>2022-03-03T12:34:57Z</time>
      </trkpt>
      <trkpt lat="46.70081" lon="6.00542">
        <ele>853.9</ele>
        <time>2022-03-03T12:35:03Z</time>
      </trkpt>
      <trkpt lat="46.70079" lon="6.00536">
        <ele>854.1</ele>
        <time>2022-03-03T12:35:08Z</time>
      </trkpt>
      <trkpt lat="46.70076" lon="6.0053">
        <ele>854.5</ele>
        <time>2022-03-03T12:35:14Z</time>
      </trkpt>
      <trkpt lat="46.70076" lon="6.00523">
        <ele>854.8</ele>
        <time>2022-03-03T12:35:20Z</time>
      </trkpt>
      <trkpt lat="46.70075" lon="6.00515">
        <ele>855</ele>
        <time>2022-03-03T12:35:26Z</time>
      </trkpt>
      <trkpt lat="46.70074" lon="6.00508">
        <ele>854.9</ele>
        <time>2022-03-03T12:35:31Z</time>
      </trkpt>
      <trkpt lat="46.70074" lon="6.00501">
        <ele>854.7</ele>
        <time>2022-03-03T12:35:36Z</time>
      </trkpt>
      <trkpt lat="46.70075" lon="6.00494">
        <ele>854.8</ele>
        <time>2022-03-03T12:35:41Z</time>
      </trkpt>
      <trkpt lat="46.70077" lon="6.00487">
        <ele>854.9</ele>
        <time>2022-03-03T12:35:47Z</time>
      </trkpt>
      <trkpt lat="46.70078" lon="6.00479">
        <ele>855.1</ele>
        <time>2022-03-03T12:35:53Z</time>
      </trkpt>
      <trkpt lat="46.7008" lon="6.00473">
        <ele>855.1</ele>
        <time>2022-03-03T12:35:59Z</time>
      </trkpt>
      <trkpt lat="46.70083" lon="6.00467">
        <ele>855.2</ele>
        <time>2022-03-03T12:36:04Z</time>
      </trkpt>
      <trkpt lat="46.70085" lon="6.00461">
        <ele>855.3</ele>
        <time>2022-03-03T12:36:09Z</time>
      </trkpt>
      <trkpt lat="46.70088" lon="6.00456">
        <ele>855.2</ele>
        <time>2022-03-03T12:36:15Z</time>
      </trkpt>
      <trkpt lat="46.70092" lon="6.00452">
        <ele>855.1</ele>
        <time>2022-03-03T12:36:21Z</time>
      </trkpt>
      <trkpt lat="46.70097" lon="6.00448">
        <ele>855.2</ele>
        <time>2022-03-03T12:36:27Z</time>
      </trkpt>
      <trkpt lat="46.70102" lon="6.00444">
        <ele>855.4</ele>
        <time>2022-03-03T12:36:33Z</time>
      </trkpt>
      <trkpt lat="46.70107" lon="6.00442">
        <ele>855.6</ele>
        <time>2022-03-03T12:36:37Z</time>
      </trkpt>
      <trkpt lat="46.7011" lon="6.00438">
        <ele>856.1</ele>
        <time>2022-03-03T12:36:42Z</time>
      </trkpt>
      <trkpt lat="46.70113" lon="6.00432">
        <ele>856.9</ele>
        <time>2022-03-03T12:36:47Z</time>
      </trkpt>
      <trkpt lat="46.70116" lon="6.00426">
        <ele>857.3</ele>
        <time>2022-03-03T12:36:51Z</time>
      </trkpt>
      <trkpt lat="46.70118" lon="6.0042">
        <ele>857.8</ele>
        <time>2022-03-03T12:36:55Z</time>
      </trkpt>
      <trkpt lat="46.7012" lon="6.00414">
        <ele>858.3</ele>
        <time>2022-03-03T12:37:00Z</time>
      </trkpt>
      <trkpt lat="46.7012" lon="6.00407">
        <ele>858.9</ele>
        <time>2022-03-03T12:37:05Z</time>
      </trkpt>
      <trkpt lat="46.7012" lon="6.004">
        <ele>860.1</ele>
        <time>2022-03-03T12:37:11Z</time>
      </trkpt>
      <trkpt lat="46.70121" lon="6.00393">
        <ele>861.9</ele>
        <time>2022-03-03T12:37:17Z</time>
      </trkpt>
      <trkpt lat="46.70123" lon="6.00386">
        <ele>862.8</ele>
        <time>2022-03-03T12:37:23Z</time>
      </trkpt>
      <trkpt lat="46.70127" lon="6.00382">
        <ele>863.5</ele>
        <time>2022-03-03T12:37:28Z</time>
      </trkpt>
      <trkpt lat="46.7013" lon="6.00377">
        <ele>863.8</ele>
        <time>2022-03-03T12:37:33Z</time>
      </trkpt>
      <trkpt lat="46.70133" lon="6.0037">
        <ele>864.4</ele>
        <time>2022-03-03T12:37:38Z</time>
      </trkpt>
      <trkpt lat="46.70135" lon="6.00365">
        <ele>864.4</ele>
        <time>2022-03-03T12:37:42Z</time>
      </trkpt>
      <trkpt lat="46.70139" lon="6.00359">
        <ele>864.5</ele>
        <time>2022-03-03T12:37:46Z</time>
      </trkpt>
      <trkpt lat="46.70143" lon="6.00355">
        <ele>864.4</ele>
        <time>2022-03-03T12:37:50Z</time>
      </trkpt>
      <trkpt lat="46.70147" lon="6.00351">
        <ele>863.1</ele>
        <time>2022-03-03T12:37:58Z</time>
      </trkpt>
      <trkpt lat="46.70151" lon="6.00349">
        <ele>862.3</ele>
        <time>2022-03-03T12:38:05Z</time>
      </trkpt>
      <trkpt lat="46.70156" lon="6.00347">
        <ele>861.4</ele>
        <time>2022-03-03T12:38:10Z</time>
      </trkpt>
      <trkpt lat="46.70161" lon="6.00345">
        <ele>860.6</ele>
        <time>2022-03-03T12:38:16Z</time>
      </trkpt>
      <trkpt lat="46.70166" lon="6.00342">
        <ele>859.9</ele>
        <time>2022-03-03T12:38:21Z</time>
      </trkpt>
      <trkpt lat="46.70172" lon="6.00341">
        <ele>859.1</ele>
        <time>2022-03-03T12:38:25Z</time>
      </trkpt>
      <trkpt lat="46.70176" lon="6.00338">
        <ele>858.6</ele>
        <time>2022-03-03T12:38:28Z</time>
      </trkpt>
      <trkpt lat="46.70181" lon="6.00335">
        <ele>857.9</ele>
        <time>2022-03-03T12:38:32Z</time>
      </trkpt>
      <trkpt lat="46.70185" lon="6.00333">
        <ele>857.6</ele>
        <time>2022-03-03T12:38:36Z</time>
      </trkpt>
      <trkpt lat="46.7019" lon="6.00329">
        <ele>858</ele>
        <time>2022-03-03T12:38:42Z</time>
      </trkpt>
      <trkpt lat="46.70193" lon="6.00325">
        <ele>858.7</ele>
        <time>2022-03-03T12:38:47Z</time>
      </trkpt>
      <trkpt lat="46.70196" lon="6.0032">
        <ele>859.8</ele>
        <time>2022-03-03T12:38:52Z</time>
      </trkpt>
      <trkpt lat="46.70198" lon="6.00312">
        <ele>861.2</ele>
        <time>2022-03-03T12:39:06Z</time>
      </trkpt>
      <trkpt lat="46.70202" lon="6.00307">
        <ele>860.8</ele>
        <time>2022-03-03T12:39:12Z</time>
      </trkpt>
      <trkpt lat="46.70207" lon="6.00304">
        <ele>860.6</ele>
        <time>2022-03-03T12:39:17Z</time>
      </trkpt>
      <trkpt lat="46.70212" lon="6.00304">
        <ele>860.9</ele>
        <time>2022-03-03T12:39:22Z</time>
      </trkpt>
      <trkpt lat="46.70217" lon="6.00305">
        <ele>861.8</ele>
        <time>2022-03-03T12:39:29Z</time>
      </trkpt>
      <trkpt lat="46.70222" lon="6.00307">
        <ele>862.5</ele>
        <time>2022-03-03T12:39:36Z</time>
      </trkpt>
      <trkpt lat="46.70226" lon="6.00309">
        <ele>862.6</ele>
        <time>2022-03-03T12:39:42Z</time>
      </trkpt>
      <trkpt lat="46.70231" lon="6.00308">
        <ele>862.3</ele>
        <time>2022-03-03T12:39:47Z</time>
      </trkpt>
      <trkpt lat="46.70235" lon="6.00307">
        <ele>862.2</ele>
        <time>2022-03-03T12:39:51Z</time>
      </trkpt>
      <trkpt lat="46.70241" lon="6.00306">
        <ele>861.9</ele>
        <time>2022-03-03T12:39:55Z</time>
      </trkpt>
      <trkpt lat="46.70246" lon="6.00303">
        <ele>861.6</ele>
        <time>2022-03-03T12:40:00Z</time>
      </trkpt>
      <trkpt lat="46.70251" lon="6.00303">
        <ele>861.5</ele>
        <time>2022-03-03T12:40:05Z</time>
      </trkpt>
      <trkpt lat="46.70257" lon="6.00303">
        <ele>861.8</ele>
        <time>2022-03-03T12:40:10Z</time>
      </trkpt>
      <trkpt lat="46.70262" lon="6.00303">
        <ele>862.5</ele>
        <time>2022-03-03T12:40:15Z</time>
      </trkpt>
      <trkpt lat="46.70268" lon="6.00302">
        <ele>862.7</ele>
        <time>2022-03-03T12:40:20Z</time>
      </trkpt>
      <trkpt lat="46.70272" lon="6.00301">
        <ele>862.8</ele>
        <time>2022-03-03T12:40:25Z</time>
      </trkpt>
      <trkpt lat="46.70277" lon="6.00299">
        <ele>862.6</ele>
        <time>2022-03-03T12:40:30Z</time>
      </trkpt>
      <trkpt lat="46.70281" lon="6.00299">
        <ele>861.7</ele>
        <time>2022-03-03T12:40:34Z</time>
      </trkpt>
      <trkpt lat="46.70287" lon="6.00298">
        <ele>860.5</ele>
        <time>2022-03-03T12:40:39Z</time>
      </trkpt>
      <trkpt lat="46.70292" lon="6.00297">
        <ele>859.6</ele>
        <time>2022-03-03T12:40:44Z</time>
      </trkpt>
      <trkpt lat="46.70296" lon="6.00297">
        <ele>859.3</ele>
        <time>2022-03-03T12:40:48Z</time>
      </trkpt>
      <trkpt lat="46.70301" lon="6.00296">
        <ele>860.5</ele>
        <time>2022-03-03T12:40:55Z</time>
      </trkpt>
      <trkpt lat="46.70307" lon="6.00296">
        <ele>861.8</ele>
        <time>2022-03-03T12:41:01Z</time>
      </trkpt>
      <trkpt lat="46.70312" lon="6.00297">
        <ele>862.8</ele>
        <time>2022-03-03T12:41:05Z</time>
      </trkpt>
      <trkpt lat="46.70317" lon="6.00298">
        <ele>864.1</ele>
        <time>2022-03-03T12:41:09Z</time>
      </trkpt>
      <trkpt lat="46.70322" lon="6.00298">
        <ele>865.9</ele>
        <time>2022-03-03T12:41:13Z</time>
      </trkpt>
      <trkpt lat="46.70327" lon="6.00299">
        <ele>867.7</ele>
        <time>2022-03-03T12:41:17Z</time>
      </trkpt>
      <trkpt lat="46.70332" lon="6.00297">
        <ele>869.5</ele>
        <time>2022-03-03T12:41:22Z</time>
      </trkpt>
      <trkpt lat="46.70336" lon="6.00294">
        <ele>870.6</ele>
        <time>2022-03-03T12:41:28Z</time>
      </trkpt>
      <trkpt lat="46.70341" lon="6.0029">
        <ele>870.5</ele>
        <time>2022-03-03T12:41:33Z</time>
      </trkpt>
      <trkpt lat="46.70345" lon="6.00288">
        <ele>870</ele>
        <time>2022-03-03T12:41:36Z</time>
      </trkpt>
      <trkpt lat="46.7035" lon="6.00286">
        <ele>869.4</ele>
        <time>2022-03-03T12:41:39Z</time>
      </trkpt>
      <trkpt lat="46.70355" lon="6.00283">
        <ele>868.9</ele>
        <time>2022-03-03T12:41:42Z</time>
      </trkpt>
      <trkpt lat="46.7036" lon="6.0028">
        <ele>868.2</ele>
        <time>2022-03-03T12:41:46Z</time>
      </trkpt>
      <trkpt lat="46.70363" lon="6.00276">
        <ele>868.2</ele>
        <time>2022-03-03T12:41:51Z</time>
      </trkpt>
      <trkpt lat="46.70368" lon="6.00272">
        <ele>868.6</ele>
        <time>2022-03-03T12:41:56Z</time>
      </trkpt>
      <trkpt lat="46.70372" lon="6.00269">
        <ele>868.6</ele>
        <time>2022-03-03T12:42:01Z</time>
      </trkpt>
      <trkpt lat="46.70377" lon="6.00265">
        <ele>868.2</ele>
        <time>2022-03-03T12:42:07Z</time>
      </trkpt>
      <trkpt lat="46.7038" lon="6.00261">
        <ele>868</ele>
        <time>2022-03-03T12:42:12Z</time>
      </trkpt>
      <trkpt lat="46.70385" lon="6.00258">
        <ele>868.1</ele>
        <time>2022-03-03T12:42:18Z</time>
      </trkpt>
      <trkpt lat="46.70389" lon="6.00254">
        <ele>868.3</ele>
        <time>2022-03-03T12:42:24Z</time>
      </trkpt>
      <trkpt lat="46.70394" lon="6.00251">
        <ele>868.7</ele>
        <time>2022-03-03T12:42:29Z</time>
      </trkpt>
      <trkpt lat="46.70399" lon="6.00251">
        <ele>868.9</ele>
        <time>2022-03-03T12:42:34Z</time>
      </trkpt>
      <trkpt lat="46.70404" lon="6.00251">
        <ele>869.2</ele>
        <time>2022-03-03T12:42:38Z</time>
      </trkpt>
      <trkpt lat="46.7041" lon="6.00249">
        <ele>869.4</ele>
        <time>2022-03-03T12:42:42Z</time>
      </trkpt>
      <trkpt lat="46.70414" lon="6.00248">
        <ele>869.5</ele>
        <time>2022-03-03T12:42:47Z</time>
      </trkpt>
      <trkpt lat="46.70418" lon="6.00245">
        <ele>869.5</ele>
        <time>2022-03-03T12:42:52Z</time>
      </trkpt>
      <trkpt lat="46.70424" lon="6.00244">
        <ele>869.8</ele>
        <time>2022-03-03T12:42:57Z</time>
      </trkpt>
      <trkpt lat="46.70428" lon="6.00244">
        <ele>869.8</ele>
        <time>2022-03-03T12:43:02Z</time>
      </trkpt>
      <trkpt lat="46.70433" lon="6.00242">
        <ele>869.6</ele>
        <time>2022-03-03T12:43:08Z</time>
      </trkpt>
      <trkpt lat="46.70439" lon="6.00243">
        <ele>870.2</ele>
        <time>2022-03-03T12:43:15Z</time>
      </trkpt>
      <trkpt lat="46.70443" lon="6.00247">
        <ele>870.3</ele>
        <time>2022-03-03T12:43:20Z</time>
      </trkpt>
      <trkpt lat="46.70449" lon="6.0025">
        <ele>870.1</ele>
        <time>2022-03-03T12:43:24Z</time>
      </trkpt>
      <trkpt lat="46.70453" lon="6.00254">
        <ele>870.2</ele>
        <time>2022-03-03T12:43:28Z</time>
      </trkpt>
      <trkpt lat="46.70457" lon="6.00257">
        <ele>870.1</ele>
        <time>2022-03-03T12:43:38Z</time>
      </trkpt>
      <trkpt lat="46.70462" lon="6.00257">
        <ele>871.5</ele>
        <time>2022-03-03T12:43:51Z</time>
      </trkpt>
      <trkpt lat="46.70467" lon="6.00257">
        <ele>873.4</ele>
        <time>2022-03-03T12:43:55Z</time>
      </trkpt>
      <trkpt lat="46.70471" lon="6.00252">
        <ele>879.8</ele>
        <time>2022-03-03T12:44:31Z</time>
      </trkpt>
      <trkpt lat="46.70475" lon="6.00248">
        <ele>878.6</ele>
        <time>2022-03-03T12:44:36Z</time>
      </trkpt>
      <trkpt lat="46.7048" lon="6.00246">
        <ele>877.6</ele>
        <time>2022-03-03T12:44:40Z</time>
      </trkpt>
      <trkpt lat="46.70484" lon="6.00245">
        <ele>876.2</ele>
        <time>2022-03-03T12:44:44Z</time>
      </trkpt>
      <trkpt lat="46.7049" lon="6.00243">
        <ele>874.4</ele>
        <time>2022-03-03T12:44:49Z</time>
      </trkpt>
      <trkpt lat="46.70494" lon="6.00241">
        <ele>873</ele>
        <time>2022-03-03T12:44:53Z</time>
      </trkpt>
      <trkpt lat="46.705" lon="6.0024">
        <ele>871.7</ele>
        <time>2022-03-03T12:44:57Z</time>
      </trkpt>
      <trkpt lat="46.70505" lon="6.0024">
        <ele>870.8</ele>
        <time>2022-03-03T12:45:00Z</time>
      </trkpt>
      <trkpt lat="46.7051" lon="6.0024">
        <ele>869.6</ele>
        <time>2022-03-03T12:45:04Z</time>
      </trkpt>
      <trkpt lat="46.70515" lon="6.00239">
        <ele>868.3</ele>
        <time>2022-03-03T12:45:08Z</time>
      </trkpt>
      <trkpt lat="46.70521" lon="6.00239">
        <ele>866.7</ele>
        <time>2022-03-03T12:45:13Z</time>
      </trkpt>
      <trkpt lat="46.70526" lon="6.00238">
        <ele>865.9</ele>
        <time>2022-03-03T12:45:16Z</time>
      </trkpt>
      <trkpt lat="46.70531" lon="6.00238">
        <ele>865.4</ele>
        <time>2022-03-03T12:45:19Z</time>
      </trkpt>
      <trkpt lat="46.70535" lon="6.00236">
        <ele>864.3</ele>
        <time>2022-03-03T12:45:25Z</time>
      </trkpt>
      <trkpt lat="46.70541" lon="6.00233">
        <ele>862.9</ele>
        <time>2022-03-03T12:45:31Z</time>
      </trkpt>
      <trkpt lat="46.70545" lon="6.00231">
        <ele>862</ele>
        <time>2022-03-03T12:45:35Z</time>
      </trkpt>
      <trkpt lat="46.70551" lon="6.00231">
        <ele>861.2</ele>
        <time>2022-03-03T12:45:38Z</time>
      </trkpt>
      <trkpt lat="46.70556" lon="6.00231">
        <ele>860.3</ele>
        <time>2022-03-03T12:45:41Z</time>
      </trkpt>
      <trkpt lat="46.70561" lon="6.00231">
        <ele>859.5</ele>
        <time>2022-03-03T12:45:44Z</time>
      </trkpt>
      <trkpt lat="46.70566" lon="6.0023">
        <ele>858.5</ele>
        <time>2022-03-03T12:45:48Z</time>
      </trkpt>
      <trkpt lat="46.70571" lon="6.00231">
        <ele>857.9</ele>
        <time>2022-03-03T12:45:52Z</time>
      </trkpt>
      <trkpt lat="46.70576" lon="6.00231">
        <ele>857.4</ele>
        <time>2022-03-03T12:45:55Z</time>
      </trkpt>
      <trkpt lat="46.70581" lon="6.00233">
        <ele>856.8</ele>
        <time>2022-03-03T12:45:59Z</time>
      </trkpt>
      <trkpt lat="46.70587" lon="6.00235">
        <ele>856.4</ele>
        <time>2022-03-03T12:46:03Z</time>
      </trkpt>
      <trkpt lat="46.70592" lon="6.00236">
        <ele>855.9</ele>
        <time>2022-03-03T12:46:07Z</time>
      </trkpt>
      <trkpt lat="46.70597" lon="6.00237">
        <ele>855.1</ele>
        <time>2022-03-03T12:46:12Z</time>
      </trkpt>
      <trkpt lat="46.70601" lon="6.0024">
        <ele>854.8</ele>
        <time>2022-03-03T12:46:15Z</time>
      </trkpt>
      <trkpt lat="46.70606" lon="6.00241">
        <ele>854.8</ele>
        <time>2022-03-03T12:46:18Z</time>
      </trkpt>
      <trkpt lat="46.70612" lon="6.00243">
        <ele>854.9</ele>
        <time>2022-03-03T12:46:21Z</time>
      </trkpt>
      <trkpt lat="46.7062" lon="6.00245">
        <ele>855</ele>
        <time>2022-03-03T12:46:24Z</time>
      </trkpt>
      <trkpt lat="46.70626" lon="6.00249">
        <ele>855</ele>
        <time>2022-03-03T12:46:27Z</time>
      </trkpt>
      <trkpt lat="46.7063" lon="6.00254">
        <ele>855.5</ele>
        <time>2022-03-03T12:46:31Z</time>
      </trkpt>
      <trkpt lat="46.70635" lon="6.00259">
        <ele>856.4</ele>
        <time>2022-03-03T12:46:35Z</time>
      </trkpt>
      <trkpt lat="46.70639" lon="6.00265">
        <ele>857.9</ele>
        <time>2022-03-03T12:46:39Z</time>
      </trkpt>
      <trkpt lat="46.70643" lon="6.00269">
        <ele>859.1</ele>
        <time>2022-03-03T12:46:43Z</time>
      </trkpt>
      <trkpt lat="46.70647" lon="6.00272">
        <ele>859.5</ele>
        <time>2022-03-03T12:46:48Z</time>
      </trkpt>
      <trkpt lat="46.70651" lon="6.00277">
        <ele>859.2</ele>
        <time>2022-03-03T12:46:53Z</time>
      </trkpt>
      <trkpt lat="46.70654" lon="6.00283">
        <ele>859</ele>
        <time>2022-03-03T12:46:58Z</time>
      </trkpt>
      <trkpt lat="46.70657" lon="6.0029">
        <ele>859.5</ele>
        <time>2022-03-03T12:47:03Z</time>
      </trkpt>
      <trkpt lat="46.70661" lon="6.00294">
        <ele>860.3</ele>
        <time>2022-03-03T12:47:09Z</time>
      </trkpt>
      <trkpt lat="46.70664" lon="6.003">
        <ele>863</ele>
        <time>2022-03-03T12:48:54Z</time>
      </trkpt>
      <trkpt lat="46.70666" lon="6.00306">
        <ele>864.5</ele>
        <time>2022-03-03T12:49:00Z</time>
      </trkpt>
      <trkpt lat="46.70666" lon="6.00314">
        <ele>864.8</ele>
        <time>2022-03-03T12:49:05Z</time>
      </trkpt>
      <trkpt lat="46.70665" lon="6.00321">
        <ele>864.7</ele>
        <time>2022-03-03T12:49:10Z</time>
      </trkpt>
      <trkpt lat="46.70665" lon="6.00328">
        <ele>864.2</ele>
        <time>2022-03-03T12:49:15Z</time>
      </trkpt>
      <trkpt lat="46.70664" lon="6.00335">
        <ele>863.7</ele>
        <time>2022-03-03T12:49:19Z</time>
      </trkpt>
      <trkpt lat="46.70664" lon="6.00342">
        <ele>863.2</ele>
        <time>2022-03-03T12:49:23Z</time>
      </trkpt>
      <trkpt lat="46.70665" lon="6.00349">
        <ele>862.9</ele>
        <time>2022-03-03T12:49:28Z</time>
      </trkpt>
      <trkpt lat="46.70667" lon="6.00356">
        <ele>862.5</ele>
        <time>2022-03-03T12:49:33Z</time>
      </trkpt>
      <trkpt lat="46.70671" lon="6.00362">
        <ele>862</ele>
        <time>2022-03-03T12:49:38Z</time>
      </trkpt>
      <trkpt lat="46.70673" lon="6.00369">
        <ele>861.7</ele>
        <time>2022-03-03T12:49:43Z</time>
      </trkpt>
      <trkpt lat="46.70673" lon="6.00376">
        <ele>861</ele>
        <time>2022-03-03T12:49:47Z</time>
      </trkpt>
      <trkpt lat="46.70674" lon="6.00384">
        <ele>859.4</ele>
        <time>2022-03-03T12:49:53Z</time>
      </trkpt>
      <trkpt lat="46.70676" lon="6.0039">
        <ele>857.6</ele>
        <time>2022-03-03T12:49:58Z</time>
      </trkpt>
      <trkpt lat="46.70677" lon="6.00397">
        <ele>857</ele>
        <time>2022-03-03T12:50:04Z</time>
      </trkpt>
      <trkpt lat="46.70678" lon="6.00404">
        <ele>857.6</ele>
        <time>2022-03-03T12:50:09Z</time>
      </trkpt>
      <trkpt lat="46.70682" lon="6.00409">
        <ele>858.1</ele>
        <time>2022-03-03T12:50:13Z</time>
      </trkpt>
      <trkpt lat="46.70686" lon="6.00412">
        <ele>859</ele>
        <time>2022-03-03T12:50:16Z</time>
      </trkpt>
      <trkpt lat="46.70691" lon="6.00415">
        <ele>860.5</ele>
        <time>2022-03-03T12:50:20Z</time>
      </trkpt>
      <trkpt lat="46.70696" lon="6.00419">
        <ele>862.4</ele>
        <time>2022-03-03T12:50:24Z</time>
      </trkpt>
      <trkpt lat="46.707" lon="6.00423">
        <ele>863.8</ele>
        <time>2022-03-03T12:50:28Z</time>
      </trkpt>
      <trkpt lat="46.70702" lon="6.00431">
        <ele>864.7</ele>
        <time>2022-03-03T12:50:33Z</time>
      </trkpt>
      <trkpt lat="46.70703" lon="6.00437">
        <ele>865.1</ele>
        <time>2022-03-03T12:50:37Z</time>
      </trkpt>
      <trkpt lat="46.70703" lon="6.00445">
        <ele>866</ele>
        <time>2022-03-03T12:50:42Z</time>
      </trkpt>
      <trkpt lat="46.70703" lon="6.00452">
        <ele>867.2</ele>
        <time>2022-03-03T12:50:46Z</time>
      </trkpt>
      <trkpt lat="46.70705" lon="6.00458">
        <ele>868.2</ele>
        <time>2022-03-03T12:50:51Z</time>
      </trkpt>
      <trkpt lat="46.70706" lon="6.00464">
        <ele>868.8</ele>
        <time>2022-03-03T12:50:57Z</time>
      </trkpt>
      <trkpt lat="46.70707" lon="6.00472">
        <ele>869.9</ele>
        <time>2022-03-03T12:51:02Z</time>
      </trkpt>
      <trkpt lat="46.70706" lon="6.00479">
        <ele>871.2</ele>
        <time>2022-03-03T12:51:08Z</time>
      </trkpt>
      <trkpt lat="46.70705" lon="6.00487">
        <ele>871</ele>
        <time>2022-03-03T12:51:13Z</time>
      </trkpt>
      <trkpt lat="46.70705" lon="6.00495">
        <ele>870.4</ele>
        <time>2022-03-03T12:51:17Z</time>
      </trkpt>
      <trkpt lat="46.70707" lon="6.00503">
        <ele>868.9</ele>
        <time>2022-03-03T12:51:21Z</time>
      </trkpt>
      <trkpt lat="46.70708" lon="6.00509">
        <ele>867.5</ele>
        <time>2022-03-03T12:51:25Z</time>
      </trkpt>
      <trkpt lat="46.70709" lon="6.00516">
        <ele>866.7</ele>
        <time>2022-03-03T12:51:29Z</time>
      </trkpt>
      <trkpt lat="46.7071" lon="6.00523">
        <ele>865.7</ele>
        <time>2022-03-03T12:51:34Z</time>
      </trkpt>
      <trkpt lat="46.70713" lon="6.00529">
        <ele>864.9</ele>
        <time>2022-03-03T12:51:39Z</time>
      </trkpt>
      <trkpt lat="46.70715" lon="6.00536">
        <ele>864.6</ele>
        <time>2022-03-03T12:51:44Z</time>
      </trkpt>
      <trkpt lat="46.70716" lon="6.00544">
        <ele>864.8</ele>
        <time>2022-03-03T12:51:50Z</time>
      </trkpt>
      <trkpt lat="46.70719" lon="6.0055">
        <ele>864.9</ele>
        <time>2022-03-03T12:51:55Z</time>
      </trkpt>
      <trkpt lat="46.70722" lon="6.00556">
        <ele>864.3</ele>
        <time>2022-03-03T12:51:59Z</time>
      </trkpt>
      <trkpt lat="46.70726" lon="6.0056">
        <ele>863.6</ele>
        <time>2022-03-03T12:52:03Z</time>
      </trkpt>
      <trkpt lat="46.70729" lon="6.00565">
        <ele>862.6</ele>
        <time>2022-03-03T12:52:08Z</time>
      </trkpt>
      <trkpt lat="46.70732" lon="6.0057">
        <ele>862.1</ele>
        <time>2022-03-03T12:52:12Z</time>
      </trkpt>
      <trkpt lat="46.70737" lon="6.00573">
        <ele>861.1</ele>
        <time>2022-03-03T12:52:16Z</time>
      </trkpt>
      <trkpt lat="46.70741" lon="6.00578">
        <ele>859.9</ele>
        <time>2022-03-03T12:52:20Z</time>
      </trkpt>
      <trkpt lat="46.70745" lon="6.00583">
        <ele>858.4</ele>
        <time>2022-03-03T12:52:25Z</time>
      </trkpt>
      <trkpt lat="46.70749" lon="6.00588">
        <ele>857.2</ele>
        <time>2022-03-03T12:52:29Z</time>
      </trkpt>
      <trkpt lat="46.70751" lon="6.00594">
        <ele>856</ele>
        <time>2022-03-03T12:52:34Z</time>
      </trkpt>
      <trkpt lat="46.70753" lon="6.00601">
        <ele>855.1</ele>
        <time>2022-03-03T12:52:39Z</time>
      </trkpt>
      <trkpt lat="46.70754" lon="6.00608">
        <ele>854.6</ele>
        <time>2022-03-03T12:52:44Z</time>
      </trkpt>
      <trkpt lat="46.70756" lon="6.00614">
        <ele>854.2</ele>
        <time>2022-03-03T12:52:48Z</time>
      </trkpt>
      <trkpt lat="46.70758" lon="6.00621">
        <ele>854</ele>
        <time>2022-03-03T12:52:52Z</time>
      </trkpt>
      <trkpt lat="46.7076" lon="6.00628">
        <ele>853.9</ele>
        <time>2022-03-03T12:52:56Z</time>
      </trkpt>
      <trkpt lat="46.70761" lon="6.00635">
        <ele>853.6</ele>
        <time>2022-03-03T12:53:00Z</time>
      </trkpt>
      <trkpt lat="46.70761" lon="6.00643">
        <ele>853.4</ele>
        <time>2022-03-03T12:53:05Z</time>
      </trkpt>
      <trkpt lat="46.70762" lon="6.00649">
        <ele>853.4</ele>
        <time>2022-03-03T12:53:09Z</time>
      </trkpt>
      <trkpt lat="46.70763" lon="6.00656">
        <ele>853.2</ele>
        <time>2022-03-03T12:53:14Z</time>
      </trkpt>
      <trkpt lat="46.70765" lon="6.00663">
        <ele>853.6</ele>
        <time>2022-03-03T12:53:19Z</time>
      </trkpt>
      <trkpt lat="46.70769" lon="6.00669">
        <ele>854.5</ele>
        <time>2022-03-03T12:53:24Z</time>
      </trkpt>
      <trkpt lat="46.70772" lon="6.00675">
        <ele>855.4</ele>
        <time>2022-03-03T12:53:29Z</time>
      </trkpt>
      <trkpt lat="46.70775" lon="6.00681">
        <ele>856.3</ele>
        <time>2022-03-03T12:53:34Z</time>
      </trkpt>
      <trkpt lat="46.70777" lon="6.00687">
        <ele>856.8</ele>
        <time>2022-03-03T12:53:38Z</time>
      </trkpt>
      <trkpt lat="46.70779" lon="6.00693">
        <ele>857.4</ele>
        <time>2022-03-03T12:53:42Z</time>
      </trkpt>
      <trkpt lat="46.70781" lon="6.00701">
        <ele>857.4</ele>
        <time>2022-03-03T12:53:47Z</time>
      </trkpt>
      <trkpt lat="46.70781" lon="6.00709">
        <ele>857.4</ele>
        <time>2022-03-03T12:53:52Z</time>
      </trkpt>
      <trkpt lat="46.70783" lon="6.00716">
        <ele>857.2</ele>
        <time>2022-03-03T12:53:56Z</time>
      </trkpt>
      <trkpt lat="46.70784" lon="6.00723">
        <ele>856.9</ele>
        <time>2022-03-03T12:54:00Z</time>
      </trkpt>
      <trkpt lat="46.70784" lon="6.00731">
        <ele>856.5</ele>
        <time>2022-03-03T12:54:05Z</time>
      </trkpt>
      <trkpt lat="46.70785" lon="6.00738">
        <ele>856</ele>
        <time>2022-03-03T12:54:10Z</time>
      </trkpt>
      <trkpt lat="46.70785" lon="6.00745">
        <ele>855.9</ele>
        <time>2022-03-03T12:54:14Z</time>
      </trkpt>
      <trkpt lat="46.70786" lon="6.00752">
        <ele>856.1</ele>
        <time>2022-03-03T12:54:18Z</time>
      </trkpt>
      <trkpt lat="46.70787" lon="6.0076">
        <ele>855.9</ele>
        <time>2022-03-03T12:54:23Z</time>
      </trkpt>
      <trkpt lat="46.70791" lon="6.00765">
        <ele>855.9</ele>
        <time>2022-03-03T12:54:27Z</time>
      </trkpt>
      <trkpt lat="46.70795" lon="6.0077">
        <ele>855.8</ele>
        <time>2022-03-03T12:54:31Z</time>
      </trkpt>
      <trkpt lat="46.70798" lon="6.00775">
        <ele>855.5</ele>
        <time>2022-03-03T12:54:35Z</time>
      </trkpt>
      <trkpt lat="46.70803" lon="6.0078">
        <ele>855.4</ele>
        <time>2022-03-03T12:54:39Z</time>
      </trkpt>
      <trkpt lat="46.70806" lon="6.00786">
        <ele>855.1</ele>
        <time>2022-03-03T12:54:44Z</time>
      </trkpt>
      <trkpt lat="46.70809" lon="6.00792">
        <ele>854.9</ele>
        <time>2022-03-03T12:54:49Z</time>
      </trkpt>
      <trkpt lat="46.70811" lon="6.00799">
        <ele>854.6</ele>
        <time>2022-03-03T12:54:54Z</time>
      </trkpt>
      <trkpt lat="46.70815" lon="6.00804">
        <ele>854</ele>
        <time>2022-03-03T12:54:58Z</time>
      </trkpt>
      <trkpt lat="46.70819" lon="6.00809">
        <ele>853.7</ele>
        <time>2022-03-03T12:55:02Z</time>
      </trkpt>
      <trkpt lat="46.70823" lon="6.00815">
        <ele>853.7</ele>
        <time>2022-03-03T12:55:07Z</time>
      </trkpt>
      <trkpt lat="46.70825" lon="6.00821">
        <ele>853.8</ele>
        <time>2022-03-03T12:55:12Z</time>
      </trkpt>
      <trkpt lat="46.70828" lon="6.00828">
        <ele>854</ele>
        <time>2022-03-03T12:55:17Z</time>
      </trkpt>
      <trkpt lat="46.70831" lon="6.00833">
        <ele>853.6</ele>
        <time>2022-03-03T12:55:22Z</time>
      </trkpt>
      <trkpt lat="46.70832" lon="6.0084">
        <ele>853.1</ele>
        <time>2022-03-03T12:55:27Z</time>
      </trkpt>
      <trkpt lat="46.70835" lon="6.00846">
        <ele>852.8</ele>
        <time>2022-03-03T12:55:32Z</time>
      </trkpt>
      <trkpt lat="46.70838" lon="6.00851">
        <ele>852.8</ele>
        <time>2022-03-03T12:55:36Z</time>
      </trkpt>
      <trkpt lat="46.70842" lon="6.00856">
        <ele>852.8</ele>
        <time>2022-03-03T12:55:41Z</time>
      </trkpt>
      <trkpt lat="46.70845" lon="6.00861">
        <ele>852.7</ele>
        <time>2022-03-03T12:55:46Z</time>
      </trkpt>
      <trkpt lat="46.70849" lon="6.00865">
        <ele>852.3</ele>
        <time>2022-03-03T12:55:50Z</time>
      </trkpt>
      <trkpt lat="46.70854" lon="6.00868">
        <ele>851.5</ele>
        <time>2022-03-03T12:55:55Z</time>
      </trkpt>
      <trkpt lat="46.70858" lon="6.00871">
        <ele>851.3</ele>
        <time>2022-03-03T12:55:59Z</time>
      </trkpt>
      <trkpt lat="46.70862" lon="6.00876">
        <ele>851.6</ele>
        <time>2022-03-03T12:56:03Z</time>
      </trkpt>
      <trkpt lat="46.70866" lon="6.0088">
        <ele>852</ele>
        <time>2022-03-03T12:56:06Z</time>
      </trkpt>
      <trkpt lat="46.70869" lon="6.00885">
        <ele>852.3</ele>
        <time>2022-03-03T12:56:10Z</time>
      </trkpt>
      <trkpt lat="46.70873" lon="6.0089">
        <ele>853</ele>
        <time>2022-03-03T12:56:15Z</time>
      </trkpt>
      <trkpt lat="46.70876" lon="6.00896">
        <ele>853.8</ele>
        <time>2022-03-03T12:56:20Z</time>
      </trkpt>
      <trkpt lat="46.70878" lon="6.00902">
        <ele>854</ele>
        <time>2022-03-03T12:56:24Z</time>
      </trkpt>
      <trkpt lat="46.70881" lon="6.00908">
        <ele>854.3</ele>
        <time>2022-03-03T12:56:28Z</time>
      </trkpt>
      <trkpt lat="46.70883" lon="6.00914">
        <ele>854.4</ele>
        <time>2022-03-03T12:56:32Z</time>
      </trkpt>
      <trkpt lat="46.70885" lon="6.0092">
        <ele>854</ele>
        <time>2022-03-03T12:56:37Z</time>
      </trkpt>
      <trkpt lat="46.70889" lon="6.00925">
        <ele>853.1</ele>
        <time>2022-03-03T12:56:41Z</time>
      </trkpt>
      <trkpt lat="46.70892" lon="6.00929">
        <ele>852.3</ele>
        <time>2022-03-03T12:56:46Z</time>
      </trkpt>
      <trkpt lat="46.70897" lon="6.0093">
        <ele>851.6</ele>
        <time>2022-03-03T12:56:52Z</time>
      </trkpt>
      <trkpt lat="46.709" lon="6.00936">
        <ele>850.8</ele>
        <time>2022-03-03T12:56:57Z</time>
      </trkpt>
      <trkpt lat="46.70902" lon="6.00942">
        <ele>850</ele>
        <time>2022-03-03T12:57:01Z</time>
      </trkpt>
      <trkpt lat="46.70906" lon="6.00947">
        <ele>849.2</ele>
        <time>2022-03-03T12:57:05Z</time>
      </trkpt>
      <trkpt lat="46.70911" lon="6.00949">
        <ele>848.4</ele>
        <time>2022-03-03T12:57:09Z</time>
      </trkpt>
      <trkpt lat="46.70916" lon="6.00951">
        <ele>847.9</ele>
        <time>2022-03-03T12:57:13Z</time>
      </trkpt>
      <trkpt lat="46.70921" lon="6.00954">
        <ele>847.3</ele>
        <time>2022-03-03T12:57:17Z</time>
      </trkpt>
      <trkpt lat="46.70925" lon="6.00956">
        <ele>847</ele>
        <time>2022-03-03T12:57:20Z</time>
      </trkpt>
      <trkpt lat="46.70929" lon="6.0096">
        <ele>846.5</ele>
        <time>2022-03-03T12:57:24Z</time>
      </trkpt>
      <trkpt lat="46.70932" lon="6.00967">
        <ele>846.3</ele>
        <time>2022-03-03T12:57:28Z</time>
      </trkpt>
      <trkpt lat="46.70933" lon="6.00974">
        <ele>846.1</ele>
        <time>2022-03-03T12:57:32Z</time>
      </trkpt>
      <trkpt lat="46.70934" lon="6.00981">
        <ele>845.7</ele>
        <time>2022-03-03T12:57:37Z</time>
      </trkpt>
      <trkpt lat="46.70934" lon="6.00988">
        <ele>845.3</ele>
        <time>2022-03-03T12:57:41Z</time>
      </trkpt>
      <trkpt lat="46.70932" lon="6.00995">
        <ele>844.4</ele>
        <time>2022-03-03T12:57:46Z</time>
      </trkpt>
      <trkpt lat="46.70928" lon="6.01">
        <ele>843.8</ele>
        <time>2022-03-03T12:57:51Z</time>
      </trkpt>
      <trkpt lat="46.70925" lon="6.01004">
        <ele>843.3</ele>
        <time>2022-03-03T12:57:55Z</time>
      </trkpt>
      <trkpt lat="46.70921" lon="6.0101">
        <ele>842.5</ele>
        <time>2022-03-03T12:58:00Z</time>
      </trkpt>
      <trkpt lat="46.70917" lon="6.01014">
        <ele>840.9</ele>
        <time>2022-03-03T12:58:05Z</time>
      </trkpt>
      <trkpt lat="46.70912" lon="6.01019">
        <ele>839.6</ele>
        <time>2022-03-03T12:58:09Z</time>
      </trkpt>
      <trkpt lat="46.70908" lon="6.01024">
        <ele>838.2</ele>
        <time>2022-03-03T12:58:14Z</time>
      </trkpt>
      <trkpt lat="46.70905" lon="6.0103">
        <ele>836.9</ele>
        <time>2022-03-03T12:58:19Z</time>
      </trkpt>
      <trkpt lat="46.70901" lon="6.01035">
        <ele>835.9</ele>
        <time>2022-03-03T12:58:23Z</time>
      </trkpt>
      <trkpt lat="46.70896" lon="6.0104">
        <ele>835.1</ele>
        <time>2022-03-03T12:58:28Z</time>
      </trkpt>
      <trkpt lat="46.70893" lon="6.01045">
        <ele>834.7</ele>
        <time>2022-03-03T12:58:32Z</time>
      </trkpt>
      <trkpt lat="46.7089" lon="6.0105">
        <ele>834.2</ele>
        <time>2022-03-03T12:58:36Z</time>
      </trkpt>
      <trkpt lat="46.70887" lon="6.01056">
        <ele>834</ele>
        <time>2022-03-03T12:58:40Z</time>
      </trkpt>
      <trkpt lat="46.70886" lon="6.01062">
        <ele>834</ele>
        <time>2022-03-03T12:58:44Z</time>
      </trkpt>
      <trkpt lat="46.70886" lon="6.0107">
        <ele>834.1</ele>
        <time>2022-03-03T12:58:48Z</time>
      </trkpt>
      <trkpt lat="46.70887" lon="6.01077">
        <ele>834.4</ele>
        <time>2022-03-03T12:58:52Z</time>
      </trkpt>
      <trkpt lat="46.70888" lon="6.01084">
        <ele>835</ele>
        <time>2022-03-03T12:58:57Z</time>
      </trkpt>
      <trkpt lat="46.70889" lon="6.01091">
        <ele>836.1</ele>
        <time>2022-03-03T12:59:02Z</time>
      </trkpt>
      <trkpt lat="46.7089" lon="6.01099">
        <ele>836.9</ele>
        <time>2022-03-03T12:59:07Z</time>
      </trkpt>
      <trkpt lat="46.70893" lon="6.01105">
        <ele>836.8</ele>
        <time>2022-03-03T12:59:12Z</time>
      </trkpt>
      <trkpt lat="46.70897" lon="6.0111">
        <ele>836.4</ele>
        <time>2022-03-03T12:59:16Z</time>
      </trkpt>
      <trkpt lat="46.709" lon="6.01115">
        <ele>835.5</ele>
        <time>2022-03-03T12:59:21Z</time>
      </trkpt>
      <trkpt lat="46.70903" lon="6.0112">
        <ele>834.5</ele>
        <time>2022-03-03T12:59:26Z</time>
      </trkpt>
      <trkpt lat="46.70905" lon="6.01127">
        <ele>834.5</ele>
        <time>2022-03-03T12:59:30Z</time>
      </trkpt>
      <trkpt lat="46.70907" lon="6.01132">
        <ele>834.7</ele>
        <time>2022-03-03T12:59:34Z</time>
      </trkpt>
      <trkpt lat="46.7091" lon="6.01137">
        <ele>834.7</ele>
        <time>2022-03-03T12:59:38Z</time>
      </trkpt>
      <trkpt lat="46.70914" lon="6.01142">
        <ele>834.7</ele>
        <time>2022-03-03T12:59:43Z</time>
      </trkpt>
      <trkpt lat="46.70918" lon="6.01146">
        <ele>834.9</ele>
        <time>2022-03-03T12:59:47Z</time>
      </trkpt>
      <trkpt lat="46.70922" lon="6.0115">
        <ele>834.8</ele>
        <time>2022-03-03T12:59:51Z</time>
      </trkpt>
      <trkpt lat="46.70927" lon="6.01154">
        <ele>834.4</ele>
        <time>2022-03-03T12:59:56Z</time>
      </trkpt>
      <trkpt lat="46.70931" lon="6.01155">
        <ele>833.4</ele>
        <time>2022-03-03T13:00:00Z</time>
      </trkpt>
      <trkpt lat="46.70936" lon="6.01158">
        <ele>832.2</ele>
        <time>2022-03-03T13:00:05Z</time>
      </trkpt>
      <trkpt lat="46.70941" lon="6.01162">
        <ele>830.7</ele>
        <time>2022-03-03T13:00:11Z</time>
      </trkpt>
      <trkpt lat="46.70943" lon="6.01168">
        <ele>830.2</ele>
        <time>2022-03-03T13:00:16Z</time>
      </trkpt>
      <trkpt lat="46.70947" lon="6.01173">
        <ele>829.4</ele>
        <time>2022-03-03T13:00:22Z</time>
      </trkpt>
      <trkpt lat="46.70951" lon="6.01177">
        <ele>828</ele>
        <time>2022-03-03T13:00:28Z</time>
      </trkpt>
      <trkpt lat="46.70953" lon="6.01183">
        <ele>827</ele>
        <time>2022-03-03T13:00:33Z</time>
      </trkpt>
      <trkpt lat="46.70956" lon="6.0119">
        <ele>825.5</ele>
        <time>2022-03-03T13:00:38Z</time>
      </trkpt>
      <trkpt lat="46.7096" lon="6.01195">
        <ele>824.1</ele>
        <time>2022-03-03T13:00:42Z</time>
      </trkpt>
      <trkpt lat="46.70964" lon="6.01198">
        <ele>822.7</ele>
        <time>2022-03-03T13:00:46Z</time>
      </trkpt>
      <trkpt lat="46.70968" lon="6.01202">
        <ele>821.6</ele>
        <time>2022-03-03T13:00:51Z</time>
      </trkpt>
      <trkpt lat="46.70973" lon="6.01203">
        <ele>820.3</ele>
        <time>2022-03-03T13:00:57Z</time>
      </trkpt>
      <trkpt lat="46.70977" lon="6.01203">
        <ele>819.2</ele>
        <time>2022-03-03T13:01:01Z</time>
      </trkpt>
      <trkpt lat="46.70983" lon="6.01203">
        <ele>818.5</ele>
        <time>2022-03-03T13:01:05Z</time>
      </trkpt>
      <trkpt lat="46.70988" lon="6.01204">
        <ele>818.1</ele>
        <time>2022-03-03T13:01:08Z</time>
      </trkpt>
      <trkpt lat="46.70992" lon="6.01204">
        <ele>817.7</ele>
        <time>2022-03-03T13:01:12Z</time>
      </trkpt>
      <trkpt lat="46.70998" lon="6.01206">
        <ele>817.5</ele>
        <time>2022-03-03T13:01:17Z</time>
      </trkpt>
      <trkpt lat="46.71003" lon="6.01208">
        <ele>817.3</ele>
        <time>2022-03-03T13:01:22Z</time>
      </trkpt>
      <trkpt lat="46.71008" lon="6.01209">
        <ele>817.8</ele>
        <time>2022-03-03T13:01:26Z</time>
      </trkpt>
      <trkpt lat="46.71013" lon="6.0121">
        <ele>818.8</ele>
        <time>2022-03-03T13:01:30Z</time>
      </trkpt>
      <trkpt lat="46.71018" lon="6.0121">
        <ele>819.6</ele>
        <time>2022-03-03T13:01:34Z</time>
      </trkpt>
      <trkpt lat="46.71021" lon="6.01215">
        <ele>820.5</ele>
        <time>2022-03-03T13:01:44Z</time>
      </trkpt>
      <trkpt lat="46.71026" lon="6.01213">
        <ele>818.8</ele>
        <time>2022-03-03T13:01:59Z</time>
      </trkpt>
      <trkpt lat="46.71031" lon="6.01213">
        <ele>818.3</ele>
        <time>2022-03-03T13:02:02Z</time>
      </trkpt>
      <trkpt lat="46.71035" lon="6.01212">
        <ele>817.9</ele>
        <time>2022-03-03T13:02:05Z</time>
      </trkpt>
      <trkpt lat="46.7104" lon="6.01209">
        <ele>817.5</ele>
        <time>2022-03-03T13:02:09Z</time>
      </trkpt>
      <trkpt lat="46.71045" lon="6.01206">
        <ele>817.2</ele>
        <time>2022-03-03T13:02:14Z</time>
      </trkpt>
      <trkpt lat="46.7105" lon="6.01205">
        <ele>817.1</ele>
        <time>2022-03-03T13:02:18Z</time>
      </trkpt>
      <trkpt lat="46.71054" lon="6.01202">
        <ele>817.1</ele>
        <time>2022-03-03T13:02:23Z</time>
      </trkpt>
      <trkpt lat="46.71057" lon="6.01197">
        <ele>817.3</ele>
        <time>2022-03-03T13:02:28Z</time>
      </trkpt>
      <trkpt lat="46.71061" lon="6.01193">
        <ele>817.6</ele>
        <time>2022-03-03T13:02:33Z</time>
      </trkpt>
      <trkpt lat="46.71066" lon="6.01192">
        <ele>818.1</ele>
        <time>2022-03-03T13:02:39Z</time>
      </trkpt>
      <trkpt lat="46.71072" lon="6.01191">
        <ele>818.3</ele>
        <time>2022-03-03T13:02:44Z</time>
      </trkpt>
      <trkpt lat="46.71076" lon="6.01191">
        <ele>818.4</ele>
        <time>2022-03-03T13:02:48Z</time>
      </trkpt>
      <trkpt lat="46.71081" lon="6.01192">
        <ele>818.8</ele>
        <time>2022-03-03T13:02:53Z</time>
      </trkpt>
      <trkpt lat="46.71086" lon="6.01192">
        <ele>819.2</ele>
        <time>2022-03-03T13:02:58Z</time>
      </trkpt>
      <trkpt lat="46.71091" lon="6.01189">
        <ele>820.3</ele>
        <time>2022-03-03T13:03:05Z</time>
      </trkpt>
      <trkpt lat="46.71094" lon="6.01185">
        <ele>821.1</ele>
        <time>2022-03-03T13:03:10Z</time>
      </trkpt>
      <trkpt lat="46.71099" lon="6.01182">
        <ele>821.9</ele>
        <time>2022-03-03T13:03:14Z</time>
      </trkpt>
      <trkpt lat="46.71104" lon="6.01182">
        <ele>822.8</ele>
        <time>2022-03-03T13:03:19Z</time>
      </trkpt>
      <trkpt lat="46.71109" lon="6.01182">
        <ele>823.6</ele>
        <time>2022-03-03T13:03:24Z</time>
      </trkpt>
      <trkpt lat="46.71114" lon="6.01183">
        <ele>823.7</ele>
        <time>2022-03-03T13:03:29Z</time>
      </trkpt>
      <trkpt lat="46.71119" lon="6.01183">
        <ele>823.3</ele>
        <time>2022-03-03T13:03:33Z</time>
      </trkpt>
      <trkpt lat="46.71124" lon="6.01182">
        <ele>823.2</ele>
        <time>2022-03-03T13:03:37Z</time>
      </trkpt>
      <trkpt lat="46.71129" lon="6.01182">
        <ele>823</ele>
        <time>2022-03-03T13:03:42Z</time>
      </trkpt>
      <trkpt lat="46.71134" lon="6.01182">
        <ele>822.2</ele>
        <time>2022-03-03T13:03:48Z</time>
      </trkpt>
      <trkpt lat="46.71139" lon="6.01182">
        <ele>820.6</ele>
        <time>2022-03-03T13:03:55Z</time>
      </trkpt>
      <trkpt lat="46.71144" lon="6.01183">
        <ele>819.3</ele>
        <time>2022-03-03T13:04:00Z</time>
      </trkpt>
      <trkpt lat="46.71149" lon="6.01184">
        <ele>818.1</ele>
        <time>2022-03-03T13:04:05Z</time>
      </trkpt>
      <trkpt lat="46.71154" lon="6.01185">
        <ele>817.1</ele>
        <time>2022-03-03T13:04:09Z</time>
      </trkpt>
      <trkpt lat="46.71158" lon="6.01185">
        <ele>816.5</ele>
        <time>2022-03-03T13:04:12Z</time>
      </trkpt>
      <trkpt lat="46.71163" lon="6.01186">
        <ele>815.9</ele>
        <time>2022-03-03T13:04:15Z</time>
      </trkpt>
      <trkpt lat="46.71167" lon="6.01188">
        <ele>815.1</ele>
        <time>2022-03-03T13:04:19Z</time>
      </trkpt>
      <trkpt lat="46.71173" lon="6.01189">
        <ele>813.9</ele>
        <time>2022-03-03T13:04:24Z</time>
      </trkpt>
      <trkpt lat="46.71177" lon="6.01192">
        <ele>812.3</ele>
        <time>2022-03-03T13:04:29Z</time>
      </trkpt>
      <trkpt lat="46.71182" lon="6.01195">
        <ele>811</ele>
        <time>2022-03-03T13:04:34Z</time>
      </trkpt>
      <trkpt lat="46.71187" lon="6.01196">
        <ele>809</ele>
        <time>2022-03-03T13:04:39Z</time>
      </trkpt>
      <trkpt lat="46.71192" lon="6.01198">
        <ele>807.5</ele>
        <time>2022-03-03T13:04:43Z</time>
      </trkpt>
      <trkpt lat="46.71197" lon="6.01199">
        <ele>806.9</ele>
        <time>2022-03-03T13:04:47Z</time>
      </trkpt>
      <trkpt lat="46.71201" lon="6.012">
        <ele>806.7</ele>
        <time>2022-03-03T13:04:53Z</time>
      </trkpt>
      <trkpt lat="46.71206" lon="6.012">
        <ele>806.1</ele>
        <time>2022-03-03T13:04:56Z</time>
      </trkpt>
      <trkpt lat="46.71211" lon="6.012">
        <ele>804.4</ele>
        <time>2022-03-03T13:05:00Z</time>
      </trkpt>
      <trkpt lat="46.71217" lon="6.012">
        <ele>802.8</ele>
        <time>2022-03-03T13:05:04Z</time>
      </trkpt>
      <trkpt lat="46.71222" lon="6.01199">
        <ele>801.8</ele>
        <time>2022-03-03T13:05:07Z</time>
      </trkpt>
      <trkpt lat="46.71226" lon="6.01197">
        <ele>800.5</ele>
        <time>2022-03-03T13:05:11Z</time>
      </trkpt>
      <trkpt lat="46.71231" lon="6.01196">
        <ele>799</ele>
        <time>2022-03-03T13:05:15Z</time>
      </trkpt>
      <trkpt lat="46.71236" lon="6.01196">
        <ele>796.8</ele>
        <time>2022-03-03T13:05:20Z</time>
      </trkpt>
      <trkpt lat="46.71241" lon="6.01193">
        <ele>794.1</ele>
        <time>2022-03-03T13:05:25Z</time>
      </trkpt>
      <trkpt lat="46.71246" lon="6.0119">
        <ele>792.2</ele>
        <time>2022-03-03T13:05:29Z</time>
      </trkpt>
      <trkpt lat="46.71249" lon="6.01185">
        <ele>791.2</ele>
        <time>2022-03-03T13:05:33Z</time>
      </trkpt>
      <trkpt lat="46.7125" lon="6.01178">
        <ele>791.1</ele>
        <time>2022-03-03T13:05:38Z</time>
      </trkpt>
      <trkpt lat="46.71255" lon="6.01174">
        <ele>791.8</ele>
        <time>2022-03-03T13:05:44Z</time>
      </trkpt>
      <trkpt lat="46.71259" lon="6.0117">
        <ele>792.4</ele>
        <time>2022-03-03T13:05:48Z</time>
      </trkpt>
      <trkpt lat="46.71262" lon="6.01164">
        <ele>793</ele>
        <time>2022-03-03T13:05:52Z</time>
      </trkpt>
      <trkpt lat="46.71265" lon="6.01157">
        <ele>793.3</ele>
        <time>2022-03-03T13:05:57Z</time>
      </trkpt>
      <trkpt lat="46.71266" lon="6.0115">
        <ele>793.7</ele>
        <time>2022-03-03T13:06:01Z</time>
      </trkpt>
      <trkpt lat="46.71265" lon="6.01142">
        <ele>794.1</ele>
        <time>2022-03-03T13:06:05Z</time>
      </trkpt>
      <trkpt lat="46.71268" lon="6.01135">
        <ele>794.5</ele>
        <time>2022-03-03T13:06:10Z</time>
      </trkpt>
      <trkpt lat="46.7127" lon="6.01129">
        <ele>795</ele>
        <time>2022-03-03T13:06:14Z</time>
      </trkpt>
      <trkpt lat="46.71272" lon="6.01123">
        <ele>795.6</ele>
        <time>2022-03-03T13:06:18Z</time>
      </trkpt>
      <trkpt lat="46.71274" lon="6.01116">
        <ele>796.5</ele>
        <time>2022-03-03T13:06:24Z</time>
      </trkpt>
      <trkpt lat="46.71276" lon="6.01109">
        <ele>797.7</ele>
        <time>2022-03-03T13:06:30Z</time>
      </trkpt>
      <trkpt lat="46.71279" lon="6.01102">
        <ele>798.8</ele>
        <time>2022-03-03T13:06:34Z</time>
      </trkpt>
      <trkpt lat="46.7128" lon="6.01095">
        <ele>800.2</ele>
        <time>2022-03-03T13:06:38Z</time>
      </trkpt>
      <trkpt lat="46.71281" lon="6.01088">
        <ele>802.1</ele>
        <time>2022-03-03T13:06:43Z</time>
      </trkpt>
      <trkpt lat="46.71284" lon="6.01082">
        <ele>804</ele>
        <time>2022-03-03T13:06:48Z</time>
      </trkpt>
      <trkpt lat="46.71288" lon="6.01079">
        <ele>807.7</ele>
        <time>2022-03-03T13:07:01Z</time>
      </trkpt>
      <trkpt lat="46.71288" lon="6.01071">
        <ele>811.1</ele>
        <time>2022-03-03T13:08:34Z</time>
      </trkpt>
      <trkpt lat="46.71292" lon="6.01066">
        <ele>810.8</ele>
        <time>2022-03-03T13:08:38Z</time>
      </trkpt>
      <trkpt lat="46.71296" lon="6.01061">
        <ele>810.3</ele>
        <time>2022-03-03T13:08:43Z</time>
      </trkpt>
      <trkpt lat="46.71299" lon="6.01056">
        <ele>809.3</ele>
        <time>2022-03-03T13:08:48Z</time>
      </trkpt>
      <trkpt lat="46.71303" lon="6.01051">
        <ele>808.4</ele>
        <time>2022-03-03T13:08:53Z</time>
      </trkpt>
      <trkpt lat="46.71306" lon="6.01045">
        <ele>807.7</ele>
        <time>2022-03-03T13:08:58Z</time>
      </trkpt>
      <trkpt lat="46.7131" lon="6.0104">
        <ele>807.1</ele>
        <time>2022-03-03T13:09:03Z</time>
      </trkpt>
      <trkpt lat="46.71313" lon="6.01036">
        <ele>806.7</ele>
        <time>2022-03-03T13:09:07Z</time>
      </trkpt>
      <trkpt lat="46.71318" lon="6.01032">
        <ele>806.6</ele>
        <time>2022-03-03T13:09:11Z</time>
      </trkpt>
      <trkpt lat="46.7132" lon="6.01026">
        <ele>806.6</ele>
        <time>2022-03-03T13:09:15Z</time>
      </trkpt>
      <trkpt lat="46.71324" lon="6.01021">
        <ele>806.8</ele>
        <time>2022-03-03T13:09:20Z</time>
      </trkpt>
      <trkpt lat="46.71329" lon="6.01018">
        <ele>806.8</ele>
        <time>2022-03-03T13:09:25Z</time>
      </trkpt>
      <trkpt lat="46.71333" lon="6.01016">
        <ele>806.9</ele>
        <time>2022-03-03T13:09:29Z</time>
      </trkpt>
      <trkpt lat="46.71339" lon="6.01014">
        <ele>806.9</ele>
        <time>2022-03-03T13:09:34Z</time>
      </trkpt>
      <trkpt lat="46.71344" lon="6.01014">
        <ele>807.5</ele>
        <time>2022-03-03T13:09:39Z</time>
      </trkpt>
      <trkpt lat="46.71349" lon="6.01012">
        <ele>808.3</ele>
        <time>2022-03-03T13:09:44Z</time>
      </trkpt>
      <trkpt lat="46.71354" lon="6.01012">
        <ele>809.3</ele>
        <time>2022-03-03T13:09:48Z</time>
      </trkpt>
      <trkpt lat="46.71359" lon="6.01012">
        <ele>810.6</ele>
        <time>2022-03-03T13:09:53Z</time>
      </trkpt>
      <trkpt lat="46.71364" lon="6.01014">
        <ele>811.6</ele>
        <time>2022-03-03T13:10:00Z</time>
      </trkpt>
      <trkpt lat="46.71369" lon="6.01017">
        <ele>811.6</ele>
        <time>2022-03-03T13:10:05Z</time>
      </trkpt>
      <trkpt lat="46.71374" lon="6.01019">
        <ele>810.5</ele>
        <time>2022-03-03T13:10:11Z</time>
      </trkpt>
      <trkpt lat="46.71378" lon="6.0102">
        <ele>809.7</ele>
        <time>2022-03-03T13:10:14Z</time>
      </trkpt>
      <trkpt lat="46.71383" lon="6.01021">
        <ele>808.6</ele>
        <time>2022-03-03T13:10:19Z</time>
      </trkpt>
      <trkpt lat="46.71389" lon="6.01021">
        <ele>808.1</ele>
        <time>2022-03-03T13:10:23Z</time>
      </trkpt>
      <trkpt lat="46.71394" lon="6.01021">
        <ele>807.7</ele>
        <time>2022-03-03T13:10:29Z</time>
      </trkpt>
      <trkpt lat="46.714" lon="6.0102">
        <ele>807.8</ele>
        <time>2022-03-03T13:10:34Z</time>
      </trkpt>
      <trkpt lat="46.71405" lon="6.01018">
        <ele>808.2</ele>
        <time>2022-03-03T13:10:39Z</time>
      </trkpt>
      <trkpt lat="46.7141" lon="6.01017">
        <ele>808.8</ele>
        <time>2022-03-03T13:10:44Z</time>
      </trkpt>
      <trkpt lat="46.71415" lon="6.01017">
        <ele>809.5</ele>
        <time>2022-03-03T13:10:50Z</time>
      </trkpt>
      <trkpt lat="46.7142" lon="6.01016">
        <ele>809.9</ele>
        <time>2022-03-03T13:10:54Z</time>
      </trkpt>
      <trkpt lat="46.71424" lon="6.01015">
        <ele>810.5</ele>
        <time>2022-03-03T13:10:59Z</time>
      </trkpt>
      <trkpt lat="46.71429" lon="6.01014">
        <ele>811.1</ele>
        <time>2022-03-03T13:11:04Z</time>
      </trkpt>
      <trkpt lat="46.71434" lon="6.01016">
        <ele>811.8</ele>
        <time>2022-03-03T13:11:09Z</time>
      </trkpt>
      <trkpt lat="46.71439" lon="6.01017">
        <ele>812.6</ele>
        <time>2022-03-03T13:11:14Z</time>
      </trkpt>
      <trkpt lat="46.71444" lon="6.01018">
        <ele>813.5</ele>
        <time>2022-03-03T13:11:18Z</time>
      </trkpt>
      <trkpt lat="46.71449" lon="6.01019">
        <ele>815</ele>
        <time>2022-03-03T13:11:24Z</time>
      </trkpt>
      <trkpt lat="46.71454" lon="6.01019">
        <ele>815.5</ele>
        <time>2022-03-03T13:11:28Z</time>
      </trkpt>
      <trkpt lat="46.71458" lon="6.01018">
        <ele>816</ele>
        <time>2022-03-03T13:11:31Z</time>
      </trkpt>
      <trkpt lat="46.71463" lon="6.01017">
        <ele>816.5</ele>
        <time>2022-03-03T13:11:34Z</time>
      </trkpt>
      <trkpt lat="46.71468" lon="6.01016">
        <ele>817</ele>
        <time>2022-03-03T13:11:38Z</time>
      </trkpt>
      <trkpt lat="46.71472" lon="6.01013">
        <ele>817.5</ele>
        <time>2022-03-03T13:11:42Z</time>
      </trkpt>
      <trkpt lat="46.71476" lon="6.01009">
        <ele>817.4</ele>
        <time>2022-03-03T13:11:47Z</time>
      </trkpt>
      <trkpt lat="46.7148" lon="6.01004">
        <ele>817.2</ele>
        <time>2022-03-03T13:11:52Z</time>
      </trkpt>
      <trkpt lat="46.71482" lon="6.00998">
        <ele>816.9</ele>
        <time>2022-03-03T13:11:58Z</time>
      </trkpt>
      <trkpt lat="46.71485" lon="6.00991">
        <ele>816.4</ele>
        <time>2022-03-03T13:12:03Z</time>
      </trkpt>
      <trkpt lat="46.71488" lon="6.00985">
        <ele>815.4</ele>
        <time>2022-03-03T13:12:08Z</time>
      </trkpt>
      <trkpt lat="46.7149" lon="6.00978">
        <ele>814.8</ele>
        <time>2022-03-03T13:12:13Z</time>
      </trkpt>
      <trkpt lat="46.71492" lon="6.00971">
        <ele>814.7</ele>
        <time>2022-03-03T13:12:18Z</time>
      </trkpt>
      <trkpt lat="46.71496" lon="6.00966">
        <ele>814.9</ele>
        <time>2022-03-03T13:12:22Z</time>
      </trkpt>
      <trkpt lat="46.71499" lon="6.00961">
        <ele>815.1</ele>
        <time>2022-03-03T13:12:26Z</time>
      </trkpt>
      <trkpt lat="46.71501" lon="6.00954">
        <ele>814.5</ele>
        <time>2022-03-03T13:12:32Z</time>
      </trkpt>
      <trkpt lat="46.71505" lon="6.00949">
        <ele>813.7</ele>
        <time>2022-03-03T13:12:38Z</time>
      </trkpt>
      <trkpt lat="46.71509" lon="6.00944">
        <ele>813</ele>
        <time>2022-03-03T13:12:43Z</time>
      </trkpt>
      <trkpt lat="46.71513" lon="6.00939">
        <ele>812.4</ele>
        <time>2022-03-03T13:12:47Z</time>
      </trkpt>
      <trkpt lat="46.71515" lon="6.00933">
        <ele>811.6</ele>
        <time>2022-03-03T13:12:51Z</time>
      </trkpt>
      <trkpt lat="46.71518" lon="6.00928">
        <ele>810.2</ele>
        <time>2022-03-03T13:12:56Z</time>
      </trkpt>
      <trkpt lat="46.71522" lon="6.00922">
        <ele>808.7</ele>
        <time>2022-03-03T13:13:01Z</time>
      </trkpt>
      <trkpt lat="46.71525" lon="6.00917">
        <ele>807.8</ele>
        <time>2022-03-03T13:13:04Z</time>
      </trkpt>
      <trkpt lat="46.71527" lon="6.00911">
        <ele>807.2</ele>
        <time>2022-03-03T13:13:07Z</time>
      </trkpt>
      <trkpt lat="46.7153" lon="6.00905">
        <ele>807.1</ele>
        <time>2022-03-03T13:13:11Z</time>
      </trkpt>
      <trkpt lat="46.71533" lon="6.00899">
        <ele>807.2</ele>
        <time>2022-03-03T13:13:16Z</time>
      </trkpt>
      <trkpt lat="46.71536" lon="6.00893">
        <ele>807.4</ele>
        <time>2022-03-03T13:13:21Z</time>
      </trkpt>
      <trkpt lat="46.7154" lon="6.00889">
        <ele>807.2</ele>
        <time>2022-03-03T13:13:26Z</time>
      </trkpt>
      <trkpt lat="46.71544" lon="6.00886">
        <ele>807</ele>
        <time>2022-03-03T13:13:30Z</time>
      </trkpt>
      <trkpt lat="46.71548" lon="6.00883">
        <ele>806.7</ele>
        <time>2022-03-03T13:13:34Z</time>
      </trkpt>
      <trkpt lat="46.71552" lon="6.00878">
        <ele>806.1</ele>
        <time>2022-03-03T13:13:39Z</time>
      </trkpt>
      <trkpt lat="46.71556" lon="6.00875">
        <ele>805.7</ele>
        <time>2022-03-03T13:13:43Z</time>
      </trkpt>
      <trkpt lat="46.71561" lon="6.00871">
        <ele>805.3</ele>
        <time>2022-03-03T13:13:47Z</time>
      </trkpt>
      <trkpt lat="46.71566" lon="6.00866">
        <ele>804.7</ele>
        <time>2022-03-03T13:13:51Z</time>
      </trkpt>
      <trkpt lat="46.7157" lon="6.00861">
        <ele>804.4</ele>
        <time>2022-03-03T13:13:55Z</time>
      </trkpt>
      <trkpt lat="46.71574" lon="6.00857">
        <ele>804.1</ele>
        <time>2022-03-03T13:13:59Z</time>
      </trkpt>
      <trkpt lat="46.71578" lon="6.00852">
        <ele>804</ele>
        <time>2022-03-03T13:14:04Z</time>
      </trkpt>
      <trkpt lat="46.71581" lon="6.00846">
        <ele>804.2</ele>
        <time>2022-03-03T13:14:10Z</time>
      </trkpt>
      <trkpt lat="46.71586" lon="6.00842">
        <ele>804</ele>
        <time>2022-03-03T13:14:16Z</time>
      </trkpt>
      <trkpt lat="46.71588" lon="6.00836">
        <ele>804.3</ele>
        <time>2022-03-03T13:14:22Z</time>
      </trkpt>
      <trkpt lat="46.71591" lon="6.00831">
        <ele>804.7</ele>
        <time>2022-03-03T13:14:26Z</time>
      </trkpt>
      <trkpt lat="46.71594" lon="6.00826">
        <ele>805.1</ele>
        <time>2022-03-03T13:14:31Z</time>
      </trkpt>
      <trkpt lat="46.71598" lon="6.00821">
        <ele>805.7</ele>
        <time>2022-03-03T13:14:36Z</time>
      </trkpt>
      <trkpt lat="46.71602" lon="6.00816">
        <ele>806</ele>
        <time>2022-03-03T13:14:40Z</time>
      </trkpt>
      <trkpt lat="46.71607" lon="6.00813">
        <ele>805.9</ele>
        <time>2022-03-03T13:14:43Z</time>
      </trkpt>
      <trkpt lat="46.71611" lon="6.00811">
        <ele>805.6</ele>
        <time>2022-03-03T13:14:46Z</time>
      </trkpt>
      <trkpt lat="46.71615" lon="6.00806">
        <ele>805.5</ele>
        <time>2022-03-03T13:14:50Z</time>
      </trkpt>
      <trkpt lat="46.7162" lon="6.00802">
        <ele>805.4</ele>
        <time>2022-03-03T13:14:55Z</time>
      </trkpt>
      <trkpt lat="46.71625" lon="6.00798">
        <ele>805</ele>
        <time>2022-03-03T13:15:01Z</time>
      </trkpt>
      <trkpt lat="46.71628" lon="6.00793">
        <ele>804.7</ele>
        <time>2022-03-03T13:15:05Z</time>
      </trkpt>
      <trkpt lat="46.71632" lon="6.00788">
        <ele>804.2</ele>
        <time>2022-03-03T13:15:09Z</time>
      </trkpt>
      <trkpt lat="46.71627" lon="6.00787">
        <ele>807.7</ele>
        <time>2022-03-03T13:15:35Z</time>
      </trkpt>
      <trkpt lat="46.71629" lon="6.0078">
        <ele>808.1</ele>
        <time>2022-03-03T13:15:49Z</time>
      </trkpt>
      <trkpt lat="46.71631" lon="6.00772">
        <ele>808.4</ele>
        <time>2022-03-03T13:15:53Z</time>
      </trkpt>
      <trkpt lat="46.71634" lon="6.00767">
        <ele>809.1</ele>
        <time>2022-03-03T13:15:57Z</time>
      </trkpt>
      <trkpt lat="46.71637" lon="6.00762">
        <ele>809.7</ele>
        <time>2022-03-03T13:16:01Z</time>
      </trkpt>
      <trkpt lat="46.7164" lon="6.00756">
        <ele>810.4</ele>
        <time>2022-03-03T13:16:05Z</time>
      </trkpt>
      <trkpt lat="46.71643" lon="6.0075">
        <ele>811.2</ele>
        <time>2022-03-03T13:16:10Z</time>
      </trkpt>
      <trkpt lat="46.71645" lon="6.00744">
        <ele>812.2</ele>
        <time>2022-03-03T13:16:15Z</time>
      </trkpt>
      <trkpt lat="46.71646" lon="6.00737">
        <ele>813.5</ele>
        <time>2022-03-03T13:16:20Z</time>
      </trkpt>
      <trkpt lat="46.71647" lon="6.00731">
        <ele>814.3</ele>
        <time>2022-03-03T13:16:24Z</time>
      </trkpt>
      <trkpt lat="46.71649" lon="6.00724">
        <ele>815.2</ele>
        <time>2022-03-03T13:16:29Z</time>
      </trkpt>
      <trkpt lat="46.7165" lon="6.00716">
        <ele>815.9</ele>
        <time>2022-03-03T13:16:34Z</time>
      </trkpt>
      <trkpt lat="46.71652" lon="6.00709">
        <ele>816</ele>
        <time>2022-03-03T13:16:39Z</time>
      </trkpt>
      <trkpt lat="46.71652" lon="6.00702">
        <ele>816.1</ele>
        <time>2022-03-03T13:16:43Z</time>
      </trkpt>
      <trkpt lat="46.71652" lon="6.00694">
        <ele>816.1</ele>
        <time>2022-03-03T13:16:48Z</time>
      </trkpt>
      <trkpt lat="46.7165" lon="6.00688">
        <ele>814.9</ele>
        <time>2022-03-03T13:16:53Z</time>
      </trkpt>
      <trkpt lat="46.7165" lon="6.0068">
        <ele>812.6</ele>
        <time>2022-03-03T13:16:59Z</time>
      </trkpt>
      <trkpt lat="46.71652" lon="6.00673">
        <ele>811.2</ele>
        <time>2022-03-03T13:17:04Z</time>
      </trkpt>
      <trkpt lat="46.71654" lon="6.00666">
        <ele>809.8</ele>
        <time>2022-03-03T13:17:09Z</time>
      </trkpt>
      <trkpt lat="46.71657" lon="6.0066">
        <ele>809</ele>
        <time>2022-03-03T13:17:13Z</time>
      </trkpt>
      <trkpt lat="46.71659" lon="6.00653">
        <ele>808.2</ele>
        <time>2022-03-03T13:17:18Z</time>
      </trkpt>
      <trkpt lat="46.71659" lon="6.00646">
        <ele>806.8</ele>
        <time>2022-03-03T13:17:23Z</time>
      </trkpt>
      <trkpt lat="46.71661" lon="6.0064">
        <ele>805.8</ele>
        <time>2022-03-03T13:17:27Z</time>
      </trkpt>
      <trkpt lat="46.71662" lon="6.00632">
        <ele>805.3</ele>
        <time>2022-03-03T13:17:31Z</time>
      </trkpt>
      <trkpt lat="46.71663" lon="6.00625">
        <ele>805.5</ele>
        <time>2022-03-03T13:17:35Z</time>
      </trkpt>
      <trkpt lat="46.71665" lon="6.00618">
        <ele>805.9</ele>
        <time>2022-03-03T13:17:40Z</time>
      </trkpt>
      <trkpt lat="46.71666" lon="6.00611">
        <ele>807.1</ele>
        <time>2022-03-03T13:17:45Z</time>
      </trkpt>
      <trkpt lat="46.71667" lon="6.00604">
        <ele>807.9</ele>
        <time>2022-03-03T13:17:50Z</time>
      </trkpt>
      <trkpt lat="46.71666" lon="6.00597">
        <ele>808.2</ele>
        <time>2022-03-03T13:17:55Z</time>
      </trkpt>
      <trkpt lat="46.71665" lon="6.00588">
        <ele>808.8</ele>
        <time>2022-03-03T13:18:00Z</time>
      </trkpt>
      <trkpt lat="46.71664" lon="6.00581">
        <ele>809.7</ele>
        <time>2022-03-03T13:18:04Z</time>
      </trkpt>
      <trkpt lat="46.71665" lon="6.00574">
        <ele>810.6</ele>
        <time>2022-03-03T13:18:09Z</time>
      </trkpt>
      <trkpt lat="46.71666" lon="6.00566">
        <ele>812</ele>
        <time>2022-03-03T13:18:15Z</time>
      </trkpt>
      <trkpt lat="46.71667" lon="6.00559">
        <ele>812.9</ele>
        <time>2022-03-03T13:18:20Z</time>
      </trkpt>
      <trkpt lat="46.71665" lon="6.00551">
        <ele>813.8</ele>
        <time>2022-03-03T13:18:25Z</time>
      </trkpt>
      <trkpt lat="46.71664" lon="6.00544">
        <ele>815.4</ele>
        <time>2022-03-03T13:18:30Z</time>
      </trkpt>
      <trkpt lat="46.71663" lon="6.00537">
        <ele>816.6</ele>
        <time>2022-03-03T13:18:34Z</time>
      </trkpt>
      <trkpt lat="46.71662" lon="6.0053">
        <ele>817.4</ele>
        <time>2022-03-03T13:18:38Z</time>
      </trkpt>
      <trkpt lat="46.71664" lon="6.00522">
        <ele>818.2</ele>
        <time>2022-03-03T13:18:43Z</time>
      </trkpt>
      <trkpt lat="46.71666" lon="6.00516">
        <ele>818.8</ele>
        <time>2022-03-03T13:18:47Z</time>
      </trkpt>
      <trkpt lat="46.71667" lon="6.00509">
        <ele>819.2</ele>
        <time>2022-03-03T13:18:52Z</time>
      </trkpt>
      <trkpt lat="46.71669" lon="6.00501">
        <ele>820</ele>
        <time>2022-03-03T13:18:57Z</time>
      </trkpt>
      <trkpt lat="46.71669" lon="6.00495">
        <ele>821</ele>
        <time>2022-03-03T13:19:01Z</time>
      </trkpt>
      <trkpt lat="46.7167" lon="6.00487">
        <ele>822</ele>
        <time>2022-03-03T13:19:06Z</time>
      </trkpt>
      <trkpt lat="46.71672" lon="6.00481">
        <ele>822.5</ele>
        <time>2022-03-03T13:19:10Z</time>
      </trkpt>
      <trkpt lat="46.71673" lon="6.00474">
        <ele>823.5</ele>
        <time>2022-03-03T13:19:15Z</time>
      </trkpt>
      <trkpt lat="46.71676" lon="6.00467">
        <ele>824.2</ele>
        <time>2022-03-03T13:19:22Z</time>
      </trkpt>
      <trkpt lat="46.71679" lon="6.00461">
        <ele>824.4</ele>
        <time>2022-03-03T13:19:28Z</time>
      </trkpt>
      <trkpt lat="46.71682" lon="6.00454">
        <ele>824.1</ele>
        <time>2022-03-03T13:19:33Z</time>
      </trkpt>
      <trkpt lat="46.71686" lon="6.00448">
        <ele>823.8</ele>
        <time>2022-03-03T13:19:38Z</time>
      </trkpt>
      <trkpt lat="46.7169" lon="6.00443">
        <ele>823.5</ele>
        <time>2022-03-03T13:19:43Z</time>
      </trkpt>
      <trkpt lat="46.71694" lon="6.00438">
        <ele>823.5</ele>
        <time>2022-03-03T13:19:50Z</time>
      </trkpt>
      <trkpt lat="46.71698" lon="6.00434">
        <ele>823.8</ele>
        <time>2022-03-03T13:19:54Z</time>
      </trkpt>
      <trkpt lat="46.71704" lon="6.00433">
        <ele>824</ele>
        <time>2022-03-03T13:19:57Z</time>
      </trkpt>
      <trkpt lat="46.71708" lon="6.00432">
        <ele>823.8</ele>
        <time>2022-03-03T13:20:01Z</time>
      </trkpt>
      <trkpt lat="46.71714" lon="6.0043">
        <ele>823.3</ele>
        <time>2022-03-03T13:20:05Z</time>
      </trkpt>
      <trkpt lat="46.71719" lon="6.00427">
        <ele>822.5</ele>
        <time>2022-03-03T13:20:09Z</time>
      </trkpt>
      <trkpt lat="46.71723" lon="6.00424">
        <ele>821.9</ele>
        <time>2022-03-03T13:20:13Z</time>
      </trkpt>
      <trkpt lat="46.71727" lon="6.00419">
        <ele>820.6</ele>
        <time>2022-03-03T13:20:18Z</time>
      </trkpt>
      <trkpt lat="46.71729" lon="6.00414">
        <ele>819.7</ele>
        <time>2022-03-03T13:20:22Z</time>
      </trkpt>
      <trkpt lat="46.71733" lon="6.00408">
        <ele>818.6</ele>
        <time>2022-03-03T13:20:27Z</time>
      </trkpt>
      <trkpt lat="46.71737" lon="6.00403">
        <ele>817.9</ele>
        <time>2022-03-03T13:20:32Z</time>
      </trkpt>
      <trkpt lat="46.71741" lon="6.00399">
        <ele>817.7</ele>
        <time>2022-03-03T13:20:37Z</time>
      </trkpt>
      <trkpt lat="46.71745" lon="6.00394">
        <ele>817.3</ele>
        <time>2022-03-03T13:20:42Z</time>
      </trkpt>
      <trkpt lat="46.71749" lon="6.0039">
        <ele>816.4</ele>
        <time>2022-03-03T13:20:47Z</time>
      </trkpt>
      <trkpt lat="46.71753" lon="6.00386">
        <ele>815.5</ele>
        <time>2022-03-03T13:20:52Z</time>
      </trkpt>
      <trkpt lat="46.71756" lon="6.00381">
        <ele>814.9</ele>
        <time>2022-03-03T13:20:56Z</time>
      </trkpt>
      <trkpt lat="46.7176" lon="6.00378">
        <ele>814.7</ele>
        <time>2022-03-03T13:21:00Z</time>
      </trkpt>
      <trkpt lat="46.71764" lon="6.00373">
        <ele>814.8</ele>
        <time>2022-03-03T13:21:06Z</time>
      </trkpt>
      <trkpt lat="46.71769" lon="6.00371">
        <ele>815</ele>
        <time>2022-03-03T13:21:11Z</time>
      </trkpt>
      <trkpt lat="46.71774" lon="6.00368">
        <ele>815.3</ele>
        <time>2022-03-03T13:21:16Z</time>
      </trkpt>
      <trkpt lat="46.71778" lon="6.00364">
        <ele>815.6</ele>
        <time>2022-03-03T13:21:21Z</time>
      </trkpt>
      <trkpt lat="46.71782" lon="6.0036">
        <ele>815</ele>
        <time>2022-03-03T13:21:26Z</time>
      </trkpt>
      <trkpt lat="46.71787" lon="6.00359">
        <ele>814.1</ele>
        <time>2022-03-03T13:21:30Z</time>
      </trkpt>
      <trkpt lat="46.71791" lon="6.00357">
        <ele>813.1</ele>
        <time>2022-03-03T13:21:35Z</time>
      </trkpt>
      <trkpt lat="46.71796" lon="6.00354">
        <ele>812.3</ele>
        <time>2022-03-03T13:21:41Z</time>
      </trkpt>
      <trkpt lat="46.718" lon="6.00352">
        <ele>811.8</ele>
        <time>2022-03-03T13:21:46Z</time>
      </trkpt>
      <trkpt lat="46.71805" lon="6.00348">
        <ele>811.2</ele>
        <time>2022-03-03T13:21:52Z</time>
      </trkpt>
      <trkpt lat="46.71809" lon="6.00346">
        <ele>811.5</ele>
        <time>2022-03-03T13:21:56Z</time>
      </trkpt>
      <trkpt lat="46.71814" lon="6.00344">
        <ele>811.7</ele>
        <time>2022-03-03T13:22:00Z</time>
      </trkpt>
      <trkpt lat="46.71819" lon="6.00342">
        <ele>812.2</ele>
        <time>2022-03-03T13:22:04Z</time>
      </trkpt>
      <trkpt lat="46.71823" lon="6.00341">
        <ele>812.5</ele>
        <time>2022-03-03T13:22:07Z</time>
      </trkpt>
      <trkpt lat="46.71829" lon="6.00339">
        <ele>813</ele>
        <time>2022-03-03T13:22:11Z</time>
      </trkpt>
      <trkpt lat="46.71833" lon="6.00335">
        <ele>813.9</ele>
        <time>2022-03-03T13:22:16Z</time>
      </trkpt>
      <trkpt lat="46.71837" lon="6.00331">
        <ele>814.3</ele>
        <time>2022-03-03T13:22:22Z</time>
      </trkpt>
      <trkpt lat="46.71842" lon="6.00329">
        <ele>814.6</ele>
        <time>2022-03-03T13:22:27Z</time>
      </trkpt>
      <trkpt lat="46.71845" lon="6.00324">
        <ele>814.4</ele>
        <time>2022-03-03T13:22:32Z</time>
      </trkpt>
      <trkpt lat="46.71849" lon="6.00319">
        <ele>813.7</ele>
        <time>2022-03-03T13:22:37Z</time>
      </trkpt>
      <trkpt lat="46.71851" lon="6.00313">
        <ele>813.1</ele>
        <time>2022-03-03T13:22:42Z</time>
      </trkpt>
      <trkpt lat="46.71853" lon="6.00307">
        <ele>812.6</ele>
        <time>2022-03-03T13:22:47Z</time>
      </trkpt>
      <trkpt lat="46.71858" lon="6.00304">
        <ele>812.4</ele>
        <time>2022-03-03T13:22:54Z</time>
      </trkpt>
      <trkpt lat="46.71855" lon="6.00298">
        <ele>813.3</ele>
        <time>2022-03-03T13:23:12Z</time>
      </trkpt>
      <trkpt lat="46.71855" lon="6.00291">
        <ele>812.8</ele>
        <time>2022-03-03T13:23:18Z</time>
      </trkpt>
      <trkpt lat="46.71855" lon="6.00284">
        <ele>812.2</ele>
        <time>2022-03-03T13:23:23Z</time>
      </trkpt>
      <trkpt lat="46.71855" lon="6.00277">
        <ele>812.1</ele>
        <time>2022-03-03T13:23:28Z</time>
      </trkpt>
      <trkpt lat="46.71856" lon="6.0027">
        <ele>812</ele>
        <time>2022-03-03T13:23:33Z</time>
      </trkpt>
      <trkpt lat="46.71857" lon="6.00263">
        <ele>812.2</ele>
        <time>2022-03-03T13:23:38Z</time>
      </trkpt>
      <trkpt lat="46.71856" lon="6.00255">
        <ele>811.5</ele>
        <time>2022-03-03T13:23:44Z</time>
      </trkpt>
      <trkpt lat="46.71857" lon="6.00248">
        <ele>810.2</ele>
        <time>2022-03-03T13:23:49Z</time>
      </trkpt>
      <trkpt lat="46.71857" lon="6.00241">
        <ele>809.1</ele>
        <time>2022-03-03T13:23:54Z</time>
      </trkpt>
      <trkpt lat="46.71859" lon="6.00234">
        <ele>808.7</ele>
        <time>2022-03-03T13:23:59Z</time>
      </trkpt>
      <trkpt lat="46.7186" lon="6.00228">
        <ele>808.5</ele>
        <time>2022-03-03T13:24:03Z</time>
      </trkpt>
      <trkpt lat="46.71862" lon="6.00221">
        <ele>808.3</ele>
        <time>2022-03-03T13:24:08Z</time>
      </trkpt>
      <trkpt lat="46.71864" lon="6.00214">
        <ele>808</ele>
        <time>2022-03-03T13:24:14Z</time>
      </trkpt>
      <trkpt lat="46.71868" lon="6.00209">
        <ele>807.4</ele>
        <time>2022-03-03T13:24:19Z</time>
      </trkpt>
      <trkpt lat="46.71872" lon="6.00205">
        <ele>806.9</ele>
        <time>2022-03-03T13:24:23Z</time>
      </trkpt>
      <trkpt lat="46.71876" lon="6.00201">
        <ele>806.6</ele>
        <time>2022-03-03T13:24:28Z</time>
      </trkpt>
      <trkpt lat="46.71881" lon="6.00198">
        <ele>806.1</ele>
        <time>2022-03-03T13:24:33Z</time>
      </trkpt>
      <trkpt lat="46.71885" lon="6.00196">
        <ele>805.7</ele>
        <time>2022-03-03T13:24:38Z</time>
      </trkpt>
      <trkpt lat="46.7189" lon="6.00195">
        <ele>804.4</ele>
        <time>2022-03-03T13:24:43Z</time>
      </trkpt>
      <trkpt lat="46.71895" lon="6.00194">
        <ele>803.3</ele>
        <time>2022-03-03T13:24:47Z</time>
      </trkpt>
      <trkpt lat="46.719" lon="6.00193">
        <ele>802.6</ele>
        <time>2022-03-03T13:24:51Z</time>
      </trkpt>
      <trkpt lat="46.71905" lon="6.00192">
        <ele>801.7</ele>
        <time>2022-03-03T13:24:56Z</time>
      </trkpt>
      <trkpt lat="46.7191" lon="6.00189">
        <ele>801.2</ele>
        <time>2022-03-03T13:25:01Z</time>
      </trkpt>
      <trkpt lat="46.71914" lon="6.00187">
        <ele>800.6</ele>
        <time>2022-03-03T13:25:06Z</time>
      </trkpt>
      <trkpt lat="46.71919" lon="6.00186">
        <ele>800.2</ele>
        <time>2022-03-03T13:25:10Z</time>
      </trkpt>
      <trkpt lat="46.71923" lon="6.00184">
        <ele>800.2</ele>
        <time>2022-03-03T13:25:14Z</time>
      </trkpt>
      <trkpt lat="46.71928" lon="6.00183">
        <ele>800.1</ele>
        <time>2022-03-03T13:25:19Z</time>
      </trkpt>
      <trkpt lat="46.71934" lon="6.00181">
        <ele>799.4</ele>
        <time>2022-03-03T13:25:25Z</time>
      </trkpt>
      <trkpt lat="46.71938" lon="6.0018">
        <ele>798.3</ele>
        <time>2022-03-03T13:25:32Z</time>
      </trkpt>
      <trkpt lat="46.71943" lon="6.00178">
        <ele>797.8</ele>
        <time>2022-03-03T13:25:37Z</time>
      </trkpt>
      <trkpt lat="46.71948" lon="6.00177">
        <ele>797.3</ele>
        <time>2022-03-03T13:25:41Z</time>
      </trkpt>
      <trkpt lat="46.71953" lon="6.00176">
        <ele>797.1</ele>
        <time>2022-03-03T13:25:46Z</time>
      </trkpt>
      <trkpt lat="46.71959" lon="6.00175">
        <ele>796.9</ele>
        <time>2022-03-03T13:25:51Z</time>
      </trkpt>
      <trkpt lat="46.71963" lon="6.00174">
        <ele>796.2</ele>
        <time>2022-03-03T13:25:56Z</time>
      </trkpt>
      <trkpt lat="46.71968" lon="6.00173">
        <ele>795.3</ele>
        <time>2022-03-03T13:26:01Z</time>
      </trkpt>
      <trkpt lat="46.71972" lon="6.00172">
        <ele>794.1</ele>
        <time>2022-03-03T13:26:06Z</time>
      </trkpt>
      <trkpt lat="46.71977" lon="6.00172">
        <ele>792.9</ele>
        <time>2022-03-03T13:26:12Z</time>
      </trkpt>
      <trkpt lat="46.71982" lon="6.0017">
        <ele>791.2</ele>
        <time>2022-03-03T13:26:20Z</time>
      </trkpt>
      <trkpt lat="46.71986" lon="6.00169">
        <ele>790.5</ele>
        <time>2022-03-03T13:26:24Z</time>
      </trkpt>
      <trkpt lat="46.71991" lon="6.00167">
        <ele>789.8</ele>
        <time>2022-03-03T13:26:29Z</time>
      </trkpt>
      <trkpt lat="46.71996" lon="6.00165">
        <ele>789.7</ele>
        <time>2022-03-03T13:26:34Z</time>
      </trkpt>
      <trkpt lat="46.72" lon="6.00165">
        <ele>790</ele>
        <time>2022-03-03T13:26:40Z</time>
      </trkpt>
      <trkpt lat="46.72006" lon="6.00163">
        <ele>790.3</ele>
        <time>2022-03-03T13:26:45Z</time>
      </trkpt>
      <trkpt lat="46.72011" lon="6.00161">
        <ele>790.4</ele>
        <time>2022-03-03T13:26:49Z</time>
      </trkpt>
      <trkpt lat="46.72016" lon="6.00159">
        <ele>790.1</ele>
        <time>2022-03-03T13:26:53Z</time>
      </trkpt>
      <trkpt lat="46.72022" lon="6.00157">
        <ele>790.2</ele>
        <time>2022-03-03T13:26:57Z</time>
      </trkpt>
      <trkpt lat="46.72026" lon="6.00156">
        <ele>790.2</ele>
        <time>2022-03-03T13:27:01Z</time>
      </trkpt>
      <trkpt lat="46.72031" lon="6.00156">
        <ele>790</ele>
        <time>2022-03-03T13:27:05Z</time>
      </trkpt>
      <trkpt lat="46.72036" lon="6.00155">
        <ele>789.3</ele>
        <time>2022-03-03T13:27:10Z</time>
      </trkpt>
      <trkpt lat="46.7204" lon="6.00151">
        <ele>788</ele>
        <time>2022-03-03T13:27:16Z</time>
      </trkpt>
      <trkpt lat="46.72045" lon="6.00148">
        <ele>786.7</ele>
        <time>2022-03-03T13:27:22Z</time>
      </trkpt>
      <trkpt lat="46.7205" lon="6.00146">
        <ele>786</ele>
        <time>2022-03-03T13:27:26Z</time>
      </trkpt>
      <trkpt lat="46.72055" lon="6.00144">
        <ele>785.7</ele>
        <time>2022-03-03T13:27:31Z</time>
      </trkpt>
      <trkpt lat="46.72059" lon="6.00141">
        <ele>785.8</ele>
        <time>2022-03-03T13:27:36Z</time>
      </trkpt>
      <trkpt lat="46.72064" lon="6.00137">
        <ele>786</ele>
        <time>2022-03-03T13:27:41Z</time>
      </trkpt>
      <trkpt lat="46.72068" lon="6.00133">
        <ele>786.2</ele>
        <time>2022-03-03T13:27:45Z</time>
      </trkpt>
      <trkpt lat="46.72073" lon="6.00129">
        <ele>785.9</ele>
        <time>2022-03-03T13:27:50Z</time>
      </trkpt>
      <trkpt lat="46.72077" lon="6.00125">
        <ele>785.6</ele>
        <time>2022-03-03T13:27:54Z</time>
      </trkpt>
      <trkpt lat="46.72081" lon="6.00121">
        <ele>784.9</ele>
        <time>2022-03-03T13:27:59Z</time>
      </trkpt>
      <trkpt lat="46.72085" lon="6.00116">
        <ele>784.1</ele>
        <time>2022-03-03T13:28:05Z</time>
      </trkpt>
      <trkpt lat="46.72089" lon="6.00113">
        <ele>784</ele>
        <time>2022-03-03T13:28:09Z</time>
      </trkpt>
      <trkpt lat="46.72094" lon="6.0011">
        <ele>784.2</ele>
        <time>2022-03-03T13:28:13Z</time>
      </trkpt>
      <trkpt lat="46.72099" lon="6.00107">
        <ele>784.7</ele>
        <time>2022-03-03T13:28:17Z</time>
      </trkpt>
      <trkpt lat="46.72103" lon="6.00103">
        <ele>785.4</ele>
        <time>2022-03-03T13:28:21Z</time>
      </trkpt>
      <trkpt lat="46.72107" lon="6.00099">
        <ele>786</ele>
        <time>2022-03-03T13:28:26Z</time>
      </trkpt>
      <trkpt lat="46.7211" lon="6.00095">
        <ele>785.9</ele>
        <time>2022-03-03T13:28:31Z</time>
      </trkpt>
      <trkpt lat="46.72115" lon="6.00091">
        <ele>785.6</ele>
        <time>2022-03-03T13:28:36Z</time>
      </trkpt>
      <trkpt lat="46.72119" lon="6.00087">
        <ele>785.7</ele>
        <time>2022-03-03T13:28:39Z</time>
      </trkpt>
      <trkpt lat="46.72123" lon="6.00083">
        <ele>785.9</ele>
        <time>2022-03-03T13:28:43Z</time>
      </trkpt>
      <trkpt lat="46.72127" lon="6.00078">
        <ele>786.3</ele>
        <time>2022-03-03T13:28:49Z</time>
      </trkpt>
      <trkpt lat="46.72132" lon="6.00075">
        <ele>786.5</ele>
        <time>2022-03-03T13:28:53Z</time>
      </trkpt>
      <trkpt lat="46.72136" lon="6.00071">
        <ele>786.5</ele>
        <time>2022-03-03T13:28:57Z</time>
      </trkpt>
      <trkpt lat="46.7214" lon="6.00066">
        <ele>786.5</ele>
        <time>2022-03-03T13:29:01Z</time>
      </trkpt>
      <trkpt lat="46.72144" lon="6.00062">
        <ele>786.3</ele>
        <time>2022-03-03T13:29:06Z</time>
      </trkpt>
      <trkpt lat="46.72148" lon="6.00059">
        <ele>786.1</ele>
        <time>2022-03-03T13:29:10Z</time>
      </trkpt>
      <trkpt lat="46.72153" lon="6.00056">
        <ele>785.7</ele>
        <time>2022-03-03T13:29:14Z</time>
      </trkpt>
      <trkpt lat="46.72157" lon="6.00054">
        <ele>785.3</ele>
        <time>2022-03-03T13:29:18Z</time>
      </trkpt>
      <trkpt lat="46.72162" lon="6.00052">
        <ele>785</ele>
        <time>2022-03-03T13:29:23Z</time>
      </trkpt>
      <trkpt lat="46.72167" lon="6.00049">
        <ele>784.4</ele>
        <time>2022-03-03T13:29:28Z</time>
      </trkpt>
      <trkpt lat="46.72172" lon="6.00045">
        <ele>783.8</ele>
        <time>2022-03-03T13:29:33Z</time>
      </trkpt>
      <trkpt lat="46.72176" lon="6.00042">
        <ele>783.3</ele>
        <time>2022-03-03T13:29:37Z</time>
      </trkpt>
      <trkpt lat="46.72181" lon="6.0004">
        <ele>782.6</ele>
        <time>2022-03-03T13:29:41Z</time>
      </trkpt>
      <trkpt lat="46.72186" lon="6.00038">
        <ele>781.6</ele>
        <time>2022-03-03T13:29:46Z</time>
      </trkpt>
      <trkpt lat="46.7219" lon="6.00035">
        <ele>780.7</ele>
        <time>2022-03-03T13:29:50Z</time>
      </trkpt>
      <trkpt lat="46.72195" lon="6.00034">
        <ele>779.9</ele>
        <time>2022-03-03T13:29:54Z</time>
      </trkpt>
      <trkpt lat="46.72199" lon="6.00031">
        <ele>779.2</ele>
        <time>2022-03-03T13:29:59Z</time>
      </trkpt>
      <trkpt lat="46.72203" lon="6.00027">
        <ele>779.2</ele>
        <time>2022-03-03T13:30:04Z</time>
      </trkpt>
      <trkpt lat="46.72208" lon="6.00025">
        <ele>778.9</ele>
        <time>2022-03-03T13:30:08Z</time>
      </trkpt>
      <trkpt lat="46.72213" lon="6.00021">
        <ele>778.7</ele>
        <time>2022-03-03T13:30:12Z</time>
      </trkpt>
      <trkpt lat="46.72218" lon="6.00018">
        <ele>778.8</ele>
        <time>2022-03-03T13:30:16Z</time>
      </trkpt>
      <trkpt lat="46.72223" lon="6.00015">
        <ele>778.7</ele>
        <time>2022-03-03T13:30:20Z</time>
      </trkpt>
      <trkpt lat="46.72228" lon="6.00013">
        <ele>778.4</ele>
        <time>2022-03-03T13:30:25Z</time>
      </trkpt>
      <trkpt lat="46.72232" lon="6.00012">
        <ele>778</ele>
        <time>2022-03-03T13:30:29Z</time>
      </trkpt>
      <trkpt lat="46.72237" lon="6.00011">
        <ele>777.6</ele>
        <time>2022-03-03T13:30:33Z</time>
      </trkpt>
      <trkpt lat="46.72242" lon="6.00009">
        <ele>776.8</ele>
        <time>2022-03-03T13:30:37Z</time>
      </trkpt>
      <trkpt lat="46.72247" lon="6.00007">
        <ele>775.8</ele>
        <time>2022-03-03T13:30:41Z</time>
      </trkpt>
      <trkpt lat="46.72253" lon="6.00006">
        <ele>775</ele>
        <time>2022-03-03T13:30:45Z</time>
      </trkpt>
      <trkpt lat="46.72258" lon="6.00005">
        <ele>774.2</ele>
        <time>2022-03-03T13:30:50Z</time>
      </trkpt>
      <trkpt lat="46.72264" lon="6.00003">
        <ele>773.7</ele>
        <time>2022-03-03T13:30:55Z</time>
      </trkpt>
      <trkpt lat="46.72269" lon="6.00001">
        <ele>773.2</ele>
        <time>2022-03-03T13:30:59Z</time>
      </trkpt>
      <trkpt lat="46.72274" lon="6.00001">
        <ele>773.4</ele>
        <time>2022-03-03T13:31:03Z</time>
      </trkpt>
      <trkpt lat="46.7228" lon="5.99998">
        <ele>773.8</ele>
        <time>2022-03-03T13:31:08Z</time>
      </trkpt>
      <trkpt lat="46.72284" lon="5.99998">
        <ele>774.1</ele>
        <time>2022-03-03T13:31:12Z</time>
      </trkpt>
      <trkpt lat="46.7229" lon="5.99996">
        <ele>774.1</ele>
        <time>2022-03-03T13:31:16Z</time>
      </trkpt>
      <trkpt lat="46.72294" lon="5.99994">
        <ele>773.2</ele>
        <time>2022-03-03T13:31:20Z</time>
      </trkpt>
      <trkpt lat="46.723" lon="5.99991">
        <ele>771.3</ele>
        <time>2022-03-03T13:31:25Z</time>
      </trkpt>
      <trkpt lat="46.72304" lon="5.99987">
        <ele>770.2</ele>
        <time>2022-03-03T13:31:30Z</time>
      </trkpt>
      <trkpt lat="46.72309" lon="5.99983">
        <ele>769.2</ele>
        <time>2022-03-03T13:31:35Z</time>
      </trkpt>
      <trkpt lat="46.72312" lon="5.99978">
        <ele>768.8</ele>
        <time>2022-03-03T13:31:40Z</time>
      </trkpt>
      <trkpt lat="46.72314" lon="5.99972">
        <ele>769.1</ele>
        <time>2022-03-03T13:31:45Z</time>
      </trkpt>
      <trkpt lat="46.72315" lon="5.99965">
        <ele>769.4</ele>
        <time>2022-03-03T13:31:51Z</time>
      </trkpt>
      <trkpt lat="46.72317" lon="5.99957">
        <ele>769.5</ele>
        <time>2022-03-03T13:31:56Z</time>
      </trkpt>
      <trkpt lat="46.72318" lon="5.9995">
        <ele>769.6</ele>
        <time>2022-03-03T13:32:01Z</time>
      </trkpt>
      <trkpt lat="46.72318" lon="5.99943">
        <ele>769.5</ele>
        <time>2022-03-03T13:32:07Z</time>
      </trkpt>
      <trkpt lat="46.72318" lon="5.99934">
        <ele>770.6</ele>
        <time>2022-03-03T13:32:28Z</time>
      </trkpt>
      <trkpt lat="46.72317" lon="5.99942">
        <ele>771.5</ele>
        <time>2022-03-03T13:32:43Z</time>
      </trkpt>
      <trkpt lat="46.72316" lon="5.99948">
        <ele>771.2</ele>
        <time>2022-03-03T13:32:47Z</time>
      </trkpt>
      <trkpt lat="46.72316" lon="5.99956">
        <ele>771</ele>
        <time>2022-03-03T13:32:52Z</time>
      </trkpt>
      <trkpt lat="46.72317" lon="5.99948">
        <ele>771.2</ele>
        <time>2022-03-03T13:33:10Z</time>
      </trkpt>
      <trkpt lat="46.72318" lon="5.99941">
        <ele>771.1</ele>
        <time>2022-03-03T13:33:14Z</time>
      </trkpt>
      <trkpt lat="46.72317" lon="5.99934">
        <ele>770.1</ele>
        <time>2022-03-03T13:33:28Z</time>
      </trkpt>
      <trkpt lat="46.72318" lon="5.99927">
        <ele>769.6</ele>
        <time>2022-03-03T13:33:38Z</time>
      </trkpt>
      <trkpt lat="46.72318" lon="5.9992">
        <ele>769.8</ele>
        <time>2022-03-03T13:33:47Z</time>
      </trkpt>
      <trkpt lat="46.72319" lon="5.99913">
        <ele>769.3</ele>
        <time>2022-03-03T13:33:52Z</time>
      </trkpt>
      <trkpt lat="46.72321" lon="5.99906">
        <ele>768.5</ele>
        <time>2022-03-03T13:34:01Z</time>
      </trkpt>
      <trkpt lat="46.72322" lon="5.99899">
        <ele>768.3</ele>
        <time>2022-03-03T13:34:06Z</time>
      </trkpt>
      <trkpt lat="46.72321" lon="5.99892">
        <ele>768.7</ele>
        <time>2022-03-03T13:34:11Z</time>
      </trkpt>
      <trkpt lat="46.7232" lon="5.99885">
        <ele>768.8</ele>
        <time>2022-03-03T13:34:17Z</time>
      </trkpt>
      <trkpt lat="46.72318" lon="5.99877">
        <ele>768.4</ele>
        <time>2022-03-03T13:34:23Z</time>
      </trkpt>
      <trkpt lat="46.72317" lon="5.9987">
        <ele>768.7</ele>
        <time>2022-03-03T13:34:28Z</time>
      </trkpt>
      <trkpt lat="46.72314" lon="5.99865">
        <ele>768.9</ele>
        <time>2022-03-03T13:34:33Z</time>
      </trkpt>
      <trkpt lat="46.7231" lon="5.9986">
        <ele>769</ele>
        <time>2022-03-03T13:34:39Z</time>
      </trkpt>
      <trkpt lat="46.72305" lon="5.99857">
        <ele>769.3</ele>
        <time>2022-03-03T13:34:43Z</time>
      </trkpt>
      <trkpt lat="46.72301" lon="5.99854">
        <ele>769.3</ele>
        <time>2022-03-03T13:34:48Z</time>
      </trkpt>
      <trkpt lat="46.72297" lon="5.9985">
        <ele>769.6</ele>
        <time>2022-03-03T13:34:53Z</time>
      </trkpt>
      <trkpt lat="46.72293" lon="5.99847">
        <ele>769.3</ele>
        <time>2022-03-03T13:34:57Z</time>
      </trkpt>
      <trkpt lat="46.7229" lon="5.99842">
        <ele>768.5</ele>
        <time>2022-03-03T13:35:01Z</time>
      </trkpt>
      <trkpt lat="46.72288" lon="5.99835">
        <ele>767.4</ele>
        <time>2022-03-03T13:35:06Z</time>
      </trkpt>
      <trkpt lat="46.72286" lon="5.99828">
        <ele>765.5</ele>
        <time>2022-03-03T13:35:12Z</time>
      </trkpt>
      <trkpt lat="46.72285" lon="5.9982">
        <ele>764.3</ele>
        <time>2022-03-03T13:35:17Z</time>
      </trkpt>
      <trkpt lat="46.72283" lon="5.99812">
        <ele>763.5</ele>
        <time>2022-03-03T13:35:21Z</time>
      </trkpt>
      <trkpt lat="46.72282" lon="5.99805">
        <ele>763.1</ele>
        <time>2022-03-03T13:35:24Z</time>
      </trkpt>
      <trkpt lat="46.7228" lon="5.99799">
        <ele>762.6</ele>
        <time>2022-03-03T13:35:27Z</time>
      </trkpt>
      <trkpt lat="46.72278" lon="5.99792">
        <ele>762.2</ele>
        <time>2022-03-03T13:35:30Z</time>
      </trkpt>
      <trkpt lat="46.72276" lon="5.99786">
        <ele>762</ele>
        <time>2022-03-03T13:35:34Z</time>
      </trkpt>
      <trkpt lat="46.72273" lon="5.9978">
        <ele>762.5</ele>
        <time>2022-03-03T13:35:38Z</time>
      </trkpt>
      <trkpt lat="46.72272" lon="5.99773">
        <ele>762.7</ele>
        <time>2022-03-03T13:35:44Z</time>
      </trkpt>
      <trkpt lat="46.7227" lon="5.99766">
        <ele>763.1</ele>
        <time>2022-03-03T13:35:49Z</time>
      </trkpt>
      <trkpt lat="46.72267" lon="5.99758">
        <ele>763.1</ele>
        <time>2022-03-03T13:35:53Z</time>
      </trkpt>
      <trkpt lat="46.72266" lon="5.9975">
        <ele>763</ele>
        <time>2022-03-03T13:35:57Z</time>
      </trkpt>
      <trkpt lat="46.72264" lon="5.99743">
        <ele>762.8</ele>
        <time>2022-03-03T13:36:01Z</time>
      </trkpt>
      <trkpt lat="46.72262" lon="5.99737">
        <ele>763.3</ele>
        <time>2022-03-03T13:36:05Z</time>
      </trkpt>
      <trkpt lat="46.7226" lon="5.99729">
        <ele>764.1</ele>
        <time>2022-03-03T13:36:10Z</time>
      </trkpt>
      <trkpt lat="46.72258" lon="5.99723">
        <ele>764.2</ele>
        <time>2022-03-03T13:36:14Z</time>
      </trkpt>
      <trkpt lat="46.72256" lon="5.99716">
        <ele>764.7</ele>
        <time>2022-03-03T13:36:18Z</time>
      </trkpt>
      <trkpt lat="46.72254" lon="5.99708">
        <ele>764.7</ele>
        <time>2022-03-03T13:36:23Z</time>
      </trkpt>
      <trkpt lat="46.72252" lon="5.99702">
        <ele>764.3</ele>
        <time>2022-03-03T13:36:28Z</time>
      </trkpt>
      <trkpt lat="46.7225" lon="5.99695">
        <ele>763.4</ele>
        <time>2022-03-03T13:36:33Z</time>
      </trkpt>
      <trkpt lat="46.72249" lon="5.99687">
        <ele>762.4</ele>
        <time>2022-03-03T13:36:38Z</time>
      </trkpt>
      <trkpt lat="46.72248" lon="5.9968">
        <ele>761.1</ele>
        <time>2022-03-03T13:36:43Z</time>
      </trkpt>
      <trkpt lat="46.72245" lon="5.99673">
        <ele>759.7</ele>
        <time>2022-03-03T13:36:48Z</time>
      </trkpt>
      <trkpt lat="46.72244" lon="5.99667">
        <ele>758.8</ele>
        <time>2022-03-03T13:36:53Z</time>
      </trkpt>
      <trkpt lat="46.72244" lon="5.99659">
        <ele>758.6</ele>
        <time>2022-03-03T13:36:58Z</time>
      </trkpt>
      <trkpt lat="46.72246" lon="5.99652">
        <ele>759.2</ele>
        <time>2022-03-03T13:37:03Z</time>
      </trkpt>
      <trkpt lat="46.72247" lon="5.99645">
        <ele>760.2</ele>
        <time>2022-03-03T13:37:08Z</time>
      </trkpt>
      <trkpt lat="46.72247" lon="5.99639">
        <ele>761.2</ele>
        <time>2022-03-03T13:37:12Z</time>
      </trkpt>
      <trkpt lat="46.72248" lon="5.99632">
        <ele>761.9</ele>
        <time>2022-03-03T13:37:15Z</time>
      </trkpt>
      <trkpt lat="46.72249" lon="5.99625">
        <ele>762.8</ele>
        <time>2022-03-03T13:37:19Z</time>
      </trkpt>
      <trkpt lat="46.72251" lon="5.99617">
        <ele>763.6</ele>
        <time>2022-03-03T13:37:24Z</time>
      </trkpt>
      <trkpt lat="46.72252" lon="5.9961">
        <ele>764.1</ele>
        <time>2022-03-03T13:37:29Z</time>
      </trkpt>
      <trkpt lat="46.72254" lon="5.99603">
        <ele>764.6</ele>
        <time>2022-03-03T13:37:34Z</time>
      </trkpt>
      <trkpt lat="46.72256" lon="5.99596">
        <ele>765.4</ele>
        <time>2022-03-03T13:37:39Z</time>
      </trkpt>
      <trkpt lat="46.72258" lon="5.99589">
        <ele>765.6</ele>
        <time>2022-03-03T13:37:44Z</time>
      </trkpt>
      <trkpt lat="46.72259" lon="5.99582">
        <ele>765.5</ele>
        <time>2022-03-03T13:37:48Z</time>
      </trkpt>
      <trkpt lat="46.72261" lon="5.99574">
        <ele>765.7</ele>
        <time>2022-03-03T13:37:52Z</time>
      </trkpt>
      <trkpt lat="46.72262" lon="5.99566">
        <ele>765.8</ele>
        <time>2022-03-03T13:37:56Z</time>
      </trkpt>
      <trkpt lat="46.72264" lon="5.9956">
        <ele>765.2</ele>
        <time>2022-03-03T13:38:00Z</time>
      </trkpt>
      <trkpt lat="46.72268" lon="5.99555">
        <ele>763.8</ele>
        <time>2022-03-03T13:38:05Z</time>
      </trkpt>
      <trkpt lat="46.72271" lon="5.99549">
        <ele>762.4</ele>
        <time>2022-03-03T13:38:10Z</time>
      </trkpt>
      <trkpt lat="46.72274" lon="5.99543">
        <ele>761.2</ele>
        <time>2022-03-03T13:38:15Z</time>
      </trkpt>
      <trkpt lat="46.72276" lon="5.99536">
        <ele>760</ele>
        <time>2022-03-03T13:38:20Z</time>
      </trkpt>
      <trkpt lat="46.72279" lon="5.9953">
        <ele>759.2</ele>
        <time>2022-03-03T13:38:24Z</time>
      </trkpt>
      <trkpt lat="46.72282" lon="5.99525">
        <ele>758</ele>
        <time>2022-03-03T13:38:29Z</time>
      </trkpt>
      <trkpt lat="46.72285" lon="5.9952">
        <ele>756.9</ele>
        <time>2022-03-03T13:38:35Z</time>
      </trkpt>
      <trkpt lat="46.72289" lon="5.99515">
        <ele>756.1</ele>
        <time>2022-03-03T13:38:40Z</time>
      </trkpt>
      <trkpt lat="46.72292" lon="5.9951">
        <ele>755</ele>
        <time>2022-03-03T13:38:45Z</time>
      </trkpt>
      <trkpt lat="46.72295" lon="5.99505">
        <ele>753.8</ele>
        <time>2022-03-03T13:38:50Z</time>
      </trkpt>
      <trkpt lat="46.72299" lon="5.99501">
        <ele>753</ele>
        <time>2022-03-03T13:38:54Z</time>
      </trkpt>
      <trkpt lat="46.72303" lon="5.99496">
        <ele>752.5</ele>
        <time>2022-03-03T13:38:59Z</time>
      </trkpt>
      <trkpt lat="46.72306" lon="5.99492">
        <ele>751.7</ele>
        <time>2022-03-03T13:39:04Z</time>
      </trkpt>
      <trkpt lat="46.7231" lon="5.99487">
        <ele>751.6</ele>
        <time>2022-03-03T13:39:08Z</time>
      </trkpt>
      <trkpt lat="46.72314" lon="5.99483">
        <ele>751.5</ele>
        <time>2022-03-03T13:39:12Z</time>
      </trkpt>
      <trkpt lat="46.72318" lon="5.9948">
        <ele>750.8</ele>
        <time>2022-03-03T13:39:16Z</time>
      </trkpt>
      <trkpt lat="46.72323" lon="5.99476">
        <ele>749.4</ele>
        <time>2022-03-03T13:39:21Z</time>
      </trkpt>
      <trkpt lat="46.72328" lon="5.99472">
        <ele>748</ele>
        <time>2022-03-03T13:39:26Z</time>
      </trkpt>
      <trkpt lat="46.72332" lon="5.99468">
        <ele>747</ele>
        <time>2022-03-03T13:39:31Z</time>
      </trkpt>
      <trkpt lat="46.72337" lon="5.99464">
        <ele>745.9</ele>
        <time>2022-03-03T13:39:36Z</time>
      </trkpt>
      <trkpt lat="46.72342" lon="5.99462">
        <ele>744.7</ele>
        <time>2022-03-03T13:39:40Z</time>
      </trkpt>
      <trkpt lat="46.72346" lon="5.99459">
        <ele>743.3</ele>
        <time>2022-03-03T13:39:45Z</time>
      </trkpt>
      <trkpt lat="46.72351" lon="5.99456">
        <ele>742.2</ele>
        <time>2022-03-03T13:39:51Z</time>
      </trkpt>
      <trkpt lat="46.72355" lon="5.99452">
        <ele>741.2</ele>
        <time>2022-03-03T13:39:57Z</time>
      </trkpt>
      <trkpt lat="46.72361" lon="5.99449">
        <ele>740.6</ele>
        <time>2022-03-03T13:40:02Z</time>
      </trkpt>
      <trkpt lat="46.72365" lon="5.99446">
        <ele>740</ele>
        <time>2022-03-03T13:40:06Z</time>
      </trkpt>
      <trkpt lat="46.72369" lon="5.99443">
        <ele>739.6</ele>
        <time>2022-03-03T13:40:10Z</time>
      </trkpt>
      <trkpt lat="46.72373" lon="5.9944">
        <ele>739.2</ele>
        <time>2022-03-03T13:40:14Z</time>
      </trkpt>
      <trkpt lat="46.72378" lon="5.99437">
        <ele>738</ele>
        <time>2022-03-03T13:40:19Z</time>
      </trkpt>
      <trkpt lat="46.72383" lon="5.99432">
        <ele>737.2</ele>
        <time>2022-03-03T13:40:26Z</time>
      </trkpt>
      <trkpt lat="46.72386" lon="5.99427">
        <ele>736.7</ele>
        <time>2022-03-03T13:40:31Z</time>
      </trkpt>
      <trkpt lat="46.72391" lon="5.99423">
        <ele>735.4</ele>
        <time>2022-03-03T13:40:36Z</time>
      </trkpt>
      <trkpt lat="46.72396" lon="5.9942">
        <ele>734.6</ele>
        <time>2022-03-03T13:40:40Z</time>
      </trkpt>
      <trkpt lat="46.724" lon="5.99415">
        <ele>734</ele>
        <time>2022-03-03T13:40:44Z</time>
      </trkpt>
      <trkpt lat="46.72405" lon="5.99411">
        <ele>733.5</ele>
        <time>2022-03-03T13:40:49Z</time>
      </trkpt>
      <trkpt lat="46.72408" lon="5.99404">
        <ele>733</ele>
        <time>2022-03-03T13:40:54Z</time>
      </trkpt>
      <trkpt lat="46.72411" lon="5.99399">
        <ele>733</ele>
        <time>2022-03-03T13:40:59Z</time>
      </trkpt>
      <trkpt lat="46.72414" lon="5.99393">
        <ele>733.1</ele>
        <time>2022-03-03T13:41:04Z</time>
      </trkpt>
      <trkpt lat="46.72417" lon="5.99387">
        <ele>732.9</ele>
        <time>2022-03-03T13:41:08Z</time>
      </trkpt>
      <trkpt lat="46.7242" lon="5.9938">
        <ele>732.5</ele>
        <time>2022-03-03T13:41:12Z</time>
      </trkpt>
      <trkpt lat="46.72422" lon="5.99374">
        <ele>732.6</ele>
        <time>2022-03-03T13:41:16Z</time>
      </trkpt>
      <trkpt lat="46.72424" lon="5.99365">
        <ele>733</ele>
        <time>2022-03-03T13:41:20Z</time>
      </trkpt>
      <trkpt lat="46.72426" lon="5.99359">
        <ele>733.3</ele>
        <time>2022-03-03T13:41:24Z</time>
      </trkpt>
      <trkpt lat="46.72429" lon="5.99352">
        <ele>733.3</ele>
        <time>2022-03-03T13:41:28Z</time>
      </trkpt>
      <trkpt lat="46.72432" lon="5.99347">
        <ele>733.1</ele>
        <time>2022-03-03T13:41:32Z</time>
      </trkpt>
      <trkpt lat="46.72435" lon="5.99341">
        <ele>732</ele>
        <time>2022-03-03T13:41:37Z</time>
      </trkpt>
      <trkpt lat="46.72438" lon="5.99335">
        <ele>730.2</ele>
        <time>2022-03-03T13:41:42Z</time>
      </trkpt>
      <trkpt lat="46.72441" lon="5.9933">
        <ele>728.3</ele>
        <time>2022-03-03T13:41:48Z</time>
      </trkpt>
      <trkpt lat="46.72445" lon="5.99326">
        <ele>727.2</ele>
        <time>2022-03-03T13:41:54Z</time>
      </trkpt>
      <trkpt lat="46.7245" lon="5.99324">
        <ele>726.5</ele>
        <time>2022-03-03T13:42:00Z</time>
      </trkpt>
      <trkpt lat="46.72454" lon="5.99323">
        <ele>725.7</ele>
        <time>2022-03-03T13:42:04Z</time>
      </trkpt>
      <trkpt lat="46.7246" lon="5.99322">
        <ele>723.5</ele>
        <time>2022-03-03T13:42:10Z</time>
      </trkpt>
      <trkpt lat="46.72465" lon="5.99322">
        <ele>721.8</ele>
        <time>2022-03-03T13:42:15Z</time>
      </trkpt>
      <trkpt lat="46.72471" lon="5.99323">
        <ele>720.1</ele>
        <time>2022-03-03T13:42:20Z</time>
      </trkpt>
      <trkpt lat="46.72476" lon="5.99323">
        <ele>718.5</ele>
        <time>2022-03-03T13:42:25Z</time>
      </trkpt>
      <trkpt lat="46.72481" lon="5.99324">
        <ele>717.1</ele>
        <time>2022-03-03T13:42:30Z</time>
      </trkpt>
      <trkpt lat="46.72486" lon="5.99325">
        <ele>715.9</ele>
        <time>2022-03-03T13:42:34Z</time>
      </trkpt>
      <trkpt lat="46.72491" lon="5.99326">
        <ele>715.1</ele>
        <time>2022-03-03T13:42:38Z</time>
      </trkpt>
      <trkpt lat="46.72496" lon="5.99326">
        <ele>714</ele>
        <time>2022-03-03T13:42:43Z</time>
      </trkpt>
      <trkpt lat="46.72501" lon="5.99326">
        <ele>713</ele>
        <time>2022-03-03T13:42:51Z</time>
      </trkpt>
      <trkpt lat="46.72506" lon="5.99327">
        <ele>712.6</ele>
        <time>2022-03-03T13:42:57Z</time>
      </trkpt>
      <trkpt lat="46.72511" lon="5.99328">
        <ele>712</ele>
        <time>2022-03-03T13:43:02Z</time>
      </trkpt>
      <trkpt lat="46.72517" lon="5.99331">
        <ele>711.9</ele>
        <time>2022-03-03T13:43:07Z</time>
      </trkpt>
      <trkpt lat="46.72521" lon="5.99333">
        <ele>712.2</ele>
        <time>2022-03-03T13:43:11Z</time>
      </trkpt>
      <trkpt lat="46.72526" lon="5.99334">
        <ele>712.8</ele>
        <time>2022-03-03T13:43:16Z</time>
      </trkpt>
      <trkpt lat="46.7253" lon="5.99334">
        <ele>713.5</ele>
        <time>2022-03-03T13:43:24Z</time>
      </trkpt>
      <trkpt lat="46.72535" lon="5.99334">
        <ele>713.7</ele>
        <time>2022-03-03T13:43:30Z</time>
      </trkpt>
      <trkpt lat="46.72539" lon="5.99332">
        <ele>714.5</ele>
        <time>2022-03-03T13:43:36Z</time>
      </trkpt>
      <trkpt lat="46.72544" lon="5.99329">
        <ele>714.8</ele>
        <time>2022-03-03T13:43:42Z</time>
      </trkpt>
      <trkpt lat="46.72549" lon="5.99329">
        <ele>714.6</ele>
        <time>2022-03-03T13:43:50Z</time>
      </trkpt>
      <trkpt lat="46.72554" lon="5.99328">
        <ele>714.7</ele>
        <time>2022-03-03T13:43:55Z</time>
      </trkpt>
      <trkpt lat="46.72559" lon="5.99327">
        <ele>715</ele>
        <time>2022-03-03T13:44:02Z</time>
      </trkpt>
      <trkpt lat="46.72563" lon="5.99326">
        <ele>714.9</ele>
        <time>2022-03-03T13:44:08Z</time>
      </trkpt>
      <trkpt lat="46.72568" lon="5.99325">
        <ele>714.2</ele>
        <time>2022-03-03T13:44:13Z</time>
      </trkpt>
      <trkpt lat="46.72573" lon="5.99323">
        <ele>714</ele>
        <time>2022-03-03T13:44:18Z</time>
      </trkpt>
      <trkpt lat="46.72578" lon="5.99321">
        <ele>714.2</ele>
        <time>2022-03-03T13:44:22Z</time>
      </trkpt>
      <trkpt lat="46.72582" lon="5.99318">
        <ele>714.2</ele>
        <time>2022-03-03T13:44:27Z</time>
      </trkpt>
      <trkpt lat="46.72588" lon="5.99315">
        <ele>714.3</ele>
        <time>2022-03-03T13:44:33Z</time>
      </trkpt>
      <trkpt lat="46.72592" lon="5.99314">
        <ele>714.2</ele>
        <time>2022-03-03T13:44:37Z</time>
      </trkpt>
      <trkpt lat="46.72597" lon="5.99314">
        <ele>713.7</ele>
        <time>2022-03-03T13:44:42Z</time>
      </trkpt>
      <trkpt lat="46.72602" lon="5.99314">
        <ele>712.9</ele>
        <time>2022-03-03T13:44:46Z</time>
      </trkpt>
      <trkpt lat="46.72607" lon="5.99315">
        <ele>712.2</ele>
        <time>2022-03-03T13:44:51Z</time>
      </trkpt>
      <trkpt lat="46.72611" lon="5.99312">
        <ele>712.6</ele>
        <time>2022-03-03T13:44:57Z</time>
      </trkpt>
      <trkpt lat="46.72616" lon="5.99312">
        <ele>713.1</ele>
        <time>2022-03-03T13:45:03Z</time>
      </trkpt>
      <trkpt lat="46.72621" lon="5.99314">
        <ele>712.7</ele>
        <time>2022-03-03T13:45:09Z</time>
      </trkpt>
      <trkpt lat="46.72626" lon="5.99315">
        <ele>711.9</ele>
        <time>2022-03-03T13:45:15Z</time>
      </trkpt>
      <trkpt lat="46.72631" lon="5.99314">
        <ele>711.3</ele>
        <time>2022-03-03T13:45:21Z</time>
      </trkpt>
      <trkpt lat="46.72636" lon="5.99312">
        <ele>711.1</ele>
        <time>2022-03-03T13:45:26Z</time>
      </trkpt>
      <trkpt lat="46.7264" lon="5.99309">
        <ele>710.9</ele>
        <time>2022-03-03T13:45:31Z</time>
      </trkpt>
      <trkpt lat="46.72644" lon="5.99304">
        <ele>711.5</ele>
        <time>2022-03-03T13:45:37Z</time>
      </trkpt>
      <trkpt lat="46.72649" lon="5.99301">
        <ele>712.3</ele>
        <time>2022-03-03T13:45:42Z</time>
      </trkpt>
      <trkpt lat="46.72653" lon="5.99302">
        <ele>713.1</ele>
        <time>2022-03-03T13:45:48Z</time>
      </trkpt>
      <trkpt lat="46.72659" lon="5.99301">
        <ele>714.3</ele>
        <time>2022-03-03T13:45:54Z</time>
      </trkpt>
      <trkpt lat="46.72664" lon="5.99299">
        <ele>714.8</ele>
        <time>2022-03-03T13:45:59Z</time>
      </trkpt>
      <trkpt lat="46.72669" lon="5.99297">
        <ele>714.9</ele>
        <time>2022-03-03T13:46:02Z</time>
      </trkpt>
      <trkpt lat="46.72673" lon="5.99295">
        <ele>714.5</ele>
        <time>2022-03-03T13:46:07Z</time>
      </trkpt>
      <trkpt lat="46.72678" lon="5.99297">
        <ele>712.9</ele>
        <time>2022-03-03T13:46:17Z</time>
      </trkpt>
      <trkpt lat="46.72682" lon="5.99299">
        <ele>711.7</ele>
        <time>2022-03-03T13:46:22Z</time>
      </trkpt>
      <trkpt lat="46.72687" lon="5.99301">
        <ele>710.4</ele>
        <time>2022-03-03T13:46:26Z</time>
      </trkpt>
      <trkpt lat="46.72693" lon="5.99301">
        <ele>709.2</ele>
        <time>2022-03-03T13:46:30Z</time>
      </trkpt>
      <trkpt lat="46.72698" lon="5.99302">
        <ele>708.1</ele>
        <time>2022-03-03T13:46:33Z</time>
      </trkpt>
      <trkpt lat="46.72702" lon="5.99303">
        <ele>707.4</ele>
        <time>2022-03-03T13:46:36Z</time>
      </trkpt>
      <trkpt lat="46.72707" lon="5.99304">
        <ele>706.9</ele>
        <time>2022-03-03T13:46:40Z</time>
      </trkpt>
      <trkpt lat="46.72712" lon="5.99305">
        <ele>705.5</ele>
        <time>2022-03-03T13:46:46Z</time>
      </trkpt>
      <trkpt lat="46.72717" lon="5.99306">
        <ele>704.6</ele>
        <time>2022-03-03T13:46:50Z</time>
      </trkpt>
      <trkpt lat="46.72722" lon="5.99306">
        <ele>704.1</ele>
        <time>2022-03-03T13:46:53Z</time>
      </trkpt>
      <trkpt lat="46.72727" lon="5.99305">
        <ele>703.6</ele>
        <time>2022-03-03T13:46:57Z</time>
      </trkpt>
      <trkpt lat="46.72731" lon="5.99304">
        <ele>703.8</ele>
        <time>2022-03-03T13:47:02Z</time>
      </trkpt>
      <trkpt lat="46.72736" lon="5.99304">
        <ele>704</ele>
        <time>2022-03-03T13:47:07Z</time>
      </trkpt>
      <trkpt lat="46.7274" lon="5.99302">
        <ele>704.3</ele>
        <time>2022-03-03T13:47:12Z</time>
      </trkpt>
      <trkpt lat="46.72745" lon="5.99303">
        <ele>704.2</ele>
        <time>2022-03-03T13:47:18Z</time>
      </trkpt>
      <trkpt lat="46.7275" lon="5.99303">
        <ele>703.9</ele>
        <time>2022-03-03T13:47:22Z</time>
      </trkpt>
      <trkpt lat="46.72755" lon="5.99302">
        <ele>704.5</ele>
        <time>2022-03-03T13:47:27Z</time>
      </trkpt>
      <trkpt lat="46.7276" lon="5.99301">
        <ele>705.7</ele>
        <time>2022-03-03T13:47:33Z</time>
      </trkpt>
      <trkpt lat="46.72765" lon="5.99302">
        <ele>707.1</ele>
        <time>2022-03-03T13:47:40Z</time>
      </trkpt>
      <trkpt lat="46.7277" lon="5.99303">
        <ele>707.6</ele>
        <time>2022-03-03T13:47:44Z</time>
      </trkpt>
      <trkpt lat="46.72775" lon="5.99304">
        <ele>707.8</ele>
        <time>2022-03-03T13:47:49Z</time>
      </trkpt>
      <trkpt lat="46.7278" lon="5.99303">
        <ele>708.1</ele>
        <time>2022-03-03T13:47:55Z</time>
      </trkpt>
      <trkpt lat="46.72784" lon="5.99299">
        <ele>708.3</ele>
        <time>2022-03-03T13:48:00Z</time>
      </trkpt>
      <trkpt lat="46.72789" lon="5.99294">
        <ele>708.7</ele>
        <time>2022-03-03T13:48:05Z</time>
      </trkpt>
      <trkpt lat="46.72794" lon="5.99292">
        <ele>709.4</ele>
        <time>2022-03-03T13:48:10Z</time>
      </trkpt>
      <trkpt lat="46.72799" lon="5.99291">
        <ele>709.8</ele>
        <time>2022-03-03T13:48:14Z</time>
      </trkpt>
      <trkpt lat="46.72804" lon="5.99289">
        <ele>709.9</ele>
        <time>2022-03-03T13:48:18Z</time>
      </trkpt>
      <trkpt lat="46.72809" lon="5.99288">
        <ele>709.6</ele>
        <time>2022-03-03T13:48:22Z</time>
      </trkpt>
      <trkpt lat="46.72814" lon="5.99289">
        <ele>709.2</ele>
        <time>2022-03-03T13:48:26Z</time>
      </trkpt>
      <trkpt lat="46.7282" lon="5.99288">
        <ele>708.8</ele>
        <time>2022-03-03T13:48:31Z</time>
      </trkpt>
      <trkpt lat="46.72825" lon="5.99288">
        <ele>708</ele>
        <time>2022-03-03T13:48:36Z</time>
      </trkpt>
      <trkpt lat="46.72829" lon="5.99287">
        <ele>707.1</ele>
        <time>2022-03-03T13:48:40Z</time>
      </trkpt>
      <trkpt lat="46.72834" lon="5.99289">
        <ele>705</ele>
        <time>2022-03-03T13:48:47Z</time>
      </trkpt>
      <trkpt lat="46.72839" lon="5.99287">
        <ele>701.9</ele>
        <time>2022-03-03T13:49:01Z</time>
      </trkpt>
      <trkpt lat="46.72844" lon="5.99287">
        <ele>701.1</ele>
        <time>2022-03-03T13:49:05Z</time>
      </trkpt>
      <trkpt lat="46.72849" lon="5.99287">
        <ele>700.8</ele>
        <time>2022-03-03T13:49:10Z</time>
      </trkpt>
      <trkpt lat="46.72854" lon="5.9929">
        <ele>700.6</ele>
        <time>2022-03-03T13:49:19Z</time>
      </trkpt>
      <trkpt lat="46.72859" lon="5.99292">
        <ele>701</ele>
        <time>2022-03-03T13:49:25Z</time>
      </trkpt>
      <trkpt lat="46.72863" lon="5.99292">
        <ele>701.6</ele>
        <time>2022-03-03T13:49:30Z</time>
      </trkpt>
      <trkpt lat="46.72868" lon="5.99293">
        <ele>701.7</ele>
        <time>2022-03-03T13:49:35Z</time>
      </trkpt>
      <trkpt lat="46.72873" lon="5.99295">
        <ele>701.2</ele>
        <time>2022-03-03T13:49:40Z</time>
      </trkpt>
      <trkpt lat="46.72877" lon="5.99296">
        <ele>701</ele>
        <time>2022-03-03T13:49:44Z</time>
      </trkpt>
      <trkpt lat="46.72882" lon="5.99298">
        <ele>701.1</ele>
        <time>2022-03-03T13:49:49Z</time>
      </trkpt>
      <trkpt lat="46.72888" lon="5.993">
        <ele>701.3</ele>
        <time>2022-03-03T13:49:57Z</time>
      </trkpt>
      <trkpt lat="46.72892" lon="5.99303">
        <ele>701</ele>
        <time>2022-03-03T13:50:01Z</time>
      </trkpt>
      <trkpt lat="46.72896" lon="5.99307">
        <ele>700.3</ele>
        <time>2022-03-03T13:50:07Z</time>
      </trkpt>
      <trkpt lat="46.72901" lon="5.99311">
        <ele>699.3</ele>
        <time>2022-03-03T13:50:13Z</time>
      </trkpt>
      <trkpt lat="46.72905" lon="5.99314">
        <ele>698.7</ele>
        <time>2022-03-03T13:50:16Z</time>
      </trkpt>
      <trkpt lat="46.7291" lon="5.99318">
        <ele>697.9</ele>
        <time>2022-03-03T13:50:20Z</time>
      </trkpt>
      <trkpt lat="46.72915" lon="5.9932">
        <ele>697</ele>
        <time>2022-03-03T13:50:24Z</time>
      </trkpt>
      <trkpt lat="46.72919" lon="5.99323">
        <ele>695.5</ele>
        <time>2022-03-03T13:50:30Z</time>
      </trkpt>
      <trkpt lat="46.72925" lon="5.99324">
        <ele>694.8</ele>
        <time>2022-03-03T13:50:34Z</time>
      </trkpt>
      <trkpt lat="46.72929" lon="5.99324">
        <ele>694.2</ele>
        <time>2022-03-03T13:50:38Z</time>
      </trkpt>
      <trkpt lat="46.72934" lon="5.99326">
        <ele>693.6</ele>
        <time>2022-03-03T13:50:42Z</time>
      </trkpt>
      <trkpt lat="46.7294" lon="5.99328">
        <ele>693.3</ele>
        <time>2022-03-03T13:50:47Z</time>
      </trkpt>
      <trkpt lat="46.72945" lon="5.99329">
        <ele>693</ele>
        <time>2022-03-03T13:50:52Z</time>
      </trkpt>
      <trkpt lat="46.72949" lon="5.99332">
        <ele>692.7</ele>
        <time>2022-03-03T13:50:57Z</time>
      </trkpt>
      <trkpt lat="46.72954" lon="5.99335">
        <ele>692.6</ele>
        <time>2022-03-03T13:51:03Z</time>
      </trkpt>
      <trkpt lat="46.72959" lon="5.99337">
        <ele>692.4</ele>
        <time>2022-03-03T13:51:08Z</time>
      </trkpt>
      <trkpt lat="46.72964" lon="5.99337">
        <ele>692.1</ele>
        <time>2022-03-03T13:51:13Z</time>
      </trkpt>
      <trkpt lat="46.72969" lon="5.99338">
        <ele>691.2</ele>
        <time>2022-03-03T13:51:18Z</time>
      </trkpt>
      <trkpt lat="46.72973" lon="5.99342">
        <ele>690.4</ele>
        <time>2022-03-03T13:51:25Z</time>
      </trkpt>
      <trkpt lat="46.72978" lon="5.99346">
        <ele>689.9</ele>
        <time>2022-03-03T13:51:30Z</time>
      </trkpt>
      <trkpt lat="46.72982" lon="5.99348">
        <ele>689.4</ele>
        <time>2022-03-03T13:51:36Z</time>
      </trkpt>
      <trkpt lat="46.72986" lon="5.99351">
        <ele>689.5</ele>
        <time>2022-03-03T13:51:41Z</time>
      </trkpt>
      <trkpt lat="46.72991" lon="5.99354">
        <ele>689.6</ele>
        <time>2022-03-03T13:51:46Z</time>
      </trkpt>
      <trkpt lat="46.72996" lon="5.99356">
        <ele>690.2</ele>
        <time>2022-03-03T13:51:50Z</time>
      </trkpt>
      <trkpt lat="46.73001" lon="5.99358">
        <ele>691.1</ele>
        <time>2022-03-03T13:51:54Z</time>
      </trkpt>
      <trkpt lat="46.73005" lon="5.99362">
        <ele>692.4</ele>
        <time>2022-03-03T13:51:59Z</time>
      </trkpt>
      <trkpt lat="46.73009" lon="5.99367">
        <ele>693</ele>
        <time>2022-03-03T13:52:03Z</time>
      </trkpt>
      <trkpt lat="46.73013" lon="5.99373">
        <ele>693.7</ele>
        <time>2022-03-03T13:52:08Z</time>
      </trkpt>
      <trkpt lat="46.73017" lon="5.99376">
        <ele>694.1</ele>
        <time>2022-03-03T13:52:13Z</time>
      </trkpt>
      <trkpt lat="46.73022" lon="5.9938">
        <ele>694.1</ele>
        <time>2022-03-03T13:52:17Z</time>
      </trkpt>
      <trkpt lat="46.73025" lon="5.99385">
        <ele>694.6</ele>
        <time>2022-03-03T13:52:24Z</time>
      </trkpt>
      <trkpt lat="46.73025" lon="5.99393">
        <ele>694.9</ele>
        <time>2022-03-03T13:52:34Z</time>
      </trkpt>
      <trkpt lat="46.73023" lon="5.99399">
        <ele>694.7</ele>
        <time>2022-03-03T13:52:40Z</time>
      </trkpt>
      <trkpt lat="46.73023" lon="5.99406">
        <ele>694.4</ele>
        <time>2022-03-03T13:52:45Z</time>
      </trkpt>
      <trkpt lat="46.7302" lon="5.99412">
        <ele>693.5</ele>
        <time>2022-03-03T13:52:53Z</time>
      </trkpt>
      <trkpt lat="46.73015" lon="5.99414">
        <ele>691.9</ele>
        <time>2022-03-03T13:52:59Z</time>
      </trkpt>
      <trkpt lat="46.73012" lon="5.9942">
        <ele>690.4</ele>
        <time>2022-03-03T13:53:05Z</time>
      </trkpt>
      <trkpt lat="46.7301" lon="5.99426">
        <ele>688.3</ele>
        <time>2022-03-03T13:53:14Z</time>
      </trkpt>
      <trkpt lat="46.73011" lon="5.99434">
        <ele>686.6</ele>
        <time>2022-03-03T13:53:22Z</time>
      </trkpt>
      <trkpt lat="46.73013" lon="5.99442">
        <ele>685.8</ele>
        <time>2022-03-03T13:53:27Z</time>
      </trkpt>
      <trkpt lat="46.73017" lon="5.99446">
        <ele>684.9</ele>
        <time>2022-03-03T13:53:32Z</time>
      </trkpt>
      <trkpt lat="46.73022" lon="5.99445">
        <ele>684.1</ele>
        <time>2022-03-03T13:53:38Z</time>
      </trkpt>
      <trkpt lat="46.7302" lon="5.99439">
        <ele>683.5</ele>
        <time>2022-03-03T13:53:57Z</time>
      </trkpt>
      <trkpt lat="46.73015" lon="5.99437">
        <ele>683.8</ele>
        <time>2022-03-03T13:54:04Z</time>
      </trkpt>
      <trkpt lat="46.7302" lon="5.99435">
        <ele>684.5</ele>
        <time>2022-03-03T13:54:14Z</time>
      </trkpt>
      <trkpt lat="46.73025" lon="5.99436">
        <ele>684</ele>
        <time>2022-03-03T13:54:19Z</time>
      </trkpt>
      <trkpt lat="46.73028" lon="5.99441">
        <ele>684.1</ele>
        <time>2022-03-03T13:54:23Z</time>
      </trkpt>
      <trkpt lat="46.73032" lon="5.99446">
        <ele>684.6</ele>
        <time>2022-03-03T13:54:27Z</time>
      </trkpt>
      <trkpt lat="46.73037" lon="5.9945">
        <ele>685.4</ele>
        <time>2022-03-03T13:54:32Z</time>
      </trkpt>
      <trkpt lat="46.73042" lon="5.99454">
        <ele>686.1</ele>
        <time>2022-03-03T13:54:36Z</time>
      </trkpt>
      <trkpt lat="46.73046" lon="5.99457">
        <ele>687.1</ele>
        <time>2022-03-03T13:54:41Z</time>
      </trkpt>
      <trkpt lat="46.73052" lon="5.99459">
        <ele>687.9</ele>
        <time>2022-03-03T13:54:46Z</time>
      </trkpt>
      <trkpt lat="46.73056" lon="5.99461">
        <ele>687.9</ele>
        <time>2022-03-03T13:54:52Z</time>
      </trkpt>
      <trkpt lat="46.73061" lon="5.99463">
        <ele>687.7</ele>
        <time>2022-03-03T13:54:57Z</time>
      </trkpt>
      <trkpt lat="46.73066" lon="5.99464">
        <ele>687.5</ele>
        <time>2022-03-03T13:55:01Z</time>
      </trkpt>
      <trkpt lat="46.73071" lon="5.99465">
        <ele>686.3</ele>
        <time>2022-03-03T13:55:06Z</time>
      </trkpt>
      <trkpt lat="46.73076" lon="5.99466">
        <ele>685.3</ele>
        <time>2022-03-03T13:55:10Z</time>
      </trkpt>
      <trkpt lat="46.73081" lon="5.99466">
        <ele>684.7</ele>
        <time>2022-03-03T13:55:14Z</time>
      </trkpt>
      <trkpt lat="46.73086" lon="5.99467">
        <ele>684.5</ele>
        <time>2022-03-03T13:55:18Z</time>
      </trkpt>
      <trkpt lat="46.7309" lon="5.99469">
        <ele>685.1</ele>
        <time>2022-03-03T13:55:22Z</time>
      </trkpt>
      <trkpt lat="46.73095" lon="5.99469">
        <ele>685.7</ele>
        <time>2022-03-03T13:55:25Z</time>
      </trkpt>
      <trkpt lat="46.73101" lon="5.99469">
        <ele>686.2</ele>
        <time>2022-03-03T13:55:28Z</time>
      </trkpt>
      <trkpt lat="46.73105" lon="5.99469">
        <ele>686.7</ele>
        <time>2022-03-03T13:55:31Z</time>
      </trkpt>
      <trkpt lat="46.7311" lon="5.99469">
        <ele>687.3</ele>
        <time>2022-03-03T13:55:35Z</time>
      </trkpt>
      <trkpt lat="46.73116" lon="5.9947">
        <ele>687.7</ele>
        <time>2022-03-03T13:55:39Z</time>
      </trkpt>
      <trkpt lat="46.73121" lon="5.99471">
        <ele>687.8</ele>
        <time>2022-03-03T13:55:44Z</time>
      </trkpt>
      <trkpt lat="46.73126" lon="5.9947">
        <ele>688</ele>
        <time>2022-03-03T13:55:52Z</time>
      </trkpt>
      <trkpt lat="46.73131" lon="5.99469">
        <ele>688.3</ele>
        <time>2022-03-03T13:55:57Z</time>
      </trkpt>
      <trkpt lat="46.73136" lon="5.99469">
        <ele>688.4</ele>
        <time>2022-03-03T13:56:01Z</time>
      </trkpt>
      <trkpt lat="46.73141" lon="5.9947">
        <ele>688.5</ele>
        <time>2022-03-03T13:56:05Z</time>
      </trkpt>
      <trkpt lat="46.73146" lon="5.99471">
        <ele>688.7</ele>
        <time>2022-03-03T13:56:12Z</time>
      </trkpt>
      <trkpt lat="46.73152" lon="5.99472">
        <ele>688.6</ele>
        <time>2022-03-03T13:56:19Z</time>
      </trkpt>
      <trkpt lat="46.73156" lon="5.99472">
        <ele>688.3</ele>
        <time>2022-03-03T13:56:24Z</time>
      </trkpt>
      <trkpt lat="46.73161" lon="5.99474">
        <ele>687.2</ele>
        <time>2022-03-03T13:56:29Z</time>
      </trkpt>
      <trkpt lat="46.73166" lon="5.99476">
        <ele>685.5</ele>
        <time>2022-03-03T13:56:33Z</time>
      </trkpt>
      <trkpt lat="46.73171" lon="5.99478">
        <ele>682.6</ele>
        <time>2022-03-03T13:56:39Z</time>
      </trkpt>
      <trkpt lat="46.73175" lon="5.9948">
        <ele>681</ele>
        <time>2022-03-03T13:56:43Z</time>
      </trkpt>
      <trkpt lat="46.7318" lon="5.99482">
        <ele>679.6</ele>
        <time>2022-03-03T13:56:48Z</time>
      </trkpt>
      <trkpt lat="46.73185" lon="5.99483">
        <ele>678.9</ele>
        <time>2022-03-03T13:56:54Z</time>
      </trkpt>
      <trkpt lat="46.7319" lon="5.9948">
        <ele>678.8</ele>
        <time>2022-03-03T13:56:58Z</time>
      </trkpt>
      <trkpt lat="46.73195" lon="5.99477">
        <ele>678.8</ele>
        <time>2022-03-03T13:57:02Z</time>
      </trkpt>
      <trkpt lat="46.73199" lon="5.99476">
        <ele>678.7</ele>
        <time>2022-03-03T13:57:06Z</time>
      </trkpt>
      <trkpt lat="46.73205" lon="5.99474">
        <ele>678.6</ele>
        <time>2022-03-03T13:57:11Z</time>
      </trkpt>
      <trkpt lat="46.7321" lon="5.99473">
        <ele>678</ele>
        <time>2022-03-03T13:57:16Z</time>
      </trkpt>
      <trkpt lat="46.73215" lon="5.99471">
        <ele>677.2</ele>
        <time>2022-03-03T13:57:22Z</time>
      </trkpt>
      <trkpt lat="46.7322" lon="5.9947">
        <ele>676.6</ele>
        <time>2022-03-03T13:57:27Z</time>
      </trkpt>
      <trkpt lat="46.73225" lon="5.9947">
        <ele>675.7</ele>
        <time>2022-03-03T13:57:32Z</time>
      </trkpt>
      <trkpt lat="46.7323" lon="5.9947">
        <ele>674.1</ele>
        <time>2022-03-03T13:57:38Z</time>
      </trkpt>
      <trkpt lat="46.73235" lon="5.9947">
        <ele>672.2</ele>
        <time>2022-03-03T13:57:45Z</time>
      </trkpt>
      <trkpt lat="46.73239" lon="5.99474">
        <ele>670.5</ele>
        <time>2022-03-03T13:57:52Z</time>
      </trkpt>
      <trkpt lat="46.73244" lon="5.99471">
        <ele>669.7</ele>
        <time>2022-03-03T13:57:59Z</time>
      </trkpt>
      <trkpt lat="46.73244" lon="5.99463">
        <ele>668.6</ele>
        <time>2022-03-03T13:58:06Z</time>
      </trkpt>
      <trkpt lat="46.73241" lon="5.99459">
        <ele>667.8</ele>
        <time>2022-03-03T13:58:11Z</time>
      </trkpt>
      <trkpt lat="46.73237" lon="5.99455">
        <ele>666.8</ele>
        <time>2022-03-03T13:58:16Z</time>
      </trkpt>
      <trkpt lat="46.73233" lon="5.9945">
        <ele>666.4</ele>
        <time>2022-03-03T13:58:22Z</time>
      </trkpt>
      <trkpt lat="46.73229" lon="5.99445">
        <ele>666.3</ele>
        <time>2022-03-03T13:58:28Z</time>
      </trkpt>
      <trkpt lat="46.73225" lon="5.9944">
        <ele>665.9</ele>
        <time>2022-03-03T13:58:33Z</time>
      </trkpt>
      <trkpt lat="46.7322" lon="5.99436">
        <ele>665.3</ele>
        <time>2022-03-03T13:58:38Z</time>
      </trkpt>
      <trkpt lat="46.73217" lon="5.99432">
        <ele>665.1</ele>
        <time>2022-03-03T13:58:44Z</time>
      </trkpt>
      <trkpt lat="46.73212" lon="5.99429">
        <ele>664.6</ele>
        <time>2022-03-03T13:58:49Z</time>
      </trkpt>
      <trkpt lat="46.73208" lon="5.99425">
        <ele>664</ele>
        <time>2022-03-03T13:58:55Z</time>
      </trkpt>
      <trkpt lat="46.73205" lon="5.99419">
        <ele>663.5</ele>
        <time>2022-03-03T13:59:01Z</time>
      </trkpt>
      <trkpt lat="46.73201" lon="5.99414">
        <ele>663.6</ele>
        <time>2022-03-03T13:59:06Z</time>
      </trkpt>
      <trkpt lat="46.73197" lon="5.99411">
        <ele>663.7</ele>
        <time>2022-03-03T13:59:11Z</time>
      </trkpt>
      <trkpt lat="46.73192" lon="5.99408">
        <ele>663.6</ele>
        <time>2022-03-03T13:59:16Z</time>
      </trkpt>
      <trkpt lat="46.73187" lon="5.99405">
        <ele>663.6</ele>
        <time>2022-03-03T13:59:21Z</time>
      </trkpt>
      <trkpt lat="46.73183" lon="5.99401">
        <ele>663.7</ele>
        <time>2022-03-03T13:59:26Z</time>
      </trkpt>
      <trkpt lat="46.73179" lon="5.99396">
        <ele>663.7</ele>
        <time>2022-03-03T13:59:31Z</time>
      </trkpt>
      <trkpt lat="46.73174" lon="5.99393">
        <ele>663.9</ele>
        <time>2022-03-03T13:59:36Z</time>
      </trkpt>
      <trkpt lat="46.7317" lon="5.99389">
        <ele>664</ele>
        <time>2022-03-03T13:59:42Z</time>
      </trkpt>
      <trkpt lat="46.73166" lon="5.99385">
        <ele>664.1</ele>
        <time>2022-03-03T13:59:47Z</time>
      </trkpt>
      <trkpt lat="46.73162" lon="5.99379">
        <ele>664.5</ele>
        <time>2022-03-03T13:59:52Z</time>
      </trkpt>
      <trkpt lat="46.73159" lon="5.99374">
        <ele>664.4</ele>
        <time>2022-03-03T13:59:58Z</time>
      </trkpt>
      <trkpt lat="46.73154" lon="5.99371">
        <ele>664.2</ele>
        <time>2022-03-03T14:00:04Z</time>
      </trkpt>
      <trkpt lat="46.7315" lon="5.99369">
        <ele>663.9</ele>
        <time>2022-03-03T14:00:10Z</time>
      </trkpt>
      <trkpt lat="46.73144" lon="5.99369">
        <ele>663.3</ele>
        <time>2022-03-03T14:00:15Z</time>
      </trkpt>
      <trkpt lat="46.73139" lon="5.99366">
        <ele>662.8</ele>
        <time>2022-03-03T14:00:20Z</time>
      </trkpt>
      <trkpt lat="46.73135" lon="5.99362">
        <ele>662.3</ele>
        <time>2022-03-03T14:00:24Z</time>
      </trkpt>
      <trkpt lat="46.7313" lon="5.99358">
        <ele>662</ele>
        <time>2022-03-03T14:00:29Z</time>
      </trkpt>
      <trkpt lat="46.73126" lon="5.99352">
        <ele>662.1</ele>
        <time>2022-03-03T14:00:33Z</time>
      </trkpt>
      <trkpt lat="46.73123" lon="5.99347">
        <ele>662.7</ele>
        <time>2022-03-03T14:00:36Z</time>
      </trkpt>
      <trkpt lat="46.73122" lon="5.99341">
        <ele>663.4</ele>
        <time>2022-03-03T14:00:39Z</time>
      </trkpt>
      <trkpt lat="46.73119" lon="5.99335">
        <ele>664.5</ele>
        <time>2022-03-03T14:00:43Z</time>
      </trkpt>
      <trkpt lat="46.73116" lon="5.99328">
        <ele>666.3</ele>
        <time>2022-03-03T14:00:48Z</time>
      </trkpt>
      <trkpt lat="46.73115" lon="5.99321">
        <ele>667.8</ele>
        <time>2022-03-03T14:00:53Z</time>
      </trkpt>
      <trkpt lat="46.73114" lon="5.99314">
        <ele>668.5</ele>
        <time>2022-03-03T14:00:59Z</time>
      </trkpt>
      <trkpt lat="46.73111" lon="5.99308">
        <ele>667.6</ele>
        <time>2022-03-03T14:01:06Z</time>
      </trkpt>
      <trkpt lat="46.73108" lon="5.99303">
        <ele>666.3</ele>
        <time>2022-03-03T14:01:12Z</time>
      </trkpt>
      <trkpt lat="46.73104" lon="5.99299">
        <ele>665.8</ele>
        <time>2022-03-03T14:01:17Z</time>
      </trkpt>
      <trkpt lat="46.73101" lon="5.99293">
        <ele>665.7</ele>
        <time>2022-03-03T14:01:22Z</time>
      </trkpt>
      <trkpt lat="46.73098" lon="5.99287">
        <ele>665.7</ele>
        <time>2022-03-03T14:01:25Z</time>
      </trkpt>
      <trkpt lat="46.73094" lon="5.99282">
        <ele>665.6</ele>
        <time>2022-03-03T14:01:29Z</time>
      </trkpt>
      <trkpt lat="46.73091" lon="5.99276">
        <ele>665.1</ele>
        <time>2022-03-03T14:01:33Z</time>
      </trkpt>
      <trkpt lat="46.73087" lon="5.99273">
        <ele>664.4</ele>
        <time>2022-03-03T14:01:37Z</time>
      </trkpt>
      <trkpt lat="46.73083" lon="5.99268">
        <ele>663.5</ele>
        <time>2022-03-03T14:01:42Z</time>
      </trkpt>
      <trkpt lat="46.7308" lon="5.99263">
        <ele>662.2</ele>
        <time>2022-03-03T14:01:47Z</time>
      </trkpt>
      <trkpt lat="46.73076" lon="5.9926">
        <ele>660.8</ele>
        <time>2022-03-03T14:01:51Z</time>
      </trkpt>
      <trkpt lat="46.73072" lon="5.99257">
        <ele>659.8</ele>
        <time>2022-03-03T14:01:55Z</time>
      </trkpt>
      <trkpt lat="46.73068" lon="5.99253">
        <ele>659.1</ele>
        <time>2022-03-03T14:01:59Z</time>
      </trkpt>
      <trkpt lat="46.73064" lon="5.99247">
        <ele>658.2</ele>
        <time>2022-03-03T14:02:05Z</time>
      </trkpt>
      <trkpt lat="46.7306" lon="5.99244">
        <ele>657.7</ele>
        <time>2022-03-03T14:02:08Z</time>
      </trkpt>
      <trkpt lat="46.73054" lon="5.99241">
        <ele>657.3</ele>
        <time>2022-03-03T14:02:12Z</time>
      </trkpt>
      <trkpt lat="46.73049" lon="5.99238">
        <ele>656.9</ele>
        <time>2022-03-03T14:02:16Z</time>
      </trkpt>
      <trkpt lat="46.73045" lon="5.99237">
        <ele>656.6</ele>
        <time>2022-03-03T14:02:20Z</time>
      </trkpt>
      <trkpt lat="46.7304" lon="5.99234">
        <ele>656.2</ele>
        <time>2022-03-03T14:02:24Z</time>
      </trkpt>
      <trkpt lat="46.73035" lon="5.9923">
        <ele>655.9</ele>
        <time>2022-03-03T14:02:28Z</time>
      </trkpt>
      <trkpt lat="46.7303" lon="5.99228">
        <ele>655.8</ele>
        <time>2022-03-03T14:02:33Z</time>
      </trkpt>
      <trkpt lat="46.73026" lon="5.99222">
        <ele>655.9</ele>
        <time>2022-03-03T14:02:37Z</time>
      </trkpt>
      <trkpt lat="46.73024" lon="5.99215">
        <ele>655.7</ele>
        <time>2022-03-03T14:02:41Z</time>
      </trkpt>
      <trkpt lat="46.73022" lon="5.99209">
        <ele>655.5</ele>
        <time>2022-03-03T14:02:45Z</time>
      </trkpt>
      <trkpt lat="46.73019" lon="5.99202">
        <ele>655.6</ele>
        <time>2022-03-03T14:02:49Z</time>
      </trkpt>
      <trkpt lat="46.73015" lon="5.99198">
        <ele>655.3</ele>
        <time>2022-03-03T14:02:55Z</time>
      </trkpt>
      <trkpt lat="46.73013" lon="5.99192">
        <ele>655.1</ele>
        <time>2022-03-03T14:02:58Z</time>
      </trkpt>
      <trkpt lat="46.7301" lon="5.99185">
        <ele>655</ele>
        <time>2022-03-03T14:03:02Z</time>
      </trkpt>
      <trkpt lat="46.73008" lon="5.99178">
        <ele>655.2</ele>
        <time>2022-03-03T14:03:06Z</time>
      </trkpt>
      <trkpt lat="46.73006" lon="5.99172">
        <ele>654.6</ele>
        <time>2022-03-03T14:03:13Z</time>
      </trkpt>
      <trkpt lat="46.73003" lon="5.99166">
        <ele>654.4</ele>
        <time>2022-03-03T14:03:18Z</time>
      </trkpt>
      <trkpt lat="46.73" lon="5.99159">
        <ele>653.9</ele>
        <time>2022-03-03T14:03:23Z</time>
      </trkpt>
      <trkpt lat="46.72998" lon="5.99152">
        <ele>653.4</ele>
        <time>2022-03-03T14:03:28Z</time>
      </trkpt>
      <trkpt lat="46.72996" lon="5.99145">
        <ele>653.5</ele>
        <time>2022-03-03T14:03:32Z</time>
      </trkpt>
      <trkpt lat="46.72994" lon="5.99138">
        <ele>653.5</ele>
        <time>2022-03-03T14:03:36Z</time>
      </trkpt>
      <trkpt lat="46.72993" lon="5.99132">
        <ele>653.6</ele>
        <time>2022-03-03T14:03:40Z</time>
      </trkpt>
      <trkpt lat="46.72992" lon="5.99125">
        <ele>654</ele>
        <time>2022-03-03T14:03:44Z</time>
      </trkpt>
      <trkpt lat="46.7299" lon="5.99117">
        <ele>654.3</ele>
        <time>2022-03-03T14:03:48Z</time>
      </trkpt>
      <trkpt lat="46.72989" lon="5.99111">
        <ele>654.7</ele>
        <time>2022-03-03T14:03:52Z</time>
      </trkpt>
      <trkpt lat="46.72989" lon="5.99103">
        <ele>654.3</ele>
        <time>2022-03-03T14:03:58Z</time>
      </trkpt>
      <trkpt lat="46.72989" lon="5.99096">
        <ele>653.8</ele>
        <time>2022-03-03T14:04:02Z</time>
      </trkpt>
      <trkpt lat="46.72989" lon="5.99087">
        <ele>653.5</ele>
        <time>2022-03-03T14:04:06Z</time>
      </trkpt>
      <trkpt lat="46.7299" lon="5.99081">
        <ele>653.4</ele>
        <time>2022-03-03T14:04:09Z</time>
      </trkpt>
      <trkpt lat="46.72993" lon="5.99074">
        <ele>653.2</ele>
        <time>2022-03-03T14:04:13Z</time>
      </trkpt>
      <trkpt lat="46.72995" lon="5.99068">
        <ele>652.5</ele>
        <time>2022-03-03T14:04:18Z</time>
      </trkpt>
      <trkpt lat="46.72998" lon="5.99062">
        <ele>651.5</ele>
        <time>2022-03-03T14:04:25Z</time>
      </trkpt>
      <trkpt lat="46.73002" lon="5.99059">
        <ele>651.2</ele>
        <time>2022-03-03T14:04:30Z</time>
      </trkpt>
      <trkpt lat="46.73007" lon="5.99057">
        <ele>649.7</ele>
        <time>2022-03-03T14:04:35Z</time>
      </trkpt>
      <trkpt lat="46.73012" lon="5.99054">
        <ele>648.1</ele>
        <time>2022-03-03T14:04:39Z</time>
      </trkpt>
      <trkpt lat="46.73017" lon="5.99052">
        <ele>646.2</ele>
        <time>2022-03-03T14:04:44Z</time>
      </trkpt>
      <trkpt lat="46.73022" lon="5.9905">
        <ele>644.3</ele>
        <time>2022-03-03T14:04:49Z</time>
      </trkpt>
      <trkpt lat="46.73027" lon="5.99048">
        <ele>643.1</ele>
        <time>2022-03-03T14:04:53Z</time>
      </trkpt>
      <trkpt lat="46.73031" lon="5.99046">
        <ele>642.3</ele>
        <time>2022-03-03T14:04:57Z</time>
      </trkpt>
      <trkpt lat="46.73037" lon="5.99044">
        <ele>641.7</ele>
        <time>2022-03-03T14:05:02Z</time>
      </trkpt>
      <trkpt lat="46.73041" lon="5.99043">
        <ele>641.4</ele>
        <time>2022-03-03T14:05:07Z</time>
      </trkpt>
      <trkpt lat="46.73046" lon="5.99041">
        <ele>640.8</ele>
        <time>2022-03-03T14:05:12Z</time>
      </trkpt>
      <trkpt lat="46.73051" lon="5.99039">
        <ele>640.1</ele>
        <time>2022-03-03T14:05:18Z</time>
      </trkpt>
      <trkpt lat="46.73056" lon="5.99038">
        <ele>640.1</ele>
        <time>2022-03-03T14:05:22Z</time>
      </trkpt>
      <trkpt lat="46.73061" lon="5.99036">
        <ele>639.9</ele>
        <time>2022-03-03T14:05:27Z</time>
      </trkpt>
      <trkpt lat="46.73066" lon="5.99035">
        <ele>639.4</ele>
        <time>2022-03-03T14:05:32Z</time>
      </trkpt>
      <trkpt lat="46.73071" lon="5.99034">
        <ele>638.8</ele>
        <time>2022-03-03T14:05:37Z</time>
      </trkpt>
      <trkpt lat="46.73076" lon="5.99032">
        <ele>638.3</ele>
        <time>2022-03-03T14:05:41Z</time>
      </trkpt>
      <trkpt lat="46.73081" lon="5.99029">
        <ele>637.9</ele>
        <time>2022-03-03T14:05:45Z</time>
      </trkpt>
      <trkpt lat="46.73085" lon="5.99027">
        <ele>637.5</ele>
        <time>2022-03-03T14:05:49Z</time>
      </trkpt>
      <trkpt lat="46.7309" lon="5.99025">
        <ele>637.5</ele>
        <time>2022-03-03T14:05:54Z</time>
      </trkpt>
      <trkpt lat="46.73094" lon="5.99022">
        <ele>637.4</ele>
        <time>2022-03-03T14:05:58Z</time>
      </trkpt>
      <trkpt lat="46.73099" lon="5.99019">
        <ele>637</ele>
        <time>2022-03-03T14:06:02Z</time>
      </trkpt>
      <trkpt lat="46.73103" lon="5.99016">
        <ele>636.1</ele>
        <time>2022-03-03T14:06:06Z</time>
      </trkpt>
      <trkpt lat="46.73107" lon="5.99014">
        <ele>635.4</ele>
        <time>2022-03-03T14:06:10Z</time>
      </trkpt>
      <trkpt lat="46.73112" lon="5.99012">
        <ele>634.8</ele>
        <time>2022-03-03T14:06:14Z</time>
      </trkpt>
      <trkpt lat="46.73117" lon="5.99008">
        <ele>634</ele>
        <time>2022-03-03T14:06:19Z</time>
      </trkpt>
      <trkpt lat="46.73121" lon="5.99005">
        <ele>633.2</ele>
        <time>2022-03-03T14:06:23Z</time>
      </trkpt>
      <trkpt lat="46.73126" lon="5.99002">
        <ele>632.2</ele>
        <time>2022-03-03T14:06:28Z</time>
      </trkpt>
      <trkpt lat="46.7313" lon="5.98999">
        <ele>632</ele>
        <time>2022-03-03T14:06:33Z</time>
      </trkpt>
      <trkpt lat="46.73135" lon="5.98995">
        <ele>632.1</ele>
        <time>2022-03-03T14:06:38Z</time>
      </trkpt>
      <trkpt lat="46.7314" lon="5.98992">
        <ele>632.3</ele>
        <time>2022-03-03T14:06:42Z</time>
      </trkpt>
      <trkpt lat="46.73144" lon="5.98988">
        <ele>632.8</ele>
        <time>2022-03-03T14:06:47Z</time>
      </trkpt>
      <trkpt lat="46.73147" lon="5.98982">
        <ele>633</ele>
        <time>2022-03-03T14:06:53Z</time>
      </trkpt>
      <trkpt lat="46.7315" lon="5.98977">
        <ele>633.1</ele>
        <time>2022-03-03T14:06:58Z</time>
      </trkpt>
      <trkpt lat="46.73153" lon="5.98971">
        <ele>633.4</ele>
        <time>2022-03-03T14:07:02Z</time>
      </trkpt>
      <trkpt lat="46.73156" lon="5.98965">
        <ele>633.7</ele>
        <time>2022-03-03T14:07:06Z</time>
      </trkpt>
      <trkpt lat="46.7316" lon="5.9896">
        <ele>634.1</ele>
        <time>2022-03-03T14:07:11Z</time>
      </trkpt>
      <trkpt lat="46.73162" lon="5.98955">
        <ele>634.3</ele>
        <time>2022-03-03T14:07:15Z</time>
      </trkpt>
      <trkpt lat="46.73162" lon="5.98948">
        <ele>634.5</ele>
        <time>2022-03-03T14:07:20Z</time>
      </trkpt>
      <trkpt lat="46.73159" lon="5.98943">
        <ele>634.3</ele>
        <time>2022-03-03T14:07:26Z</time>
      </trkpt>
      <trkpt lat="46.73157" lon="5.98936">
        <ele>634.2</ele>
        <time>2022-03-03T14:07:32Z</time>
      </trkpt>
      <trkpt lat="46.73155" lon="5.98928">
        <ele>634.3</ele>
        <time>2022-03-03T14:07:36Z</time>
      </trkpt>
      <trkpt lat="46.73154" lon="5.9892">
        <ele>634.3</ele>
        <time>2022-03-03T14:07:40Z</time>
      </trkpt>
      <trkpt lat="46.73153" lon="5.98913">
        <ele>634.1</ele>
        <time>2022-03-03T14:07:44Z</time>
      </trkpt>
      <trkpt lat="46.73152" lon="5.98905">
        <ele>633.2</ele>
        <time>2022-03-03T14:07:49Z</time>
      </trkpt>
      <trkpt lat="46.73149" lon="5.98898">
        <ele>631.9</ele>
        <time>2022-03-03T14:07:54Z</time>
      </trkpt>
      <trkpt lat="46.73147" lon="5.98892">
        <ele>630.2</ele>
        <time>2022-03-03T14:08:00Z</time>
      </trkpt>
      <trkpt lat="46.73146" lon="5.98886">
        <ele>628.8</ele>
        <time>2022-03-03T14:08:05Z</time>
      </trkpt>
      <trkpt lat="46.73145" lon="5.98879">
        <ele>628</ele>
        <time>2022-03-03T14:08:09Z</time>
      </trkpt>
      <trkpt lat="46.73143" lon="5.98871">
        <ele>626.8</ele>
        <time>2022-03-03T14:08:14Z</time>
      </trkpt>
      <trkpt lat="46.73143" lon="5.98864">
        <ele>625.9</ele>
        <time>2022-03-03T14:08:19Z</time>
      </trkpt>
      <trkpt lat="46.73144" lon="5.98856">
        <ele>625.4</ele>
        <time>2022-03-03T14:08:23Z</time>
      </trkpt>
      <trkpt lat="46.73144" lon="5.98849">
        <ele>625.3</ele>
        <time>2022-03-03T14:08:27Z</time>
      </trkpt>
      <trkpt lat="46.73145" lon="5.98842">
        <ele>625.2</ele>
        <time>2022-03-03T14:08:31Z</time>
      </trkpt>
      <trkpt lat="46.73147" lon="5.98834">
        <ele>625.2</ele>
        <time>2022-03-03T14:08:35Z</time>
      </trkpt>
      <trkpt lat="46.73148" lon="5.98826">
        <ele>625.4</ele>
        <time>2022-03-03T14:08:39Z</time>
      </trkpt>
      <trkpt lat="46.73149" lon="5.9882">
        <ele>625.3</ele>
        <time>2022-03-03T14:08:43Z</time>
      </trkpt>
      <trkpt lat="46.73149" lon="5.98813">
        <ele>625.2</ele>
        <time>2022-03-03T14:08:47Z</time>
      </trkpt>
      <trkpt lat="46.73149" lon="5.98806">
        <ele>625.1</ele>
        <time>2022-03-03T14:08:52Z</time>
      </trkpt>
      <trkpt lat="46.73151" lon="5.988">
        <ele>625</ele>
        <time>2022-03-03T14:08:57Z</time>
      </trkpt>
      <trkpt lat="46.73153" lon="5.98792">
        <ele>625.3</ele>
        <time>2022-03-03T14:09:03Z</time>
      </trkpt>
      <trkpt lat="46.73154" lon="5.98786">
        <ele>625.5</ele>
        <time>2022-03-03T14:09:09Z</time>
      </trkpt>
      <trkpt lat="46.73157" lon="5.98779">
        <ele>625.9</ele>
        <time>2022-03-03T14:09:15Z</time>
      </trkpt>
      <trkpt lat="46.73159" lon="5.98773">
        <ele>626.2</ele>
        <time>2022-03-03T14:09:19Z</time>
      </trkpt>
      <trkpt lat="46.73161" lon="5.98767">
        <ele>626.4</ele>
        <time>2022-03-03T14:09:23Z</time>
      </trkpt>
      <trkpt lat="46.73162" lon="5.9876">
        <ele>626.2</ele>
        <time>2022-03-03T14:09:27Z</time>
      </trkpt>
      <trkpt lat="46.73163" lon="5.98752">
        <ele>625.8</ele>
        <time>2022-03-03T14:09:32Z</time>
      </trkpt>
      <trkpt lat="46.73163" lon="5.98744">
        <ele>625.7</ele>
        <time>2022-03-03T14:09:36Z</time>
      </trkpt>
      <trkpt lat="46.73164" lon="5.98737">
        <ele>625.7</ele>
        <time>2022-03-03T14:09:40Z</time>
      </trkpt>
      <trkpt lat="46.73165" lon="5.9873">
        <ele>625.2</ele>
        <time>2022-03-03T14:09:46Z</time>
      </trkpt>
      <trkpt lat="46.73167" lon="5.98723">
        <ele>624.6</ele>
        <time>2022-03-03T14:09:52Z</time>
      </trkpt>
      <trkpt lat="46.73171" lon="5.98717">
        <ele>624.7</ele>
        <time>2022-03-03T14:09:57Z</time>
      </trkpt>
      <trkpt lat="46.73172" lon="5.98711">
        <ele>624.6</ele>
        <time>2022-03-03T14:10:01Z</time>
      </trkpt>
      <trkpt lat="46.73173" lon="5.98704">
        <ele>624.5</ele>
        <time>2022-03-03T14:10:05Z</time>
      </trkpt>
      <trkpt lat="46.73176" lon="5.98698">
        <ele>624.4</ele>
        <time>2022-03-03T14:10:09Z</time>
      </trkpt>
      <trkpt lat="46.73177" lon="5.98692">
        <ele>624.3</ele>
        <time>2022-03-03T14:10:14Z</time>
      </trkpt>
      <trkpt lat="46.73177" lon="5.98684">
        <ele>624.8</ele>
        <time>2022-03-03T14:10:21Z</time>
      </trkpt>
      <trkpt lat="46.73176" lon="5.98677">
        <ele>625.5</ele>
        <time>2022-03-03T14:10:25Z</time>
      </trkpt>
      <trkpt lat="46.73177" lon="5.98669">
        <ele>626.3</ele>
        <time>2022-03-03T14:10:30Z</time>
      </trkpt>
      <trkpt lat="46.7318" lon="5.98662">
        <ele>626.9</ele>
        <time>2022-03-03T14:10:36Z</time>
      </trkpt>
      <trkpt lat="46.7318" lon="5.98655">
        <ele>627.4</ele>
        <time>2022-03-03T14:10:40Z</time>
      </trkpt>
      <trkpt lat="46.73182" lon="5.98649">
        <ele>627.9</ele>
        <time>2022-03-03T14:10:44Z</time>
      </trkpt>
      <trkpt lat="46.73182" lon="5.98641">
        <ele>628.3</ele>
        <time>2022-03-03T14:10:50Z</time>
      </trkpt>
      <trkpt lat="46.73185" lon="5.98634">
        <ele>628.8</ele>
        <time>2022-03-03T14:10:55Z</time>
      </trkpt>
      <trkpt lat="46.73188" lon="5.9863">
        <ele>629.3</ele>
        <time>2022-03-03T14:11:01Z</time>
      </trkpt>
      <trkpt lat="46.73194" lon="5.98631">
        <ele>629.2</ele>
        <time>2022-03-03T14:11:05Z</time>
      </trkpt>
      <trkpt lat="46.73199" lon="5.98634">
        <ele>629.3</ele>
        <time>2022-03-03T14:11:08Z</time>
      </trkpt>
      <trkpt lat="46.73205" lon="5.98637">
        <ele>629.2</ele>
        <time>2022-03-03T14:11:11Z</time>
      </trkpt>
      <trkpt lat="46.7321" lon="5.98639">
        <ele>628.8</ele>
        <time>2022-03-03T14:11:14Z</time>
      </trkpt>
      <trkpt lat="46.73215" lon="5.98638">
        <ele>627.6</ele>
        <time>2022-03-03T14:11:19Z</time>
      </trkpt>
    </trkseg>
  </trk>
</gpx>